<?xml version="1.0" encoding="UTF-8" standalone="no" ?>
<gpx xmlns="http://www.topografix.com/GPX/1/1" xmlns:xsi="http://www.w3.org/2001/XMLSchema-instance" xsi:schemaLocation="http://www.topografix.com/GPX/1/1 http://www.topografix.com/GPX/1/1/gpx.xsd" version="1.1" creator="VisuGPX - https://www.visugpx.com">
  <metadata>
    <name>2017-03-29 - Guérande, Batz-sur-Mer, Le Croisic, Le Pouliguen, La Baule</name>
    <desc><![CDATA[2017-03-29 - Guérande, Batz-sur-Mer, Le Croisic, Le Pouliguen, La Baule - Denis Vouin]]></desc>
  </metadata>
  <trk>
    <name><![CDATA[MARS-29-17 18:03:48]]></name>
    <trkseg>
      <trkpt lat="47.33125" lon="-2.42638">
        <ele>79.93</ele>
        <time>2017-03-29T06:23:58Z</time>
      </trkpt>
      <trkpt lat="47.33132" lon="-2.42656">
        <ele>78.97</ele>
        <time>2017-03-29T06:24:47Z</time>
      </trkpt>
      <trkpt lat="47.33131" lon="-2.42673">
        <ele>78.48</ele>
        <time>2017-03-29T06:24:58Z</time>
      </trkpt>
      <trkpt lat="47.33131" lon="-2.42687">
        <ele>78.48</ele>
        <time>2017-03-29T06:25:06Z</time>
      </trkpt>
      <trkpt lat="47.33137" lon="-2.427">
        <ele>77.52</ele>
        <time>2017-03-29T06:25:14Z</time>
      </trkpt>
      <trkpt lat="47.33143" lon="-2.42714">
        <ele>78.48</ele>
        <time>2017-03-29T06:25:21Z</time>
      </trkpt>
      <trkpt lat="47.33145" lon="-2.42733">
        <ele>78.97</ele>
        <time>2017-03-29T06:25:29Z</time>
      </trkpt>
      <trkpt lat="47.33145" lon="-2.42749">
        <ele>78.97</ele>
        <time>2017-03-29T06:25:37Z</time>
      </trkpt>
      <trkpt lat="47.33144" lon="-2.42763">
        <ele>78.97</ele>
        <time>2017-03-29T06:25:45Z</time>
      </trkpt>
      <trkpt lat="47.33142" lon="-2.42779">
        <ele>78</ele>
        <time>2017-03-29T06:25:55Z</time>
      </trkpt>
      <trkpt lat="47.3314" lon="-2.42797">
        <ele>78.97</ele>
        <time>2017-03-29T06:26:03Z</time>
      </trkpt>
      <trkpt lat="47.33145" lon="-2.42817">
        <ele>80.41</ele>
        <time>2017-03-29T06:26:10Z</time>
      </trkpt>
      <trkpt lat="47.33139" lon="-2.42829">
        <ele>78.97</ele>
        <time>2017-03-29T06:26:17Z</time>
      </trkpt>
      <trkpt lat="47.33139" lon="-2.42842">
        <ele>76.08</ele>
        <time>2017-03-29T06:26:24Z</time>
      </trkpt>
      <trkpt lat="47.33137" lon="-2.42846">
        <ele>76.08</ele>
        <time>2017-03-29T06:26:43Z</time>
      </trkpt>
      <trkpt lat="47.3313" lon="-2.42839">
        <ele>76.08</ele>
        <time>2017-03-29T06:26:50Z</time>
      </trkpt>
      <trkpt lat="47.33121" lon="-2.42829">
        <ele>78.48</ele>
        <time>2017-03-29T06:26:57Z</time>
      </trkpt>
      <trkpt lat="47.33114" lon="-2.42836">
        <ele>76.56</ele>
        <time>2017-03-29T06:27:09Z</time>
      </trkpt>
      <trkpt lat="47.33105" lon="-2.42847">
        <ele>78.97</ele>
        <time>2017-03-29T06:27:17Z</time>
      </trkpt>
      <trkpt lat="47.33097" lon="-2.42861">
        <ele>80.41</ele>
        <time>2017-03-29T06:27:24Z</time>
      </trkpt>
      <trkpt lat="47.33086" lon="-2.42872">
        <ele>78</ele>
        <time>2017-03-29T06:27:31Z</time>
      </trkpt>
      <trkpt lat="47.33079" lon="-2.42881">
        <ele>78.97</ele>
        <time>2017-03-29T06:27:39Z</time>
      </trkpt>
      <trkpt lat="47.33071" lon="-2.42892">
        <ele>79.93</ele>
        <time>2017-03-29T06:27:47Z</time>
      </trkpt>
      <trkpt lat="47.33062" lon="-2.42904">
        <ele>78</ele>
        <time>2017-03-29T06:27:54Z</time>
      </trkpt>
      <trkpt lat="47.33051" lon="-2.42912">
        <ele>78.97</ele>
        <time>2017-03-29T06:28:04Z</time>
      </trkpt>
      <trkpt lat="47.3304" lon="-2.42915">
        <ele>78.48</ele>
        <time>2017-03-29T06:28:10Z</time>
      </trkpt>
      <trkpt lat="47.3303" lon="-2.42921">
        <ele>75.12</ele>
        <time>2017-03-29T06:28:17Z</time>
      </trkpt>
      <trkpt lat="47.33019" lon="-2.42925">
        <ele>76.56</ele>
        <time>2017-03-29T06:28:26Z</time>
      </trkpt>
      <trkpt lat="47.33007" lon="-2.42926">
        <ele>77.52</ele>
        <time>2017-03-29T06:28:34Z</time>
      </trkpt>
      <trkpt lat="47.32997" lon="-2.42928">
        <ele>78.48</ele>
        <time>2017-03-29T06:28:41Z</time>
      </trkpt>
      <trkpt lat="47.32988" lon="-2.42931">
        <ele>77.04</ele>
        <time>2017-03-29T06:28:50Z</time>
      </trkpt>
      <trkpt lat="47.32987" lon="-2.4294">
        <ele>77.04</ele>
        <time>2017-03-29T06:29:06Z</time>
      </trkpt>
      <trkpt lat="47.3299" lon="-2.42955">
        <ele>78.48</ele>
        <time>2017-03-29T06:29:14Z</time>
      </trkpt>
      <trkpt lat="47.32986" lon="-2.42967">
        <ele>77.04</ele>
        <time>2017-03-29T06:29:23Z</time>
      </trkpt>
      <trkpt lat="47.32975" lon="-2.42974">
        <ele>78.97</ele>
        <time>2017-03-29T06:29:31Z</time>
      </trkpt>
      <trkpt lat="47.32968" lon="-2.42984">
        <ele>79.45</ele>
        <time>2017-03-29T06:29:38Z</time>
      </trkpt>
      <trkpt lat="47.32963" lon="-2.42995">
        <ele>79.45</ele>
        <time>2017-03-29T06:29:45Z</time>
      </trkpt>
      <trkpt lat="47.32964" lon="-2.4301">
        <ele>76.56</ele>
        <time>2017-03-29T06:29:53Z</time>
      </trkpt>
      <trkpt lat="47.32967" lon="-2.43024">
        <ele>77.04</ele>
        <time>2017-03-29T06:30:03Z</time>
      </trkpt>
      <trkpt lat="47.32967" lon="-2.43033">
        <ele>76.08</ele>
        <time>2017-03-29T06:30:14Z</time>
      </trkpt>
      <trkpt lat="47.32966" lon="-2.43045">
        <ele>76.56</ele>
        <time>2017-03-29T06:30:34Z</time>
      </trkpt>
      <trkpt lat="47.32967" lon="-2.43063">
        <ele>74.64</ele>
        <time>2017-03-29T06:30:43Z</time>
      </trkpt>
      <trkpt lat="47.32966" lon="-2.43081">
        <ele>74.64</ele>
        <time>2017-03-29T06:30:50Z</time>
      </trkpt>
      <trkpt lat="47.32967" lon="-2.43097">
        <ele>73.68</ele>
        <time>2017-03-29T06:30:57Z</time>
      </trkpt>
      <trkpt lat="47.32961" lon="-2.43111">
        <ele>75.12</ele>
        <time>2017-03-29T06:31:08Z</time>
      </trkpt>
      <trkpt lat="47.32953" lon="-2.43127">
        <ele>74.64</ele>
        <time>2017-03-29T06:31:16Z</time>
      </trkpt>
      <trkpt lat="47.32947" lon="-2.4314">
        <ele>73.2</ele>
        <time>2017-03-29T06:31:25Z</time>
      </trkpt>
      <trkpt lat="47.32937" lon="-2.43149">
        <ele>72.72</ele>
        <time>2017-03-29T06:31:33Z</time>
      </trkpt>
      <trkpt lat="47.32929" lon="-2.43161">
        <ele>72.24</ele>
        <time>2017-03-29T06:31:40Z</time>
      </trkpt>
      <trkpt lat="47.32919" lon="-2.43169">
        <ele>73.68</ele>
        <time>2017-03-29T06:31:47Z</time>
      </trkpt>
      <trkpt lat="47.32909" lon="-2.43176">
        <ele>74.16</ele>
        <time>2017-03-29T06:31:53Z</time>
      </trkpt>
      <trkpt lat="47.32898" lon="-2.43183">
        <ele>72.24</ele>
        <time>2017-03-29T06:32:01Z</time>
      </trkpt>
      <trkpt lat="47.32886" lon="-2.43191">
        <ele>72.24</ele>
        <time>2017-03-29T06:32:09Z</time>
      </trkpt>
      <trkpt lat="47.32875" lon="-2.43199">
        <ele>73.68</ele>
        <time>2017-03-29T06:32:18Z</time>
      </trkpt>
      <trkpt lat="47.32867" lon="-2.43208">
        <ele>70.79</ele>
        <time>2017-03-29T06:32:25Z</time>
      </trkpt>
      <trkpt lat="47.3286" lon="-2.43218">
        <ele>73.68</ele>
        <time>2017-03-29T06:32:33Z</time>
      </trkpt>
      <trkpt lat="47.32853" lon="-2.43227">
        <ele>70.79</ele>
        <time>2017-03-29T06:32:41Z</time>
      </trkpt>
      <trkpt lat="47.32844" lon="-2.43235">
        <ele>70.79</ele>
        <time>2017-03-29T06:32:48Z</time>
      </trkpt>
      <trkpt lat="47.32836" lon="-2.43236">
        <ele>72.72</ele>
        <time>2017-03-29T06:32:55Z</time>
      </trkpt>
      <trkpt lat="47.32829" lon="-2.43233">
        <ele>72.72</ele>
        <time>2017-03-29T06:33:01Z</time>
      </trkpt>
      <trkpt lat="47.32818" lon="-2.43241">
        <ele>69.83</ele>
        <time>2017-03-29T06:33:08Z</time>
      </trkpt>
      <trkpt lat="47.32807" lon="-2.43247">
        <ele>69.83</ele>
        <time>2017-03-29T06:33:15Z</time>
      </trkpt>
      <trkpt lat="47.32795" lon="-2.43258">
        <ele>70.79</ele>
        <time>2017-03-29T06:33:24Z</time>
      </trkpt>
      <trkpt lat="47.32798" lon="-2.43264">
        <ele>72.24</ele>
        <time>2017-03-29T06:33:52Z</time>
      </trkpt>
      <trkpt lat="47.32787" lon="-2.43265">
        <ele>71.76</ele>
        <time>2017-03-29T06:33:59Z</time>
      </trkpt>
      <trkpt lat="47.32776" lon="-2.43266">
        <ele>69.35</ele>
        <time>2017-03-29T06:34:06Z</time>
      </trkpt>
      <trkpt lat="47.32765" lon="-2.43268">
        <ele>71.27</ele>
        <time>2017-03-29T06:34:13Z</time>
      </trkpt>
      <trkpt lat="47.32754" lon="-2.4327">
        <ele>69.83</ele>
        <time>2017-03-29T06:34:20Z</time>
      </trkpt>
      <trkpt lat="47.32745" lon="-2.43269">
        <ele>68.87</ele>
        <time>2017-03-29T06:34:28Z</time>
      </trkpt>
      <trkpt lat="47.32734" lon="-2.43267">
        <ele>68.39</ele>
        <time>2017-03-29T06:34:36Z</time>
      </trkpt>
      <trkpt lat="47.32724" lon="-2.43271">
        <ele>67.91</ele>
        <time>2017-03-29T06:34:42Z</time>
      </trkpt>
      <trkpt lat="47.32714" lon="-2.4327">
        <ele>69.83</ele>
        <time>2017-03-29T06:34:49Z</time>
      </trkpt>
      <trkpt lat="47.32712" lon="-2.43255">
        <ele>69.35</ele>
        <time>2017-03-29T06:34:57Z</time>
      </trkpt>
      <trkpt lat="47.32707" lon="-2.43243">
        <ele>70.79</ele>
        <time>2017-03-29T06:35:06Z</time>
      </trkpt>
      <trkpt lat="47.3271" lon="-2.43233">
        <ele>71.76</ele>
        <time>2017-03-29T06:35:29Z</time>
      </trkpt>
      <trkpt lat="47.3271" lon="-2.43216">
        <ele>70.31</ele>
        <time>2017-03-29T06:35:37Z</time>
      </trkpt>
      <trkpt lat="47.32713" lon="-2.43199">
        <ele>72.24</ele>
        <time>2017-03-29T06:35:45Z</time>
      </trkpt>
      <trkpt lat="47.32717" lon="-2.43185">
        <ele>71.27</ele>
        <time>2017-03-29T06:36:01Z</time>
      </trkpt>
      <trkpt lat="47.3272" lon="-2.43167">
        <ele>72.24</ele>
        <time>2017-03-29T06:36:10Z</time>
      </trkpt>
      <trkpt lat="47.3272" lon="-2.43148">
        <ele>72.24</ele>
        <time>2017-03-29T06:36:18Z</time>
      </trkpt>
      <trkpt lat="47.32722" lon="-2.43133">
        <ele>73.68</ele>
        <time>2017-03-29T06:36:25Z</time>
      </trkpt>
      <trkpt lat="47.32725" lon="-2.43117">
        <ele>74.64</ele>
        <time>2017-03-29T06:36:32Z</time>
      </trkpt>
      <trkpt lat="47.32727" lon="-2.43102">
        <ele>74.64</ele>
        <time>2017-03-29T06:36:40Z</time>
      </trkpt>
      <trkpt lat="47.32729" lon="-2.43086">
        <ele>74.16</ele>
        <time>2017-03-29T06:36:47Z</time>
      </trkpt>
      <trkpt lat="47.32731" lon="-2.43066">
        <ele>74.16</ele>
        <time>2017-03-29T06:36:55Z</time>
      </trkpt>
      <trkpt lat="47.32735" lon="-2.4305">
        <ele>74.64</ele>
        <time>2017-03-29T06:37:03Z</time>
      </trkpt>
      <trkpt lat="47.32739" lon="-2.43037">
        <ele>74.64</ele>
        <time>2017-03-29T06:37:10Z</time>
      </trkpt>
      <trkpt lat="47.32735" lon="-2.4303">
        <ele>73.68</ele>
        <time>2017-03-29T06:37:36Z</time>
      </trkpt>
      <trkpt lat="47.32743" lon="-2.43028">
        <ele>76.08</ele>
        <time>2017-03-29T06:37:44Z</time>
      </trkpt>
      <trkpt lat="47.32753" lon="-2.43012">
        <ele>75.12</ele>
        <time>2017-03-29T06:37:52Z</time>
      </trkpt>
      <trkpt lat="47.32759" lon="-2.42993">
        <ele>74.64</ele>
        <time>2017-03-29T06:38:00Z</time>
      </trkpt>
      <trkpt lat="47.32765" lon="-2.42982">
        <ele>73.68</ele>
        <time>2017-03-29T06:38:07Z</time>
      </trkpt>
      <trkpt lat="47.32771" lon="-2.42971">
        <ele>73.68</ele>
        <time>2017-03-29T06:38:15Z</time>
      </trkpt>
      <trkpt lat="47.32775" lon="-2.42959">
        <ele>73.68</ele>
        <time>2017-03-29T06:38:23Z</time>
      </trkpt>
      <trkpt lat="47.32785" lon="-2.42952">
        <ele>75.6</ele>
        <time>2017-03-29T06:38:35Z</time>
      </trkpt>
      <trkpt lat="47.32792" lon="-2.42952">
        <ele>74.64</ele>
        <time>2017-03-29T06:38:41Z</time>
      </trkpt>
      <trkpt lat="47.32801" lon="-2.42953">
        <ele>75.12</ele>
        <time>2017-03-29T06:38:48Z</time>
      </trkpt>
      <trkpt lat="47.32811" lon="-2.42956">
        <ele>76.56</ele>
        <time>2017-03-29T06:38:58Z</time>
      </trkpt>
      <trkpt lat="47.32821" lon="-2.42951">
        <ele>76.08</ele>
        <time>2017-03-29T06:39:05Z</time>
      </trkpt>
      <trkpt lat="47.32831" lon="-2.42949">
        <ele>72.72</ele>
        <time>2017-03-29T06:39:12Z</time>
      </trkpt>
      <trkpt lat="47.32837" lon="-2.42951">
        <ele>73.2</ele>
        <time>2017-03-29T06:39:33Z</time>
      </trkpt>
      <trkpt lat="47.32837" lon="-2.42953">
        <ele>73.2</ele>
        <time>2017-03-29T06:40:17Z</time>
      </trkpt>
      <trkpt lat="47.32832" lon="-2.42962">
        <ele>72.72</ele>
        <time>2017-03-29T06:40:38Z</time>
      </trkpt>
      <trkpt lat="47.32822" lon="-2.42958">
        <ele>70.31</ele>
        <time>2017-03-29T06:40:53Z</time>
      </trkpt>
      <trkpt lat="47.32811" lon="-2.42962">
        <ele>73.68</ele>
        <time>2017-03-29T06:41:03Z</time>
      </trkpt>
      <trkpt lat="47.328" lon="-2.42954">
        <ele>73.68</ele>
        <time>2017-03-29T06:41:14Z</time>
      </trkpt>
      <trkpt lat="47.32801" lon="-2.4295">
        <ele>72.72</ele>
        <time>2017-03-29T06:41:58Z</time>
      </trkpt>
      <trkpt lat="47.32801" lon="-2.4295">
        <ele>73.2</ele>
        <time>2017-03-29T06:41:59Z</time>
      </trkpt>
      <trkpt lat="47.32777" lon="-2.42956">
        <ele>72.24</ele>
        <time>2017-03-29T06:42:21Z</time>
      </trkpt>
      <trkpt lat="47.3279" lon="-2.42956">
        <ele>72.24</ele>
        <time>2017-03-29T06:42:24Z</time>
      </trkpt>
      <trkpt lat="47.32801" lon="-2.42953">
        <ele>72.24</ele>
        <time>2017-03-29T06:42:27Z</time>
      </trkpt>
      <trkpt lat="47.32811" lon="-2.42952">
        <ele>72.24</ele>
        <time>2017-03-29T06:42:30Z</time>
      </trkpt>
      <trkpt lat="47.32821" lon="-2.42953">
        <ele>72.24</ele>
        <time>2017-03-29T06:42:33Z</time>
      </trkpt>
      <trkpt lat="47.32829" lon="-2.42956">
        <ele>72.24</ele>
        <time>2017-03-29T06:42:36Z</time>
      </trkpt>
      <trkpt lat="47.32839" lon="-2.42957">
        <ele>72.24</ele>
        <time>2017-03-29T06:42:40Z</time>
      </trkpt>
      <trkpt lat="47.32848" lon="-2.42958">
        <ele>72.24</ele>
        <time>2017-03-29T06:42:45Z</time>
      </trkpt>
      <trkpt lat="47.32854" lon="-2.42957">
        <ele>72.72</ele>
        <time>2017-03-29T06:42:51Z</time>
      </trkpt>
      <trkpt lat="47.32842" lon="-2.42959">
        <ele>72.24</ele>
        <time>2017-03-29T06:43:12Z</time>
      </trkpt>
      <trkpt lat="47.32833" lon="-2.42964">
        <ele>72.72</ele>
        <time>2017-03-29T06:43:29Z</time>
      </trkpt>
      <trkpt lat="47.32813" lon="-2.42972">
        <ele>72.24</ele>
        <time>2017-03-29T06:44:00Z</time>
      </trkpt>
      <trkpt lat="47.32803" lon="-2.42969">
        <ele>72.24</ele>
        <time>2017-03-29T06:44:11Z</time>
      </trkpt>
      <trkpt lat="47.32804" lon="-2.42962">
        <ele>71.76</ele>
        <time>2017-03-29T06:44:25Z</time>
      </trkpt>
      <trkpt lat="47.32814" lon="-2.42957">
        <ele>71.76</ele>
        <time>2017-03-29T06:44:38Z</time>
      </trkpt>
      <trkpt lat="47.32807" lon="-2.42961">
        <ele>71.76</ele>
        <time>2017-03-29T06:45:20Z</time>
      </trkpt>
      <trkpt lat="47.32807" lon="-2.42964">
        <ele>72.24</ele>
        <time>2017-03-29T06:46:09Z</time>
      </trkpt>
      <trkpt lat="47.32812" lon="-2.42958">
        <ele>72.24</ele>
        <time>2017-03-29T06:47:03Z</time>
      </trkpt>
      <trkpt lat="47.32809" lon="-2.4296">
        <ele>71.76</ele>
        <time>2017-03-29T06:48:29Z</time>
      </trkpt>
      <trkpt lat="47.32799" lon="-2.42957">
        <ele>72.24</ele>
        <time>2017-03-29T06:48:38Z</time>
      </trkpt>
      <trkpt lat="47.32793" lon="-2.42957">
        <ele>72.24</ele>
        <time>2017-03-29T06:49:08Z</time>
      </trkpt>
      <trkpt lat="47.32802" lon="-2.42965">
        <ele>72.24</ele>
        <time>2017-03-29T06:49:36Z</time>
      </trkpt>
      <trkpt lat="47.32795" lon="-2.42963">
        <ele>71.76</ele>
        <time>2017-03-29T06:49:55Z</time>
      </trkpt>
      <trkpt lat="47.32794" lon="-2.42961">
        <ele>71.76</ele>
        <time>2017-03-29T06:50:18Z</time>
      </trkpt>
      <trkpt lat="47.32788" lon="-2.42962">
        <ele>72.72</ele>
        <time>2017-03-29T06:50:28Z</time>
      </trkpt>
      <trkpt lat="47.32779" lon="-2.42964">
        <ele>72.24</ele>
        <time>2017-03-29T06:50:36Z</time>
      </trkpt>
      <trkpt lat="47.3283" lon="-2.42973">
        <ele>72.24</ele>
        <time>2017-03-29T06:50:54Z</time>
      </trkpt>
      <trkpt lat="47.32825" lon="-2.42969">
        <ele>72.24</ele>
        <time>2017-03-29T06:51:21Z</time>
      </trkpt>
      <trkpt lat="47.32826" lon="-2.42955">
        <ele>72.24</ele>
        <time>2017-03-29T06:51:35Z</time>
      </trkpt>
      <trkpt lat="47.32831" lon="-2.42952">
        <ele>72.24</ele>
        <time>2017-03-29T06:51:56Z</time>
      </trkpt>
      <trkpt lat="47.3282" lon="-2.42959">
        <ele>72.24</ele>
        <time>2017-03-29T06:52:08Z</time>
      </trkpt>
      <trkpt lat="47.32808" lon="-2.4296">
        <ele>72.24</ele>
        <time>2017-03-29T06:52:20Z</time>
      </trkpt>
      <trkpt lat="47.32802" lon="-2.4295">
        <ele>72.24</ele>
        <time>2017-03-29T06:52:32Z</time>
      </trkpt>
      <trkpt lat="47.3281" lon="-2.42953">
        <ele>72.24</ele>
        <time>2017-03-29T06:52:48Z</time>
      </trkpt>
      <trkpt lat="47.32813" lon="-2.42963">
        <ele>72.72</ele>
        <time>2017-03-29T06:53:39Z</time>
      </trkpt>
      <trkpt lat="47.32818" lon="-2.42962">
        <ele>72.72</ele>
        <time>2017-03-29T06:54:24Z</time>
      </trkpt>
      <trkpt lat="47.32828" lon="-2.42965">
        <ele>72.24</ele>
        <time>2017-03-29T06:57:01Z</time>
      </trkpt>
      <trkpt lat="47.32827" lon="-2.42976">
        <ele>72.24</ele>
        <time>2017-03-29T06:58:39Z</time>
      </trkpt>
      <trkpt lat="47.3283" lon="-2.42968">
        <ele>73.2</ele>
        <time>2017-03-29T06:59:09Z</time>
      </trkpt>
      <trkpt lat="47.32838" lon="-2.42961">
        <ele>73.2</ele>
        <time>2017-03-29T06:59:23Z</time>
      </trkpt>
      <trkpt lat="47.32783" lon="-2.42958">
        <ele>73.2</ele>
        <time>2017-03-29T06:59:37Z</time>
      </trkpt>
      <trkpt lat="47.32774" lon="-2.42942">
        <ele>73.68</ele>
        <time>2017-03-29T06:59:48Z</time>
      </trkpt>
      <trkpt lat="47.32776" lon="-2.42919">
        <ele>73.68</ele>
        <time>2017-03-29T07:00:03Z</time>
      </trkpt>
      <trkpt lat="47.32773" lon="-2.42906">
        <ele>69.83</ele>
        <time>2017-03-29T07:00:12Z</time>
      </trkpt>
      <trkpt lat="47.32773" lon="-2.42892">
        <ele>73.68</ele>
        <time>2017-03-29T07:00:25Z</time>
      </trkpt>
      <trkpt lat="47.32767" lon="-2.42871">
        <ele>72.24</ele>
        <time>2017-03-29T07:00:33Z</time>
      </trkpt>
      <trkpt lat="47.32765" lon="-2.42857">
        <ele>69.83</ele>
        <time>2017-03-29T07:00:42Z</time>
      </trkpt>
      <trkpt lat="47.3276" lon="-2.42844">
        <ele>71.27</ele>
        <time>2017-03-29T07:00:51Z</time>
      </trkpt>
      <trkpt lat="47.32754" lon="-2.42833">
        <ele>68.39</ele>
        <time>2017-03-29T07:01:04Z</time>
      </trkpt>
      <trkpt lat="47.32752" lon="-2.42816">
        <ele>69.83</ele>
        <time>2017-03-29T07:01:14Z</time>
      </trkpt>
      <trkpt lat="47.3275" lon="-2.42801">
        <ele>67.91</ele>
        <time>2017-03-29T07:01:22Z</time>
      </trkpt>
      <trkpt lat="47.32748" lon="-2.42786">
        <ele>68.87</ele>
        <time>2017-03-29T07:01:30Z</time>
      </trkpt>
      <trkpt lat="47.3274" lon="-2.42772">
        <ele>66.95</ele>
        <time>2017-03-29T07:01:39Z</time>
      </trkpt>
      <trkpt lat="47.32739" lon="-2.42759">
        <ele>70.31</ele>
        <time>2017-03-29T07:01:47Z</time>
      </trkpt>
      <trkpt lat="47.32737" lon="-2.42742">
        <ele>69.35</ele>
        <time>2017-03-29T07:01:55Z</time>
      </trkpt>
      <trkpt lat="47.32739" lon="-2.42726">
        <ele>69.83</ele>
        <time>2017-03-29T07:02:05Z</time>
      </trkpt>
      <trkpt lat="47.32734" lon="-2.42714">
        <ele>68.39</ele>
        <time>2017-03-29T07:02:56Z</time>
      </trkpt>
      <trkpt lat="47.3273" lon="-2.42702">
        <ele>68.39</ele>
        <time>2017-03-29T07:03:03Z</time>
      </trkpt>
      <trkpt lat="47.32729" lon="-2.42693">
        <ele>66.47</ele>
        <time>2017-03-29T07:03:13Z</time>
      </trkpt>
      <trkpt lat="47.32738" lon="-2.42688">
        <ele>67.43</ele>
        <time>2017-03-29T07:03:21Z</time>
      </trkpt>
      <trkpt lat="47.32742" lon="-2.42682">
        <ele>66.95</ele>
        <time>2017-03-29T07:04:05Z</time>
      </trkpt>
      <trkpt lat="47.32743" lon="-2.42666">
        <ele>67.91</ele>
        <time>2017-03-29T07:04:14Z</time>
      </trkpt>
      <trkpt lat="47.3275" lon="-2.42655">
        <ele>68.39</ele>
        <time>2017-03-29T07:04:22Z</time>
      </trkpt>
      <trkpt lat="47.32759" lon="-2.42647">
        <ele>68.39</ele>
        <time>2017-03-29T07:04:31Z</time>
      </trkpt>
      <trkpt lat="47.32766" lon="-2.42643">
        <ele>67.91</ele>
        <time>2017-03-29T07:04:47Z</time>
      </trkpt>
      <trkpt lat="47.32776" lon="-2.42639">
        <ele>67.91</ele>
        <time>2017-03-29T07:04:56Z</time>
      </trkpt>
      <trkpt lat="47.32784" lon="-2.42625">
        <ele>67.91</ele>
        <time>2017-03-29T07:05:05Z</time>
      </trkpt>
      <trkpt lat="47.32787" lon="-2.42607">
        <ele>67.43</ele>
        <time>2017-03-29T07:05:16Z</time>
      </trkpt>
      <trkpt lat="47.32783" lon="-2.42592">
        <ele>67.43</ele>
        <time>2017-03-29T07:05:25Z</time>
      </trkpt>
      <trkpt lat="47.32784" lon="-2.42592">
        <ele>69.35</ele>
        <time>2017-03-29T07:05:38Z</time>
      </trkpt>
      <trkpt lat="47.3279" lon="-2.42604">
        <ele>67.43</ele>
        <time>2017-03-29T07:05:46Z</time>
      </trkpt>
      <trkpt lat="47.32795" lon="-2.42617">
        <ele>67.43</ele>
        <time>2017-03-29T07:05:54Z</time>
      </trkpt>
      <trkpt lat="47.32795" lon="-2.42632">
        <ele>67.91</ele>
        <time>2017-03-29T07:06:01Z</time>
      </trkpt>
      <trkpt lat="47.32791" lon="-2.42646">
        <ele>67.91</ele>
        <time>2017-03-29T07:06:13Z</time>
      </trkpt>
      <trkpt lat="47.32787" lon="-2.42663">
        <ele>67.43</ele>
        <time>2017-03-29T07:06:22Z</time>
      </trkpt>
      <trkpt lat="47.32788" lon="-2.42678">
        <ele>67.43</ele>
        <time>2017-03-29T07:06:31Z</time>
      </trkpt>
      <trkpt lat="47.32791" lon="-2.42689">
        <ele>67.43</ele>
        <time>2017-03-29T07:06:41Z</time>
      </trkpt>
      <trkpt lat="47.32789" lon="-2.42702">
        <ele>66.47</ele>
        <time>2017-03-29T07:07:12Z</time>
      </trkpt>
      <trkpt lat="47.32796" lon="-2.42712">
        <ele>67.43</ele>
        <time>2017-03-29T07:07:21Z</time>
      </trkpt>
      <trkpt lat="47.32807" lon="-2.42716">
        <ele>66.95</ele>
        <time>2017-03-29T07:07:30Z</time>
      </trkpt>
      <trkpt lat="47.32817" lon="-2.42721">
        <ele>67.43</ele>
        <time>2017-03-29T07:07:39Z</time>
      </trkpt>
      <trkpt lat="47.32829" lon="-2.42723">
        <ele>66.47</ele>
        <time>2017-03-29T07:07:47Z</time>
      </trkpt>
      <trkpt lat="47.32841" lon="-2.42724">
        <ele>66.95</ele>
        <time>2017-03-29T07:07:56Z</time>
      </trkpt>
      <trkpt lat="47.32858" lon="-2.42723">
        <ele>66.95</ele>
        <time>2017-03-29T07:08:07Z</time>
      </trkpt>
      <trkpt lat="47.3287" lon="-2.42718">
        <ele>66.95</ele>
        <time>2017-03-29T07:08:15Z</time>
      </trkpt>
      <trkpt lat="47.32879" lon="-2.42722">
        <ele>66.95</ele>
        <time>2017-03-29T07:08:26Z</time>
      </trkpt>
      <trkpt lat="47.32889" lon="-2.4273">
        <ele>65.99</ele>
        <time>2017-03-29T07:08:34Z</time>
      </trkpt>
      <trkpt lat="47.32898" lon="-2.42739">
        <ele>65.99</ele>
        <time>2017-03-29T07:08:42Z</time>
      </trkpt>
      <trkpt lat="47.32909" lon="-2.42747">
        <ele>65.99</ele>
        <time>2017-03-29T07:08:50Z</time>
      </trkpt>
      <trkpt lat="47.32919" lon="-2.42754">
        <ele>65.51</ele>
        <time>2017-03-29T07:08:59Z</time>
      </trkpt>
      <trkpt lat="47.32928" lon="-2.4276">
        <ele>65.03</ele>
        <time>2017-03-29T07:09:07Z</time>
      </trkpt>
      <trkpt lat="47.32937" lon="-2.42767">
        <ele>65.51</ele>
        <time>2017-03-29T07:09:15Z</time>
      </trkpt>
      <trkpt lat="47.32945" lon="-2.42776">
        <ele>65.03</ele>
        <time>2017-03-29T07:09:23Z</time>
      </trkpt>
      <trkpt lat="47.32952" lon="-2.42787">
        <ele>65.03</ele>
        <time>2017-03-29T07:09:28Z</time>
      </trkpt>
      <trkpt lat="47.32957" lon="-2.42798">
        <ele>65.03</ele>
        <time>2017-03-29T07:09:35Z</time>
      </trkpt>
      <trkpt lat="47.32961" lon="-2.42811">
        <ele>64.55</ele>
        <time>2017-03-29T07:09:41Z</time>
      </trkpt>
      <trkpt lat="47.32965" lon="-2.42824">
        <ele>64.55</ele>
        <time>2017-03-29T07:09:49Z</time>
      </trkpt>
      <trkpt lat="47.32968" lon="-2.42839">
        <ele>65.03</ele>
        <time>2017-03-29T07:09:58Z</time>
      </trkpt>
      <trkpt lat="47.32969" lon="-2.42855">
        <ele>65.51</ele>
        <time>2017-03-29T07:10:05Z</time>
      </trkpt>
      <trkpt lat="47.32969" lon="-2.4287">
        <ele>65.51</ele>
        <time>2017-03-29T07:10:13Z</time>
      </trkpt>
      <trkpt lat="47.3297" lon="-2.42887">
        <ele>65.03</ele>
        <time>2017-03-29T07:10:22Z</time>
      </trkpt>
      <trkpt lat="47.32966" lon="-2.42902">
        <ele>65.03</ele>
        <time>2017-03-29T07:10:30Z</time>
      </trkpt>
      <trkpt lat="47.32957" lon="-2.42913">
        <ele>64.07</ele>
        <time>2017-03-29T07:10:39Z</time>
      </trkpt>
      <trkpt lat="47.32955" lon="-2.42926">
        <ele>64.07</ele>
        <time>2017-03-29T07:10:51Z</time>
      </trkpt>
      <trkpt lat="47.32946" lon="-2.42936">
        <ele>62.62</ele>
        <time>2017-03-29T07:11:53Z</time>
      </trkpt>
      <trkpt lat="47.32933" lon="-2.42939">
        <ele>63.1</ele>
        <time>2017-03-29T07:12:02Z</time>
      </trkpt>
      <trkpt lat="47.32922" lon="-2.42941">
        <ele>63.1</ele>
        <time>2017-03-29T07:12:10Z</time>
      </trkpt>
      <trkpt lat="47.32911" lon="-2.42943">
        <ele>63.1</ele>
        <time>2017-03-29T07:12:18Z</time>
      </trkpt>
      <trkpt lat="47.32902" lon="-2.42945">
        <ele>63.58</ele>
        <time>2017-03-29T07:12:25Z</time>
      </trkpt>
      <trkpt lat="47.32891" lon="-2.42948">
        <ele>63.58</ele>
        <time>2017-03-29T07:12:33Z</time>
      </trkpt>
      <trkpt lat="47.32877" lon="-2.42942">
        <ele>63.58</ele>
        <time>2017-03-29T07:12:41Z</time>
      </trkpt>
      <trkpt lat="47.32869" lon="-2.42956">
        <ele>63.1</ele>
        <time>2017-03-29T07:12:49Z</time>
      </trkpt>
      <trkpt lat="47.32859" lon="-2.42958">
        <ele>63.58</ele>
        <time>2017-03-29T07:12:58Z</time>
      </trkpt>
      <trkpt lat="47.32847" lon="-2.42954">
        <ele>63.58</ele>
        <time>2017-03-29T07:13:07Z</time>
      </trkpt>
      <trkpt lat="47.32835" lon="-2.42953">
        <ele>63.58</ele>
        <time>2017-03-29T07:13:15Z</time>
      </trkpt>
      <trkpt lat="47.32825" lon="-2.42956">
        <ele>64.07</ele>
        <time>2017-03-29T07:13:23Z</time>
      </trkpt>
      <trkpt lat="47.32815" lon="-2.42963">
        <ele>64.07</ele>
        <time>2017-03-29T07:13:31Z</time>
      </trkpt>
      <trkpt lat="47.32812" lon="-2.42975">
        <ele>64.55</ele>
        <time>2017-03-29T07:13:40Z</time>
      </trkpt>
      <trkpt lat="47.32815" lon="-2.4299">
        <ele>64.07</ele>
        <time>2017-03-29T07:13:49Z</time>
      </trkpt>
      <trkpt lat="47.32815" lon="-2.43012">
        <ele>64.07</ele>
        <time>2017-03-29T07:13:59Z</time>
      </trkpt>
      <trkpt lat="47.32809" lon="-2.43024">
        <ele>63.58</ele>
        <time>2017-03-29T07:14:08Z</time>
      </trkpt>
      <trkpt lat="47.32799" lon="-2.43021">
        <ele>64.07</ele>
        <time>2017-03-29T07:14:15Z</time>
      </trkpt>
      <trkpt lat="47.32789" lon="-2.43019">
        <ele>64.07</ele>
        <time>2017-03-29T07:14:22Z</time>
      </trkpt>
      <trkpt lat="47.32778" lon="-2.43017">
        <ele>63.58</ele>
        <time>2017-03-29T07:14:30Z</time>
      </trkpt>
      <trkpt lat="47.32768" lon="-2.4301">
        <ele>64.07</ele>
        <time>2017-03-29T07:14:38Z</time>
      </trkpt>
      <trkpt lat="47.32755" lon="-2.43008">
        <ele>63.58</ele>
        <time>2017-03-29T07:14:47Z</time>
      </trkpt>
      <trkpt lat="47.32749" lon="-2.43021">
        <ele>63.1</ele>
        <time>2017-03-29T07:14:55Z</time>
      </trkpt>
      <trkpt lat="47.3274" lon="-2.43031">
        <ele>63.1</ele>
        <time>2017-03-29T07:15:07Z</time>
      </trkpt>
      <trkpt lat="47.32736" lon="-2.4305">
        <ele>63.58</ele>
        <time>2017-03-29T07:15:15Z</time>
      </trkpt>
      <trkpt lat="47.32733" lon="-2.43068">
        <ele>62.62</ele>
        <time>2017-03-29T07:15:23Z</time>
      </trkpt>
      <trkpt lat="47.32729" lon="-2.43083">
        <ele>62.14</ele>
        <time>2017-03-29T07:15:31Z</time>
      </trkpt>
      <trkpt lat="47.32728" lon="-2.43099">
        <ele>61.66</ele>
        <time>2017-03-29T07:15:39Z</time>
      </trkpt>
      <trkpt lat="47.32726" lon="-2.43115">
        <ele>60.7</ele>
        <time>2017-03-29T07:15:47Z</time>
      </trkpt>
      <trkpt lat="47.32725" lon="-2.4313">
        <ele>60.22</ele>
        <time>2017-03-29T07:15:55Z</time>
      </trkpt>
      <trkpt lat="47.32724" lon="-2.43145">
        <ele>60.22</ele>
        <time>2017-03-29T07:16:03Z</time>
      </trkpt>
      <trkpt lat="47.32719" lon="-2.43162">
        <ele>59.74</ele>
        <time>2017-03-29T07:16:12Z</time>
      </trkpt>
      <trkpt lat="47.32717" lon="-2.43179">
        <ele>58.78</ele>
        <time>2017-03-29T07:16:21Z</time>
      </trkpt>
      <trkpt lat="47.32714" lon="-2.43197">
        <ele>58.3</ele>
        <time>2017-03-29T07:16:30Z</time>
      </trkpt>
      <trkpt lat="47.32712" lon="-2.43215">
        <ele>57.34</ele>
        <time>2017-03-29T07:16:39Z</time>
      </trkpt>
      <trkpt lat="47.32712" lon="-2.43231">
        <ele>57.34</ele>
        <time>2017-03-29T07:16:47Z</time>
      </trkpt>
      <trkpt lat="47.32713" lon="-2.43245">
        <ele>56.37</ele>
        <time>2017-03-29T07:16:56Z</time>
      </trkpt>
      <trkpt lat="47.32713" lon="-2.43262">
        <ele>55.89</ele>
        <time>2017-03-29T07:17:06Z</time>
      </trkpt>
      <trkpt lat="47.32714" lon="-2.43281">
        <ele>54.93</ele>
        <time>2017-03-29T07:17:15Z</time>
      </trkpt>
      <trkpt lat="47.3271" lon="-2.43297">
        <ele>54.45</ele>
        <time>2017-03-29T07:17:24Z</time>
      </trkpt>
      <trkpt lat="47.32707" lon="-2.43313">
        <ele>53.97</ele>
        <time>2017-03-29T07:17:38Z</time>
      </trkpt>
      <trkpt lat="47.32713" lon="-2.43328">
        <ele>53.49</ele>
        <time>2017-03-29T07:17:47Z</time>
      </trkpt>
      <trkpt lat="47.32717" lon="-2.43347">
        <ele>53.49</ele>
        <time>2017-03-29T07:17:56Z</time>
      </trkpt>
      <trkpt lat="47.32716" lon="-2.43364">
        <ele>53.49</ele>
        <time>2017-03-29T07:18:05Z</time>
      </trkpt>
      <trkpt lat="47.32717" lon="-2.43383">
        <ele>53.01</ele>
        <time>2017-03-29T07:18:14Z</time>
      </trkpt>
      <trkpt lat="47.32715" lon="-2.43402">
        <ele>53.01</ele>
        <time>2017-03-29T07:18:22Z</time>
      </trkpt>
      <trkpt lat="47.32714" lon="-2.4342">
        <ele>53.49</ele>
        <time>2017-03-29T07:18:30Z</time>
      </trkpt>
      <trkpt lat="47.32715" lon="-2.43435">
        <ele>53.49</ele>
        <time>2017-03-29T07:18:37Z</time>
      </trkpt>
      <trkpt lat="47.3272" lon="-2.4345">
        <ele>53.49</ele>
        <time>2017-03-29T07:18:46Z</time>
      </trkpt>
      <trkpt lat="47.32726" lon="-2.43467">
        <ele>53.49</ele>
        <time>2017-03-29T07:18:54Z</time>
      </trkpt>
      <trkpt lat="47.32725" lon="-2.43486">
        <ele>53.97</ele>
        <time>2017-03-29T07:19:03Z</time>
      </trkpt>
      <trkpt lat="47.32727" lon="-2.43506">
        <ele>53.49</ele>
        <time>2017-03-29T07:19:12Z</time>
      </trkpt>
      <trkpt lat="47.32728" lon="-2.4352">
        <ele>53.97</ele>
        <time>2017-03-29T07:19:19Z</time>
      </trkpt>
      <trkpt lat="47.32729" lon="-2.43539">
        <ele>53.97</ele>
        <time>2017-03-29T07:19:27Z</time>
      </trkpt>
      <trkpt lat="47.32728" lon="-2.43556">
        <ele>54.45</ele>
        <time>2017-03-29T07:19:35Z</time>
      </trkpt>
      <trkpt lat="47.32728" lon="-2.43572">
        <ele>54.93</ele>
        <time>2017-03-29T07:19:43Z</time>
      </trkpt>
      <trkpt lat="47.3273" lon="-2.43589">
        <ele>54.93</ele>
        <time>2017-03-29T07:19:52Z</time>
      </trkpt>
      <trkpt lat="47.32732" lon="-2.43607">
        <ele>54.45</ele>
        <time>2017-03-29T07:20:01Z</time>
      </trkpt>
      <trkpt lat="47.32733" lon="-2.43625">
        <ele>54.45</ele>
        <time>2017-03-29T07:20:09Z</time>
      </trkpt>
      <trkpt lat="47.32733" lon="-2.43642">
        <ele>54.45</ele>
        <time>2017-03-29T07:20:17Z</time>
      </trkpt>
      <trkpt lat="47.32737" lon="-2.43658">
        <ele>54.45</ele>
        <time>2017-03-29T07:20:25Z</time>
      </trkpt>
      <trkpt lat="47.3274" lon="-2.43673">
        <ele>54.93</ele>
        <time>2017-03-29T07:20:33Z</time>
      </trkpt>
      <trkpt lat="47.32741" lon="-2.43691">
        <ele>54.93</ele>
        <time>2017-03-29T07:20:43Z</time>
      </trkpt>
      <trkpt lat="47.32743" lon="-2.43708">
        <ele>54.45</ele>
        <time>2017-03-29T07:20:51Z</time>
      </trkpt>
      <trkpt lat="47.32738" lon="-2.43725">
        <ele>54.93</ele>
        <time>2017-03-29T07:20:58Z</time>
      </trkpt>
      <trkpt lat="47.3274" lon="-2.4374">
        <ele>53.97</ele>
        <time>2017-03-29T07:21:07Z</time>
      </trkpt>
      <trkpt lat="47.32741" lon="-2.43746">
        <ele>53.97</ele>
        <time>2017-03-29T07:22:05Z</time>
      </trkpt>
      <trkpt lat="47.32742" lon="-2.43755">
        <ele>53.01</ele>
        <time>2017-03-29T07:23:05Z</time>
      </trkpt>
      <trkpt lat="47.32743" lon="-2.43774">
        <ele>52.53</ele>
        <time>2017-03-29T07:23:18Z</time>
      </trkpt>
      <trkpt lat="47.32743" lon="-2.43792">
        <ele>53.01</ele>
        <time>2017-03-29T07:23:26Z</time>
      </trkpt>
      <trkpt lat="47.32738" lon="-2.43807">
        <ele>52.53</ele>
        <time>2017-03-29T07:23:33Z</time>
      </trkpt>
      <trkpt lat="47.32738" lon="-2.43821">
        <ele>51.57</ele>
        <time>2017-03-29T07:23:40Z</time>
      </trkpt>
      <trkpt lat="47.32741" lon="-2.43836">
        <ele>51.57</ele>
        <time>2017-03-29T07:23:48Z</time>
      </trkpt>
      <trkpt lat="47.32744" lon="-2.43852">
        <ele>51.09</ele>
        <time>2017-03-29T07:23:56Z</time>
      </trkpt>
      <trkpt lat="47.32748" lon="-2.43867">
        <ele>50.61</ele>
        <time>2017-03-29T07:24:04Z</time>
      </trkpt>
      <trkpt lat="47.32738" lon="-2.43888">
        <ele>51.09</ele>
        <time>2017-03-29T07:24:14Z</time>
      </trkpt>
      <trkpt lat="47.3274" lon="-2.43903">
        <ele>51.09</ele>
        <time>2017-03-29T07:24:22Z</time>
      </trkpt>
      <trkpt lat="47.32744" lon="-2.43918">
        <ele>51.57</ele>
        <time>2017-03-29T07:24:30Z</time>
      </trkpt>
      <trkpt lat="47.32747" lon="-2.43933">
        <ele>52.53</ele>
        <time>2017-03-29T07:24:38Z</time>
      </trkpt>
      <trkpt lat="47.32749" lon="-2.4395">
        <ele>50.13</ele>
        <time>2017-03-29T07:24:47Z</time>
      </trkpt>
      <trkpt lat="47.32751" lon="-2.43967">
        <ele>50.61</ele>
        <time>2017-03-29T07:24:54Z</time>
      </trkpt>
      <trkpt lat="47.32753" lon="-2.43981">
        <ele>50.61</ele>
        <time>2017-03-29T07:25:03Z</time>
      </trkpt>
      <trkpt lat="47.32756" lon="-2.43998">
        <ele>50.13</ele>
        <time>2017-03-29T07:25:11Z</time>
      </trkpt>
      <trkpt lat="47.32761" lon="-2.44012">
        <ele>50.13</ele>
        <time>2017-03-29T07:25:20Z</time>
      </trkpt>
      <trkpt lat="47.32767" lon="-2.44029">
        <ele>51.57</ele>
        <time>2017-03-29T07:25:29Z</time>
      </trkpt>
      <trkpt lat="47.32771" lon="-2.44044">
        <ele>51.57</ele>
        <time>2017-03-29T07:25:38Z</time>
      </trkpt>
      <trkpt lat="47.32773" lon="-2.44061">
        <ele>51.09</ele>
        <time>2017-03-29T07:25:46Z</time>
      </trkpt>
      <trkpt lat="47.32774" lon="-2.44075">
        <ele>51.09</ele>
        <time>2017-03-29T07:25:54Z</time>
      </trkpt>
      <trkpt lat="47.32775" lon="-2.4409">
        <ele>52.53</ele>
        <time>2017-03-29T07:26:02Z</time>
      </trkpt>
      <trkpt lat="47.32777" lon="-2.44106">
        <ele>52.05</ele>
        <time>2017-03-29T07:26:09Z</time>
      </trkpt>
      <trkpt lat="47.3278" lon="-2.44121">
        <ele>48.68</ele>
        <time>2017-03-29T07:27:19Z</time>
      </trkpt>
      <trkpt lat="47.3278" lon="-2.44139">
        <ele>51.57</ele>
        <time>2017-03-29T07:27:37Z</time>
      </trkpt>
      <trkpt lat="47.32778" lon="-2.44153">
        <ele>49.65</ele>
        <time>2017-03-29T07:27:45Z</time>
      </trkpt>
      <trkpt lat="47.32778" lon="-2.44169">
        <ele>50.13</ele>
        <time>2017-03-29T07:27:53Z</time>
      </trkpt>
      <trkpt lat="47.32778" lon="-2.44185">
        <ele>50.13</ele>
        <time>2017-03-29T07:28:00Z</time>
      </trkpt>
      <trkpt lat="47.3278" lon="-2.442">
        <ele>49.16</ele>
        <time>2017-03-29T07:28:07Z</time>
      </trkpt>
      <trkpt lat="47.32776" lon="-2.44215">
        <ele>51.57</ele>
        <time>2017-03-29T07:28:14Z</time>
      </trkpt>
      <trkpt lat="47.32775" lon="-2.4423">
        <ele>51.57</ele>
        <time>2017-03-29T07:28:22Z</time>
      </trkpt>
      <trkpt lat="47.32773" lon="-2.44245">
        <ele>49.16</ele>
        <time>2017-03-29T07:28:29Z</time>
      </trkpt>
      <trkpt lat="47.3277" lon="-2.44259">
        <ele>51.09</ele>
        <time>2017-03-29T07:28:36Z</time>
      </trkpt>
      <trkpt lat="47.32767" lon="-2.44273">
        <ele>51.09</ele>
        <time>2017-03-29T07:28:43Z</time>
      </trkpt>
      <trkpt lat="47.32767" lon="-2.44288">
        <ele>50.13</ele>
        <time>2017-03-29T07:28:50Z</time>
      </trkpt>
      <trkpt lat="47.32765" lon="-2.44301">
        <ele>49.65</ele>
        <time>2017-03-29T07:28:57Z</time>
      </trkpt>
      <trkpt lat="47.32764" lon="-2.44318">
        <ele>49.65</ele>
        <time>2017-03-29T07:29:25Z</time>
      </trkpt>
      <trkpt lat="47.32762" lon="-2.44334">
        <ele>49.16</ele>
        <time>2017-03-29T07:29:32Z</time>
      </trkpt>
      <trkpt lat="47.32762" lon="-2.44347">
        <ele>49.65</ele>
        <time>2017-03-29T07:29:39Z</time>
      </trkpt>
      <trkpt lat="47.32762" lon="-2.44362">
        <ele>49.16</ele>
        <time>2017-03-29T07:29:47Z</time>
      </trkpt>
      <trkpt lat="47.3276" lon="-2.44377">
        <ele>51.09</ele>
        <time>2017-03-29T07:29:55Z</time>
      </trkpt>
      <trkpt lat="47.3276" lon="-2.44392">
        <ele>49.65</ele>
        <time>2017-03-29T07:30:03Z</time>
      </trkpt>
      <trkpt lat="47.32757" lon="-2.44407">
        <ele>49.16</ele>
        <time>2017-03-29T07:30:11Z</time>
      </trkpt>
      <trkpt lat="47.32757" lon="-2.44422">
        <ele>48.2</ele>
        <time>2017-03-29T07:30:21Z</time>
      </trkpt>
      <trkpt lat="47.32754" lon="-2.44437">
        <ele>48.2</ele>
        <time>2017-03-29T07:30:31Z</time>
      </trkpt>
      <trkpt lat="47.32745" lon="-2.44448">
        <ele>48.2</ele>
        <time>2017-03-29T07:30:39Z</time>
      </trkpt>
      <trkpt lat="47.32736" lon="-2.44457">
        <ele>48.2</ele>
        <time>2017-03-29T07:30:47Z</time>
      </trkpt>
      <trkpt lat="47.32726" lon="-2.44465">
        <ele>47.24</ele>
        <time>2017-03-29T07:30:55Z</time>
      </trkpt>
      <trkpt lat="47.32715" lon="-2.44471">
        <ele>50.13</ele>
        <time>2017-03-29T07:31:03Z</time>
      </trkpt>
      <trkpt lat="47.32707" lon="-2.44478">
        <ele>50.61</ele>
        <time>2017-03-29T07:31:11Z</time>
      </trkpt>
      <trkpt lat="47.32697" lon="-2.44485">
        <ele>47.24</ele>
        <time>2017-03-29T07:31:18Z</time>
      </trkpt>
      <trkpt lat="47.32687" lon="-2.44489">
        <ele>50.13</ele>
        <time>2017-03-29T07:31:26Z</time>
      </trkpt>
      <trkpt lat="47.32677" lon="-2.44494">
        <ele>49.16</ele>
        <time>2017-03-29T07:31:33Z</time>
      </trkpt>
      <trkpt lat="47.32671" lon="-2.44499">
        <ele>47.72</ele>
        <time>2017-03-29T07:32:05Z</time>
      </trkpt>
      <trkpt lat="47.32666" lon="-2.44516">
        <ele>49.65</ele>
        <time>2017-03-29T07:32:17Z</time>
      </trkpt>
      <trkpt lat="47.32658" lon="-2.44532">
        <ele>46.28</ele>
        <time>2017-03-29T07:32:26Z</time>
      </trkpt>
      <trkpt lat="47.32651" lon="-2.44547">
        <ele>44.36</ele>
        <time>2017-03-29T07:32:35Z</time>
      </trkpt>
      <trkpt lat="47.32642" lon="-2.4456">
        <ele>48.2</ele>
        <time>2017-03-29T07:32:42Z</time>
      </trkpt>
      <trkpt lat="47.32635" lon="-2.44573">
        <ele>43.88</ele>
        <time>2017-03-29T07:32:49Z</time>
      </trkpt>
      <trkpt lat="47.32629" lon="-2.44586">
        <ele>46.76</ele>
        <time>2017-03-29T07:32:57Z</time>
      </trkpt>
      <trkpt lat="47.32622" lon="-2.44598">
        <ele>45.8</ele>
        <time>2017-03-29T07:33:05Z</time>
      </trkpt>
      <trkpt lat="47.32613" lon="-2.44609">
        <ele>43.4</ele>
        <time>2017-03-29T07:33:12Z</time>
      </trkpt>
      <trkpt lat="47.32606" lon="-2.44619">
        <ele>45.8</ele>
        <time>2017-03-29T07:33:21Z</time>
      </trkpt>
      <trkpt lat="47.32597" lon="-2.4463">
        <ele>40.99</ele>
        <time>2017-03-29T07:33:30Z</time>
      </trkpt>
      <trkpt lat="47.32587" lon="-2.44645">
        <ele>40.99</ele>
        <time>2017-03-29T07:33:40Z</time>
      </trkpt>
      <trkpt lat="47.32576" lon="-2.44661">
        <ele>42.92</ele>
        <time>2017-03-29T07:33:50Z</time>
      </trkpt>
      <trkpt lat="47.32567" lon="-2.44674">
        <ele>41.95</ele>
        <time>2017-03-29T07:33:59Z</time>
      </trkpt>
      <trkpt lat="47.32558" lon="-2.44687">
        <ele>40.03</ele>
        <time>2017-03-29T07:34:10Z</time>
      </trkpt>
      <trkpt lat="47.32546" lon="-2.44704">
        <ele>35.71</ele>
        <time>2017-03-29T07:34:21Z</time>
      </trkpt>
      <trkpt lat="47.32537" lon="-2.44722">
        <ele>37.63</ele>
        <time>2017-03-29T07:34:31Z</time>
      </trkpt>
      <trkpt lat="47.32531" lon="-2.44737">
        <ele>36.67</ele>
        <time>2017-03-29T07:34:40Z</time>
      </trkpt>
      <trkpt lat="47.32518" lon="-2.44743">
        <ele>33.78</ele>
        <time>2017-03-29T07:34:50Z</time>
      </trkpt>
      <trkpt lat="47.32504" lon="-2.44761">
        <ele>34.26</ele>
        <time>2017-03-29T07:35:03Z</time>
      </trkpt>
      <trkpt lat="47.32488" lon="-2.44774">
        <ele>34.26</ele>
        <time>2017-03-29T07:35:16Z</time>
      </trkpt>
      <trkpt lat="47.32475" lon="-2.44783">
        <ele>29.46</ele>
        <time>2017-03-29T07:35:25Z</time>
      </trkpt>
      <trkpt lat="47.32459" lon="-2.44795">
        <ele>32.82</ele>
        <time>2017-03-29T07:35:38Z</time>
      </trkpt>
      <trkpt lat="47.32447" lon="-2.44803">
        <ele>28.5</ele>
        <time>2017-03-29T07:35:48Z</time>
      </trkpt>
      <trkpt lat="47.32437" lon="-2.4481">
        <ele>31.38</ele>
        <time>2017-03-29T07:35:56Z</time>
      </trkpt>
      <trkpt lat="47.32429" lon="-2.44816">
        <ele>27.05</ele>
        <time>2017-03-29T07:36:04Z</time>
      </trkpt>
      <trkpt lat="47.32418" lon="-2.44825">
        <ele>29.94</ele>
        <time>2017-03-29T07:36:14Z</time>
      </trkpt>
      <trkpt lat="47.32406" lon="-2.44832">
        <ele>28.02</ele>
        <time>2017-03-29T07:36:23Z</time>
      </trkpt>
      <trkpt lat="47.32394" lon="-2.4484">
        <ele>26.09</ele>
        <time>2017-03-29T07:36:32Z</time>
      </trkpt>
      <trkpt lat="47.32383" lon="-2.44846">
        <ele>28.5</ele>
        <time>2017-03-29T07:36:41Z</time>
      </trkpt>
      <trkpt lat="47.32371" lon="-2.44853">
        <ele>27.05</ele>
        <time>2017-03-29T07:36:51Z</time>
      </trkpt>
      <trkpt lat="47.32357" lon="-2.44867">
        <ele>27.53</ele>
        <time>2017-03-29T07:37:04Z</time>
      </trkpt>
      <trkpt lat="47.32345" lon="-2.44883">
        <ele>24.65</ele>
        <time>2017-03-29T07:37:16Z</time>
      </trkpt>
      <trkpt lat="47.32333" lon="-2.44899">
        <ele>27.53</ele>
        <time>2017-03-29T07:37:26Z</time>
      </trkpt>
      <trkpt lat="47.32321" lon="-2.44915">
        <ele>27.53</ele>
        <time>2017-03-29T07:37:37Z</time>
      </trkpt>
      <trkpt lat="47.32309" lon="-2.44928">
        <ele>24.17</ele>
        <time>2017-03-29T07:37:46Z</time>
      </trkpt>
      <trkpt lat="47.32298" lon="-2.44941">
        <ele>26.57</ele>
        <time>2017-03-29T07:37:55Z</time>
      </trkpt>
      <trkpt lat="47.3229" lon="-2.44953">
        <ele>23.69</ele>
        <time>2017-03-29T07:38:05Z</time>
      </trkpt>
      <trkpt lat="47.32278" lon="-2.44964">
        <ele>26.09</ele>
        <time>2017-03-29T07:38:13Z</time>
      </trkpt>
      <trkpt lat="47.32268" lon="-2.44972">
        <ele>22.25</ele>
        <time>2017-03-29T07:38:20Z</time>
      </trkpt>
      <trkpt lat="47.3226" lon="-2.44982">
        <ele>23.21</ele>
        <time>2017-03-29T07:38:28Z</time>
      </trkpt>
      <trkpt lat="47.32251" lon="-2.44992">
        <ele>24.17</ele>
        <time>2017-03-29T07:38:35Z</time>
      </trkpt>
      <trkpt lat="47.32241" lon="-2.45001">
        <ele>22.73</ele>
        <time>2017-03-29T07:38:43Z</time>
      </trkpt>
      <trkpt lat="47.32233" lon="-2.45014">
        <ele>17.44</ele>
        <time>2017-03-29T07:38:52Z</time>
      </trkpt>
      <trkpt lat="47.32226" lon="-2.45022">
        <ele>16.96</ele>
        <time>2017-03-29T07:39:00Z</time>
      </trkpt>
      <trkpt lat="47.32219" lon="-2.45032">
        <ele>17.92</ele>
        <time>2017-03-29T07:39:10Z</time>
      </trkpt>
      <trkpt lat="47.32222" lon="-2.45043">
        <ele>16.96</ele>
        <time>2017-03-29T07:40:40Z</time>
      </trkpt>
      <trkpt lat="47.32227" lon="-2.45055">
        <ele>15.52</ele>
        <time>2017-03-29T07:40:50Z</time>
      </trkpt>
      <trkpt lat="47.32235" lon="-2.45068">
        <ele>15.52</ele>
        <time>2017-03-29T07:40:59Z</time>
      </trkpt>
      <trkpt lat="47.32241" lon="-2.45084">
        <ele>16</ele>
        <time>2017-03-29T07:41:09Z</time>
      </trkpt>
      <trkpt lat="47.32249" lon="-2.451">
        <ele>17.92</ele>
        <time>2017-03-29T07:41:17Z</time>
      </trkpt>
      <trkpt lat="47.32255" lon="-2.45114">
        <ele>15.52</ele>
        <time>2017-03-29T07:41:25Z</time>
      </trkpt>
      <trkpt lat="47.32261" lon="-2.4513">
        <ele>18.4</ele>
        <time>2017-03-29T07:41:33Z</time>
      </trkpt>
      <trkpt lat="47.32265" lon="-2.45145">
        <ele>13.12</ele>
        <time>2017-03-29T07:41:40Z</time>
      </trkpt>
      <trkpt lat="47.32268" lon="-2.45161">
        <ele>16</ele>
        <time>2017-03-29T07:41:48Z</time>
      </trkpt>
      <trkpt lat="47.3227" lon="-2.45176">
        <ele>14.08</ele>
        <time>2017-03-29T07:41:56Z</time>
      </trkpt>
      <trkpt lat="47.32275" lon="-2.4519">
        <ele>10.71</ele>
        <time>2017-03-29T07:42:04Z</time>
      </trkpt>
      <trkpt lat="47.32284" lon="-2.45205">
        <ele>13.12</ele>
        <time>2017-03-29T07:42:15Z</time>
      </trkpt>
      <trkpt lat="47.32292" lon="-2.4522">
        <ele>11.67</ele>
        <time>2017-03-29T07:42:24Z</time>
      </trkpt>
      <trkpt lat="47.32299" lon="-2.45233">
        <ele>13.12</ele>
        <time>2017-03-29T07:42:31Z</time>
      </trkpt>
      <trkpt lat="47.32304" lon="-2.45246">
        <ele>12.15</ele>
        <time>2017-03-29T07:42:40Z</time>
      </trkpt>
      <trkpt lat="47.32306" lon="-2.4526">
        <ele>13.6</ele>
        <time>2017-03-29T07:42:47Z</time>
      </trkpt>
      <trkpt lat="47.32311" lon="-2.45274">
        <ele>15.52</ele>
        <time>2017-03-29T07:42:55Z</time>
      </trkpt>
      <trkpt lat="47.32315" lon="-2.45291">
        <ele>13.6</ele>
        <time>2017-03-29T07:43:04Z</time>
      </trkpt>
      <trkpt lat="47.32316" lon="-2.45307">
        <ele>16.96</ele>
        <time>2017-03-29T07:43:13Z</time>
      </trkpt>
      <trkpt lat="47.32317" lon="-2.45324">
        <ele>15.04</ele>
        <time>2017-03-29T07:43:21Z</time>
      </trkpt>
      <trkpt lat="47.32316" lon="-2.45341">
        <ele>14.08</ele>
        <time>2017-03-29T07:43:30Z</time>
      </trkpt>
      <trkpt lat="47.32317" lon="-2.45357">
        <ele>11.19</ele>
        <time>2017-03-29T07:43:38Z</time>
      </trkpt>
      <trkpt lat="47.32319" lon="-2.45371">
        <ele>12.15</ele>
        <time>2017-03-29T07:43:46Z</time>
      </trkpt>
      <trkpt lat="47.32321" lon="-2.45387">
        <ele>11.67</ele>
        <time>2017-03-29T07:43:54Z</time>
      </trkpt>
      <trkpt lat="47.32317" lon="-2.454">
        <ele>8.31</ele>
        <time>2017-03-29T07:44:06Z</time>
      </trkpt>
      <trkpt lat="47.3231" lon="-2.45409">
        <ele>8.79</ele>
        <time>2017-03-29T07:44:15Z</time>
      </trkpt>
      <trkpt lat="47.323" lon="-2.45414">
        <ele>9.27</ele>
        <time>2017-03-29T07:44:29Z</time>
      </trkpt>
      <trkpt lat="47.32291" lon="-2.45419">
        <ele>10.71</ele>
        <time>2017-03-29T07:44:37Z</time>
      </trkpt>
      <trkpt lat="47.32281" lon="-2.45424">
        <ele>11.67</ele>
        <time>2017-03-29T07:44:45Z</time>
      </trkpt>
      <trkpt lat="47.32272" lon="-2.45431">
        <ele>6.39</ele>
        <time>2017-03-29T07:44:54Z</time>
      </trkpt>
      <trkpt lat="47.32262" lon="-2.45436">
        <ele>7.83</ele>
        <time>2017-03-29T07:45:02Z</time>
      </trkpt>
      <trkpt lat="47.3225" lon="-2.45439">
        <ele>5.91</ele>
        <time>2017-03-29T07:45:09Z</time>
      </trkpt>
      <trkpt lat="47.3224" lon="-2.45443">
        <ele>5.42</ele>
        <time>2017-03-29T07:45:15Z</time>
      </trkpt>
      <trkpt lat="47.32231" lon="-2.45446">
        <ele>9.27</ele>
        <time>2017-03-29T07:45:21Z</time>
      </trkpt>
      <trkpt lat="47.32222" lon="-2.45446">
        <ele>4.46</ele>
        <time>2017-03-29T07:45:27Z</time>
      </trkpt>
      <trkpt lat="47.32212" lon="-2.45443">
        <ele>5.91</ele>
        <time>2017-03-29T07:45:34Z</time>
      </trkpt>
      <trkpt lat="47.32203" lon="-2.45437">
        <ele>7.35</ele>
        <time>2017-03-29T07:45:41Z</time>
      </trkpt>
      <trkpt lat="47.32194" lon="-2.4543">
        <ele>7.83</ele>
        <time>2017-03-29T07:45:48Z</time>
      </trkpt>
      <trkpt lat="47.32184" lon="-2.45423">
        <ele>5.91</ele>
        <time>2017-03-29T07:45:55Z</time>
      </trkpt>
      <trkpt lat="47.32176" lon="-2.45417">
        <ele>5.91</ele>
        <time>2017-03-29T07:46:02Z</time>
      </trkpt>
      <trkpt lat="47.3217" lon="-2.45411">
        <ele>6.39</ele>
        <time>2017-03-29T07:46:09Z</time>
      </trkpt>
      <trkpt lat="47.32162" lon="-2.45404">
        <ele>6.39</ele>
        <time>2017-03-29T07:46:16Z</time>
      </trkpt>
      <trkpt lat="47.32153" lon="-2.45398">
        <ele>6.39</ele>
        <time>2017-03-29T07:46:23Z</time>
      </trkpt>
      <trkpt lat="47.32144" lon="-2.45391">
        <ele>6.87</ele>
        <time>2017-03-29T07:46:31Z</time>
      </trkpt>
      <trkpt lat="47.32136" lon="-2.45386">
        <ele>6.39</ele>
        <time>2017-03-29T07:46:38Z</time>
      </trkpt>
      <trkpt lat="47.32126" lon="-2.45379">
        <ele>6.39</ele>
        <time>2017-03-29T07:46:46Z</time>
      </trkpt>
      <trkpt lat="47.32118" lon="-2.45372">
        <ele>5.91</ele>
        <time>2017-03-29T07:46:53Z</time>
      </trkpt>
      <trkpt lat="47.32108" lon="-2.45366">
        <ele>6.39</ele>
        <time>2017-03-29T07:47:02Z</time>
      </trkpt>
      <trkpt lat="47.32099" lon="-2.4536">
        <ele>5.91</ele>
        <time>2017-03-29T07:47:09Z</time>
      </trkpt>
      <trkpt lat="47.3209" lon="-2.45352">
        <ele>6.39</ele>
        <time>2017-03-29T07:47:16Z</time>
      </trkpt>
      <trkpt lat="47.32081" lon="-2.45344">
        <ele>5.91</ele>
        <time>2017-03-29T07:47:23Z</time>
      </trkpt>
      <trkpt lat="47.32073" lon="-2.45336">
        <ele>5.91</ele>
        <time>2017-03-29T07:47:30Z</time>
      </trkpt>
      <trkpt lat="47.32064" lon="-2.4533">
        <ele>0.14</ele>
        <time>2017-03-29T07:47:37Z</time>
      </trkpt>
      <trkpt lat="47.32055" lon="-2.45324">
        <ele>5.42</ele>
        <time>2017-03-29T07:47:44Z</time>
      </trkpt>
      <trkpt lat="47.32046" lon="-2.45317">
        <ele>2.54</ele>
        <time>2017-03-29T07:47:50Z</time>
      </trkpt>
      <trkpt lat="47.32036" lon="-2.45312">
        <ele>7.35</ele>
        <time>2017-03-29T07:47:57Z</time>
      </trkpt>
      <trkpt lat="47.32027" lon="-2.45306">
        <ele>3.98</ele>
        <time>2017-03-29T07:48:04Z</time>
      </trkpt>
      <trkpt lat="47.32017" lon="-2.453">
        <ele>3.5</ele>
        <time>2017-03-29T07:48:12Z</time>
      </trkpt>
      <trkpt lat="47.32008" lon="-2.45293">
        <ele>6.39</ele>
        <time>2017-03-29T07:48:20Z</time>
      </trkpt>
      <trkpt lat="47.32" lon="-2.45287">
        <ele>5.91</ele>
        <time>2017-03-29T07:48:28Z</time>
      </trkpt>
      <trkpt lat="47.31989" lon="-2.45287">
        <ele>6.39</ele>
        <time>2017-03-29T07:48:35Z</time>
      </trkpt>
      <trkpt lat="47.3198" lon="-2.45294">
        <ele>3.98</ele>
        <time>2017-03-29T07:48:42Z</time>
      </trkpt>
      <trkpt lat="47.31971" lon="-2.45303">
        <ele>5.91</ele>
        <time>2017-03-29T07:48:50Z</time>
      </trkpt>
      <trkpt lat="47.31963" lon="-2.45311">
        <ele>3.02</ele>
        <time>2017-03-29T07:48:57Z</time>
      </trkpt>
      <trkpt lat="47.31953" lon="-2.45312">
        <ele>3.98</ele>
        <time>2017-03-29T07:49:04Z</time>
      </trkpt>
      <trkpt lat="47.31943" lon="-2.45312">
        <ele>5.91</ele>
        <time>2017-03-29T07:49:10Z</time>
      </trkpt>
      <trkpt lat="47.31934" lon="-2.45304">
        <ele>3.02</ele>
        <time>2017-03-29T07:49:17Z</time>
      </trkpt>
      <trkpt lat="47.31927" lon="-2.45294">
        <ele>3.02</ele>
        <time>2017-03-29T07:49:23Z</time>
      </trkpt>
      <trkpt lat="47.3192" lon="-2.45283">
        <ele>5.42</ele>
        <time>2017-03-29T07:49:31Z</time>
      </trkpt>
      <trkpt lat="47.31912" lon="-2.45271">
        <ele>1.58</ele>
        <time>2017-03-29T07:49:39Z</time>
      </trkpt>
      <trkpt lat="47.31905" lon="-2.4526">
        <ele>4.46</ele>
        <time>2017-03-29T07:49:46Z</time>
      </trkpt>
      <trkpt lat="47.31897" lon="-2.45251">
        <ele>4.46</ele>
        <time>2017-03-29T07:49:54Z</time>
      </trkpt>
      <trkpt lat="47.31891" lon="-2.45241">
        <ele>3.5</ele>
        <time>2017-03-29T07:50:01Z</time>
      </trkpt>
      <trkpt lat="47.31884" lon="-2.45231">
        <ele>3.5</ele>
        <time>2017-03-29T07:50:08Z</time>
      </trkpt>
      <trkpt lat="47.31876" lon="-2.45222">
        <ele>6.87</ele>
        <time>2017-03-29T07:50:16Z</time>
      </trkpt>
      <trkpt lat="47.31869" lon="-2.45212">
        <ele>4.94</ele>
        <time>2017-03-29T07:50:23Z</time>
      </trkpt>
      <trkpt lat="47.31859" lon="-2.45209">
        <ele>2.06</ele>
        <time>2017-03-29T07:50:30Z</time>
      </trkpt>
      <trkpt lat="47.31849" lon="-2.4521">
        <ele>4.46</ele>
        <time>2017-03-29T07:50:37Z</time>
      </trkpt>
      <trkpt lat="47.3184" lon="-2.45212">
        <ele>3.5</ele>
        <time>2017-03-29T07:50:44Z</time>
      </trkpt>
      <trkpt lat="47.31833" lon="-2.45222">
        <ele>4.94</ele>
        <time>2017-03-29T07:50:51Z</time>
      </trkpt>
      <trkpt lat="47.31826" lon="-2.4523">
        <ele>6.39</ele>
        <time>2017-03-29T07:50:57Z</time>
      </trkpt>
      <trkpt lat="47.31818" lon="-2.4524">
        <ele>1.58</ele>
        <time>2017-03-29T07:51:04Z</time>
      </trkpt>
      <trkpt lat="47.31811" lon="-2.45248">
        <ele>4.94</ele>
        <time>2017-03-29T07:51:10Z</time>
      </trkpt>
      <trkpt lat="47.31805" lon="-2.45257">
        <ele>4.94</ele>
        <time>2017-03-29T07:51:17Z</time>
      </trkpt>
      <trkpt lat="47.31798" lon="-2.45267">
        <ele>2.54</ele>
        <time>2017-03-29T07:51:24Z</time>
      </trkpt>
      <trkpt lat="47.31791" lon="-2.45276">
        <ele>5.91</ele>
        <time>2017-03-29T07:51:31Z</time>
      </trkpt>
      <trkpt lat="47.31784" lon="-2.45288">
        <ele>5.42</ele>
        <time>2017-03-29T07:51:38Z</time>
      </trkpt>
      <trkpt lat="47.31777" lon="-2.45297">
        <ele>2.06</ele>
        <time>2017-03-29T07:51:45Z</time>
      </trkpt>
      <trkpt lat="47.3177" lon="-2.45307">
        <ele>3.02</ele>
        <time>2017-03-29T07:51:52Z</time>
      </trkpt>
      <trkpt lat="47.31763" lon="-2.45316">
        <ele>4.46</ele>
        <time>2017-03-29T07:51:59Z</time>
      </trkpt>
      <trkpt lat="47.31756" lon="-2.45325">
        <ele>2.54</ele>
        <time>2017-03-29T07:52:06Z</time>
      </trkpt>
      <trkpt lat="47.31746" lon="-2.45332">
        <ele>3.02</ele>
        <time>2017-03-29T07:52:13Z</time>
      </trkpt>
      <trkpt lat="47.31738" lon="-2.45339">
        <ele>6.39</ele>
        <time>2017-03-29T07:52:20Z</time>
      </trkpt>
      <trkpt lat="47.31729" lon="-2.45344">
        <ele>5.42</ele>
        <time>2017-03-29T07:52:27Z</time>
      </trkpt>
      <trkpt lat="47.31719" lon="-2.45349">
        <ele>4.94</ele>
        <time>2017-03-29T07:52:34Z</time>
      </trkpt>
      <trkpt lat="47.3171" lon="-2.45349">
        <ele>2.54</ele>
        <time>2017-03-29T07:52:40Z</time>
      </trkpt>
      <trkpt lat="47.31701" lon="-2.45346">
        <ele>3.5</ele>
        <time>2017-03-29T07:52:47Z</time>
      </trkpt>
      <trkpt lat="47.31693" lon="-2.45337">
        <ele>4.94</ele>
        <time>2017-03-29T07:52:54Z</time>
      </trkpt>
      <trkpt lat="47.31685" lon="-2.45328">
        <ele>3.02</ele>
        <time>2017-03-29T07:53:01Z</time>
      </trkpt>
      <trkpt lat="47.31678" lon="-2.45316">
        <ele>2.54</ele>
        <time>2017-03-29T07:53:08Z</time>
      </trkpt>
      <trkpt lat="47.31672" lon="-2.45307">
        <ele>4.46</ele>
        <time>2017-03-29T07:53:15Z</time>
      </trkpt>
      <trkpt lat="47.31664" lon="-2.45299">
        <ele>5.42</ele>
        <time>2017-03-29T07:53:22Z</time>
      </trkpt>
      <trkpt lat="47.31655" lon="-2.45294">
        <ele>3.02</ele>
        <time>2017-03-29T07:53:29Z</time>
      </trkpt>
      <trkpt lat="47.31646" lon="-2.45292">
        <ele>2.54</ele>
        <time>2017-03-29T07:53:36Z</time>
      </trkpt>
      <trkpt lat="47.31636" lon="-2.45291">
        <ele>4.46</ele>
        <time>2017-03-29T07:53:43Z</time>
      </trkpt>
      <trkpt lat="47.31627" lon="-2.45291">
        <ele>6.39</ele>
        <time>2017-03-29T07:53:50Z</time>
      </trkpt>
      <trkpt lat="47.31617" lon="-2.45289">
        <ele>1.58</ele>
        <time>2017-03-29T07:53:57Z</time>
      </trkpt>
      <trkpt lat="47.31608" lon="-2.45289">
        <ele>3.98</ele>
        <time>2017-03-29T07:54:04Z</time>
      </trkpt>
      <trkpt lat="47.31598" lon="-2.45287">
        <ele>5.91</ele>
        <time>2017-03-29T07:54:11Z</time>
      </trkpt>
      <trkpt lat="47.31588" lon="-2.45287">
        <ele>9.75</ele>
        <time>2017-03-29T07:54:18Z</time>
      </trkpt>
      <trkpt lat="47.31579" lon="-2.45289">
        <ele>4.94</ele>
        <time>2017-03-29T07:54:28Z</time>
      </trkpt>
      <trkpt lat="47.31582" lon="-2.45277">
        <ele>3.5</ele>
        <time>2017-03-29T07:54:39Z</time>
      </trkpt>
      <trkpt lat="47.31582" lon="-2.45264">
        <ele>4.94</ele>
        <time>2017-03-29T07:54:46Z</time>
      </trkpt>
      <trkpt lat="47.31585" lon="-2.4525">
        <ele>4.94</ele>
        <time>2017-03-29T07:54:54Z</time>
      </trkpt>
      <trkpt lat="47.3159" lon="-2.4524">
        <ele>6.39</ele>
        <time>2017-03-29T07:55:04Z</time>
      </trkpt>
      <trkpt lat="47.31576" lon="-2.4525">
        <ele>4.94</ele>
        <time>2017-03-29T07:55:12Z</time>
      </trkpt>
      <trkpt lat="47.3157" lon="-2.45261">
        <ele>4.94</ele>
        <time>2017-03-29T07:55:19Z</time>
      </trkpt>
      <trkpt lat="47.31562" lon="-2.45271">
        <ele>5.42</ele>
        <time>2017-03-29T07:55:27Z</time>
      </trkpt>
      <trkpt lat="47.31552" lon="-2.45271">
        <ele>2.54</ele>
        <time>2017-03-29T07:55:33Z</time>
      </trkpt>
      <trkpt lat="47.31543" lon="-2.45265">
        <ele>5.91</ele>
        <time>2017-03-29T07:55:40Z</time>
      </trkpt>
      <trkpt lat="47.31533" lon="-2.45261">
        <ele>4.46</ele>
        <time>2017-03-29T07:55:47Z</time>
      </trkpt>
      <trkpt lat="47.31523" lon="-2.45261">
        <ele>6.39</ele>
        <time>2017-03-29T07:56:05Z</time>
      </trkpt>
      <trkpt lat="47.31513" lon="-2.45262">
        <ele>6.39</ele>
        <time>2017-03-29T07:56:12Z</time>
      </trkpt>
      <trkpt lat="47.31504" lon="-2.45264">
        <ele>3.02</ele>
        <time>2017-03-29T07:56:18Z</time>
      </trkpt>
      <trkpt lat="47.31494" lon="-2.45267">
        <ele>5.91</ele>
        <time>2017-03-29T07:56:25Z</time>
      </trkpt>
      <trkpt lat="47.31485" lon="-2.45269">
        <ele>3.5</ele>
        <time>2017-03-29T07:56:32Z</time>
      </trkpt>
      <trkpt lat="47.31475" lon="-2.45271">
        <ele>1.58</ele>
        <time>2017-03-29T07:56:39Z</time>
      </trkpt>
      <trkpt lat="47.31466" lon="-2.45271">
        <ele>5.91</ele>
        <time>2017-03-29T07:56:46Z</time>
      </trkpt>
      <trkpt lat="47.31456" lon="-2.45272">
        <ele>5.42</ele>
        <time>2017-03-29T07:56:52Z</time>
      </trkpt>
      <trkpt lat="47.31446" lon="-2.45272">
        <ele>4.94</ele>
        <time>2017-03-29T07:56:59Z</time>
      </trkpt>
      <trkpt lat="47.31436" lon="-2.45272">
        <ele>4.94</ele>
        <time>2017-03-29T07:57:06Z</time>
      </trkpt>
      <trkpt lat="47.31427" lon="-2.4527">
        <ele>1.58</ele>
        <time>2017-03-29T07:57:13Z</time>
      </trkpt>
      <trkpt lat="47.31417" lon="-2.45267">
        <ele>4.46</ele>
        <time>2017-03-29T07:57:20Z</time>
      </trkpt>
      <trkpt lat="47.31408" lon="-2.45266">
        <ele>4.94</ele>
        <time>2017-03-29T07:57:27Z</time>
      </trkpt>
      <trkpt lat="47.31398" lon="-2.45266">
        <ele>3.5</ele>
        <time>2017-03-29T07:57:34Z</time>
      </trkpt>
      <trkpt lat="47.31388" lon="-2.45267">
        <ele>7.35</ele>
        <time>2017-03-29T07:57:40Z</time>
      </trkpt>
      <trkpt lat="47.31378" lon="-2.45267">
        <ele>3.02</ele>
        <time>2017-03-29T07:57:47Z</time>
      </trkpt>
      <trkpt lat="47.3137" lon="-2.45268">
        <ele>5.91</ele>
        <time>2017-03-29T07:57:53Z</time>
      </trkpt>
      <trkpt lat="47.3136" lon="-2.45269">
        <ele>4.46</ele>
        <time>2017-03-29T07:57:59Z</time>
      </trkpt>
      <trkpt lat="47.3135" lon="-2.45269">
        <ele>6.39</ele>
        <time>2017-03-29T07:58:06Z</time>
      </trkpt>
      <trkpt lat="47.31342" lon="-2.45271">
        <ele>3.98</ele>
        <time>2017-03-29T07:58:12Z</time>
      </trkpt>
      <trkpt lat="47.31332" lon="-2.45273">
        <ele>1.58</ele>
        <time>2017-03-29T07:58:19Z</time>
      </trkpt>
      <trkpt lat="47.31323" lon="-2.45275">
        <ele>6.87</ele>
        <time>2017-03-29T07:58:26Z</time>
      </trkpt>
      <trkpt lat="47.31314" lon="-2.45277">
        <ele>6.87</ele>
        <time>2017-03-29T07:58:32Z</time>
      </trkpt>
      <trkpt lat="47.31305" lon="-2.4528">
        <ele>2.54</ele>
        <time>2017-03-29T07:58:39Z</time>
      </trkpt>
      <trkpt lat="47.31296" lon="-2.45283">
        <ele>6.39</ele>
        <time>2017-03-29T07:58:45Z</time>
      </trkpt>
      <trkpt lat="47.31287" lon="-2.45287">
        <ele>3.98</ele>
        <time>2017-03-29T07:58:52Z</time>
      </trkpt>
      <trkpt lat="47.31279" lon="-2.45292">
        <ele>3.98</ele>
        <time>2017-03-29T07:58:58Z</time>
      </trkpt>
      <trkpt lat="47.3127" lon="-2.45298">
        <ele>7.35</ele>
        <time>2017-03-29T07:59:05Z</time>
      </trkpt>
      <trkpt lat="47.31261" lon="-2.45304">
        <ele>2.54</ele>
        <time>2017-03-29T07:59:12Z</time>
      </trkpt>
      <trkpt lat="47.31253" lon="-2.4531">
        <ele>7.35</ele>
        <time>2017-03-29T07:59:18Z</time>
      </trkpt>
      <trkpt lat="47.31245" lon="-2.45315">
        <ele>4.94</ele>
        <time>2017-03-29T07:59:25Z</time>
      </trkpt>
      <trkpt lat="47.31237" lon="-2.45322">
        <ele>3.98</ele>
        <time>2017-03-29T07:59:32Z</time>
      </trkpt>
      <trkpt lat="47.3123" lon="-2.45332">
        <ele>8.31</ele>
        <time>2017-03-29T07:59:39Z</time>
      </trkpt>
      <trkpt lat="47.31225" lon="-2.45344">
        <ele>4.94</ele>
        <time>2017-03-29T07:59:46Z</time>
      </trkpt>
      <trkpt lat="47.31221" lon="-2.45357">
        <ele>5.91</ele>
        <time>2017-03-29T07:59:53Z</time>
      </trkpt>
      <trkpt lat="47.31218" lon="-2.4537">
        <ele>5.91</ele>
        <time>2017-03-29T08:00:00Z</time>
      </trkpt>
      <trkpt lat="47.31214" lon="-2.45383">
        <ele>5.91</ele>
        <time>2017-03-29T08:00:07Z</time>
      </trkpt>
      <trkpt lat="47.31211" lon="-2.45398">
        <ele>5.42</ele>
        <time>2017-03-29T08:00:14Z</time>
      </trkpt>
      <trkpt lat="47.31207" lon="-2.45412">
        <ele>4.94</ele>
        <time>2017-03-29T08:00:21Z</time>
      </trkpt>
      <trkpt lat="47.31202" lon="-2.45424">
        <ele>7.83</ele>
        <time>2017-03-29T08:00:28Z</time>
      </trkpt>
      <trkpt lat="47.31197" lon="-2.45437">
        <ele>3.98</ele>
        <time>2017-03-29T08:00:35Z</time>
      </trkpt>
      <trkpt lat="47.31192" lon="-2.45449">
        <ele>6.87</ele>
        <time>2017-03-29T08:00:42Z</time>
      </trkpt>
      <trkpt lat="47.31187" lon="-2.45461">
        <ele>3.5</ele>
        <time>2017-03-29T08:00:49Z</time>
      </trkpt>
      <trkpt lat="47.31181" lon="-2.45473">
        <ele>6.87</ele>
        <time>2017-03-29T08:00:56Z</time>
      </trkpt>
      <trkpt lat="47.31175" lon="-2.45484">
        <ele>3.02</ele>
        <time>2017-03-29T08:01:03Z</time>
      </trkpt>
      <trkpt lat="47.31167" lon="-2.45493">
        <ele>8.79</ele>
        <time>2017-03-29T08:01:10Z</time>
      </trkpt>
      <trkpt lat="47.31158" lon="-2.45501">
        <ele>4.46</ele>
        <time>2017-03-29T08:01:17Z</time>
      </trkpt>
      <trkpt lat="47.31148" lon="-2.45505">
        <ele>5.42</ele>
        <time>2017-03-29T08:01:24Z</time>
      </trkpt>
      <trkpt lat="47.31139" lon="-2.4551">
        <ele>8.31</ele>
        <time>2017-03-29T08:01:31Z</time>
      </trkpt>
      <trkpt lat="47.31129" lon="-2.45518">
        <ele>3.02</ele>
        <time>2017-03-29T08:01:38Z</time>
      </trkpt>
      <trkpt lat="47.31121" lon="-2.45525">
        <ele>6.87</ele>
        <time>2017-03-29T08:01:44Z</time>
      </trkpt>
      <trkpt lat="47.31112" lon="-2.4553">
        <ele>5.42</ele>
        <time>2017-03-29T08:01:51Z</time>
      </trkpt>
      <trkpt lat="47.31103" lon="-2.45533">
        <ele>3.02</ele>
        <time>2017-03-29T08:01:57Z</time>
      </trkpt>
      <trkpt lat="47.31095" lon="-2.45535">
        <ele>3.5</ele>
        <time>2017-03-29T08:02:03Z</time>
      </trkpt>
      <trkpt lat="47.31086" lon="-2.45537">
        <ele>5.91</ele>
        <time>2017-03-29T08:02:10Z</time>
      </trkpt>
      <trkpt lat="47.31077" lon="-2.4554">
        <ele>5.42</ele>
        <time>2017-03-29T08:02:17Z</time>
      </trkpt>
      <trkpt lat="47.31068" lon="-2.45547">
        <ele>4.46</ele>
        <time>2017-03-29T08:02:24Z</time>
      </trkpt>
      <trkpt lat="47.3106" lon="-2.45551">
        <ele>4.94</ele>
        <time>2017-03-29T08:02:30Z</time>
      </trkpt>
      <trkpt lat="47.31051" lon="-2.45554">
        <ele>3.02</ele>
        <time>2017-03-29T08:02:37Z</time>
      </trkpt>
      <trkpt lat="47.31041" lon="-2.45559">
        <ele>3.98</ele>
        <time>2017-03-29T08:02:44Z</time>
      </trkpt>
      <trkpt lat="47.31032" lon="-2.45562">
        <ele>4.94</ele>
        <time>2017-03-29T08:02:50Z</time>
      </trkpt>
      <trkpt lat="47.31021" lon="-2.45563">
        <ele>3.5</ele>
        <time>2017-03-29T08:02:57Z</time>
      </trkpt>
      <trkpt lat="47.31012" lon="-2.45563">
        <ele>4.94</ele>
        <time>2017-03-29T08:03:03Z</time>
      </trkpt>
      <trkpt lat="47.31002" lon="-2.45562">
        <ele>5.42</ele>
        <time>2017-03-29T08:03:09Z</time>
      </trkpt>
      <trkpt lat="47.30993" lon="-2.45561">
        <ele>4.94</ele>
        <time>2017-03-29T08:03:16Z</time>
      </trkpt>
      <trkpt lat="47.30984" lon="-2.45561">
        <ele>4.46</ele>
        <time>2017-03-29T08:03:22Z</time>
      </trkpt>
      <trkpt lat="47.30975" lon="-2.4556">
        <ele>5.91</ele>
        <time>2017-03-29T08:03:28Z</time>
      </trkpt>
      <trkpt lat="47.30966" lon="-2.45559">
        <ele>3.98</ele>
        <time>2017-03-29T08:03:35Z</time>
      </trkpt>
      <trkpt lat="47.30957" lon="-2.45561">
        <ele>4.46</ele>
        <time>2017-03-29T08:03:41Z</time>
      </trkpt>
      <trkpt lat="47.30948" lon="-2.45563">
        <ele>6.39</ele>
        <time>2017-03-29T08:03:47Z</time>
      </trkpt>
      <trkpt lat="47.30938" lon="-2.45565">
        <ele>6.87</ele>
        <time>2017-03-29T08:03:54Z</time>
      </trkpt>
      <trkpt lat="47.3093" lon="-2.45569">
        <ele>3.98</ele>
        <time>2017-03-29T08:04:00Z</time>
      </trkpt>
      <trkpt lat="47.30921" lon="-2.45574">
        <ele>7.35</ele>
        <time>2017-03-29T08:04:06Z</time>
      </trkpt>
      <trkpt lat="47.30913" lon="-2.45578">
        <ele>2.54</ele>
        <time>2017-03-29T08:04:13Z</time>
      </trkpt>
      <trkpt lat="47.30903" lon="-2.45583">
        <ele>4.46</ele>
        <time>2017-03-29T08:04:20Z</time>
      </trkpt>
      <trkpt lat="47.30895" lon="-2.45588">
        <ele>3.5</ele>
        <time>2017-03-29T08:04:26Z</time>
      </trkpt>
      <trkpt lat="47.30886" lon="-2.45594">
        <ele>6.39</ele>
        <time>2017-03-29T08:04:33Z</time>
      </trkpt>
      <trkpt lat="47.30876" lon="-2.45601">
        <ele>5.91</ele>
        <time>2017-03-29T08:04:40Z</time>
      </trkpt>
      <trkpt lat="47.3087" lon="-2.4561">
        <ele>4.46</ele>
        <time>2017-03-29T08:04:56Z</time>
      </trkpt>
      <trkpt lat="47.30863" lon="-2.45614">
        <ele>3.98</ele>
        <time>2017-03-29T08:05:30Z</time>
      </trkpt>
      <trkpt lat="47.30853" lon="-2.4562">
        <ele>3.5</ele>
        <time>2017-03-29T08:05:45Z</time>
      </trkpt>
      <trkpt lat="47.30843" lon="-2.45624">
        <ele>6.39</ele>
        <time>2017-03-29T08:05:52Z</time>
      </trkpt>
      <trkpt lat="47.30834" lon="-2.45629">
        <ele>3.5</ele>
        <time>2017-03-29T08:05:59Z</time>
      </trkpt>
      <trkpt lat="47.30824" lon="-2.45636">
        <ele>7.35</ele>
        <time>2017-03-29T08:06:06Z</time>
      </trkpt>
      <trkpt lat="47.30815" lon="-2.45642">
        <ele>3.98</ele>
        <time>2017-03-29T08:06:13Z</time>
      </trkpt>
      <trkpt lat="47.30807" lon="-2.45648">
        <ele>7.35</ele>
        <time>2017-03-29T08:06:19Z</time>
      </trkpt>
      <trkpt lat="47.30797" lon="-2.45652">
        <ele>4.46</ele>
        <time>2017-03-29T08:06:26Z</time>
      </trkpt>
      <trkpt lat="47.30787" lon="-2.45656">
        <ele>2.54</ele>
        <time>2017-03-29T08:06:33Z</time>
      </trkpt>
      <trkpt lat="47.30778" lon="-2.45657">
        <ele>5.91</ele>
        <time>2017-03-29T08:06:46Z</time>
      </trkpt>
      <trkpt lat="47.30768" lon="-2.45656">
        <ele>3.98</ele>
        <time>2017-03-29T08:06:53Z</time>
      </trkpt>
      <trkpt lat="47.30758" lon="-2.4565">
        <ele>3.98</ele>
        <time>2017-03-29T08:07:00Z</time>
      </trkpt>
      <trkpt lat="47.30749" lon="-2.45645">
        <ele>5.91</ele>
        <time>2017-03-29T08:07:07Z</time>
      </trkpt>
      <trkpt lat="47.3074" lon="-2.45637">
        <ele>2.54</ele>
        <time>2017-03-29T08:07:14Z</time>
      </trkpt>
      <trkpt lat="47.30732" lon="-2.45631">
        <ele>4.46</ele>
        <time>2017-03-29T08:07:20Z</time>
      </trkpt>
      <trkpt lat="47.30723" lon="-2.45625">
        <ele>3.5</ele>
        <time>2017-03-29T08:07:27Z</time>
      </trkpt>
      <trkpt lat="47.30715" lon="-2.45617">
        <ele>6.39</ele>
        <time>2017-03-29T08:07:34Z</time>
      </trkpt>
      <trkpt lat="47.30707" lon="-2.45608">
        <ele>6.39</ele>
        <time>2017-03-29T08:07:42Z</time>
      </trkpt>
      <trkpt lat="47.30699" lon="-2.456">
        <ele>3.5</ele>
        <time>2017-03-29T08:07:49Z</time>
      </trkpt>
      <trkpt lat="47.30691" lon="-2.45591">
        <ele>5.91</ele>
        <time>2017-03-29T08:07:56Z</time>
      </trkpt>
      <trkpt lat="47.30683" lon="-2.45583">
        <ele>5.91</ele>
        <time>2017-03-29T08:08:03Z</time>
      </trkpt>
      <trkpt lat="47.30675" lon="-2.45575">
        <ele>3.5</ele>
        <time>2017-03-29T08:08:10Z</time>
      </trkpt>
      <trkpt lat="47.30667" lon="-2.45568">
        <ele>3.5</ele>
        <time>2017-03-29T08:08:17Z</time>
      </trkpt>
      <trkpt lat="47.30659" lon="-2.45563">
        <ele>6.87</ele>
        <time>2017-03-29T08:08:24Z</time>
      </trkpt>
      <trkpt lat="47.30649" lon="-2.45558">
        <ele>4.46</ele>
        <time>2017-03-29T08:08:31Z</time>
      </trkpt>
      <trkpt lat="47.3064" lon="-2.45557">
        <ele>6.87</ele>
        <time>2017-03-29T08:08:38Z</time>
      </trkpt>
      <trkpt lat="47.30631" lon="-2.45557">
        <ele>3.02</ele>
        <time>2017-03-29T08:08:44Z</time>
      </trkpt>
      <trkpt lat="47.30622" lon="-2.45558">
        <ele>7.83</ele>
        <time>2017-03-29T08:08:51Z</time>
      </trkpt>
      <trkpt lat="47.30613" lon="-2.45561">
        <ele>3.02</ele>
        <time>2017-03-29T08:08:57Z</time>
      </trkpt>
      <trkpt lat="47.30604" lon="-2.45567">
        <ele>8.31</ele>
        <time>2017-03-29T08:09:04Z</time>
      </trkpt>
      <trkpt lat="47.30595" lon="-2.45573">
        <ele>3.98</ele>
        <time>2017-03-29T08:09:11Z</time>
      </trkpt>
      <trkpt lat="47.30588" lon="-2.4558">
        <ele>8.31</ele>
        <time>2017-03-29T08:09:17Z</time>
      </trkpt>
      <trkpt lat="47.30579" lon="-2.45586">
        <ele>3.02</ele>
        <time>2017-03-29T08:09:24Z</time>
      </trkpt>
      <trkpt lat="47.30569" lon="-2.45591">
        <ele>4.94</ele>
        <time>2017-03-29T08:09:31Z</time>
      </trkpt>
      <trkpt lat="47.3056" lon="-2.45591">
        <ele>6.39</ele>
        <time>2017-03-29T08:09:37Z</time>
      </trkpt>
      <trkpt lat="47.3055" lon="-2.4559">
        <ele>1.58</ele>
        <time>2017-03-29T08:09:44Z</time>
      </trkpt>
      <trkpt lat="47.30542" lon="-2.45585">
        <ele>4.94</ele>
        <time>2017-03-29T08:09:51Z</time>
      </trkpt>
      <trkpt lat="47.30534" lon="-2.45578">
        <ele>3.02</ele>
        <time>2017-03-29T08:09:58Z</time>
      </trkpt>
      <trkpt lat="47.30525" lon="-2.45573">
        <ele>4.94</ele>
        <time>2017-03-29T08:10:05Z</time>
      </trkpt>
      <trkpt lat="47.30515" lon="-2.45566">
        <ele>3.02</ele>
        <time>2017-03-29T08:10:12Z</time>
      </trkpt>
      <trkpt lat="47.30506" lon="-2.45562">
        <ele>4.94</ele>
        <time>2017-03-29T08:10:18Z</time>
      </trkpt>
      <trkpt lat="47.30498" lon="-2.45558">
        <ele>3.02</ele>
        <time>2017-03-29T08:10:24Z</time>
      </trkpt>
      <trkpt lat="47.30489" lon="-2.45555">
        <ele>6.87</ele>
        <time>2017-03-29T08:10:30Z</time>
      </trkpt>
      <trkpt lat="47.3048" lon="-2.4555">
        <ele>1.58</ele>
        <time>2017-03-29T08:10:37Z</time>
      </trkpt>
      <trkpt lat="47.3047" lon="-2.45548">
        <ele>7.35</ele>
        <time>2017-03-29T08:10:44Z</time>
      </trkpt>
      <trkpt lat="47.30462" lon="-2.45548">
        <ele>3.02</ele>
        <time>2017-03-29T08:10:50Z</time>
      </trkpt>
      <trkpt lat="47.30453" lon="-2.45549">
        <ele>8.79</ele>
        <time>2017-03-29T08:10:57Z</time>
      </trkpt>
      <trkpt lat="47.30444" lon="-2.45555">
        <ele>2.06</ele>
        <time>2017-03-29T08:11:03Z</time>
      </trkpt>
      <trkpt lat="47.30437" lon="-2.45561">
        <ele>9.27</ele>
        <time>2017-03-29T08:11:09Z</time>
      </trkpt>
      <trkpt lat="47.30428" lon="-2.45568">
        <ele>3.02</ele>
        <time>2017-03-29T08:11:16Z</time>
      </trkpt>
      <trkpt lat="47.3042" lon="-2.45575">
        <ele>6.39</ele>
        <time>2017-03-29T08:11:22Z</time>
      </trkpt>
      <trkpt lat="47.30412" lon="-2.4558">
        <ele>2.54</ele>
        <time>2017-03-29T08:11:29Z</time>
      </trkpt>
      <trkpt lat="47.30404" lon="-2.45586">
        <ele>4.46</ele>
        <time>2017-03-29T08:11:35Z</time>
      </trkpt>
      <trkpt lat="47.30395" lon="-2.45592">
        <ele>5.42</ele>
        <time>2017-03-29T08:11:41Z</time>
      </trkpt>
      <trkpt lat="47.30386" lon="-2.45596">
        <ele>2.06</ele>
        <time>2017-03-29T08:11:48Z</time>
      </trkpt>
      <trkpt lat="47.30377" lon="-2.45601">
        <ele>8.79</ele>
        <time>2017-03-29T08:11:55Z</time>
      </trkpt>
      <trkpt lat="47.30368" lon="-2.45604">
        <ele>3.98</ele>
        <time>2017-03-29T08:12:02Z</time>
      </trkpt>
      <trkpt lat="47.3036" lon="-2.45609">
        <ele>7.83</ele>
        <time>2017-03-29T08:12:08Z</time>
      </trkpt>
      <trkpt lat="47.30352" lon="-2.45615">
        <ele>0.14</ele>
        <time>2017-03-29T08:12:14Z</time>
      </trkpt>
      <trkpt lat="47.30343" lon="-2.45621">
        <ele>8.31</ele>
        <time>2017-03-29T08:12:21Z</time>
      </trkpt>
      <trkpt lat="47.30336" lon="-2.45629">
        <ele>3.5</ele>
        <time>2017-03-29T08:12:28Z</time>
      </trkpt>
      <trkpt lat="47.30329" lon="-2.45637">
        <ele>3.5</ele>
        <time>2017-03-29T08:12:34Z</time>
      </trkpt>
      <trkpt lat="47.3032" lon="-2.45643">
        <ele>7.35</ele>
        <time>2017-03-29T08:12:40Z</time>
      </trkpt>
      <trkpt lat="47.30311" lon="-2.45643">
        <ele>2.06</ele>
        <time>2017-03-29T08:12:47Z</time>
      </trkpt>
      <trkpt lat="47.30301" lon="-2.45641">
        <ele>4.94</ele>
        <time>2017-03-29T08:12:54Z</time>
      </trkpt>
      <trkpt lat="47.30292" lon="-2.45634">
        <ele>6.87</ele>
        <time>2017-03-29T08:13:01Z</time>
      </trkpt>
      <trkpt lat="47.30284" lon="-2.45627">
        <ele>2.54</ele>
        <time>2017-03-29T08:13:08Z</time>
      </trkpt>
      <trkpt lat="47.30276" lon="-2.45618">
        <ele>3.5</ele>
        <time>2017-03-29T08:13:15Z</time>
      </trkpt>
      <trkpt lat="47.30268" lon="-2.4561">
        <ele>3.98</ele>
        <time>2017-03-29T08:13:22Z</time>
      </trkpt>
      <trkpt lat="47.30259" lon="-2.45603">
        <ele>4.46</ele>
        <time>2017-03-29T08:13:29Z</time>
      </trkpt>
      <trkpt lat="47.3025" lon="-2.45597">
        <ele>2.54</ele>
        <time>2017-03-29T08:13:36Z</time>
      </trkpt>
      <trkpt lat="47.30241" lon="-2.45592">
        <ele>5.91</ele>
        <time>2017-03-29T08:13:43Z</time>
      </trkpt>
      <trkpt lat="47.3023" lon="-2.45591">
        <ele>1.58</ele>
        <time>2017-03-29T08:13:50Z</time>
      </trkpt>
      <trkpt lat="47.30221" lon="-2.45591">
        <ele>3.98</ele>
        <time>2017-03-29T08:13:57Z</time>
      </trkpt>
      <trkpt lat="47.30211" lon="-2.45591">
        <ele>2.54</ele>
        <time>2017-03-29T08:14:04Z</time>
      </trkpt>
      <trkpt lat="47.30202" lon="-2.45591">
        <ele>4.94</ele>
        <time>2017-03-29T08:14:10Z</time>
      </trkpt>
      <trkpt lat="47.30193" lon="-2.45593">
        <ele>3.02</ele>
        <time>2017-03-29T08:14:16Z</time>
      </trkpt>
      <trkpt lat="47.30183" lon="-2.45593">
        <ele>6.39</ele>
        <time>2017-03-29T08:14:23Z</time>
      </trkpt>
      <trkpt lat="47.30174" lon="-2.45593">
        <ele>5.91</ele>
        <time>2017-03-29T08:14:29Z</time>
      </trkpt>
      <trkpt lat="47.30166" lon="-2.45595">
        <ele>1.58</ele>
        <time>2017-03-29T08:14:35Z</time>
      </trkpt>
      <trkpt lat="47.30156" lon="-2.45596">
        <ele>5.42</ele>
        <time>2017-03-29T08:14:41Z</time>
      </trkpt>
      <trkpt lat="47.30148" lon="-2.45597">
        <ele>5.91</ele>
        <time>2017-03-29T08:14:47Z</time>
      </trkpt>
      <trkpt lat="47.30138" lon="-2.45599">
        <ele>2.54</ele>
        <time>2017-03-29T08:14:54Z</time>
      </trkpt>
      <trkpt lat="47.3013" lon="-2.456">
        <ele>5.42</ele>
        <time>2017-03-29T08:15:00Z</time>
      </trkpt>
      <trkpt lat="47.30121" lon="-2.45601">
        <ele>3.5</ele>
        <time>2017-03-29T08:15:06Z</time>
      </trkpt>
      <trkpt lat="47.30111" lon="-2.45602">
        <ele>4.94</ele>
        <time>2017-03-29T08:15:13Z</time>
      </trkpt>
      <trkpt lat="47.30101" lon="-2.45602">
        <ele>5.91</ele>
        <time>2017-03-29T08:15:20Z</time>
      </trkpt>
      <trkpt lat="47.30091" lon="-2.45602">
        <ele>3.5</ele>
        <time>2017-03-29T08:15:27Z</time>
      </trkpt>
      <trkpt lat="47.30082" lon="-2.45602">
        <ele>5.42</ele>
        <time>2017-03-29T08:15:34Z</time>
      </trkpt>
      <trkpt lat="47.30072" lon="-2.45605">
        <ele>2.54</ele>
        <time>2017-03-29T08:15:41Z</time>
      </trkpt>
      <trkpt lat="47.30062" lon="-2.45607">
        <ele>7.35</ele>
        <time>2017-03-29T08:15:48Z</time>
      </trkpt>
      <trkpt lat="47.30052" lon="-2.45608">
        <ele>3.98</ele>
        <time>2017-03-29T08:15:55Z</time>
      </trkpt>
      <trkpt lat="47.30043" lon="-2.45608">
        <ele>4.94</ele>
        <time>2017-03-29T08:16:01Z</time>
      </trkpt>
      <trkpt lat="47.30035" lon="-2.45609">
        <ele>5.91</ele>
        <time>2017-03-29T08:16:07Z</time>
      </trkpt>
      <trkpt lat="47.30025" lon="-2.4561">
        <ele>3.98</ele>
        <time>2017-03-29T08:16:14Z</time>
      </trkpt>
      <trkpt lat="47.30016" lon="-2.4561">
        <ele>7.83</ele>
        <time>2017-03-29T08:16:20Z</time>
      </trkpt>
      <trkpt lat="47.30008" lon="-2.45608">
        <ele>3.98</ele>
        <time>2017-03-29T08:16:26Z</time>
      </trkpt>
      <trkpt lat="47.29998" lon="-2.45607">
        <ele>3.98</ele>
        <time>2017-03-29T08:16:33Z</time>
      </trkpt>
      <trkpt lat="47.29988" lon="-2.45603">
        <ele>3.02</ele>
        <time>2017-03-29T08:16:40Z</time>
      </trkpt>
      <trkpt lat="47.29979" lon="-2.45602">
        <ele>3.02</ele>
        <time>2017-03-29T08:16:46Z</time>
      </trkpt>
      <trkpt lat="47.2997" lon="-2.45599">
        <ele>6.39</ele>
        <time>2017-03-29T08:16:53Z</time>
      </trkpt>
      <trkpt lat="47.29961" lon="-2.45594">
        <ele>2.54</ele>
        <time>2017-03-29T08:17:00Z</time>
      </trkpt>
      <trkpt lat="47.2995" lon="-2.45591">
        <ele>5.91</ele>
        <time>2017-03-29T08:17:07Z</time>
      </trkpt>
      <trkpt lat="47.29941" lon="-2.45587">
        <ele>2.06</ele>
        <time>2017-03-29T08:17:14Z</time>
      </trkpt>
      <trkpt lat="47.29931" lon="-2.45584">
        <ele>6.39</ele>
        <time>2017-03-29T08:17:21Z</time>
      </trkpt>
      <trkpt lat="47.29922" lon="-2.4558">
        <ele>3.5</ele>
        <time>2017-03-29T08:17:27Z</time>
      </trkpt>
      <trkpt lat="47.29914" lon="-2.45575">
        <ele>5.91</ele>
        <time>2017-03-29T08:17:34Z</time>
      </trkpt>
      <trkpt lat="47.29905" lon="-2.45572">
        <ele>2.54</ele>
        <time>2017-03-29T08:17:40Z</time>
      </trkpt>
      <trkpt lat="47.29896" lon="-2.45567">
        <ele>6.87</ele>
        <time>2017-03-29T08:17:47Z</time>
      </trkpt>
      <trkpt lat="47.29885" lon="-2.45563">
        <ele>1.1</ele>
        <time>2017-03-29T08:17:55Z</time>
      </trkpt>
      <trkpt lat="47.29875" lon="-2.45561">
        <ele>7.35</ele>
        <time>2017-03-29T08:18:02Z</time>
      </trkpt>
      <trkpt lat="47.29866" lon="-2.45554">
        <ele>2.54</ele>
        <time>2017-03-29T08:18:10Z</time>
      </trkpt>
      <trkpt lat="47.29857" lon="-2.45548">
        <ele>5.42</ele>
        <time>2017-03-29T08:18:17Z</time>
      </trkpt>
      <trkpt lat="47.2985" lon="-2.45538">
        <ele>4.46</ele>
        <time>2017-03-29T08:18:24Z</time>
      </trkpt>
      <trkpt lat="47.29843" lon="-2.45528">
        <ele>4.94</ele>
        <time>2017-03-29T08:18:31Z</time>
      </trkpt>
      <trkpt lat="47.29835" lon="-2.45518">
        <ele>3.5</ele>
        <time>2017-03-29T08:18:38Z</time>
      </trkpt>
      <trkpt lat="47.29829" lon="-2.45508">
        <ele>6.39</ele>
        <time>2017-03-29T08:18:45Z</time>
      </trkpt>
      <trkpt lat="47.29823" lon="-2.45499">
        <ele>1.58</ele>
        <time>2017-03-29T08:18:51Z</time>
      </trkpt>
      <trkpt lat="47.29815" lon="-2.45491">
        <ele>6.87</ele>
        <time>2017-03-29T08:19:02Z</time>
      </trkpt>
      <trkpt lat="47.29809" lon="-2.45485">
        <ele>7.83</ele>
        <time>2017-03-29T08:19:26Z</time>
      </trkpt>
      <trkpt lat="47.298" lon="-2.45479">
        <ele>5.42</ele>
        <time>2017-03-29T08:19:33Z</time>
      </trkpt>
      <trkpt lat="47.29791" lon="-2.45472">
        <ele>3.98</ele>
        <time>2017-03-29T08:19:40Z</time>
      </trkpt>
      <trkpt lat="47.29783" lon="-2.45465">
        <ele>1.58</ele>
        <time>2017-03-29T08:19:47Z</time>
      </trkpt>
      <trkpt lat="47.29775" lon="-2.45459">
        <ele>5.42</ele>
        <time>2017-03-29T08:19:53Z</time>
      </trkpt>
      <trkpt lat="47.29766" lon="-2.45453">
        <ele>1.58</ele>
        <time>2017-03-29T08:20:00Z</time>
      </trkpt>
      <trkpt lat="47.29756" lon="-2.45447">
        <ele>4.94</ele>
        <time>2017-03-29T08:20:07Z</time>
      </trkpt>
      <trkpt lat="47.29747" lon="-2.45442">
        <ele>5.42</ele>
        <time>2017-03-29T08:20:14Z</time>
      </trkpt>
      <trkpt lat="47.29737" lon="-2.45438">
        <ele>2.06</ele>
        <time>2017-03-29T08:20:21Z</time>
      </trkpt>
      <trkpt lat="47.29727" lon="-2.45438">
        <ele>5.91</ele>
        <time>2017-03-29T08:20:27Z</time>
      </trkpt>
      <trkpt lat="47.29717" lon="-2.4544">
        <ele>5.91</ele>
        <time>2017-03-29T08:20:34Z</time>
      </trkpt>
      <trkpt lat="47.29708" lon="-2.45444">
        <ele>6.39</ele>
        <time>2017-03-29T08:20:41Z</time>
      </trkpt>
      <trkpt lat="47.29698" lon="-2.45449">
        <ele>3.02</ele>
        <time>2017-03-29T08:20:48Z</time>
      </trkpt>
      <trkpt lat="47.29689" lon="-2.4545">
        <ele>7.35</ele>
        <time>2017-03-29T08:20:54Z</time>
      </trkpt>
      <trkpt lat="47.29679" lon="-2.45447">
        <ele>3.02</ele>
        <time>2017-03-29T08:21:01Z</time>
      </trkpt>
      <trkpt lat="47.2967" lon="-2.45442">
        <ele>4.46</ele>
        <time>2017-03-29T08:21:07Z</time>
      </trkpt>
      <trkpt lat="47.29662" lon="-2.45436">
        <ele>5.91</ele>
        <time>2017-03-29T08:21:13Z</time>
      </trkpt>
      <trkpt lat="47.29653" lon="-2.45432">
        <ele>2.06</ele>
        <time>2017-03-29T08:21:20Z</time>
      </trkpt>
      <trkpt lat="47.29644" lon="-2.4543">
        <ele>5.42</ele>
        <time>2017-03-29T08:21:26Z</time>
      </trkpt>
      <trkpt lat="47.29635" lon="-2.45432">
        <ele>5.91</ele>
        <time>2017-03-29T08:21:32Z</time>
      </trkpt>
      <trkpt lat="47.29625" lon="-2.45434">
        <ele>3.02</ele>
        <time>2017-03-29T08:21:39Z</time>
      </trkpt>
      <trkpt lat="47.29615" lon="-2.45437">
        <ele>6.87</ele>
        <time>2017-03-29T08:21:46Z</time>
      </trkpt>
      <trkpt lat="47.29607" lon="-2.4544">
        <ele>5.91</ele>
        <time>2017-03-29T08:21:52Z</time>
      </trkpt>
      <trkpt lat="47.29598" lon="-2.45444">
        <ele>3.98</ele>
        <time>2017-03-29T08:21:58Z</time>
      </trkpt>
      <trkpt lat="47.2959" lon="-2.45449">
        <ele>7.83</ele>
        <time>2017-03-29T08:22:04Z</time>
      </trkpt>
      <trkpt lat="47.29581" lon="-2.45453">
        <ele>4.46</ele>
        <time>2017-03-29T08:22:11Z</time>
      </trkpt>
      <trkpt lat="47.29573" lon="-2.45459">
        <ele>4.46</ele>
        <time>2017-03-29T08:22:17Z</time>
      </trkpt>
      <trkpt lat="47.29565" lon="-2.45468">
        <ele>7.83</ele>
        <time>2017-03-29T08:22:24Z</time>
      </trkpt>
      <trkpt lat="47.29558" lon="-2.45476">
        <ele>5.42</ele>
        <time>2017-03-29T08:22:30Z</time>
      </trkpt>
      <trkpt lat="47.2955" lon="-2.45481">
        <ele>5.42</ele>
        <time>2017-03-29T08:22:48Z</time>
      </trkpt>
      <trkpt lat="47.29543" lon="-2.45488">
        <ele>4.46</ele>
        <time>2017-03-29T08:22:55Z</time>
      </trkpt>
      <trkpt lat="47.29534" lon="-2.45494">
        <ele>4.94</ele>
        <time>2017-03-29T08:23:02Z</time>
      </trkpt>
      <trkpt lat="47.29526" lon="-2.455">
        <ele>4.94</ele>
        <time>2017-03-29T08:23:09Z</time>
      </trkpt>
      <trkpt lat="47.29519" lon="-2.45504">
        <ele>5.91</ele>
        <time>2017-03-29T08:23:25Z</time>
      </trkpt>
      <trkpt lat="47.29509" lon="-2.4551">
        <ele>7.35</ele>
        <time>2017-03-29T08:23:32Z</time>
      </trkpt>
      <trkpt lat="47.295" lon="-2.45516">
        <ele>6.39</ele>
        <time>2017-03-29T08:23:39Z</time>
      </trkpt>
      <trkpt lat="47.29492" lon="-2.45522">
        <ele>4.94</ele>
        <time>2017-03-29T08:23:45Z</time>
      </trkpt>
      <trkpt lat="47.29483" lon="-2.4553">
        <ele>4.46</ele>
        <time>2017-03-29T08:23:52Z</time>
      </trkpt>
      <trkpt lat="47.29474" lon="-2.45536">
        <ele>5.42</ele>
        <time>2017-03-29T08:23:58Z</time>
      </trkpt>
      <trkpt lat="47.29466" lon="-2.45544">
        <ele>8.31</ele>
        <time>2017-03-29T08:24:04Z</time>
      </trkpt>
      <trkpt lat="47.29458" lon="-2.45549">
        <ele>4.94</ele>
        <time>2017-03-29T08:24:11Z</time>
      </trkpt>
      <trkpt lat="47.29449" lon="-2.45555">
        <ele>3.5</ele>
        <time>2017-03-29T08:24:18Z</time>
      </trkpt>
      <trkpt lat="47.29442" lon="-2.45562">
        <ele>7.83</ele>
        <time>2017-03-29T08:24:24Z</time>
      </trkpt>
      <trkpt lat="47.29433" lon="-2.4557">
        <ele>3.02</ele>
        <time>2017-03-29T08:24:31Z</time>
      </trkpt>
      <trkpt lat="47.29425" lon="-2.45577">
        <ele>5.91</ele>
        <time>2017-03-29T08:24:38Z</time>
      </trkpt>
      <trkpt lat="47.29417" lon="-2.45583">
        <ele>7.83</ele>
        <time>2017-03-29T08:24:44Z</time>
      </trkpt>
      <trkpt lat="47.29408" lon="-2.45588">
        <ele>2.54</ele>
        <time>2017-03-29T08:24:50Z</time>
      </trkpt>
      <trkpt lat="47.29399" lon="-2.45592">
        <ele>7.35</ele>
        <time>2017-03-29T08:24:56Z</time>
      </trkpt>
      <trkpt lat="47.29391" lon="-2.45594">
        <ele>5.91</ele>
        <time>2017-03-29T08:25:02Z</time>
      </trkpt>
      <trkpt lat="47.29381" lon="-2.45595">
        <ele>3.02</ele>
        <time>2017-03-29T08:25:09Z</time>
      </trkpt>
      <trkpt lat="47.2937" lon="-2.45595">
        <ele>5.91</ele>
        <time>2017-03-29T08:25:16Z</time>
      </trkpt>
      <trkpt lat="47.2936" lon="-2.45595">
        <ele>4.94</ele>
        <time>2017-03-29T08:25:23Z</time>
      </trkpt>
      <trkpt lat="47.29351" lon="-2.45594">
        <ele>3.5</ele>
        <time>2017-03-29T08:25:29Z</time>
      </trkpt>
      <trkpt lat="47.29342" lon="-2.45594">
        <ele>6.87</ele>
        <time>2017-03-29T08:25:35Z</time>
      </trkpt>
      <trkpt lat="47.29331" lon="-2.45594">
        <ele>5.91</ele>
        <time>2017-03-29T08:25:42Z</time>
      </trkpt>
      <trkpt lat="47.29322" lon="-2.45593">
        <ele>6.39</ele>
        <time>2017-03-29T08:25:48Z</time>
      </trkpt>
      <trkpt lat="47.29312" lon="-2.45591">
        <ele>3.02</ele>
        <time>2017-03-29T08:25:55Z</time>
      </trkpt>
      <trkpt lat="47.29303" lon="-2.45589">
        <ele>2.54</ele>
        <time>2017-03-29T08:26:01Z</time>
      </trkpt>
      <trkpt lat="47.29294" lon="-2.45587">
        <ele>2.54</ele>
        <time>2017-03-29T08:26:07Z</time>
      </trkpt>
      <trkpt lat="47.29284" lon="-2.45584">
        <ele>4.46</ele>
        <time>2017-03-29T08:26:14Z</time>
      </trkpt>
      <trkpt lat="47.29275" lon="-2.45578">
        <ele>3.98</ele>
        <time>2017-03-29T08:26:20Z</time>
      </trkpt>
      <trkpt lat="47.29266" lon="-2.45572">
        <ele>3.5</ele>
        <time>2017-03-29T08:26:27Z</time>
      </trkpt>
      <trkpt lat="47.29257" lon="-2.45566">
        <ele>3.02</ele>
        <time>2017-03-29T08:26:34Z</time>
      </trkpt>
      <trkpt lat="47.29247" lon="-2.45562">
        <ele>3.98</ele>
        <time>2017-03-29T08:26:41Z</time>
      </trkpt>
      <trkpt lat="47.29239" lon="-2.45558">
        <ele>5.91</ele>
        <time>2017-03-29T08:26:48Z</time>
      </trkpt>
      <trkpt lat="47.29229" lon="-2.45554">
        <ele>4.46</ele>
        <time>2017-03-29T08:26:55Z</time>
      </trkpt>
      <trkpt lat="47.29219" lon="-2.45552">
        <ele>2.06</ele>
        <time>2017-03-29T08:27:02Z</time>
      </trkpt>
      <trkpt lat="47.29209" lon="-2.45552">
        <ele>4.94</ele>
        <time>2017-03-29T08:27:09Z</time>
      </trkpt>
      <trkpt lat="47.292" lon="-2.45551">
        <ele>6.87</ele>
        <time>2017-03-29T08:27:15Z</time>
      </trkpt>
      <trkpt lat="47.29191" lon="-2.4555">
        <ele>4.46</ele>
        <time>2017-03-29T08:27:21Z</time>
      </trkpt>
      <trkpt lat="47.2918" lon="-2.45548">
        <ele>3.98</ele>
        <time>2017-03-29T08:27:28Z</time>
      </trkpt>
      <trkpt lat="47.29171" lon="-2.45545">
        <ele>3.5</ele>
        <time>2017-03-29T08:27:34Z</time>
      </trkpt>
      <trkpt lat="47.29162" lon="-2.45541">
        <ele>4.94</ele>
        <time>2017-03-29T08:27:40Z</time>
      </trkpt>
      <trkpt lat="47.29152" lon="-2.45538">
        <ele>5.91</ele>
        <time>2017-03-29T08:27:47Z</time>
      </trkpt>
      <trkpt lat="47.29142" lon="-2.45534">
        <ele>8.79</ele>
        <time>2017-03-29T08:27:54Z</time>
      </trkpt>
      <trkpt lat="47.29133" lon="-2.45531">
        <ele>5.42</ele>
        <time>2017-03-29T08:28:01Z</time>
      </trkpt>
      <trkpt lat="47.29123" lon="-2.45527">
        <ele>2.54</ele>
        <time>2017-03-29T08:28:08Z</time>
      </trkpt>
      <trkpt lat="47.29113" lon="-2.45524">
        <ele>3.02</ele>
        <time>2017-03-29T08:28:15Z</time>
      </trkpt>
      <trkpt lat="47.29103" lon="-2.45521">
        <ele>6.39</ele>
        <time>2017-03-29T08:28:22Z</time>
      </trkpt>
      <trkpt lat="47.29092" lon="-2.45518">
        <ele>3.98</ele>
        <time>2017-03-29T08:28:30Z</time>
      </trkpt>
      <trkpt lat="47.29082" lon="-2.45515">
        <ele>5.91</ele>
        <time>2017-03-29T08:28:38Z</time>
      </trkpt>
      <trkpt lat="47.29073" lon="-2.45514">
        <ele>7.35</ele>
        <time>2017-03-29T08:29:01Z</time>
      </trkpt>
      <trkpt lat="47.29064" lon="-2.4551">
        <ele>3.98</ele>
        <time>2017-03-29T08:29:08Z</time>
      </trkpt>
      <trkpt lat="47.29055" lon="-2.45507">
        <ele>4.94</ele>
        <time>2017-03-29T08:29:14Z</time>
      </trkpt>
      <trkpt lat="47.29045" lon="-2.45505">
        <ele>4.46</ele>
        <time>2017-03-29T08:29:21Z</time>
      </trkpt>
      <trkpt lat="47.29036" lon="-2.45504">
        <ele>7.35</ele>
        <time>2017-03-29T08:29:27Z</time>
      </trkpt>
      <trkpt lat="47.29026" lon="-2.45507">
        <ele>3.5</ele>
        <time>2017-03-29T08:29:34Z</time>
      </trkpt>
      <trkpt lat="47.29017" lon="-2.45511">
        <ele>5.91</ele>
        <time>2017-03-29T08:29:40Z</time>
      </trkpt>
      <trkpt lat="47.29008" lon="-2.45515">
        <ele>7.83</ele>
        <time>2017-03-29T08:29:47Z</time>
      </trkpt>
      <trkpt lat="47.29" lon="-2.45519">
        <ele>5.42</ele>
        <time>2017-03-29T08:29:53Z</time>
      </trkpt>
      <trkpt lat="47.2899" lon="-2.45522">
        <ele>3.02</ele>
        <time>2017-03-29T08:30:00Z</time>
      </trkpt>
      <trkpt lat="47.28981" lon="-2.45525">
        <ele>6.87</ele>
        <time>2017-03-29T08:30:06Z</time>
      </trkpt>
      <trkpt lat="47.28972" lon="-2.45528">
        <ele>6.87</ele>
        <time>2017-03-29T08:30:13Z</time>
      </trkpt>
      <trkpt lat="47.28962" lon="-2.45531">
        <ele>6.87</ele>
        <time>2017-03-29T08:30:20Z</time>
      </trkpt>
      <trkpt lat="47.28953" lon="-2.45535">
        <ele>3.02</ele>
        <time>2017-03-29T08:30:26Z</time>
      </trkpt>
      <trkpt lat="47.28944" lon="-2.45536">
        <ele>4.46</ele>
        <time>2017-03-29T08:30:33Z</time>
      </trkpt>
      <trkpt lat="47.28936" lon="-2.4554">
        <ele>6.87</ele>
        <time>2017-03-29T08:30:39Z</time>
      </trkpt>
      <trkpt lat="47.28927" lon="-2.45544">
        <ele>7.35</ele>
        <time>2017-03-29T08:30:46Z</time>
      </trkpt>
      <trkpt lat="47.28916" lon="-2.45548">
        <ele>7.83</ele>
        <time>2017-03-29T08:30:53Z</time>
      </trkpt>
      <trkpt lat="47.28907" lon="-2.45552">
        <ele>6.87</ele>
        <time>2017-03-29T08:30:59Z</time>
      </trkpt>
      <trkpt lat="47.28898" lon="-2.45556">
        <ele>5.91</ele>
        <time>2017-03-29T08:31:05Z</time>
      </trkpt>
      <trkpt lat="47.28889" lon="-2.45562">
        <ele>5.42</ele>
        <time>2017-03-29T08:31:12Z</time>
      </trkpt>
      <trkpt lat="47.2888" lon="-2.4557">
        <ele>8.31</ele>
        <time>2017-03-29T08:31:20Z</time>
      </trkpt>
      <trkpt lat="47.28872" lon="-2.45577">
        <ele>6.39</ele>
        <time>2017-03-29T08:31:26Z</time>
      </trkpt>
      <trkpt lat="47.28865" lon="-2.45585">
        <ele>4.94</ele>
        <time>2017-03-29T08:31:32Z</time>
      </trkpt>
      <trkpt lat="47.28857" lon="-2.45592">
        <ele>3.98</ele>
        <time>2017-03-29T08:31:38Z</time>
      </trkpt>
      <trkpt lat="47.28848" lon="-2.45599">
        <ele>4.46</ele>
        <time>2017-03-29T08:31:44Z</time>
      </trkpt>
      <trkpt lat="47.2884" lon="-2.45607">
        <ele>6.87</ele>
        <time>2017-03-29T08:31:50Z</time>
      </trkpt>
      <trkpt lat="47.28831" lon="-2.45615">
        <ele>6.87</ele>
        <time>2017-03-29T08:31:57Z</time>
      </trkpt>
      <trkpt lat="47.28823" lon="-2.45622">
        <ele>5.91</ele>
        <time>2017-03-29T08:32:04Z</time>
      </trkpt>
      <trkpt lat="47.28815" lon="-2.4563">
        <ele>7.83</ele>
        <time>2017-03-29T08:32:10Z</time>
      </trkpt>
      <trkpt lat="47.28807" lon="-2.45638">
        <ele>7.83</ele>
        <time>2017-03-29T08:32:16Z</time>
      </trkpt>
      <trkpt lat="47.288" lon="-2.45647">
        <ele>8.79</ele>
        <time>2017-03-29T08:32:22Z</time>
      </trkpt>
      <trkpt lat="47.28792" lon="-2.45654">
        <ele>7.35</ele>
        <time>2017-03-29T08:32:28Z</time>
      </trkpt>
      <trkpt lat="47.28783" lon="-2.45661">
        <ele>4.46</ele>
        <time>2017-03-29T08:32:35Z</time>
      </trkpt>
      <trkpt lat="47.28774" lon="-2.45665">
        <ele>4.46</ele>
        <time>2017-03-29T08:32:41Z</time>
      </trkpt>
      <trkpt lat="47.28765" lon="-2.45668">
        <ele>6.87</ele>
        <time>2017-03-29T08:32:48Z</time>
      </trkpt>
      <trkpt lat="47.28755" lon="-2.45672">
        <ele>8.79</ele>
        <time>2017-03-29T08:32:55Z</time>
      </trkpt>
      <trkpt lat="47.28745" lon="-2.45675">
        <ele>6.39</ele>
        <time>2017-03-29T08:33:01Z</time>
      </trkpt>
      <trkpt lat="47.28736" lon="-2.45679">
        <ele>4.46</ele>
        <time>2017-03-29T08:33:07Z</time>
      </trkpt>
      <trkpt lat="47.28728" lon="-2.45682">
        <ele>3.02</ele>
        <time>2017-03-29T08:33:13Z</time>
      </trkpt>
      <trkpt lat="47.28718" lon="-2.45685">
        <ele>5.91</ele>
        <time>2017-03-29T08:33:19Z</time>
      </trkpt>
      <trkpt lat="47.28708" lon="-2.45687">
        <ele>5.42</ele>
        <time>2017-03-29T08:33:27Z</time>
      </trkpt>
      <trkpt lat="47.28699" lon="-2.4569">
        <ele>6.87</ele>
        <time>2017-03-29T08:33:33Z</time>
      </trkpt>
      <trkpt lat="47.2869" lon="-2.45691">
        <ele>3.02</ele>
        <time>2017-03-29T08:33:38Z</time>
      </trkpt>
      <trkpt lat="47.2868" lon="-2.45693">
        <ele>3.02</ele>
        <time>2017-03-29T08:33:44Z</time>
      </trkpt>
      <trkpt lat="47.28671" lon="-2.45695">
        <ele>6.87</ele>
        <time>2017-03-29T08:33:50Z</time>
      </trkpt>
      <trkpt lat="47.28663" lon="-2.45696">
        <ele>7.35</ele>
        <time>2017-03-29T08:33:57Z</time>
      </trkpt>
      <trkpt lat="47.28652" lon="-2.45695">
        <ele>4.94</ele>
        <time>2017-03-29T08:34:04Z</time>
      </trkpt>
      <trkpt lat="47.28642" lon="-2.45696">
        <ele>3.5</ele>
        <time>2017-03-29T08:34:10Z</time>
      </trkpt>
      <trkpt lat="47.28632" lon="-2.45696">
        <ele>2.54</ele>
        <time>2017-03-29T08:34:16Z</time>
      </trkpt>
      <trkpt lat="47.28623" lon="-2.45697">
        <ele>3.5</ele>
        <time>2017-03-29T08:34:22Z</time>
      </trkpt>
      <trkpt lat="47.28613" lon="-2.45696">
        <ele>3.5</ele>
        <time>2017-03-29T08:34:28Z</time>
      </trkpt>
      <trkpt lat="47.28604" lon="-2.45696">
        <ele>2.54</ele>
        <time>2017-03-29T08:34:34Z</time>
      </trkpt>
      <trkpt lat="47.28595" lon="-2.45696">
        <ele>2.54</ele>
        <time>2017-03-29T08:34:40Z</time>
      </trkpt>
      <trkpt lat="47.28586" lon="-2.45696">
        <ele>2.06</ele>
        <time>2017-03-29T08:34:46Z</time>
      </trkpt>
      <trkpt lat="47.28576" lon="-2.45697">
        <ele>3.5</ele>
        <time>2017-03-29T08:34:52Z</time>
      </trkpt>
      <trkpt lat="47.28567" lon="-2.45699">
        <ele>4.94</ele>
        <time>2017-03-29T08:34:58Z</time>
      </trkpt>
      <trkpt lat="47.28559" lon="-2.45699">
        <ele>4.94</ele>
        <time>2017-03-29T08:35:04Z</time>
      </trkpt>
      <trkpt lat="47.28548" lon="-2.45701">
        <ele>4.94</ele>
        <time>2017-03-29T08:35:11Z</time>
      </trkpt>
      <trkpt lat="47.28539" lon="-2.45705">
        <ele>4.94</ele>
        <time>2017-03-29T08:35:17Z</time>
      </trkpt>
      <trkpt lat="47.2853" lon="-2.45709">
        <ele>6.39</ele>
        <time>2017-03-29T08:35:23Z</time>
      </trkpt>
      <trkpt lat="47.28521" lon="-2.45712">
        <ele>5.91</ele>
        <time>2017-03-29T08:35:29Z</time>
      </trkpt>
      <trkpt lat="47.28512" lon="-2.45718">
        <ele>4.94</ele>
        <time>2017-03-29T08:35:36Z</time>
      </trkpt>
      <trkpt lat="47.28503" lon="-2.45724">
        <ele>4.46</ele>
        <time>2017-03-29T08:35:43Z</time>
      </trkpt>
      <trkpt lat="47.28493" lon="-2.45729">
        <ele>3.02</ele>
        <time>2017-03-29T08:35:50Z</time>
      </trkpt>
      <trkpt lat="47.28484" lon="-2.45735">
        <ele>4.94</ele>
        <time>2017-03-29T08:35:56Z</time>
      </trkpt>
      <trkpt lat="47.28476" lon="-2.4574">
        <ele>6.39</ele>
        <time>2017-03-29T08:36:02Z</time>
      </trkpt>
      <trkpt lat="47.28467" lon="-2.45745">
        <ele>6.87</ele>
        <time>2017-03-29T08:36:09Z</time>
      </trkpt>
      <trkpt lat="47.28458" lon="-2.45746">
        <ele>5.91</ele>
        <time>2017-03-29T08:36:15Z</time>
      </trkpt>
      <trkpt lat="47.28448" lon="-2.45749">
        <ele>4.46</ele>
        <time>2017-03-29T08:36:22Z</time>
      </trkpt>
      <trkpt lat="47.28438" lon="-2.45752">
        <ele>3.02</ele>
        <time>2017-03-29T08:36:29Z</time>
      </trkpt>
      <trkpt lat="47.28429" lon="-2.45755">
        <ele>5.42</ele>
        <time>2017-03-29T08:36:35Z</time>
      </trkpt>
      <trkpt lat="47.2842" lon="-2.45758">
        <ele>4.94</ele>
        <time>2017-03-29T08:36:41Z</time>
      </trkpt>
      <trkpt lat="47.28412" lon="-2.45762">
        <ele>4.46</ele>
        <time>2017-03-29T08:36:48Z</time>
      </trkpt>
      <trkpt lat="47.28403" lon="-2.45766">
        <ele>4.94</ele>
        <time>2017-03-29T08:36:55Z</time>
      </trkpt>
      <trkpt lat="47.28394" lon="-2.45769">
        <ele>4.94</ele>
        <time>2017-03-29T08:37:01Z</time>
      </trkpt>
      <trkpt lat="47.28385" lon="-2.45773">
        <ele>4.46</ele>
        <time>2017-03-29T08:37:07Z</time>
      </trkpt>
      <trkpt lat="47.28377" lon="-2.45778">
        <ele>5.91</ele>
        <time>2017-03-29T08:37:14Z</time>
      </trkpt>
      <trkpt lat="47.28368" lon="-2.45786">
        <ele>3.98</ele>
        <time>2017-03-29T08:37:21Z</time>
      </trkpt>
      <trkpt lat="47.28359" lon="-2.45791">
        <ele>5.91</ele>
        <time>2017-03-29T08:37:28Z</time>
      </trkpt>
      <trkpt lat="47.28349" lon="-2.45794">
        <ele>5.42</ele>
        <time>2017-03-29T08:37:35Z</time>
      </trkpt>
      <trkpt lat="47.2834" lon="-2.45801">
        <ele>6.39</ele>
        <time>2017-03-29T08:37:42Z</time>
      </trkpt>
      <trkpt lat="47.28332" lon="-2.45808">
        <ele>4.46</ele>
        <time>2017-03-29T08:37:48Z</time>
      </trkpt>
      <trkpt lat="47.28323" lon="-2.45814">
        <ele>5.42</ele>
        <time>2017-03-29T08:37:56Z</time>
      </trkpt>
      <trkpt lat="47.28314" lon="-2.45822">
        <ele>3.5</ele>
        <time>2017-03-29T08:38:03Z</time>
      </trkpt>
      <trkpt lat="47.28306" lon="-2.45829">
        <ele>3.02</ele>
        <time>2017-03-29T08:38:10Z</time>
      </trkpt>
      <trkpt lat="47.28298" lon="-2.45836">
        <ele>3.5</ele>
        <time>2017-03-29T08:38:17Z</time>
      </trkpt>
      <trkpt lat="47.28289" lon="-2.45847">
        <ele>3.98</ele>
        <time>2017-03-29T08:38:24Z</time>
      </trkpt>
      <trkpt lat="47.2828" lon="-2.45854">
        <ele>4.94</ele>
        <time>2017-03-29T08:38:31Z</time>
      </trkpt>
      <trkpt lat="47.28272" lon="-2.45862">
        <ele>3.02</ele>
        <time>2017-03-29T08:38:38Z</time>
      </trkpt>
      <trkpt lat="47.28263" lon="-2.45871">
        <ele>3.5</ele>
        <time>2017-03-29T08:38:45Z</time>
      </trkpt>
      <trkpt lat="47.28255" lon="-2.45879">
        <ele>5.42</ele>
        <time>2017-03-29T08:38:52Z</time>
      </trkpt>
      <trkpt lat="47.28247" lon="-2.45887">
        <ele>4.46</ele>
        <time>2017-03-29T08:38:59Z</time>
      </trkpt>
      <trkpt lat="47.28238" lon="-2.45895">
        <ele>3.5</ele>
        <time>2017-03-29T08:39:06Z</time>
      </trkpt>
      <trkpt lat="47.28229" lon="-2.45903">
        <ele>4.94</ele>
        <time>2017-03-29T08:39:12Z</time>
      </trkpt>
      <trkpt lat="47.28221" lon="-2.45913">
        <ele>4.46</ele>
        <time>2017-03-29T08:39:19Z</time>
      </trkpt>
      <trkpt lat="47.28216" lon="-2.45924">
        <ele>5.42</ele>
        <time>2017-03-29T08:39:25Z</time>
      </trkpt>
      <trkpt lat="47.2821" lon="-2.45936">
        <ele>6.39</ele>
        <time>2017-03-29T08:39:31Z</time>
      </trkpt>
      <trkpt lat="47.28205" lon="-2.45949">
        <ele>5.42</ele>
        <time>2017-03-29T08:39:37Z</time>
      </trkpt>
      <trkpt lat="47.28199" lon="-2.45962">
        <ele>5.42</ele>
        <time>2017-03-29T08:39:44Z</time>
      </trkpt>
      <trkpt lat="47.28193" lon="-2.45974">
        <ele>7.83</ele>
        <time>2017-03-29T08:39:51Z</time>
      </trkpt>
      <trkpt lat="47.28186" lon="-2.45986">
        <ele>4.94</ele>
        <time>2017-03-29T08:39:59Z</time>
      </trkpt>
      <trkpt lat="47.2818" lon="-2.45997">
        <ele>3.5</ele>
        <time>2017-03-29T08:40:06Z</time>
      </trkpt>
      <trkpt lat="47.28172" lon="-2.46008">
        <ele>2.06</ele>
        <time>2017-03-29T08:40:13Z</time>
      </trkpt>
      <trkpt lat="47.28164" lon="-2.46021">
        <ele>1.58</ele>
        <time>2017-03-29T08:40:20Z</time>
      </trkpt>
      <trkpt lat="47.28157" lon="-2.46033">
        <ele>1.58</ele>
        <time>2017-03-29T08:40:27Z</time>
      </trkpt>
      <trkpt lat="47.28151" lon="-2.46043">
        <ele>2.06</ele>
        <time>2017-03-29T08:40:33Z</time>
      </trkpt>
      <trkpt lat="47.28145" lon="-2.46054">
        <ele>3.02</ele>
        <time>2017-03-29T08:40:39Z</time>
      </trkpt>
      <trkpt lat="47.2814" lon="-2.46065">
        <ele>4.46</ele>
        <time>2017-03-29T08:40:45Z</time>
      </trkpt>
      <trkpt lat="47.28134" lon="-2.46077">
        <ele>6.87</ele>
        <time>2017-03-29T08:40:52Z</time>
      </trkpt>
      <trkpt lat="47.28127" lon="-2.46088">
        <ele>4.46</ele>
        <time>2017-03-29T08:41:00Z</time>
      </trkpt>
      <trkpt lat="47.2812" lon="-2.461">
        <ele>4.94</ele>
        <time>2017-03-29T08:41:07Z</time>
      </trkpt>
      <trkpt lat="47.28112" lon="-2.46111">
        <ele>5.91</ele>
        <time>2017-03-29T08:41:14Z</time>
      </trkpt>
      <trkpt lat="47.28104" lon="-2.46121">
        <ele>3.5</ele>
        <time>2017-03-29T08:41:21Z</time>
      </trkpt>
      <trkpt lat="47.28096" lon="-2.46129">
        <ele>3.5</ele>
        <time>2017-03-29T08:41:31Z</time>
      </trkpt>
      <trkpt lat="47.28093" lon="-2.46143">
        <ele>4.94</ele>
        <time>2017-03-29T08:41:44Z</time>
      </trkpt>
      <trkpt lat="47.28089" lon="-2.46143">
        <ele>5.42</ele>
        <time>2017-03-29T08:47:53Z</time>
      </trkpt>
      <trkpt lat="47.28079" lon="-2.46137">
        <ele>0.62</ele>
        <time>2017-03-29T08:48:01Z</time>
      </trkpt>
      <trkpt lat="47.28069" lon="-2.46132">
        <ele>3.98</ele>
        <time>2017-03-29T08:48:09Z</time>
      </trkpt>
      <trkpt lat="47.2806" lon="-2.46126">
        <ele>6.39</ele>
        <time>2017-03-29T08:48:17Z</time>
      </trkpt>
      <trkpt lat="47.28051" lon="-2.46122">
        <ele>5.91</ele>
        <time>2017-03-29T08:48:25Z</time>
      </trkpt>
      <trkpt lat="47.28041" lon="-2.46128">
        <ele>3.5</ele>
        <time>2017-03-29T08:48:33Z</time>
      </trkpt>
      <trkpt lat="47.28032" lon="-2.46136">
        <ele>3.98</ele>
        <time>2017-03-29T08:48:41Z</time>
      </trkpt>
      <trkpt lat="47.28021" lon="-2.46138">
        <ele>5.91</ele>
        <time>2017-03-29T08:48:50Z</time>
      </trkpt>
      <trkpt lat="47.28012" lon="-2.46144">
        <ele>9.27</ele>
        <time>2017-03-29T08:48:57Z</time>
      </trkpt>
      <trkpt lat="47.28002" lon="-2.46148">
        <ele>8.79</ele>
        <time>2017-03-29T08:49:05Z</time>
      </trkpt>
      <trkpt lat="47.27989" lon="-2.46148">
        <ele>3.5</ele>
        <time>2017-03-29T08:49:15Z</time>
      </trkpt>
      <trkpt lat="47.27975" lon="-2.46152">
        <ele>6.39</ele>
        <time>2017-03-29T08:49:28Z</time>
      </trkpt>
      <trkpt lat="47.2796" lon="-2.46158">
        <ele>5.91</ele>
        <time>2017-03-29T08:49:39Z</time>
      </trkpt>
      <trkpt lat="47.27945" lon="-2.46159">
        <ele>3.98</ele>
        <time>2017-03-29T08:50:18Z</time>
      </trkpt>
      <trkpt lat="47.27936" lon="-2.46173">
        <ele>5.42</ele>
        <time>2017-03-29T08:50:26Z</time>
      </trkpt>
      <trkpt lat="47.27925" lon="-2.46178">
        <ele>5.42</ele>
        <time>2017-03-29T08:50:33Z</time>
      </trkpt>
      <trkpt lat="47.27915" lon="-2.46179">
        <ele>0.62</ele>
        <time>2017-03-29T08:50:40Z</time>
      </trkpt>
      <trkpt lat="47.27906" lon="-2.46182">
        <ele>4.46</ele>
        <time>2017-03-29T08:50:47Z</time>
      </trkpt>
      <trkpt lat="47.27896" lon="-2.46187">
        <ele>4.94</ele>
        <time>2017-03-29T08:50:55Z</time>
      </trkpt>
      <trkpt lat="47.27889" lon="-2.46194">
        <ele>4.94</ele>
        <time>2017-03-29T08:51:04Z</time>
      </trkpt>
      <trkpt lat="47.27883" lon="-2.46198">
        <ele>5.42</ele>
        <time>2017-03-29T08:51:20Z</time>
      </trkpt>
      <trkpt lat="47.27881" lon="-2.46211">
        <ele>5.91</ele>
        <time>2017-03-29T08:51:28Z</time>
      </trkpt>
      <trkpt lat="47.2788" lon="-2.46226">
        <ele>5.42</ele>
        <time>2017-03-29T08:51:35Z</time>
      </trkpt>
      <trkpt lat="47.27879" lon="-2.46239">
        <ele>2.06</ele>
        <time>2017-03-29T08:51:41Z</time>
      </trkpt>
      <trkpt lat="47.27878" lon="-2.46253">
        <ele>5.91</ele>
        <time>2017-03-29T08:51:48Z</time>
      </trkpt>
      <trkpt lat="47.27877" lon="-2.46271">
        <ele>5.42</ele>
        <time>2017-03-29T08:51:56Z</time>
      </trkpt>
      <trkpt lat="47.27876" lon="-2.46286">
        <ele>0.62</ele>
        <time>2017-03-29T08:52:02Z</time>
      </trkpt>
      <trkpt lat="47.27874" lon="-2.463">
        <ele>4.46</ele>
        <time>2017-03-29T08:52:09Z</time>
      </trkpt>
      <trkpt lat="47.27872" lon="-2.46315">
        <ele>1.1</ele>
        <time>2017-03-29T08:52:16Z</time>
      </trkpt>
      <trkpt lat="47.2787" lon="-2.46329">
        <ele>5.42</ele>
        <time>2017-03-29T08:52:22Z</time>
      </trkpt>
      <trkpt lat="47.27867" lon="-2.46342">
        <ele>3.02</ele>
        <time>2017-03-29T08:52:28Z</time>
      </trkpt>
      <trkpt lat="47.27864" lon="-2.46357">
        <ele>0.14</ele>
        <time>2017-03-29T08:52:36Z</time>
      </trkpt>
      <trkpt lat="47.2786" lon="-2.46372">
        <ele>4.94</ele>
        <time>2017-03-29T08:52:43Z</time>
      </trkpt>
      <trkpt lat="47.27858" lon="-2.46385">
        <ele>0.62</ele>
        <time>2017-03-29T08:52:49Z</time>
      </trkpt>
      <trkpt lat="47.27856" lon="-2.46401">
        <ele>6.39</ele>
        <time>2017-03-29T08:52:57Z</time>
      </trkpt>
      <trkpt lat="47.27855" lon="-2.46414">
        <ele>-0.34</ele>
        <time>2017-03-29T08:53:03Z</time>
      </trkpt>
      <trkpt lat="47.27851" lon="-2.46429">
        <ele>6.87</ele>
        <time>2017-03-29T08:53:11Z</time>
      </trkpt>
      <trkpt lat="47.27846" lon="-2.46442">
        <ele>0.14</ele>
        <time>2017-03-29T08:53:18Z</time>
      </trkpt>
      <trkpt lat="47.27844" lon="-2.46458">
        <ele>6.87</ele>
        <time>2017-03-29T08:53:26Z</time>
      </trkpt>
      <trkpt lat="47.27841" lon="-2.46475">
        <ele>2.54</ele>
        <time>2017-03-29T08:53:33Z</time>
      </trkpt>
      <trkpt lat="47.2784" lon="-2.46488">
        <ele>3.02</ele>
        <time>2017-03-29T08:53:39Z</time>
      </trkpt>
      <trkpt lat="47.27835" lon="-2.46501">
        <ele>6.39</ele>
        <time>2017-03-29T08:53:46Z</time>
      </trkpt>
      <trkpt lat="47.27834" lon="-2.46516">
        <ele>6.39</ele>
        <time>2017-03-29T08:53:52Z</time>
      </trkpt>
      <trkpt lat="47.27832" lon="-2.46531">
        <ele>3.5</ele>
        <time>2017-03-29T08:53:59Z</time>
      </trkpt>
      <trkpt lat="47.2783" lon="-2.46545">
        <ele>7.35</ele>
        <time>2017-03-29T08:54:06Z</time>
      </trkpt>
      <trkpt lat="47.27826" lon="-2.4656">
        <ele>0.14</ele>
        <time>2017-03-29T08:54:15Z</time>
      </trkpt>
      <trkpt lat="47.27823" lon="-2.46576">
        <ele>6.39</ele>
        <time>2017-03-29T08:54:22Z</time>
      </trkpt>
      <trkpt lat="47.27821" lon="-2.4659">
        <ele>1.58</ele>
        <time>2017-03-29T08:54:29Z</time>
      </trkpt>
      <trkpt lat="47.27819" lon="-2.46606">
        <ele>5.42</ele>
        <time>2017-03-29T08:54:37Z</time>
      </trkpt>
      <trkpt lat="47.27813" lon="-2.46619">
        <ele>3.98</ele>
        <time>2017-03-29T08:54:45Z</time>
      </trkpt>
      <trkpt lat="47.2781" lon="-2.46634">
        <ele>6.87</ele>
        <time>2017-03-29T08:54:52Z</time>
      </trkpt>
      <trkpt lat="47.27809" lon="-2.46649">
        <ele>3.5</ele>
        <time>2017-03-29T08:54:58Z</time>
      </trkpt>
      <trkpt lat="47.27807" lon="-2.46662">
        <ele>4.94</ele>
        <time>2017-03-29T08:55:05Z</time>
      </trkpt>
      <trkpt lat="47.27803" lon="-2.46677">
        <ele>0.14</ele>
        <time>2017-03-29T08:55:12Z</time>
      </trkpt>
      <trkpt lat="47.278" lon="-2.4669">
        <ele>5.91</ele>
        <time>2017-03-29T08:55:18Z</time>
      </trkpt>
      <trkpt lat="47.27799" lon="-2.46705">
        <ele>1.1</ele>
        <time>2017-03-29T08:55:26Z</time>
      </trkpt>
      <trkpt lat="47.27795" lon="-2.46718">
        <ele>6.87</ele>
        <time>2017-03-29T08:55:32Z</time>
      </trkpt>
      <trkpt lat="47.27793" lon="-2.46731">
        <ele>2.06</ele>
        <time>2017-03-29T08:55:38Z</time>
      </trkpt>
      <trkpt lat="47.2779" lon="-2.46745">
        <ele>6.39</ele>
        <time>2017-03-29T08:55:46Z</time>
      </trkpt>
      <trkpt lat="47.27789" lon="-2.4676">
        <ele>7.35</ele>
        <time>2017-03-29T08:55:53Z</time>
      </trkpt>
      <trkpt lat="47.27789" lon="-2.46774">
        <ele>3.98</ele>
        <time>2017-03-29T08:55:59Z</time>
      </trkpt>
      <trkpt lat="47.27788" lon="-2.46788">
        <ele>7.83</ele>
        <time>2017-03-29T08:56:06Z</time>
      </trkpt>
      <trkpt lat="47.27788" lon="-2.46803">
        <ele>0.62</ele>
        <time>2017-03-29T08:56:13Z</time>
      </trkpt>
      <trkpt lat="47.27787" lon="-2.46817">
        <ele>7.35</ele>
        <time>2017-03-29T08:56:19Z</time>
      </trkpt>
      <trkpt lat="47.27787" lon="-2.46831">
        <ele>0.14</ele>
        <time>2017-03-29T08:56:26Z</time>
      </trkpt>
      <trkpt lat="47.27787" lon="-2.46847">
        <ele>6.87</ele>
        <time>2017-03-29T08:56:33Z</time>
      </trkpt>
      <trkpt lat="47.27786" lon="-2.46862">
        <ele>1.58</ele>
        <time>2017-03-29T08:56:40Z</time>
      </trkpt>
      <trkpt lat="47.27786" lon="-2.46878">
        <ele>3.98</ele>
        <time>2017-03-29T08:56:48Z</time>
      </trkpt>
      <trkpt lat="47.27782" lon="-2.46893">
        <ele>3.98</ele>
        <time>2017-03-29T08:56:55Z</time>
      </trkpt>
      <trkpt lat="47.27777" lon="-2.46906">
        <ele>8.31</ele>
        <time>2017-03-29T08:57:03Z</time>
      </trkpt>
      <trkpt lat="47.27774" lon="-2.4692">
        <ele>7.35</ele>
        <time>2017-03-29T08:57:12Z</time>
      </trkpt>
      <trkpt lat="47.27776" lon="-2.46933">
        <ele>6.39</ele>
        <time>2017-03-29T08:57:18Z</time>
      </trkpt>
      <trkpt lat="47.2778" lon="-2.46945">
        <ele>2.54</ele>
        <time>2017-03-29T08:57:25Z</time>
      </trkpt>
      <trkpt lat="47.27786" lon="-2.46958">
        <ele>3.98</ele>
        <time>2017-03-29T08:57:32Z</time>
      </trkpt>
      <trkpt lat="47.27786" lon="-2.46972">
        <ele>7.83</ele>
        <time>2017-03-29T08:57:39Z</time>
      </trkpt>
      <trkpt lat="47.27786" lon="-2.46988">
        <ele>2.06</ele>
        <time>2017-03-29T08:57:46Z</time>
      </trkpt>
      <trkpt lat="47.27787" lon="-2.47002">
        <ele>5.91</ele>
        <time>2017-03-29T08:57:52Z</time>
      </trkpt>
      <trkpt lat="47.27787" lon="-2.47015">
        <ele>5.42</ele>
        <time>2017-03-29T08:57:58Z</time>
      </trkpt>
      <trkpt lat="47.27787" lon="-2.47031">
        <ele>0.62</ele>
        <time>2017-03-29T08:58:06Z</time>
      </trkpt>
      <trkpt lat="47.27787" lon="-2.47046">
        <ele>7.35</ele>
        <time>2017-03-29T08:58:13Z</time>
      </trkpt>
      <trkpt lat="47.27786" lon="-2.4706">
        <ele>0.62</ele>
        <time>2017-03-29T08:58:19Z</time>
      </trkpt>
      <trkpt lat="47.27787" lon="-2.47075">
        <ele>6.39</ele>
        <time>2017-03-29T08:58:27Z</time>
      </trkpt>
      <trkpt lat="47.27789" lon="-2.47091">
        <ele>1.1</ele>
        <time>2017-03-29T08:58:36Z</time>
      </trkpt>
      <trkpt lat="47.27789" lon="-2.47107">
        <ele>3.98</ele>
        <time>2017-03-29T08:58:44Z</time>
      </trkpt>
      <trkpt lat="47.27789" lon="-2.47122">
        <ele>4.94</ele>
        <time>2017-03-29T08:58:51Z</time>
      </trkpt>
      <trkpt lat="47.27789" lon="-2.47138">
        <ele>7.83</ele>
        <time>2017-03-29T08:58:58Z</time>
      </trkpt>
      <trkpt lat="47.27789" lon="-2.47153">
        <ele>1.1</ele>
        <time>2017-03-29T08:59:04Z</time>
      </trkpt>
      <trkpt lat="47.27789" lon="-2.47166">
        <ele>7.83</ele>
        <time>2017-03-29T08:59:11Z</time>
      </trkpt>
      <trkpt lat="47.27787" lon="-2.47182">
        <ele>4.46</ele>
        <time>2017-03-29T08:59:18Z</time>
      </trkpt>
      <trkpt lat="47.27787" lon="-2.47198">
        <ele>5.42</ele>
        <time>2017-03-29T08:59:27Z</time>
      </trkpt>
      <trkpt lat="47.27786" lon="-2.47205">
        <ele>53.97</ele>
        <time>2017-03-29T09:00:04Z</time>
      </trkpt>
      <trkpt lat="47.278" lon="-2.47125">
        <ele>30.42</ele>
        <time>2017-03-29T09:00:09Z</time>
      </trkpt>
      <trkpt lat="47.27785" lon="-2.4722">
        <ele>30.42</ele>
        <time>2017-03-29T09:00:28Z</time>
      </trkpt>
      <trkpt lat="47.27786" lon="-2.47235">
        <ele>30.42</ele>
        <time>2017-03-29T09:00:36Z</time>
      </trkpt>
      <trkpt lat="47.27786" lon="-2.4725">
        <ele>30.42</ele>
        <time>2017-03-29T09:00:43Z</time>
      </trkpt>
      <trkpt lat="47.27785" lon="-2.47265">
        <ele>30.42</ele>
        <time>2017-03-29T09:00:50Z</time>
      </trkpt>
      <trkpt lat="47.27786" lon="-2.47279">
        <ele>30.42</ele>
        <time>2017-03-29T09:00:57Z</time>
      </trkpt>
      <trkpt lat="47.27786" lon="-2.47295">
        <ele>30.42</ele>
        <time>2017-03-29T09:01:04Z</time>
      </trkpt>
      <trkpt lat="47.27785" lon="-2.4731">
        <ele>30.9</ele>
        <time>2017-03-29T09:01:12Z</time>
      </trkpt>
      <trkpt lat="47.27785" lon="-2.47324">
        <ele>31.86</ele>
        <time>2017-03-29T09:01:19Z</time>
      </trkpt>
      <trkpt lat="47.27786" lon="-2.47341">
        <ele>28.02</ele>
        <time>2017-03-29T09:01:26Z</time>
      </trkpt>
      <trkpt lat="47.27786" lon="-2.47355">
        <ele>28.5</ele>
        <time>2017-03-29T09:01:33Z</time>
      </trkpt>
      <trkpt lat="47.27784" lon="-2.47368">
        <ele>27.53</ele>
        <time>2017-03-29T09:01:40Z</time>
      </trkpt>
      <trkpt lat="47.27782" lon="-2.47382">
        <ele>31.86</ele>
        <time>2017-03-29T09:01:48Z</time>
      </trkpt>
      <trkpt lat="47.27777" lon="-2.47394">
        <ele>30.42</ele>
        <time>2017-03-29T09:01:55Z</time>
      </trkpt>
      <trkpt lat="47.27781" lon="-2.47408">
        <ele>29.94</ele>
        <time>2017-03-29T09:02:04Z</time>
      </trkpt>
      <trkpt lat="47.27785" lon="-2.47422">
        <ele>30.9</ele>
        <time>2017-03-29T09:02:11Z</time>
      </trkpt>
      <trkpt lat="47.27788" lon="-2.47439">
        <ele>34.74</ele>
        <time>2017-03-29T09:02:18Z</time>
      </trkpt>
      <trkpt lat="47.27788" lon="-2.47454">
        <ele>32.34</ele>
        <time>2017-03-29T09:02:25Z</time>
      </trkpt>
      <trkpt lat="47.27788" lon="-2.47468">
        <ele>33.78</ele>
        <time>2017-03-29T09:02:32Z</time>
      </trkpt>
      <trkpt lat="47.27791" lon="-2.47481">
        <ele>34.26</ele>
        <time>2017-03-29T09:02:39Z</time>
      </trkpt>
      <trkpt lat="47.27791" lon="-2.47497">
        <ele>31.38</ele>
        <time>2017-03-29T09:02:47Z</time>
      </trkpt>
      <trkpt lat="47.27788" lon="-2.47512">
        <ele>27.53</ele>
        <time>2017-03-29T09:02:55Z</time>
      </trkpt>
      <trkpt lat="47.27795" lon="-2.47523">
        <ele>30.42</ele>
        <time>2017-03-29T09:03:04Z</time>
      </trkpt>
      <trkpt lat="47.27801" lon="-2.47534">
        <ele>32.34</ele>
        <time>2017-03-29T09:03:11Z</time>
      </trkpt>
      <trkpt lat="47.27805" lon="-2.47546">
        <ele>31.86</ele>
        <time>2017-03-29T09:03:19Z</time>
      </trkpt>
      <trkpt lat="47.27808" lon="-2.47559">
        <ele>34.74</ele>
        <time>2017-03-29T09:03:26Z</time>
      </trkpt>
      <trkpt lat="47.2781" lon="-2.47574">
        <ele>35.71</ele>
        <time>2017-03-29T09:03:34Z</time>
      </trkpt>
      <trkpt lat="47.27812" lon="-2.47589">
        <ele>33.3</ele>
        <time>2017-03-29T09:03:42Z</time>
      </trkpt>
      <trkpt lat="47.27811" lon="-2.47603">
        <ele>29.94</ele>
        <time>2017-03-29T09:03:50Z</time>
      </trkpt>
      <trkpt lat="47.2781" lon="-2.47618">
        <ele>29.94</ele>
        <time>2017-03-29T09:03:57Z</time>
      </trkpt>
      <trkpt lat="47.27809" lon="-2.47635">
        <ele>30.9</ele>
        <time>2017-03-29T09:04:05Z</time>
      </trkpt>
      <trkpt lat="47.27808" lon="-2.47654">
        <ele>29.46</ele>
        <time>2017-03-29T09:04:12Z</time>
      </trkpt>
      <trkpt lat="47.2781" lon="-2.47668">
        <ele>28.98</ele>
        <time>2017-03-29T09:04:19Z</time>
      </trkpt>
      <trkpt lat="47.27813" lon="-2.47683">
        <ele>34.26</ele>
        <time>2017-03-29T09:04:27Z</time>
      </trkpt>
      <trkpt lat="47.27812" lon="-2.47695">
        <ele>34.74</ele>
        <time>2017-03-29T09:04:36Z</time>
      </trkpt>
      <trkpt lat="47.27824" lon="-2.47712">
        <ele>33.78</ele>
        <time>2017-03-29T09:04:48Z</time>
      </trkpt>
      <trkpt lat="47.27831" lon="-2.47726">
        <ele>33.78</ele>
        <time>2017-03-29T09:04:55Z</time>
      </trkpt>
      <trkpt lat="47.27836" lon="-2.47742">
        <ele>31.38</ele>
        <time>2017-03-29T09:05:04Z</time>
      </trkpt>
      <trkpt lat="47.27846" lon="-2.4775">
        <ele>35.71</ele>
        <time>2017-03-29T09:05:12Z</time>
      </trkpt>
      <trkpt lat="47.27849" lon="-2.47767">
        <ele>33.3</ele>
        <time>2017-03-29T09:05:32Z</time>
      </trkpt>
      <trkpt lat="47.27855" lon="-2.47777">
        <ele>33.78</ele>
        <time>2017-03-29T09:06:06Z</time>
      </trkpt>
      <trkpt lat="47.27863" lon="-2.47772">
        <ele>35.71</ele>
        <time>2017-03-29T09:06:36Z</time>
      </trkpt>
      <trkpt lat="47.27873" lon="-2.47774">
        <ele>32.34</ele>
        <time>2017-03-29T09:06:46Z</time>
      </trkpt>
      <trkpt lat="47.2788" lon="-2.47769">
        <ele>33.3</ele>
        <time>2017-03-29T09:07:05Z</time>
      </trkpt>
      <trkpt lat="47.27887" lon="-2.47761">
        <ele>34.26</ele>
        <time>2017-03-29T09:07:11Z</time>
      </trkpt>
      <trkpt lat="47.27896" lon="-2.47752">
        <ele>31.86</ele>
        <time>2017-03-29T09:07:18Z</time>
      </trkpt>
      <trkpt lat="47.27904" lon="-2.47744">
        <ele>35.23</ele>
        <time>2017-03-29T09:07:25Z</time>
      </trkpt>
      <trkpt lat="47.27912" lon="-2.47736">
        <ele>34.26</ele>
        <time>2017-03-29T09:07:32Z</time>
      </trkpt>
      <trkpt lat="47.2788" lon="-2.47783">
        <ele>33.3</ele>
        <time>2017-03-29T09:09:11Z</time>
      </trkpt>
      <trkpt lat="47.2789" lon="-2.47783">
        <ele>33.78</ele>
        <time>2017-03-29T09:09:48Z</time>
      </trkpt>
      <trkpt lat="47.27898" lon="-2.47782">
        <ele>33.3</ele>
        <time>2017-03-29T09:09:53Z</time>
      </trkpt>
      <trkpt lat="47.27908" lon="-2.47784">
        <ele>33.78</ele>
        <time>2017-03-29T09:10:02Z</time>
      </trkpt>
      <trkpt lat="47.27912" lon="-2.47787">
        <ele>34.26</ele>
        <time>2017-03-29T09:10:24Z</time>
      </trkpt>
      <trkpt lat="47.27914" lon="-2.47795">
        <ele>33.3</ele>
        <time>2017-03-29T09:10:42Z</time>
      </trkpt>
      <trkpt lat="47.27902" lon="-2.47787">
        <ele>34.26</ele>
        <time>2017-03-29T09:11:12Z</time>
      </trkpt>
      <trkpt lat="47.27898" lon="-2.47786">
        <ele>32.82</ele>
        <time>2017-03-29T09:11:38Z</time>
      </trkpt>
      <trkpt lat="47.27889" lon="-2.47782">
        <ele>33.3</ele>
        <time>2017-03-29T09:11:53Z</time>
      </trkpt>
      <trkpt lat="47.2788" lon="-2.47778">
        <ele>33.3</ele>
        <time>2017-03-29T09:11:58Z</time>
      </trkpt>
      <trkpt lat="47.27871" lon="-2.47773">
        <ele>32.34</ele>
        <time>2017-03-29T09:12:03Z</time>
      </trkpt>
      <trkpt lat="47.27882" lon="-2.47788">
        <ele>32.34</ele>
        <time>2017-03-29T09:12:13Z</time>
      </trkpt>
      <trkpt lat="47.27883" lon="-2.47796">
        <ele>33.3</ele>
        <time>2017-03-29T09:12:42Z</time>
      </trkpt>
      <trkpt lat="47.27875" lon="-2.47794">
        <ele>32.82</ele>
        <time>2017-03-29T09:13:14Z</time>
      </trkpt>
      <trkpt lat="47.27909" lon="-2.47778">
        <ele>32.34</ele>
        <time>2017-03-29T09:17:08Z</time>
      </trkpt>
      <trkpt lat="47.27917" lon="-2.47777">
        <ele>33.78</ele>
        <time>2017-03-29T09:17:12Z</time>
      </trkpt>
      <trkpt lat="47.27928" lon="-2.4778">
        <ele>32.34</ele>
        <time>2017-03-29T09:17:16Z</time>
      </trkpt>
      <trkpt lat="47.2792" lon="-2.47778">
        <ele>32.34</ele>
        <time>2017-03-29T09:17:21Z</time>
      </trkpt>
      <trkpt lat="47.27914" lon="-2.47785">
        <ele>32.82</ele>
        <time>2017-03-29T09:17:48Z</time>
      </trkpt>
      <trkpt lat="47.2791" lon="-2.47791">
        <ele>32.34</ele>
        <time>2017-03-29T09:18:11Z</time>
      </trkpt>
      <trkpt lat="47.27914" lon="-2.4778">
        <ele>35.71</ele>
        <time>2017-03-29T09:18:25Z</time>
      </trkpt>
      <trkpt lat="47.27925" lon="-2.47783">
        <ele>31.86</ele>
        <time>2017-03-29T09:18:43Z</time>
      </trkpt>
      <trkpt lat="47.2793" lon="-2.47787">
        <ele>32.82</ele>
        <time>2017-03-29T09:19:04Z</time>
      </trkpt>
      <trkpt lat="47.27921" lon="-2.47783">
        <ele>33.78</ele>
        <time>2017-03-29T09:19:46Z</time>
      </trkpt>
      <trkpt lat="47.27891" lon="-2.4778">
        <ele>37.15</ele>
        <time>2017-03-29T09:23:18Z</time>
      </trkpt>
      <trkpt lat="47.2789" lon="-2.47779">
        <ele>38.11</ele>
        <time>2017-03-29T09:24:04Z</time>
      </trkpt>
      <trkpt lat="47.27895" lon="-2.47775">
        <ele>38.11</ele>
        <time>2017-03-29T09:24:41Z</time>
      </trkpt>
      <trkpt lat="47.27889" lon="-2.4777">
        <ele>38.59</ele>
        <time>2017-03-29T09:25:02Z</time>
      </trkpt>
      <trkpt lat="47.27887" lon="-2.47767">
        <ele>38.59</ele>
        <time>2017-03-29T09:25:26Z</time>
      </trkpt>
      <trkpt lat="47.27899" lon="-2.47764">
        <ele>38.11</ele>
        <time>2017-03-29T09:26:16Z</time>
      </trkpt>
      <trkpt lat="47.27898" lon="-2.47766">
        <ele>38.11</ele>
        <time>2017-03-29T09:26:58Z</time>
      </trkpt>
      <trkpt lat="47.27896" lon="-2.47765">
        <ele>37.63</ele>
        <time>2017-03-29T09:28:07Z</time>
      </trkpt>
      <trkpt lat="47.27901" lon="-2.47765">
        <ele>37.63</ele>
        <time>2017-03-29T09:28:43Z</time>
      </trkpt>
      <trkpt lat="47.27912" lon="-2.47775">
        <ele>37.63</ele>
        <time>2017-03-29T09:29:05Z</time>
      </trkpt>
      <trkpt lat="47.27909" lon="-2.47774">
        <ele>37.63</ele>
        <time>2017-03-29T09:31:51Z</time>
      </trkpt>
      <trkpt lat="47.27899" lon="-2.47784">
        <ele>38.59</ele>
        <time>2017-03-29T09:32:17Z</time>
      </trkpt>
      <trkpt lat="47.27892" lon="-2.4778">
        <ele>37.63</ele>
        <time>2017-03-29T09:32:58Z</time>
      </trkpt>
      <trkpt lat="47.27895" lon="-2.47787">
        <ele>36.19</ele>
        <time>2017-03-29T09:33:31Z</time>
      </trkpt>
      <trkpt lat="47.27889" lon="-2.47795">
        <ele>36.67</ele>
        <time>2017-03-29T09:33:51Z</time>
      </trkpt>
      <trkpt lat="47.27886" lon="-2.47802">
        <ele>36.67</ele>
        <time>2017-03-29T09:34:20Z</time>
      </trkpt>
      <trkpt lat="47.2788" lon="-2.47813">
        <ele>36.19</ele>
        <time>2017-03-29T09:34:31Z</time>
      </trkpt>
      <trkpt lat="47.27875" lon="-2.47825">
        <ele>36.67</ele>
        <time>2017-03-29T09:34:42Z</time>
      </trkpt>
      <trkpt lat="47.27872" lon="-2.47833">
        <ele>35.23</ele>
        <time>2017-03-29T09:34:49Z</time>
      </trkpt>
      <trkpt lat="47.27896" lon="-2.47796">
        <ele>38.11</ele>
        <time>2017-03-29T09:36:40Z</time>
      </trkpt>
      <trkpt lat="47.27906" lon="-2.47794">
        <ele>39.07</ele>
        <time>2017-03-29T09:36:49Z</time>
      </trkpt>
      <trkpt lat="47.27914" lon="-2.4779">
        <ele>39.55</ele>
        <time>2017-03-29T09:36:57Z</time>
      </trkpt>
      <trkpt lat="47.27923" lon="-2.47794">
        <ele>39.07</ele>
        <time>2017-03-29T09:37:05Z</time>
      </trkpt>
      <trkpt lat="47.27932" lon="-2.47795">
        <ele>37.15</ele>
        <time>2017-03-29T09:37:11Z</time>
      </trkpt>
      <trkpt lat="47.27936" lon="-2.47791">
        <ele>39.07</ele>
        <time>2017-03-29T09:37:19Z</time>
      </trkpt>
      <trkpt lat="47.27929" lon="-2.47776">
        <ele>39.55</ele>
        <time>2017-03-29T09:37:27Z</time>
      </trkpt>
      <trkpt lat="47.27928" lon="-2.47762">
        <ele>39.55</ele>
        <time>2017-03-29T09:37:33Z</time>
      </trkpt>
      <trkpt lat="47.27926" lon="-2.47748">
        <ele>40.03</ele>
        <time>2017-03-29T09:37:39Z</time>
      </trkpt>
      <trkpt lat="47.27925" lon="-2.47734">
        <ele>39.55</ele>
        <time>2017-03-29T09:37:45Z</time>
      </trkpt>
      <trkpt lat="47.27924" lon="-2.4772">
        <ele>39.07</ele>
        <time>2017-03-29T09:37:51Z</time>
      </trkpt>
      <trkpt lat="47.27923" lon="-2.47713">
        <ele>39.07</ele>
        <time>2017-03-29T09:37:55Z</time>
      </trkpt>
      <trkpt lat="47.27869" lon="-2.47778">
        <ele>36.67</ele>
        <time>2017-03-29T09:40:50Z</time>
      </trkpt>
      <trkpt lat="47.27861" lon="-2.47779">
        <ele>35.71</ele>
        <time>2017-03-29T09:40:59Z</time>
      </trkpt>
      <trkpt lat="47.27853" lon="-2.47782">
        <ele>34.74</ele>
        <time>2017-03-29T09:41:09Z</time>
      </trkpt>
      <trkpt lat="47.27853" lon="-2.47794">
        <ele>34.74</ele>
        <time>2017-03-29T09:41:19Z</time>
      </trkpt>
      <trkpt lat="47.27854" lon="-2.47811">
        <ele>37.63</ele>
        <time>2017-03-29T09:41:29Z</time>
      </trkpt>
      <trkpt lat="47.27855" lon="-2.47826">
        <ele>37.15</ele>
        <time>2017-03-29T09:41:38Z</time>
      </trkpt>
      <trkpt lat="47.27858" lon="-2.4784">
        <ele>37.15</ele>
        <time>2017-03-29T09:41:48Z</time>
      </trkpt>
      <trkpt lat="47.27861" lon="-2.47855">
        <ele>37.63</ele>
        <time>2017-03-29T09:41:56Z</time>
      </trkpt>
      <trkpt lat="47.27863" lon="-2.47872">
        <ele>34.26</ele>
        <time>2017-03-29T09:42:06Z</time>
      </trkpt>
      <trkpt lat="47.2787" lon="-2.47886">
        <ele>37.15</ele>
        <time>2017-03-29T09:42:16Z</time>
      </trkpt>
      <trkpt lat="47.27869" lon="-2.47901">
        <ele>36.19</ele>
        <time>2017-03-29T09:42:25Z</time>
      </trkpt>
      <trkpt lat="47.2787" lon="-2.47916">
        <ele>32.34</ele>
        <time>2017-03-29T09:42:33Z</time>
      </trkpt>
      <trkpt lat="47.27871" lon="-2.47933">
        <ele>34.74</ele>
        <time>2017-03-29T09:42:41Z</time>
      </trkpt>
      <trkpt lat="47.27877" lon="-2.47949">
        <ele>34.26</ele>
        <time>2017-03-29T09:42:52Z</time>
      </trkpt>
      <trkpt lat="47.27879" lon="-2.47962">
        <ele>32.34</ele>
        <time>2017-03-29T09:43:13Z</time>
      </trkpt>
      <trkpt lat="47.27883" lon="-2.47977">
        <ele>30.42</ele>
        <time>2017-03-29T09:43:22Z</time>
      </trkpt>
      <trkpt lat="47.27889" lon="-2.47988">
        <ele>30.9</ele>
        <time>2017-03-29T09:43:31Z</time>
      </trkpt>
      <trkpt lat="47.2789" lon="-2.48005">
        <ele>32.34</ele>
        <time>2017-03-29T09:43:39Z</time>
      </trkpt>
      <trkpt lat="47.27891" lon="-2.48021">
        <ele>31.38</ele>
        <time>2017-03-29T09:43:47Z</time>
      </trkpt>
      <trkpt lat="47.27893" lon="-2.48035">
        <ele>28.98</ele>
        <time>2017-03-29T09:43:54Z</time>
      </trkpt>
      <trkpt lat="47.27897" lon="-2.48049">
        <ele>28.02</ele>
        <time>2017-03-29T09:44:01Z</time>
      </trkpt>
      <trkpt lat="47.27901" lon="-2.48062">
        <ele>30.9</ele>
        <time>2017-03-29T09:44:09Z</time>
      </trkpt>
      <trkpt lat="47.27904" lon="-2.48076">
        <ele>30.9</ele>
        <time>2017-03-29T09:44:16Z</time>
      </trkpt>
      <trkpt lat="47.27907" lon="-2.48089">
        <ele>33.78</ele>
        <time>2017-03-29T09:44:23Z</time>
      </trkpt>
      <trkpt lat="47.27908" lon="-2.48105">
        <ele>30.42</ele>
        <time>2017-03-29T09:44:30Z</time>
      </trkpt>
      <trkpt lat="47.27911" lon="-2.48121">
        <ele>28.02</ele>
        <time>2017-03-29T09:44:37Z</time>
      </trkpt>
      <trkpt lat="47.2791" lon="-2.48134">
        <ele>28.5</ele>
        <time>2017-03-29T09:44:44Z</time>
      </trkpt>
      <trkpt lat="47.2791" lon="-2.48149">
        <ele>28.5</ele>
        <time>2017-03-29T09:44:50Z</time>
      </trkpt>
      <trkpt lat="47.27913" lon="-2.48162">
        <ele>28.5</ele>
        <time>2017-03-29T09:44:57Z</time>
      </trkpt>
      <trkpt lat="47.27915" lon="-2.48177">
        <ele>25.61</ele>
        <time>2017-03-29T09:45:05Z</time>
      </trkpt>
      <trkpt lat="47.27919" lon="-2.48192">
        <ele>27.53</ele>
        <time>2017-03-29T09:45:12Z</time>
      </trkpt>
      <trkpt lat="47.27921" lon="-2.48208">
        <ele>27.53</ele>
        <time>2017-03-29T09:45:20Z</time>
      </trkpt>
      <trkpt lat="47.27922" lon="-2.48223">
        <ele>25.61</ele>
        <time>2017-03-29T09:45:28Z</time>
      </trkpt>
      <trkpt lat="47.27925" lon="-2.48237">
        <ele>28.02</ele>
        <time>2017-03-29T09:45:36Z</time>
      </trkpt>
      <trkpt lat="47.27924" lon="-2.48258">
        <ele>28.5</ele>
        <time>2017-03-29T09:45:44Z</time>
      </trkpt>
      <trkpt lat="47.27927" lon="-2.48273">
        <ele>25.61</ele>
        <time>2017-03-29T09:45:51Z</time>
      </trkpt>
      <trkpt lat="47.27931" lon="-2.48288">
        <ele>28.98</ele>
        <time>2017-03-29T09:45:58Z</time>
      </trkpt>
      <trkpt lat="47.27934" lon="-2.48303">
        <ele>24.65</ele>
        <time>2017-03-29T09:46:06Z</time>
      </trkpt>
      <trkpt lat="47.27934" lon="-2.48319">
        <ele>28.98</ele>
        <time>2017-03-29T09:46:14Z</time>
      </trkpt>
      <trkpt lat="47.27933" lon="-2.48337">
        <ele>22.73</ele>
        <time>2017-03-29T09:46:21Z</time>
      </trkpt>
      <trkpt lat="47.27937" lon="-2.48353">
        <ele>27.53</ele>
        <time>2017-03-29T09:46:28Z</time>
      </trkpt>
      <trkpt lat="47.2794" lon="-2.48367">
        <ele>24.65</ele>
        <time>2017-03-29T09:46:35Z</time>
      </trkpt>
      <trkpt lat="47.27943" lon="-2.48383">
        <ele>28.02</ele>
        <time>2017-03-29T09:46:42Z</time>
      </trkpt>
      <trkpt lat="47.27944" lon="-2.48389">
        <ele>25.13</ele>
        <time>2017-03-29T09:47:10Z</time>
      </trkpt>
      <trkpt lat="47.27946" lon="-2.48405">
        <ele>26.09</ele>
        <time>2017-03-29T09:47:18Z</time>
      </trkpt>
      <trkpt lat="47.27949" lon="-2.48421">
        <ele>24.17</ele>
        <time>2017-03-29T09:47:24Z</time>
      </trkpt>
      <trkpt lat="47.27952" lon="-2.48435">
        <ele>22.25</ele>
        <time>2017-03-29T09:47:30Z</time>
      </trkpt>
      <trkpt lat="47.27953" lon="-2.48452">
        <ele>27.53</ele>
        <time>2017-03-29T09:47:37Z</time>
      </trkpt>
      <trkpt lat="47.27954" lon="-2.48466">
        <ele>24.17</ele>
        <time>2017-03-29T09:47:45Z</time>
      </trkpt>
      <trkpt lat="47.27956" lon="-2.48483">
        <ele>26.09</ele>
        <time>2017-03-29T09:47:53Z</time>
      </trkpt>
      <trkpt lat="47.27958" lon="-2.48495">
        <ele>25.13</ele>
        <time>2017-03-29T09:48:02Z</time>
      </trkpt>
      <trkpt lat="47.27962" lon="-2.4851">
        <ele>24.17</ele>
        <time>2017-03-29T09:48:10Z</time>
      </trkpt>
      <trkpt lat="47.27967" lon="-2.48536">
        <ele>27.05</ele>
        <time>2017-03-29T09:48:20Z</time>
      </trkpt>
      <trkpt lat="47.27971" lon="-2.48551">
        <ele>25.61</ele>
        <time>2017-03-29T09:48:27Z</time>
      </trkpt>
      <trkpt lat="47.27973" lon="-2.48567">
        <ele>22.73</ele>
        <time>2017-03-29T09:48:35Z</time>
      </trkpt>
      <trkpt lat="47.27974" lon="-2.48584">
        <ele>28.02</ele>
        <time>2017-03-29T09:48:42Z</time>
      </trkpt>
      <trkpt lat="47.27976" lon="-2.48599">
        <ele>24.65</ele>
        <time>2017-03-29T09:48:49Z</time>
      </trkpt>
      <trkpt lat="47.27978" lon="-2.48614">
        <ele>22.73</ele>
        <time>2017-03-29T09:48:56Z</time>
      </trkpt>
      <trkpt lat="47.27982" lon="-2.48628">
        <ele>28.02</ele>
        <time>2017-03-29T09:49:05Z</time>
      </trkpt>
      <trkpt lat="47.27986" lon="-2.48643">
        <ele>26.09</ele>
        <time>2017-03-29T09:49:12Z</time>
      </trkpt>
      <trkpt lat="47.2799" lon="-2.48658">
        <ele>22.73</ele>
        <time>2017-03-29T09:49:19Z</time>
      </trkpt>
      <trkpt lat="47.2799" lon="-2.48673">
        <ele>26.57</ele>
        <time>2017-03-29T09:49:26Z</time>
      </trkpt>
      <trkpt lat="47.27991" lon="-2.48687">
        <ele>26.57</ele>
        <time>2017-03-29T09:49:33Z</time>
      </trkpt>
      <trkpt lat="47.27993" lon="-2.48703">
        <ele>25.61</ele>
        <time>2017-03-29T09:49:41Z</time>
      </trkpt>
      <trkpt lat="47.27995" lon="-2.48719">
        <ele>29.94</ele>
        <time>2017-03-29T09:49:49Z</time>
      </trkpt>
      <trkpt lat="47.27998" lon="-2.48734">
        <ele>27.05</ele>
        <time>2017-03-29T09:49:57Z</time>
      </trkpt>
      <trkpt lat="47.28003" lon="-2.48747">
        <ele>23.69</ele>
        <time>2017-03-29T09:50:04Z</time>
      </trkpt>
      <trkpt lat="47.28008" lon="-2.4876">
        <ele>23.69</ele>
        <time>2017-03-29T09:50:11Z</time>
      </trkpt>
      <trkpt lat="47.28011" lon="-2.48774">
        <ele>28.5</ele>
        <time>2017-03-29T09:50:18Z</time>
      </trkpt>
      <trkpt lat="47.28009" lon="-2.48789">
        <ele>24.65</ele>
        <time>2017-03-29T09:50:25Z</time>
      </trkpt>
      <trkpt lat="47.2801" lon="-2.48802">
        <ele>22.73</ele>
        <time>2017-03-29T09:50:32Z</time>
      </trkpt>
      <trkpt lat="47.28012" lon="-2.48817">
        <ele>26.57</ele>
        <time>2017-03-29T09:50:39Z</time>
      </trkpt>
      <trkpt lat="47.28012" lon="-2.48832">
        <ele>27.53</ele>
        <time>2017-03-29T09:50:47Z</time>
      </trkpt>
      <trkpt lat="47.28014" lon="-2.48847">
        <ele>28.02</ele>
        <time>2017-03-29T09:50:54Z</time>
      </trkpt>
      <trkpt lat="47.28017" lon="-2.48861">
        <ele>23.69</ele>
        <time>2017-03-29T09:51:01Z</time>
      </trkpt>
      <trkpt lat="47.2802" lon="-2.48875">
        <ele>23.69</ele>
        <time>2017-03-29T09:51:08Z</time>
      </trkpt>
      <trkpt lat="47.28021" lon="-2.4889">
        <ele>27.53</ele>
        <time>2017-03-29T09:51:16Z</time>
      </trkpt>
      <trkpt lat="47.28024" lon="-2.48904">
        <ele>28.5</ele>
        <time>2017-03-29T09:51:23Z</time>
      </trkpt>
      <trkpt lat="47.28027" lon="-2.48918">
        <ele>28.02</ele>
        <time>2017-03-29T09:51:30Z</time>
      </trkpt>
      <trkpt lat="47.28028" lon="-2.48933">
        <ele>26.57</ele>
        <time>2017-03-29T09:51:38Z</time>
      </trkpt>
      <trkpt lat="47.28029" lon="-2.48947">
        <ele>22.25</ele>
        <time>2017-03-29T09:51:45Z</time>
      </trkpt>
      <trkpt lat="47.28031" lon="-2.48961">
        <ele>22.73</ele>
        <time>2017-03-29T09:51:52Z</time>
      </trkpt>
      <trkpt lat="47.28034" lon="-2.48976">
        <ele>22.73</ele>
        <time>2017-03-29T09:52:00Z</time>
      </trkpt>
      <trkpt lat="47.28036" lon="-2.48989">
        <ele>23.21</ele>
        <time>2017-03-29T09:52:10Z</time>
      </trkpt>
      <trkpt lat="47.28043" lon="-2.48982">
        <ele>25.61</ele>
        <time>2017-03-29T09:52:23Z</time>
      </trkpt>
      <trkpt lat="47.28046" lon="-2.48978">
        <ele>23.69</ele>
        <time>2017-03-29T09:52:50Z</time>
      </trkpt>
      <trkpt lat="47.28038" lon="-2.48992">
        <ele>24.17</ele>
        <time>2017-03-29T09:52:58Z</time>
      </trkpt>
      <trkpt lat="47.28038" lon="-2.49008">
        <ele>26.09</ele>
        <time>2017-03-29T09:53:06Z</time>
      </trkpt>
      <trkpt lat="47.28042" lon="-2.49022">
        <ele>20.32</ele>
        <time>2017-03-29T09:53:13Z</time>
      </trkpt>
      <trkpt lat="47.28043" lon="-2.49037">
        <ele>25.13</ele>
        <time>2017-03-29T09:53:20Z</time>
      </trkpt>
      <trkpt lat="47.28045" lon="-2.49052">
        <ele>24.17</ele>
        <time>2017-03-29T09:53:28Z</time>
      </trkpt>
      <trkpt lat="47.28049" lon="-2.49066">
        <ele>20.81</ele>
        <time>2017-03-29T09:53:37Z</time>
      </trkpt>
      <trkpt lat="47.28051" lon="-2.49077">
        <ele>20.32</ele>
        <time>2017-03-29T09:54:14Z</time>
      </trkpt>
      <trkpt lat="47.28051" lon="-2.49091">
        <ele>21.29</ele>
        <time>2017-03-29T09:54:22Z</time>
      </trkpt>
      <trkpt lat="47.28055" lon="-2.49106">
        <ele>22.25</ele>
        <time>2017-03-29T09:54:29Z</time>
      </trkpt>
      <trkpt lat="47.28057" lon="-2.49119">
        <ele>18.88</ele>
        <time>2017-03-29T09:54:36Z</time>
      </trkpt>
      <trkpt lat="47.28059" lon="-2.49133">
        <ele>22.25</ele>
        <time>2017-03-29T09:54:43Z</time>
      </trkpt>
      <trkpt lat="47.28058" lon="-2.49148">
        <ele>23.21</ele>
        <time>2017-03-29T09:54:51Z</time>
      </trkpt>
      <trkpt lat="47.28061" lon="-2.49163">
        <ele>18.4</ele>
        <time>2017-03-29T09:54:58Z</time>
      </trkpt>
      <trkpt lat="47.28064" lon="-2.49177">
        <ele>18.88</ele>
        <time>2017-03-29T09:55:05Z</time>
      </trkpt>
      <trkpt lat="47.28066" lon="-2.49192">
        <ele>22.25</ele>
        <time>2017-03-29T09:55:12Z</time>
      </trkpt>
      <trkpt lat="47.28068" lon="-2.49206">
        <ele>20.81</ele>
        <time>2017-03-29T09:55:19Z</time>
      </trkpt>
      <trkpt lat="47.2807" lon="-2.49219">
        <ele>16.96</ele>
        <time>2017-03-29T09:55:25Z</time>
      </trkpt>
      <trkpt lat="47.28071" lon="-2.49234">
        <ele>19.84</ele>
        <time>2017-03-29T09:55:32Z</time>
      </trkpt>
      <trkpt lat="47.28072" lon="-2.49247">
        <ele>22.25</ele>
        <time>2017-03-29T09:55:38Z</time>
      </trkpt>
      <trkpt lat="47.28075" lon="-2.4926">
        <ele>17.92</ele>
        <time>2017-03-29T09:55:45Z</time>
      </trkpt>
      <trkpt lat="47.28077" lon="-2.49275">
        <ele>17.44</ele>
        <time>2017-03-29T09:55:52Z</time>
      </trkpt>
      <trkpt lat="47.28078" lon="-2.49289">
        <ele>20.32</ele>
        <time>2017-03-29T09:55:59Z</time>
      </trkpt>
      <trkpt lat="47.28076" lon="-2.49302">
        <ele>19.84</ele>
        <time>2017-03-29T09:56:06Z</time>
      </trkpt>
      <trkpt lat="47.28073" lon="-2.49315">
        <ele>15.52</ele>
        <time>2017-03-29T09:56:13Z</time>
      </trkpt>
      <trkpt lat="47.28074" lon="-2.49328">
        <ele>15.52</ele>
        <time>2017-03-29T09:56:38Z</time>
      </trkpt>
      <trkpt lat="47.28076" lon="-2.49345">
        <ele>16.48</ele>
        <time>2017-03-29T09:56:45Z</time>
      </trkpt>
      <trkpt lat="47.28079" lon="-2.49358">
        <ele>19.84</ele>
        <time>2017-03-29T09:56:52Z</time>
      </trkpt>
      <trkpt lat="47.2808" lon="-2.49373">
        <ele>14.56</ele>
        <time>2017-03-29T09:56:59Z</time>
      </trkpt>
      <trkpt lat="47.28083" lon="-2.49387">
        <ele>17.44</ele>
        <time>2017-03-29T09:57:06Z</time>
      </trkpt>
      <trkpt lat="47.28084" lon="-2.49401">
        <ele>17.44</ele>
        <time>2017-03-29T09:57:13Z</time>
      </trkpt>
      <trkpt lat="47.28087" lon="-2.49415">
        <ele>17.44</ele>
        <time>2017-03-29T09:57:20Z</time>
      </trkpt>
      <trkpt lat="47.28091" lon="-2.49429">
        <ele>15.52</ele>
        <time>2017-03-29T09:57:27Z</time>
      </trkpt>
      <trkpt lat="47.28094" lon="-2.49443">
        <ele>14.56</ele>
        <time>2017-03-29T09:57:34Z</time>
      </trkpt>
      <trkpt lat="47.28096" lon="-2.49456">
        <ele>16.96</ele>
        <time>2017-03-29T09:57:41Z</time>
      </trkpt>
      <trkpt lat="47.28098" lon="-2.49469">
        <ele>18.88</ele>
        <time>2017-03-29T09:57:48Z</time>
      </trkpt>
      <trkpt lat="47.28101" lon="-2.49484">
        <ele>17.92</ele>
        <time>2017-03-29T09:57:55Z</time>
      </trkpt>
      <trkpt lat="47.28103" lon="-2.49499">
        <ele>16</ele>
        <time>2017-03-29T09:58:02Z</time>
      </trkpt>
      <trkpt lat="47.28105" lon="-2.49513">
        <ele>16.48</ele>
        <time>2017-03-29T09:58:09Z</time>
      </trkpt>
      <trkpt lat="47.2811" lon="-2.49527">
        <ele>15.52</ele>
        <time>2017-03-29T09:58:17Z</time>
      </trkpt>
      <trkpt lat="47.2811" lon="-2.4954">
        <ele>16.48</ele>
        <time>2017-03-29T09:58:24Z</time>
      </trkpt>
      <trkpt lat="47.28113" lon="-2.49555">
        <ele>20.32</ele>
        <time>2017-03-29T09:58:31Z</time>
      </trkpt>
      <trkpt lat="47.28114" lon="-2.49571">
        <ele>19.84</ele>
        <time>2017-03-29T09:58:39Z</time>
      </trkpt>
      <trkpt lat="47.28118" lon="-2.49584">
        <ele>18.88</ele>
        <time>2017-03-29T09:58:47Z</time>
      </trkpt>
      <trkpt lat="47.28127" lon="-2.49593">
        <ele>18.4</ele>
        <time>2017-03-29T09:58:54Z</time>
      </trkpt>
      <trkpt lat="47.28129" lon="-2.49605">
        <ele>17.44</ele>
        <time>2017-03-29T09:59:02Z</time>
      </trkpt>
      <trkpt lat="47.2813" lon="-2.49625">
        <ele>14.56</ele>
        <time>2017-03-29T09:59:11Z</time>
      </trkpt>
      <trkpt lat="47.28133" lon="-2.49642">
        <ele>14.56</ele>
        <time>2017-03-29T09:59:19Z</time>
      </trkpt>
      <trkpt lat="47.28135" lon="-2.49658">
        <ele>16.96</ele>
        <time>2017-03-29T09:59:27Z</time>
      </trkpt>
      <trkpt lat="47.28138" lon="-2.49672">
        <ele>18.4</ele>
        <time>2017-03-29T09:59:35Z</time>
      </trkpt>
      <trkpt lat="47.2814" lon="-2.49688">
        <ele>18.4</ele>
        <time>2017-03-29T09:59:43Z</time>
      </trkpt>
      <trkpt lat="47.28143" lon="-2.49705">
        <ele>17.92</ele>
        <time>2017-03-29T09:59:52Z</time>
      </trkpt>
      <trkpt lat="47.28146" lon="-2.4972">
        <ele>16.48</ele>
        <time>2017-03-29T09:59:59Z</time>
      </trkpt>
      <trkpt lat="47.28148" lon="-2.49736">
        <ele>15.52</ele>
        <time>2017-03-29T10:00:07Z</time>
      </trkpt>
      <trkpt lat="47.28158" lon="-2.49738">
        <ele>13.6</ele>
        <time>2017-03-29T10:00:18Z</time>
      </trkpt>
      <trkpt lat="47.2817" lon="-2.4974">
        <ele>14.56</ele>
        <time>2017-03-29T10:00:26Z</time>
      </trkpt>
      <trkpt lat="47.2818" lon="-2.49742">
        <ele>16.48</ele>
        <time>2017-03-29T10:00:33Z</time>
      </trkpt>
      <trkpt lat="47.2819" lon="-2.49744">
        <ele>17.92</ele>
        <time>2017-03-29T10:00:40Z</time>
      </trkpt>
      <trkpt lat="47.28201" lon="-2.49745">
        <ele>11.67</ele>
        <time>2017-03-29T10:00:48Z</time>
      </trkpt>
      <trkpt lat="47.28212" lon="-2.49748">
        <ele>16.48</ele>
        <time>2017-03-29T10:00:57Z</time>
      </trkpt>
      <trkpt lat="47.28223" lon="-2.49749">
        <ele>17.92</ele>
        <time>2017-03-29T10:01:03Z</time>
      </trkpt>
      <trkpt lat="47.28232" lon="-2.4975">
        <ele>15.52</ele>
        <time>2017-03-29T10:01:10Z</time>
      </trkpt>
      <trkpt lat="47.28243" lon="-2.49751">
        <ele>12.63</ele>
        <time>2017-03-29T10:01:18Z</time>
      </trkpt>
      <trkpt lat="47.28254" lon="-2.49753">
        <ele>10.71</ele>
        <time>2017-03-29T10:01:25Z</time>
      </trkpt>
      <trkpt lat="47.28264" lon="-2.49754">
        <ele>9.75</ele>
        <time>2017-03-29T10:01:33Z</time>
      </trkpt>
      <trkpt lat="47.28276" lon="-2.49757">
        <ele>9.75</ele>
        <time>2017-03-29T10:01:41Z</time>
      </trkpt>
      <trkpt lat="47.28287" lon="-2.4976">
        <ele>9.75</ele>
        <time>2017-03-29T10:01:49Z</time>
      </trkpt>
      <trkpt lat="47.28296" lon="-2.49762">
        <ele>10.23</ele>
        <time>2017-03-29T10:01:57Z</time>
      </trkpt>
      <trkpt lat="47.28306" lon="-2.49768">
        <ele>10.23</ele>
        <time>2017-03-29T10:02:06Z</time>
      </trkpt>
      <trkpt lat="47.28318" lon="-2.49772">
        <ele>14.56</ele>
        <time>2017-03-29T10:02:15Z</time>
      </trkpt>
      <trkpt lat="47.28329" lon="-2.49774">
        <ele>13.6</ele>
        <time>2017-03-29T10:02:25Z</time>
      </trkpt>
      <trkpt lat="47.28339" lon="-2.49777">
        <ele>10.23</ele>
        <time>2017-03-29T10:02:34Z</time>
      </trkpt>
      <trkpt lat="47.28346" lon="-2.49788">
        <ele>14.56</ele>
        <time>2017-03-29T10:02:42Z</time>
      </trkpt>
      <trkpt lat="47.28344" lon="-2.49802">
        <ele>11.19</ele>
        <time>2017-03-29T10:02:51Z</time>
      </trkpt>
      <trkpt lat="47.28346" lon="-2.49817">
        <ele>12.15</ele>
        <time>2017-03-29T10:03:37Z</time>
      </trkpt>
      <trkpt lat="47.28352" lon="-2.49826">
        <ele>13.12</ele>
        <time>2017-03-29T10:03:58Z</time>
      </trkpt>
      <trkpt lat="47.28361" lon="-2.4983">
        <ele>11.67</ele>
        <time>2017-03-29T10:04:06Z</time>
      </trkpt>
      <trkpt lat="47.28371" lon="-2.49832">
        <ele>14.08</ele>
        <time>2017-03-29T10:04:13Z</time>
      </trkpt>
      <trkpt lat="47.2838" lon="-2.49836">
        <ele>10.23</ele>
        <time>2017-03-29T10:04:20Z</time>
      </trkpt>
      <trkpt lat="47.28388" lon="-2.49844">
        <ele>9.75</ele>
        <time>2017-03-29T10:04:27Z</time>
      </trkpt>
      <trkpt lat="47.28394" lon="-2.49856">
        <ele>8.79</ele>
        <time>2017-03-29T10:04:34Z</time>
      </trkpt>
      <trkpt lat="47.28397" lon="-2.49871">
        <ele>13.12</ele>
        <time>2017-03-29T10:04:42Z</time>
      </trkpt>
      <trkpt lat="47.28402" lon="-2.49883">
        <ele>10.23</ele>
        <time>2017-03-29T10:04:50Z</time>
      </trkpt>
      <trkpt lat="47.28407" lon="-2.49895">
        <ele>8.31</ele>
        <time>2017-03-29T10:04:57Z</time>
      </trkpt>
      <trkpt lat="47.28414" lon="-2.49905">
        <ele>10.71</ele>
        <time>2017-03-29T10:05:04Z</time>
      </trkpt>
      <trkpt lat="47.28422" lon="-2.4991">
        <ele>11.67</ele>
        <time>2017-03-29T10:05:11Z</time>
      </trkpt>
      <trkpt lat="47.28432" lon="-2.49912">
        <ele>12.63</ele>
        <time>2017-03-29T10:05:19Z</time>
      </trkpt>
      <trkpt lat="47.28441" lon="-2.49914">
        <ele>13.12</ele>
        <time>2017-03-29T10:05:26Z</time>
      </trkpt>
      <trkpt lat="47.28449" lon="-2.49911">
        <ele>9.75</ele>
        <time>2017-03-29T10:05:33Z</time>
      </trkpt>
      <trkpt lat="47.28457" lon="-2.49904">
        <ele>12.63</ele>
        <time>2017-03-29T10:05:40Z</time>
      </trkpt>
      <trkpt lat="47.28466" lon="-2.49897">
        <ele>12.15</ele>
        <time>2017-03-29T10:05:47Z</time>
      </trkpt>
      <trkpt lat="47.28475" lon="-2.49894">
        <ele>12.15</ele>
        <time>2017-03-29T10:05:54Z</time>
      </trkpt>
      <trkpt lat="47.28484" lon="-2.49893">
        <ele>11.19</ele>
        <time>2017-03-29T10:06:01Z</time>
      </trkpt>
      <trkpt lat="47.28494" lon="-2.49892">
        <ele>11.19</ele>
        <time>2017-03-29T10:06:09Z</time>
      </trkpt>
      <trkpt lat="47.28503" lon="-2.49891">
        <ele>9.75</ele>
        <time>2017-03-29T10:06:17Z</time>
      </trkpt>
      <trkpt lat="47.28512" lon="-2.4989">
        <ele>12.15</ele>
        <time>2017-03-29T10:06:24Z</time>
      </trkpt>
      <trkpt lat="47.28521" lon="-2.49891">
        <ele>11.19</ele>
        <time>2017-03-29T10:06:45Z</time>
      </trkpt>
      <trkpt lat="47.28528" lon="-2.49902">
        <ele>11.19</ele>
        <time>2017-03-29T10:06:56Z</time>
      </trkpt>
      <trkpt lat="47.2853" lon="-2.49915">
        <ele>11.19</ele>
        <time>2017-03-29T10:07:04Z</time>
      </trkpt>
      <trkpt lat="47.28531" lon="-2.49929">
        <ele>13.12</ele>
        <time>2017-03-29T10:07:12Z</time>
      </trkpt>
      <trkpt lat="47.28532" lon="-2.49943">
        <ele>11.67</ele>
        <time>2017-03-29T10:07:19Z</time>
      </trkpt>
      <trkpt lat="47.28532" lon="-2.49956">
        <ele>11.67</ele>
        <time>2017-03-29T10:07:26Z</time>
      </trkpt>
      <trkpt lat="47.28532" lon="-2.49971">
        <ele>12.63</ele>
        <time>2017-03-29T10:07:34Z</time>
      </trkpt>
      <trkpt lat="47.28534" lon="-2.49986">
        <ele>13.12</ele>
        <time>2017-03-29T10:07:42Z</time>
      </trkpt>
      <trkpt lat="47.28536" lon="-2.5">
        <ele>12.15</ele>
        <time>2017-03-29T10:07:50Z</time>
      </trkpt>
      <trkpt lat="47.28539" lon="-2.50014">
        <ele>8.79</ele>
        <time>2017-03-29T10:07:58Z</time>
      </trkpt>
      <trkpt lat="47.28546" lon="-2.50023">
        <ele>10.23</ele>
        <time>2017-03-29T10:08:05Z</time>
      </trkpt>
      <trkpt lat="47.28555" lon="-2.50024">
        <ele>10.23</ele>
        <time>2017-03-29T10:08:11Z</time>
      </trkpt>
      <trkpt lat="47.28565" lon="-2.50025">
        <ele>10.71</ele>
        <time>2017-03-29T10:08:18Z</time>
      </trkpt>
      <trkpt lat="47.28574" lon="-2.50023">
        <ele>11.67</ele>
        <time>2017-03-29T10:08:25Z</time>
      </trkpt>
      <trkpt lat="47.28584" lon="-2.50019">
        <ele>7.83</ele>
        <time>2017-03-29T10:08:33Z</time>
      </trkpt>
      <trkpt lat="47.28593" lon="-2.50016">
        <ele>11.19</ele>
        <time>2017-03-29T10:08:41Z</time>
      </trkpt>
      <trkpt lat="47.28603" lon="-2.50015">
        <ele>8.79</ele>
        <time>2017-03-29T10:08:48Z</time>
      </trkpt>
      <trkpt lat="47.28611" lon="-2.50022">
        <ele>8.79</ele>
        <time>2017-03-29T10:08:56Z</time>
      </trkpt>
      <trkpt lat="47.28615" lon="-2.50033">
        <ele>10.23</ele>
        <time>2017-03-29T10:09:03Z</time>
      </trkpt>
      <trkpt lat="47.28618" lon="-2.50046">
        <ele>9.27</ele>
        <time>2017-03-29T10:09:10Z</time>
      </trkpt>
      <trkpt lat="47.28621" lon="-2.50058">
        <ele>12.15</ele>
        <time>2017-03-29T10:09:17Z</time>
      </trkpt>
      <trkpt lat="47.28623" lon="-2.50073">
        <ele>9.27</ele>
        <time>2017-03-29T10:09:25Z</time>
      </trkpt>
      <trkpt lat="47.28625" lon="-2.50088">
        <ele>13.12</ele>
        <time>2017-03-29T10:09:33Z</time>
      </trkpt>
      <trkpt lat="47.28626" lon="-2.50102">
        <ele>9.27</ele>
        <time>2017-03-29T10:09:41Z</time>
      </trkpt>
      <trkpt lat="47.28627" lon="-2.50116">
        <ele>8.79</ele>
        <time>2017-03-29T10:09:49Z</time>
      </trkpt>
      <trkpt lat="47.28629" lon="-2.5013">
        <ele>9.75</ele>
        <time>2017-03-29T10:09:57Z</time>
      </trkpt>
      <trkpt lat="47.28628" lon="-2.50145">
        <ele>9.75</ele>
        <time>2017-03-29T10:10:06Z</time>
      </trkpt>
      <trkpt lat="47.2863" lon="-2.5016">
        <ele>11.19</ele>
        <time>2017-03-29T10:10:20Z</time>
      </trkpt>
      <trkpt lat="47.28632" lon="-2.50175">
        <ele>11.67</ele>
        <time>2017-03-29T10:10:29Z</time>
      </trkpt>
      <trkpt lat="47.28632" lon="-2.5019">
        <ele>10.23</ele>
        <time>2017-03-29T10:10:38Z</time>
      </trkpt>
      <trkpt lat="47.28634" lon="-2.50205">
        <ele>10.71</ele>
        <time>2017-03-29T10:10:46Z</time>
      </trkpt>
      <trkpt lat="47.28632" lon="-2.50221">
        <ele>8.31</ele>
        <time>2017-03-29T10:10:56Z</time>
      </trkpt>
      <trkpt lat="47.28632" lon="-2.50235">
        <ele>8.79</ele>
        <time>2017-03-29T10:11:06Z</time>
      </trkpt>
      <trkpt lat="47.28633" lon="-2.50249">
        <ele>9.27</ele>
        <time>2017-03-29T10:11:15Z</time>
      </trkpt>
      <trkpt lat="47.28638" lon="-2.50261">
        <ele>10.71</ele>
        <time>2017-03-29T10:11:26Z</time>
      </trkpt>
      <trkpt lat="47.28647" lon="-2.50261">
        <ele>9.75</ele>
        <time>2017-03-29T10:11:35Z</time>
      </trkpt>
      <trkpt lat="47.28655" lon="-2.50256">
        <ele>8.79</ele>
        <time>2017-03-29T10:11:44Z</time>
      </trkpt>
      <trkpt lat="47.28663" lon="-2.50249">
        <ele>9.75</ele>
        <time>2017-03-29T10:11:53Z</time>
      </trkpt>
      <trkpt lat="47.28672" lon="-2.50241">
        <ele>11.67</ele>
        <time>2017-03-29T10:12:04Z</time>
      </trkpt>
      <trkpt lat="47.2868" lon="-2.50236">
        <ele>12.15</ele>
        <time>2017-03-29T10:12:34Z</time>
      </trkpt>
      <trkpt lat="47.28676" lon="-2.50235">
        <ele>11.67</ele>
        <time>2017-03-29T10:13:05Z</time>
      </trkpt>
      <trkpt lat="47.28667" lon="-2.50241">
        <ele>11.67</ele>
        <time>2017-03-29T10:13:16Z</time>
      </trkpt>
      <trkpt lat="47.2866" lon="-2.50252">
        <ele>11.67</ele>
        <time>2017-03-29T10:13:25Z</time>
      </trkpt>
      <trkpt lat="47.28651" lon="-2.50257">
        <ele>10.71</ele>
        <time>2017-03-29T10:13:35Z</time>
      </trkpt>
      <trkpt lat="47.28642" lon="-2.50261">
        <ele>12.15</ele>
        <time>2017-03-29T10:13:45Z</time>
      </trkpt>
      <trkpt lat="47.28636" lon="-2.50261">
        <ele>10.23</ele>
        <time>2017-03-29T10:14:35Z</time>
      </trkpt>
      <trkpt lat="47.28633" lon="-2.50247">
        <ele>6.87</ele>
        <time>2017-03-29T10:14:43Z</time>
      </trkpt>
      <trkpt lat="47.2863" lon="-2.50235">
        <ele>6.39</ele>
        <time>2017-03-29T10:14:50Z</time>
      </trkpt>
      <trkpt lat="47.28629" lon="-2.5022">
        <ele>7.83</ele>
        <time>2017-03-29T10:14:59Z</time>
      </trkpt>
      <trkpt lat="47.28628" lon="-2.50206">
        <ele>7.83</ele>
        <time>2017-03-29T10:15:09Z</time>
      </trkpt>
      <trkpt lat="47.28627" lon="-2.50192">
        <ele>9.75</ele>
        <time>2017-03-29T10:15:17Z</time>
      </trkpt>
      <trkpt lat="47.28627" lon="-2.50177">
        <ele>7.83</ele>
        <time>2017-03-29T10:15:25Z</time>
      </trkpt>
      <trkpt lat="47.28626" lon="-2.50163">
        <ele>6.39</ele>
        <time>2017-03-29T10:15:33Z</time>
      </trkpt>
      <trkpt lat="47.28625" lon="-2.50147">
        <ele>7.83</ele>
        <time>2017-03-29T10:15:42Z</time>
      </trkpt>
      <trkpt lat="47.28625" lon="-2.50132">
        <ele>6.87</ele>
        <time>2017-03-29T10:15:51Z</time>
      </trkpt>
      <trkpt lat="47.28625" lon="-2.50118">
        <ele>8.31</ele>
        <time>2017-03-29T10:15:59Z</time>
      </trkpt>
      <trkpt lat="47.28622" lon="-2.50105">
        <ele>10.23</ele>
        <time>2017-03-29T10:16:06Z</time>
      </trkpt>
      <trkpt lat="47.28621" lon="-2.50091">
        <ele>8.79</ele>
        <time>2017-03-29T10:16:14Z</time>
      </trkpt>
      <trkpt lat="47.28619" lon="-2.50078">
        <ele>9.27</ele>
        <time>2017-03-29T10:16:23Z</time>
      </trkpt>
      <trkpt lat="47.28618" lon="-2.50065">
        <ele>9.27</ele>
        <time>2017-03-29T10:16:31Z</time>
      </trkpt>
      <trkpt lat="47.28617" lon="-2.5005">
        <ele>8.79</ele>
        <time>2017-03-29T10:16:40Z</time>
      </trkpt>
      <trkpt lat="47.28615" lon="-2.50035">
        <ele>7.83</ele>
        <time>2017-03-29T10:16:49Z</time>
      </trkpt>
      <trkpt lat="47.28611" lon="-2.5002">
        <ele>6.39</ele>
        <time>2017-03-29T10:16:58Z</time>
      </trkpt>
      <trkpt lat="47.28603" lon="-2.50014">
        <ele>4.94</ele>
        <time>2017-03-29T10:17:06Z</time>
      </trkpt>
      <trkpt lat="47.28594" lon="-2.50014">
        <ele>8.79</ele>
        <time>2017-03-29T10:17:14Z</time>
      </trkpt>
      <trkpt lat="47.28585" lon="-2.50016">
        <ele>7.35</ele>
        <time>2017-03-29T10:17:23Z</time>
      </trkpt>
      <trkpt lat="47.28576" lon="-2.50017">
        <ele>7.83</ele>
        <time>2017-03-29T10:17:32Z</time>
      </trkpt>
      <trkpt lat="47.28566" lon="-2.5002">
        <ele>6.39</ele>
        <time>2017-03-29T10:17:41Z</time>
      </trkpt>
      <trkpt lat="47.28557" lon="-2.50023">
        <ele>8.79</ele>
        <time>2017-03-29T10:17:49Z</time>
      </trkpt>
      <trkpt lat="47.28548" lon="-2.50026">
        <ele>7.35</ele>
        <time>2017-03-29T10:17:58Z</time>
      </trkpt>
      <trkpt lat="47.28548" lon="-2.5004">
        <ele>8.31</ele>
        <time>2017-03-29T10:18:07Z</time>
      </trkpt>
      <trkpt lat="47.28548" lon="-2.50054">
        <ele>9.27</ele>
        <time>2017-03-29T10:18:15Z</time>
      </trkpt>
      <trkpt lat="47.28549" lon="-2.50069">
        <ele>9.27</ele>
        <time>2017-03-29T10:18:24Z</time>
      </trkpt>
      <trkpt lat="47.2855" lon="-2.50083">
        <ele>8.31</ele>
        <time>2017-03-29T10:18:33Z</time>
      </trkpt>
      <trkpt lat="47.28551" lon="-2.50096">
        <ele>11.19</ele>
        <time>2017-03-29T10:18:42Z</time>
      </trkpt>
      <trkpt lat="47.28553" lon="-2.5011">
        <ele>9.75</ele>
        <time>2017-03-29T10:18:51Z</time>
      </trkpt>
      <trkpt lat="47.28556" lon="-2.50124">
        <ele>8.79</ele>
        <time>2017-03-29T10:19:00Z</time>
      </trkpt>
      <trkpt lat="47.28558" lon="-2.50139">
        <ele>11.19</ele>
        <time>2017-03-29T10:19:09Z</time>
      </trkpt>
      <trkpt lat="47.28558" lon="-2.50154">
        <ele>8.31</ele>
        <time>2017-03-29T10:19:18Z</time>
      </trkpt>
      <trkpt lat="47.28551" lon="-2.50163">
        <ele>9.75</ele>
        <time>2017-03-29T10:19:26Z</time>
      </trkpt>
      <trkpt lat="47.28539" lon="-2.50165">
        <ele>8.79</ele>
        <time>2017-03-29T10:19:35Z</time>
      </trkpt>
      <trkpt lat="47.2853" lon="-2.50167">
        <ele>9.27</ele>
        <time>2017-03-29T10:19:44Z</time>
      </trkpt>
      <trkpt lat="47.28521" lon="-2.50168">
        <ele>9.75</ele>
        <time>2017-03-29T10:19:54Z</time>
      </trkpt>
      <trkpt lat="47.28513" lon="-2.50161">
        <ele>9.27</ele>
        <time>2017-03-29T10:20:08Z</time>
      </trkpt>
      <trkpt lat="47.28503" lon="-2.50162">
        <ele>8.31</ele>
        <time>2017-03-29T10:20:18Z</time>
      </trkpt>
      <trkpt lat="47.285" lon="-2.50175">
        <ele>9.75</ele>
        <time>2017-03-29T10:20:40Z</time>
      </trkpt>
      <trkpt lat="47.285" lon="-2.50189">
        <ele>6.87</ele>
        <time>2017-03-29T10:20:50Z</time>
      </trkpt>
      <trkpt lat="47.285" lon="-2.50202">
        <ele>7.35</ele>
        <time>2017-03-29T10:21:00Z</time>
      </trkpt>
      <trkpt lat="47.28499" lon="-2.50219">
        <ele>7.83</ele>
        <time>2017-03-29T10:21:10Z</time>
      </trkpt>
      <trkpt lat="47.28494" lon="-2.50233">
        <ele>10.23</ele>
        <time>2017-03-29T10:21:20Z</time>
      </trkpt>
      <trkpt lat="47.28487" lon="-2.50244">
        <ele>10.71</ele>
        <time>2017-03-29T10:21:44Z</time>
      </trkpt>
      <trkpt lat="47.28475" lon="-2.50244">
        <ele>8.31</ele>
        <time>2017-03-29T10:21:54Z</time>
      </trkpt>
      <trkpt lat="47.28464" lon="-2.50244">
        <ele>8.31</ele>
        <time>2017-03-29T10:22:16Z</time>
      </trkpt>
      <trkpt lat="47.28455" lon="-2.50244">
        <ele>10.23</ele>
        <time>2017-03-29T10:22:30Z</time>
      </trkpt>
      <trkpt lat="47.28445" lon="-2.5025">
        <ele>10.71</ele>
        <time>2017-03-29T10:22:59Z</time>
      </trkpt>
      <trkpt lat="47.28433" lon="-2.50253">
        <ele>5.91</ele>
        <time>2017-03-29T10:23:08Z</time>
      </trkpt>
      <trkpt lat="47.28422" lon="-2.50261">
        <ele>9.27</ele>
        <time>2017-03-29T10:23:17Z</time>
      </trkpt>
      <trkpt lat="47.28411" lon="-2.50267">
        <ele>9.75</ele>
        <time>2017-03-29T10:23:26Z</time>
      </trkpt>
      <trkpt lat="47.28402" lon="-2.50272">
        <ele>6.87</ele>
        <time>2017-03-29T10:23:34Z</time>
      </trkpt>
      <trkpt lat="47.28396" lon="-2.50284">
        <ele>7.83</ele>
        <time>2017-03-29T10:23:45Z</time>
      </trkpt>
      <trkpt lat="47.28397" lon="-2.50298">
        <ele>9.27</ele>
        <time>2017-03-29T10:23:53Z</time>
      </trkpt>
      <trkpt lat="47.28396" lon="-2.50314">
        <ele>6.39</ele>
        <time>2017-03-29T10:24:02Z</time>
      </trkpt>
      <trkpt lat="47.28396" lon="-2.50328">
        <ele>8.79</ele>
        <time>2017-03-29T10:24:11Z</time>
      </trkpt>
      <trkpt lat="47.28399" lon="-2.50344">
        <ele>8.31</ele>
        <time>2017-03-29T10:24:20Z</time>
      </trkpt>
      <trkpt lat="47.28408" lon="-2.50351">
        <ele>7.35</ele>
        <time>2017-03-29T10:24:28Z</time>
      </trkpt>
      <trkpt lat="47.28418" lon="-2.50358">
        <ele>10.23</ele>
        <time>2017-03-29T10:24:37Z</time>
      </trkpt>
      <trkpt lat="47.28428" lon="-2.50364">
        <ele>10.71</ele>
        <time>2017-03-29T10:24:46Z</time>
      </trkpt>
      <trkpt lat="47.28437" lon="-2.5037">
        <ele>7.83</ele>
        <time>2017-03-29T10:24:54Z</time>
      </trkpt>
      <trkpt lat="47.28446" lon="-2.50375">
        <ele>7.35</ele>
        <time>2017-03-29T10:25:02Z</time>
      </trkpt>
      <trkpt lat="47.28455" lon="-2.50381">
        <ele>7.35</ele>
        <time>2017-03-29T10:25:11Z</time>
      </trkpt>
      <trkpt lat="47.28466" lon="-2.50388">
        <ele>8.79</ele>
        <time>2017-03-29T10:25:21Z</time>
      </trkpt>
      <trkpt lat="47.28478" lon="-2.50394">
        <ele>10.71</ele>
        <time>2017-03-29T10:25:30Z</time>
      </trkpt>
      <trkpt lat="47.28489" lon="-2.50401">
        <ele>8.79</ele>
        <time>2017-03-29T10:25:39Z</time>
      </trkpt>
      <trkpt lat="47.28499" lon="-2.50408">
        <ele>8.31</ele>
        <time>2017-03-29T10:25:48Z</time>
      </trkpt>
      <trkpt lat="47.2851" lon="-2.50415">
        <ele>9.75</ele>
        <time>2017-03-29T10:25:58Z</time>
      </trkpt>
      <trkpt lat="47.28521" lon="-2.50423">
        <ele>8.79</ele>
        <time>2017-03-29T10:26:07Z</time>
      </trkpt>
      <trkpt lat="47.28527" lon="-2.50435">
        <ele>7.83</ele>
        <time>2017-03-29T10:26:15Z</time>
      </trkpt>
      <trkpt lat="47.28536" lon="-2.50444">
        <ele>7.83</ele>
        <time>2017-03-29T10:26:25Z</time>
      </trkpt>
      <trkpt lat="47.28546" lon="-2.5045">
        <ele>11.19</ele>
        <time>2017-03-29T10:26:34Z</time>
      </trkpt>
      <trkpt lat="47.28556" lon="-2.50458">
        <ele>7.83</ele>
        <time>2017-03-29T10:26:42Z</time>
      </trkpt>
      <trkpt lat="47.28565" lon="-2.50465">
        <ele>10.23</ele>
        <time>2017-03-29T10:26:50Z</time>
      </trkpt>
      <trkpt lat="47.28574" lon="-2.5047">
        <ele>6.87</ele>
        <time>2017-03-29T10:26:58Z</time>
      </trkpt>
      <trkpt lat="47.28584" lon="-2.50476">
        <ele>10.71</ele>
        <time>2017-03-29T10:27:07Z</time>
      </trkpt>
      <trkpt lat="47.28594" lon="-2.50483">
        <ele>7.83</ele>
        <time>2017-03-29T10:27:15Z</time>
      </trkpt>
      <trkpt lat="47.28603" lon="-2.5049">
        <ele>10.23</ele>
        <time>2017-03-29T10:27:24Z</time>
      </trkpt>
      <trkpt lat="47.28614" lon="-2.50496">
        <ele>8.79</ele>
        <time>2017-03-29T10:27:33Z</time>
      </trkpt>
      <trkpt lat="47.28623" lon="-2.50503">
        <ele>5.42</ele>
        <time>2017-03-29T10:27:41Z</time>
      </trkpt>
      <trkpt lat="47.28633" lon="-2.50509">
        <ele>8.79</ele>
        <time>2017-03-29T10:27:49Z</time>
      </trkpt>
      <trkpt lat="47.28643" lon="-2.50514">
        <ele>9.27</ele>
        <time>2017-03-29T10:27:57Z</time>
      </trkpt>
      <trkpt lat="47.28652" lon="-2.5052">
        <ele>8.31</ele>
        <time>2017-03-29T10:28:05Z</time>
      </trkpt>
      <trkpt lat="47.28662" lon="-2.50529">
        <ele>9.75</ele>
        <time>2017-03-29T10:28:16Z</time>
      </trkpt>
      <trkpt lat="47.28673" lon="-2.50536">
        <ele>9.75</ele>
        <time>2017-03-29T10:28:25Z</time>
      </trkpt>
      <trkpt lat="47.28682" lon="-2.50544">
        <ele>7.35</ele>
        <time>2017-03-29T10:28:33Z</time>
      </trkpt>
      <trkpt lat="47.28692" lon="-2.5055">
        <ele>7.83</ele>
        <time>2017-03-29T10:28:41Z</time>
      </trkpt>
      <trkpt lat="47.28701" lon="-2.50556">
        <ele>6.39</ele>
        <time>2017-03-29T10:28:49Z</time>
      </trkpt>
      <trkpt lat="47.28711" lon="-2.50561">
        <ele>9.27</ele>
        <time>2017-03-29T10:28:57Z</time>
      </trkpt>
      <trkpt lat="47.2872" lon="-2.50568">
        <ele>8.79</ele>
        <time>2017-03-29T10:29:05Z</time>
      </trkpt>
      <trkpt lat="47.2873" lon="-2.50575">
        <ele>5.91</ele>
        <time>2017-03-29T10:29:13Z</time>
      </trkpt>
      <trkpt lat="47.28738" lon="-2.50581">
        <ele>7.83</ele>
        <time>2017-03-29T10:29:21Z</time>
      </trkpt>
      <trkpt lat="47.28748" lon="-2.50586">
        <ele>7.83</ele>
        <time>2017-03-29T10:29:30Z</time>
      </trkpt>
      <trkpt lat="47.28757" lon="-2.50592">
        <ele>4.94</ele>
        <time>2017-03-29T10:29:38Z</time>
      </trkpt>
      <trkpt lat="47.28767" lon="-2.50597">
        <ele>9.27</ele>
        <time>2017-03-29T10:29:46Z</time>
      </trkpt>
      <trkpt lat="47.28778" lon="-2.506">
        <ele>3.98</ele>
        <time>2017-03-29T10:29:54Z</time>
      </trkpt>
      <trkpt lat="47.28788" lon="-2.50604">
        <ele>9.27</ele>
        <time>2017-03-29T10:30:03Z</time>
      </trkpt>
      <trkpt lat="47.28798" lon="-2.50611">
        <ele>3.5</ele>
        <time>2017-03-29T10:30:11Z</time>
      </trkpt>
      <trkpt lat="47.28807" lon="-2.50616">
        <ele>7.83</ele>
        <time>2017-03-29T10:30:18Z</time>
      </trkpt>
      <trkpt lat="47.28817" lon="-2.50621">
        <ele>7.83</ele>
        <time>2017-03-29T10:30:26Z</time>
      </trkpt>
      <trkpt lat="47.28827" lon="-2.50627">
        <ele>5.91</ele>
        <time>2017-03-29T10:30:35Z</time>
      </trkpt>
      <trkpt lat="47.28837" lon="-2.50632">
        <ele>7.83</ele>
        <time>2017-03-29T10:30:43Z</time>
      </trkpt>
      <trkpt lat="47.28847" lon="-2.50636">
        <ele>4.46</ele>
        <time>2017-03-29T10:30:51Z</time>
      </trkpt>
      <trkpt lat="47.28857" lon="-2.50641">
        <ele>7.83</ele>
        <time>2017-03-29T10:31:00Z</time>
      </trkpt>
      <trkpt lat="47.28866" lon="-2.50646">
        <ele>3.98</ele>
        <time>2017-03-29T10:31:08Z</time>
      </trkpt>
      <trkpt lat="47.28874" lon="-2.50652">
        <ele>4.46</ele>
        <time>2017-03-29T10:31:17Z</time>
      </trkpt>
      <trkpt lat="47.28885" lon="-2.50656">
        <ele>6.39</ele>
        <time>2017-03-29T10:31:25Z</time>
      </trkpt>
      <trkpt lat="47.28895" lon="-2.50667">
        <ele>6.39</ele>
        <time>2017-03-29T10:31:32Z</time>
      </trkpt>
      <trkpt lat="47.28901" lon="-2.50678">
        <ele>5.91</ele>
        <time>2017-03-29T10:31:41Z</time>
      </trkpt>
      <trkpt lat="47.28909" lon="-2.5069">
        <ele>6.39</ele>
        <time>2017-03-29T10:31:49Z</time>
      </trkpt>
      <trkpt lat="47.28916" lon="-2.50704">
        <ele>6.87</ele>
        <time>2017-03-29T10:31:59Z</time>
      </trkpt>
      <trkpt lat="47.28926" lon="-2.50715">
        <ele>4.94</ele>
        <time>2017-03-29T10:32:10Z</time>
      </trkpt>
      <trkpt lat="47.28935" lon="-2.50725">
        <ele>7.83</ele>
        <time>2017-03-29T10:32:18Z</time>
      </trkpt>
      <trkpt lat="47.28945" lon="-2.50732">
        <ele>6.39</ele>
        <time>2017-03-29T10:32:27Z</time>
      </trkpt>
      <trkpt lat="47.28956" lon="-2.50737">
        <ele>5.91</ele>
        <time>2017-03-29T10:32:36Z</time>
      </trkpt>
      <trkpt lat="47.28966" lon="-2.50739">
        <ele>3.98</ele>
        <time>2017-03-29T10:32:44Z</time>
      </trkpt>
      <trkpt lat="47.28976" lon="-2.50739">
        <ele>7.35</ele>
        <time>2017-03-29T10:32:52Z</time>
      </trkpt>
      <trkpt lat="47.28985" lon="-2.50739">
        <ele>6.87</ele>
        <time>2017-03-29T10:33:01Z</time>
      </trkpt>
      <trkpt lat="47.28994" lon="-2.50727">
        <ele>5.91</ele>
        <time>2017-03-29T10:33:16Z</time>
      </trkpt>
      <trkpt lat="47.28984" lon="-2.50732">
        <ele>5.91</ele>
        <time>2017-03-29T10:33:36Z</time>
      </trkpt>
      <trkpt lat="47.28994" lon="-2.5074">
        <ele>7.83</ele>
        <time>2017-03-29T10:33:51Z</time>
      </trkpt>
      <trkpt lat="47.29003" lon="-2.50745">
        <ele>4.94</ele>
        <time>2017-03-29T10:34:01Z</time>
      </trkpt>
      <trkpt lat="47.29014" lon="-2.50747">
        <ele>5.42</ele>
        <time>2017-03-29T10:34:11Z</time>
      </trkpt>
      <trkpt lat="47.29027" lon="-2.50751">
        <ele>6.39</ele>
        <time>2017-03-29T10:34:26Z</time>
      </trkpt>
      <trkpt lat="47.29036" lon="-2.5076">
        <ele>6.39</ele>
        <time>2017-03-29T10:34:36Z</time>
      </trkpt>
      <trkpt lat="47.29045" lon="-2.5077">
        <ele>6.87</ele>
        <time>2017-03-29T10:34:49Z</time>
      </trkpt>
      <trkpt lat="47.29043" lon="-2.50759">
        <ele>7.35</ele>
        <time>2017-03-29T10:35:23Z</time>
      </trkpt>
      <trkpt lat="47.29044" lon="-2.50741">
        <ele>7.83</ele>
        <time>2017-03-29T10:35:31Z</time>
      </trkpt>
      <trkpt lat="47.29053" lon="-2.50737">
        <ele>10.71</ele>
        <time>2017-03-29T10:35:45Z</time>
      </trkpt>
      <trkpt lat="47.29066" lon="-2.50746">
        <ele>14.08</ele>
        <time>2017-03-29T10:36:00Z</time>
      </trkpt>
      <trkpt lat="47.29078" lon="-2.50746">
        <ele>20.32</ele>
        <time>2017-03-29T10:36:25Z</time>
      </trkpt>
      <trkpt lat="47.29083" lon="-2.50745">
        <ele>25.61</ele>
        <time>2017-03-29T10:37:00Z</time>
      </trkpt>
      <trkpt lat="47.29092" lon="-2.5075">
        <ele>22.25</ele>
        <time>2017-03-29T10:56:30Z</time>
      </trkpt>
      <trkpt lat="47.29086" lon="-2.50751">
        <ele>24.17</ele>
        <time>2017-03-29T10:56:41Z</time>
      </trkpt>
      <trkpt lat="47.29096" lon="-2.5075">
        <ele>21.77</ele>
        <time>2017-03-29T10:56:51Z</time>
      </trkpt>
      <trkpt lat="47.2909" lon="-2.50742">
        <ele>21.29</ele>
        <time>2017-03-29T10:56:59Z</time>
      </trkpt>
      <trkpt lat="47.29085" lon="-2.50752">
        <ele>16</ele>
        <time>2017-03-29T10:57:07Z</time>
      </trkpt>
      <trkpt lat="47.29094" lon="-2.50757">
        <ele>17.44</ele>
        <time>2017-03-29T10:57:15Z</time>
      </trkpt>
      <trkpt lat="47.29101" lon="-2.50745">
        <ele>19.36</ele>
        <time>2017-03-29T10:57:22Z</time>
      </trkpt>
      <trkpt lat="47.29095" lon="-2.50733">
        <ele>17.92</ele>
        <time>2017-03-29T10:57:30Z</time>
      </trkpt>
      <trkpt lat="47.29101" lon="-2.50734">
        <ele>16.96</ele>
        <time>2017-03-29T10:57:39Z</time>
      </trkpt>
      <trkpt lat="47.29105" lon="-2.50749">
        <ele>15.52</ele>
        <time>2017-03-29T10:57:47Z</time>
      </trkpt>
      <trkpt lat="47.29107" lon="-2.50762">
        <ele>13.12</ele>
        <time>2017-03-29T10:57:55Z</time>
      </trkpt>
      <trkpt lat="47.2911" lon="-2.50769">
        <ele>11.19</ele>
        <time>2017-03-29T10:58:46Z</time>
      </trkpt>
      <trkpt lat="47.29122" lon="-2.50775">
        <ele>9.75</ele>
        <time>2017-03-29T10:58:57Z</time>
      </trkpt>
      <trkpt lat="47.29133" lon="-2.50782">
        <ele>11.19</ele>
        <time>2017-03-29T10:59:06Z</time>
      </trkpt>
      <trkpt lat="47.29145" lon="-2.5079">
        <ele>12.15</ele>
        <time>2017-03-29T10:59:14Z</time>
      </trkpt>
      <trkpt lat="47.29155" lon="-2.50799">
        <ele>10.71</ele>
        <time>2017-03-29T10:59:23Z</time>
      </trkpt>
      <trkpt lat="47.29164" lon="-2.50804">
        <ele>8.31</ele>
        <time>2017-03-29T10:59:31Z</time>
      </trkpt>
      <trkpt lat="47.29174" lon="-2.50809">
        <ele>5.42</ele>
        <time>2017-03-29T10:59:38Z</time>
      </trkpt>
      <trkpt lat="47.29183" lon="-2.50815">
        <ele>7.83</ele>
        <time>2017-03-29T10:59:46Z</time>
      </trkpt>
      <trkpt lat="47.29195" lon="-2.50824">
        <ele>5.42</ele>
        <time>2017-03-29T10:59:57Z</time>
      </trkpt>
      <trkpt lat="47.29206" lon="-2.50827">
        <ele>3.02</ele>
        <time>2017-03-29T11:00:06Z</time>
      </trkpt>
      <trkpt lat="47.29219" lon="-2.50834">
        <ele>2.54</ele>
        <time>2017-03-29T11:00:15Z</time>
      </trkpt>
      <trkpt lat="47.29226" lon="-2.50844">
        <ele>3.02</ele>
        <time>2017-03-29T11:00:24Z</time>
      </trkpt>
      <trkpt lat="47.29235" lon="-2.50841">
        <ele>2.06</ele>
        <time>2017-03-29T11:00:32Z</time>
      </trkpt>
      <trkpt lat="47.29244" lon="-2.50842">
        <ele>3.02</ele>
        <time>2017-03-29T11:00:42Z</time>
      </trkpt>
      <trkpt lat="47.29253" lon="-2.50853">
        <ele>3.5</ele>
        <time>2017-03-29T11:00:51Z</time>
      </trkpt>
      <trkpt lat="47.29264" lon="-2.5086">
        <ele>3.02</ele>
        <time>2017-03-29T11:00:59Z</time>
      </trkpt>
      <trkpt lat="47.29272" lon="-2.50871">
        <ele>4.46</ele>
        <time>2017-03-29T11:01:06Z</time>
      </trkpt>
      <trkpt lat="47.29273" lon="-2.50885">
        <ele>3.02</ele>
        <time>2017-03-29T11:01:13Z</time>
      </trkpt>
      <trkpt lat="47.29273" lon="-2.50899">
        <ele>3.02</ele>
        <time>2017-03-29T11:01:20Z</time>
      </trkpt>
      <trkpt lat="47.29279" lon="-2.50908">
        <ele>1.1</ele>
        <time>2017-03-29T11:01:28Z</time>
      </trkpt>
      <trkpt lat="47.29289" lon="-2.50906">
        <ele>5.91</ele>
        <time>2017-03-29T11:01:37Z</time>
      </trkpt>
      <trkpt lat="47.29293" lon="-2.509">
        <ele>1.58</ele>
        <time>2017-03-29T11:01:49Z</time>
      </trkpt>
      <trkpt lat="47.29303" lon="-2.50895">
        <ele>1.1</ele>
        <time>2017-03-29T11:01:57Z</time>
      </trkpt>
      <trkpt lat="47.29313" lon="-2.50901">
        <ele>4.94</ele>
        <time>2017-03-29T11:02:04Z</time>
      </trkpt>
      <trkpt lat="47.29325" lon="-2.50906">
        <ele>1.58</ele>
        <time>2017-03-29T11:02:12Z</time>
      </trkpt>
      <trkpt lat="47.29334" lon="-2.50914">
        <ele>3.98</ele>
        <time>2017-03-29T11:02:20Z</time>
      </trkpt>
      <trkpt lat="47.29344" lon="-2.50919">
        <ele>3.98</ele>
        <time>2017-03-29T11:02:27Z</time>
      </trkpt>
      <trkpt lat="47.29354" lon="-2.50923">
        <ele>3.5</ele>
        <time>2017-03-29T11:02:35Z</time>
      </trkpt>
      <trkpt lat="47.29363" lon="-2.50925">
        <ele>2.06</ele>
        <time>2017-03-29T11:02:43Z</time>
      </trkpt>
      <trkpt lat="47.29373" lon="-2.50923">
        <ele>3.02</ele>
        <time>2017-03-29T11:02:52Z</time>
      </trkpt>
      <trkpt lat="47.29381" lon="-2.50916">
        <ele>3.98</ele>
        <time>2017-03-29T11:03:00Z</time>
      </trkpt>
      <trkpt lat="47.29389" lon="-2.50909">
        <ele>4.46</ele>
        <time>2017-03-29T11:03:09Z</time>
      </trkpt>
      <trkpt lat="47.29396" lon="-2.50908">
        <ele>2.06</ele>
        <time>2017-03-29T11:03:41Z</time>
      </trkpt>
      <trkpt lat="47.2939" lon="-2.50913">
        <ele>2.54</ele>
        <time>2017-03-29T11:03:50Z</time>
      </trkpt>
      <trkpt lat="47.29382" lon="-2.5092">
        <ele>1.58</ele>
        <time>2017-03-29T11:03:59Z</time>
      </trkpt>
      <trkpt lat="47.29371" lon="-2.5093">
        <ele>3.5</ele>
        <time>2017-03-29T11:04:10Z</time>
      </trkpt>
      <trkpt lat="47.29361" lon="-2.50936">
        <ele>3.5</ele>
        <time>2017-03-29T11:04:19Z</time>
      </trkpt>
      <trkpt lat="47.29359" lon="-2.50954">
        <ele>3.98</ele>
        <time>2017-03-29T11:04:30Z</time>
      </trkpt>
      <trkpt lat="47.2937" lon="-2.50967">
        <ele>0.14</ele>
        <time>2017-03-29T11:04:39Z</time>
      </trkpt>
      <trkpt lat="47.29378" lon="-2.5098">
        <ele>1.1</ele>
        <time>2017-03-29T11:04:47Z</time>
      </trkpt>
      <trkpt lat="47.29385" lon="-2.50992">
        <ele>3.02</ele>
        <time>2017-03-29T11:04:55Z</time>
      </trkpt>
      <trkpt lat="47.29393" lon="-2.51001">
        <ele>3.5</ele>
        <time>2017-03-29T11:05:03Z</time>
      </trkpt>
      <trkpt lat="47.29398" lon="-2.5101">
        <ele>3.02</ele>
        <time>2017-03-29T11:05:11Z</time>
      </trkpt>
      <trkpt lat="47.29402" lon="-2.51021">
        <ele>2.54</ele>
        <time>2017-03-29T11:05:21Z</time>
      </trkpt>
      <trkpt lat="47.29401" lon="-2.51034">
        <ele>2.54</ele>
        <time>2017-03-29T11:05:33Z</time>
      </trkpt>
      <trkpt lat="47.29396" lon="-2.51049">
        <ele>3.02</ele>
        <time>2017-03-29T11:05:42Z</time>
      </trkpt>
      <trkpt lat="47.29389" lon="-2.51061">
        <ele>3.5</ele>
        <time>2017-03-29T11:05:50Z</time>
      </trkpt>
      <trkpt lat="47.29382" lon="-2.51074">
        <ele>1.58</ele>
        <time>2017-03-29T11:05:58Z</time>
      </trkpt>
      <trkpt lat="47.2939" lon="-2.51081">
        <ele>3.02</ele>
        <time>2017-03-29T11:06:09Z</time>
      </trkpt>
      <trkpt lat="47.29399" lon="-2.51094">
        <ele>3.02</ele>
        <time>2017-03-29T11:06:20Z</time>
      </trkpt>
      <trkpt lat="47.29396" lon="-2.51109">
        <ele>4.94</ele>
        <time>2017-03-29T11:06:32Z</time>
      </trkpt>
      <trkpt lat="47.29409" lon="-2.51101">
        <ele>2.54</ele>
        <time>2017-03-29T11:06:44Z</time>
      </trkpt>
      <trkpt lat="47.29418" lon="-2.51087">
        <ele>3.98</ele>
        <time>2017-03-29T11:06:52Z</time>
      </trkpt>
      <trkpt lat="47.29425" lon="-2.51073">
        <ele>3.02</ele>
        <time>2017-03-29T11:07:00Z</time>
      </trkpt>
      <trkpt lat="47.29435" lon="-2.51072">
        <ele>3.02</ele>
        <time>2017-03-29T11:07:08Z</time>
      </trkpt>
      <trkpt lat="47.29445" lon="-2.51082">
        <ele>1.1</ele>
        <time>2017-03-29T11:07:16Z</time>
      </trkpt>
      <trkpt lat="47.29451" lon="-2.51093">
        <ele>3.98</ele>
        <time>2017-03-29T11:07:24Z</time>
      </trkpt>
      <trkpt lat="47.29459" lon="-2.51103">
        <ele>2.06</ele>
        <time>2017-03-29T11:07:32Z</time>
      </trkpt>
      <trkpt lat="47.29466" lon="-2.51113">
        <ele>3.98</ele>
        <time>2017-03-29T11:07:40Z</time>
      </trkpt>
      <trkpt lat="47.29472" lon="-2.51124">
        <ele>1.1</ele>
        <time>2017-03-29T11:07:48Z</time>
      </trkpt>
      <trkpt lat="47.29478" lon="-2.51131">
        <ele>3.5</ele>
        <time>2017-03-29T11:07:56Z</time>
      </trkpt>
      <trkpt lat="47.29487" lon="-2.51138">
        <ele>3.5</ele>
        <time>2017-03-29T11:08:05Z</time>
      </trkpt>
      <trkpt lat="47.29496" lon="-2.51138">
        <ele>4.46</ele>
        <time>2017-03-29T11:08:14Z</time>
      </trkpt>
      <trkpt lat="47.29499" lon="-2.51133">
        <ele>3.5</ele>
        <time>2017-03-29T11:08:52Z</time>
      </trkpt>
      <trkpt lat="47.29504" lon="-2.5114">
        <ele>3.5</ele>
        <time>2017-03-29T11:09:19Z</time>
      </trkpt>
      <trkpt lat="47.29502" lon="-2.51148">
        <ele>2.54</ele>
        <time>2017-03-29T11:09:55Z</time>
      </trkpt>
      <trkpt lat="47.29497" lon="-2.5116">
        <ele>4.46</ele>
        <time>2017-03-29T11:10:27Z</time>
      </trkpt>
      <trkpt lat="47.295" lon="-2.51173">
        <ele>5.91</ele>
        <time>2017-03-29T11:10:34Z</time>
      </trkpt>
      <trkpt lat="47.29503" lon="-2.51186">
        <ele>1.1</ele>
        <time>2017-03-29T11:10:42Z</time>
      </trkpt>
      <trkpt lat="47.29509" lon="-2.51198">
        <ele>2.54</ele>
        <time>2017-03-29T11:10:51Z</time>
      </trkpt>
      <trkpt lat="47.29514" lon="-2.51211">
        <ele>1.58</ele>
        <time>2017-03-29T11:10:59Z</time>
      </trkpt>
      <trkpt lat="47.29518" lon="-2.51224">
        <ele>4.46</ele>
        <time>2017-03-29T11:11:07Z</time>
      </trkpt>
      <trkpt lat="47.29525" lon="-2.51234">
        <ele>2.06</ele>
        <time>2017-03-29T11:11:15Z</time>
      </trkpt>
      <trkpt lat="47.2953" lon="-2.51245">
        <ele>2.54</ele>
        <time>2017-03-29T11:11:23Z</time>
      </trkpt>
      <trkpt lat="47.29526" lon="-2.5126">
        <ele>1.58</ele>
        <time>2017-03-29T11:11:32Z</time>
      </trkpt>
      <trkpt lat="47.29523" lon="-2.51275">
        <ele>2.54</ele>
        <time>2017-03-29T11:11:43Z</time>
      </trkpt>
      <trkpt lat="47.29515" lon="-2.51284">
        <ele>3.02</ele>
        <time>2017-03-29T11:12:09Z</time>
      </trkpt>
      <trkpt lat="47.29505" lon="-2.51291">
        <ele>3.02</ele>
        <time>2017-03-29T11:12:17Z</time>
      </trkpt>
      <trkpt lat="47.29498" lon="-2.51298">
        <ele>2.54</ele>
        <time>2017-03-29T11:12:22Z</time>
      </trkpt>
      <trkpt lat="47.29487" lon="-2.51303">
        <ele>2.54</ele>
        <time>2017-03-29T11:12:29Z</time>
      </trkpt>
      <trkpt lat="47.29478" lon="-2.51307">
        <ele>2.54</ele>
        <time>2017-03-29T11:12:35Z</time>
      </trkpt>
      <trkpt lat="47.29469" lon="-2.51311">
        <ele>2.54</ele>
        <time>2017-03-29T11:12:41Z</time>
      </trkpt>
      <trkpt lat="47.29461" lon="-2.51315">
        <ele>2.06</ele>
        <time>2017-03-29T11:12:46Z</time>
      </trkpt>
      <trkpt lat="47.29452" lon="-2.5132">
        <ele>2.54</ele>
        <time>2017-03-29T11:12:52Z</time>
      </trkpt>
      <trkpt lat="47.29451" lon="-2.5132">
        <ele>2.54</ele>
        <time>2017-03-29T11:12:54Z</time>
      </trkpt>
      <trkpt lat="47.29531" lon="-2.5129">
        <ele>2.54</ele>
        <time>2017-03-29T11:19:41Z</time>
      </trkpt>
      <trkpt lat="47.29529" lon="-2.51283">
        <ele>3.02</ele>
        <time>2017-03-29T11:19:50Z</time>
      </trkpt>
      <trkpt lat="47.29538" lon="-2.51296">
        <ele>3.02</ele>
        <time>2017-03-29T11:19:58Z</time>
      </trkpt>
      <trkpt lat="47.29544" lon="-2.51307">
        <ele>2.06</ele>
        <time>2017-03-29T11:20:10Z</time>
      </trkpt>
      <trkpt lat="47.29555" lon="-2.51314">
        <ele>3.02</ele>
        <time>2017-03-29T11:20:53Z</time>
      </trkpt>
      <trkpt lat="47.29563" lon="-2.51321">
        <ele>3.02</ele>
        <time>2017-03-29T11:21:02Z</time>
      </trkpt>
      <trkpt lat="47.29573" lon="-2.51326">
        <ele>2.06</ele>
        <time>2017-03-29T11:21:10Z</time>
      </trkpt>
      <trkpt lat="47.29583" lon="-2.5133">
        <ele>0.14</ele>
        <time>2017-03-29T11:21:18Z</time>
      </trkpt>
      <trkpt lat="47.29591" lon="-2.51343">
        <ele>3.02</ele>
        <time>2017-03-29T11:21:26Z</time>
      </trkpt>
      <trkpt lat="47.296" lon="-2.51352">
        <ele>3.98</ele>
        <time>2017-03-29T11:21:34Z</time>
      </trkpt>
      <trkpt lat="47.29611" lon="-2.5136">
        <ele>2.54</ele>
        <time>2017-03-29T11:21:41Z</time>
      </trkpt>
      <trkpt lat="47.29619" lon="-2.51366">
        <ele>2.06</ele>
        <time>2017-03-29T11:21:48Z</time>
      </trkpt>
      <trkpt lat="47.29629" lon="-2.51373">
        <ele>1.58</ele>
        <time>2017-03-29T11:21:55Z</time>
      </trkpt>
      <trkpt lat="47.29635" lon="-2.51383">
        <ele>0.62</ele>
        <time>2017-03-29T11:22:03Z</time>
      </trkpt>
      <trkpt lat="47.29646" lon="-2.51393">
        <ele>2.06</ele>
        <time>2017-03-29T11:22:13Z</time>
      </trkpt>
      <trkpt lat="47.29657" lon="-2.51402">
        <ele>4.46</ele>
        <time>2017-03-29T11:22:22Z</time>
      </trkpt>
      <trkpt lat="47.29666" lon="-2.51409">
        <ele>4.46</ele>
        <time>2017-03-29T11:22:31Z</time>
      </trkpt>
      <trkpt lat="47.29679" lon="-2.51421">
        <ele>3.02</ele>
        <time>2017-03-29T11:22:40Z</time>
      </trkpt>
      <trkpt lat="47.2969" lon="-2.51426">
        <ele>2.54</ele>
        <time>2017-03-29T11:22:48Z</time>
      </trkpt>
      <trkpt lat="47.29702" lon="-2.51433">
        <ele>4.94</ele>
        <time>2017-03-29T11:22:55Z</time>
      </trkpt>
      <trkpt lat="47.29713" lon="-2.51435">
        <ele>5.42</ele>
        <time>2017-03-29T11:23:02Z</time>
      </trkpt>
      <trkpt lat="47.29722" lon="-2.5144">
        <ele>-0.34</ele>
        <time>2017-03-29T11:23:08Z</time>
      </trkpt>
      <trkpt lat="47.29731" lon="-2.51444">
        <ele>1.1</ele>
        <time>2017-03-29T11:23:16Z</time>
      </trkpt>
      <trkpt lat="47.29741" lon="-2.51454">
        <ele>3.98</ele>
        <time>2017-03-29T11:23:25Z</time>
      </trkpt>
      <trkpt lat="47.29752" lon="-2.51462">
        <ele>2.54</ele>
        <time>2017-03-29T11:23:33Z</time>
      </trkpt>
      <trkpt lat="47.29765" lon="-2.51469">
        <ele>4.46</ele>
        <time>2017-03-29T11:23:40Z</time>
      </trkpt>
      <trkpt lat="47.29776" lon="-2.5147">
        <ele>0.14</ele>
        <time>2017-03-29T11:23:47Z</time>
      </trkpt>
      <trkpt lat="47.29786" lon="-2.51474">
        <ele>1.58</ele>
        <time>2017-03-29T11:23:54Z</time>
      </trkpt>
      <trkpt lat="47.29796" lon="-2.51477">
        <ele>3.02</ele>
        <time>2017-03-29T11:24:02Z</time>
      </trkpt>
      <trkpt lat="47.29806" lon="-2.51475">
        <ele>3.5</ele>
        <time>2017-03-29T11:24:09Z</time>
      </trkpt>
      <trkpt lat="47.29815" lon="-2.51479">
        <ele>6.39</ele>
        <time>2017-03-29T11:24:15Z</time>
      </trkpt>
      <trkpt lat="47.29825" lon="-2.51475">
        <ele>3.02</ele>
        <time>2017-03-29T11:24:24Z</time>
      </trkpt>
      <trkpt lat="47.29834" lon="-2.51481">
        <ele>5.42</ele>
        <time>2017-03-29T11:24:31Z</time>
      </trkpt>
      <trkpt lat="47.29841" lon="-2.51494">
        <ele>2.54</ele>
        <time>2017-03-29T11:24:38Z</time>
      </trkpt>
      <trkpt lat="47.29846" lon="-2.51507">
        <ele>0.14</ele>
        <time>2017-03-29T11:24:45Z</time>
      </trkpt>
      <trkpt lat="47.29854" lon="-2.51515">
        <ele>5.91</ele>
        <time>2017-03-29T11:24:53Z</time>
      </trkpt>
      <trkpt lat="47.29863" lon="-2.51524">
        <ele>2.06</ele>
        <time>2017-03-29T11:25:01Z</time>
      </trkpt>
      <trkpt lat="47.29871" lon="-2.51537">
        <ele>6.39</ele>
        <time>2017-03-29T11:25:09Z</time>
      </trkpt>
      <trkpt lat="47.29878" lon="-2.51548">
        <ele>0.62</ele>
        <time>2017-03-29T11:25:16Z</time>
      </trkpt>
      <trkpt lat="47.29883" lon="-2.5156">
        <ele>5.91</ele>
        <time>2017-03-29T11:25:24Z</time>
      </trkpt>
      <trkpt lat="47.29891" lon="-2.51571">
        <ele>0.14</ele>
        <time>2017-03-29T11:25:31Z</time>
      </trkpt>
      <trkpt lat="47.29897" lon="-2.51582">
        <ele>5.91</ele>
        <time>2017-03-29T11:25:38Z</time>
      </trkpt>
      <trkpt lat="47.29906" lon="-2.51592">
        <ele>0.14</ele>
        <time>2017-03-29T11:25:45Z</time>
      </trkpt>
      <trkpt lat="47.29913" lon="-2.51604">
        <ele>0.62</ele>
        <time>2017-03-29T11:25:52Z</time>
      </trkpt>
      <trkpt lat="47.29918" lon="-2.51617">
        <ele>4.94</ele>
        <time>2017-03-29T11:26:00Z</time>
      </trkpt>
      <trkpt lat="47.29925" lon="-2.5163">
        <ele>1.1</ele>
        <time>2017-03-29T11:26:07Z</time>
      </trkpt>
      <trkpt lat="47.29932" lon="-2.51641">
        <ele>3.5</ele>
        <time>2017-03-29T11:26:14Z</time>
      </trkpt>
      <trkpt lat="47.29939" lon="-2.51653">
        <ele>2.54</ele>
        <time>2017-03-29T11:26:21Z</time>
      </trkpt>
      <trkpt lat="47.29945" lon="-2.51665">
        <ele>3.5</ele>
        <time>2017-03-29T11:26:33Z</time>
      </trkpt>
      <trkpt lat="47.2995" lon="-2.51677">
        <ele>7.35</ele>
        <time>2017-03-29T11:26:49Z</time>
      </trkpt>
      <trkpt lat="47.29956" lon="-2.5169">
        <ele>0.62</ele>
        <time>2017-03-29T11:26:57Z</time>
      </trkpt>
      <trkpt lat="47.29964" lon="-2.51702">
        <ele>6.39</ele>
        <time>2017-03-29T11:27:05Z</time>
      </trkpt>
      <trkpt lat="47.29971" lon="-2.51715">
        <ele>1.58</ele>
        <time>2017-03-29T11:27:13Z</time>
      </trkpt>
      <trkpt lat="47.29979" lon="-2.51727">
        <ele>1.1</ele>
        <time>2017-03-29T11:27:21Z</time>
      </trkpt>
      <trkpt lat="47.29986" lon="-2.51739">
        <ele>1.58</ele>
        <time>2017-03-29T11:27:29Z</time>
      </trkpt>
      <trkpt lat="47.29992" lon="-2.51752">
        <ele>3.02</ele>
        <time>2017-03-29T11:27:37Z</time>
      </trkpt>
      <trkpt lat="47.29999" lon="-2.51764">
        <ele>6.39</ele>
        <time>2017-03-29T11:27:45Z</time>
      </trkpt>
      <trkpt lat="47.30005" lon="-2.51776">
        <ele>0.14</ele>
        <time>2017-03-29T11:27:53Z</time>
      </trkpt>
      <trkpt lat="47.30012" lon="-2.51788">
        <ele>3.02</ele>
        <time>2017-03-29T11:28:01Z</time>
      </trkpt>
      <trkpt lat="47.30018" lon="-2.51797">
        <ele>3.5</ele>
        <time>2017-03-29T11:28:34Z</time>
      </trkpt>
      <trkpt lat="47.30023" lon="-2.51811">
        <ele>3.98</ele>
        <time>2017-03-29T11:28:44Z</time>
      </trkpt>
      <trkpt lat="47.30018" lon="-2.51806">
        <ele>4.46</ele>
        <time>2017-03-29T11:29:04Z</time>
      </trkpt>
      <trkpt lat="47.30011" lon="-2.51795">
        <ele>0.62</ele>
        <time>2017-03-29T11:29:12Z</time>
      </trkpt>
      <trkpt lat="47.30002" lon="-2.51804">
        <ele>1.1</ele>
        <time>2017-03-29T11:29:19Z</time>
      </trkpt>
      <trkpt lat="47.29994" lon="-2.51815">
        <ele>3.5</ele>
        <time>2017-03-29T11:29:26Z</time>
      </trkpt>
      <trkpt lat="47.29986" lon="-2.51824">
        <ele>5.42</ele>
        <time>2017-03-29T11:29:33Z</time>
      </trkpt>
      <trkpt lat="47.29987" lon="-2.51839">
        <ele>0.62</ele>
        <time>2017-03-29T11:29:40Z</time>
      </trkpt>
      <trkpt lat="47.2999" lon="-2.51854">
        <ele>1.58</ele>
        <time>2017-03-29T11:29:47Z</time>
      </trkpt>
      <trkpt lat="47.29989" lon="-2.5187">
        <ele>3.5</ele>
        <time>2017-03-29T11:29:54Z</time>
      </trkpt>
      <trkpt lat="47.29991" lon="-2.51882">
        <ele>0.62</ele>
        <time>2017-03-29T11:30:01Z</time>
      </trkpt>
      <trkpt lat="47.29999" lon="-2.51895">
        <ele>0.14</ele>
        <time>2017-03-29T11:30:08Z</time>
      </trkpt>
      <trkpt lat="47.30005" lon="-2.51905">
        <ele>3.98</ele>
        <time>2017-03-29T11:30:15Z</time>
      </trkpt>
      <trkpt lat="47.30014" lon="-2.51917">
        <ele>-0.34</ele>
        <time>2017-03-29T11:30:23Z</time>
      </trkpt>
      <trkpt lat="47.3002" lon="-2.51929">
        <ele>2.54</ele>
        <time>2017-03-29T11:30:30Z</time>
      </trkpt>
      <trkpt lat="47.30027" lon="-2.51941">
        <ele>2.54</ele>
        <time>2017-03-29T11:30:38Z</time>
      </trkpt>
      <trkpt lat="47.30031" lon="-2.51957">
        <ele>2.06</ele>
        <time>2017-03-29T11:30:47Z</time>
      </trkpt>
      <trkpt lat="47.30031" lon="-2.51973">
        <ele>2.54</ele>
        <time>2017-03-29T11:30:57Z</time>
      </trkpt>
      <trkpt lat="47.30031" lon="-2.51993">
        <ele>6.39</ele>
        <time>2017-03-29T11:31:06Z</time>
      </trkpt>
      <trkpt lat="47.30033" lon="-2.52011">
        <ele>-0.82</ele>
        <time>2017-03-29T11:31:14Z</time>
      </trkpt>
      <trkpt lat="47.30034" lon="-2.52028">
        <ele>2.54</ele>
        <time>2017-03-29T11:31:23Z</time>
      </trkpt>
      <trkpt lat="47.30039" lon="-2.52048">
        <ele>3.5</ele>
        <time>2017-03-29T11:31:31Z</time>
      </trkpt>
      <trkpt lat="47.3004" lon="-2.52064">
        <ele>4.94</ele>
        <time>2017-03-29T11:31:38Z</time>
      </trkpt>
      <trkpt lat="47.3004" lon="-2.5208">
        <ele>3.98</ele>
        <time>2017-03-29T11:31:46Z</time>
      </trkpt>
      <trkpt lat="47.30039" lon="-2.52097">
        <ele>2.54</ele>
        <time>2017-03-29T11:31:54Z</time>
      </trkpt>
      <trkpt lat="47.30039" lon="-2.52113">
        <ele>-1.3</ele>
        <time>2017-03-29T11:32:01Z</time>
      </trkpt>
      <trkpt lat="47.30039" lon="-2.52128">
        <ele>1.58</ele>
        <time>2017-03-29T11:32:08Z</time>
      </trkpt>
      <trkpt lat="47.30042" lon="-2.52146">
        <ele>1.1</ele>
        <time>2017-03-29T11:32:16Z</time>
      </trkpt>
      <trkpt lat="47.30045" lon="-2.52165">
        <ele>3.02</ele>
        <time>2017-03-29T11:32:24Z</time>
      </trkpt>
      <trkpt lat="47.30046" lon="-2.52182">
        <ele>0.62</ele>
        <time>2017-03-29T11:32:32Z</time>
      </trkpt>
      <trkpt lat="47.30047" lon="-2.52197">
        <ele>2.54</ele>
        <time>2017-03-29T11:32:39Z</time>
      </trkpt>
      <trkpt lat="47.30047" lon="-2.52213">
        <ele>3.5</ele>
        <time>2017-03-29T11:32:47Z</time>
      </trkpt>
      <trkpt lat="47.30051" lon="-2.52229">
        <ele>8.31</ele>
        <time>2017-03-29T11:32:55Z</time>
      </trkpt>
      <trkpt lat="47.30051" lon="-2.52245">
        <ele>5.91</ele>
        <time>2017-03-29T11:33:03Z</time>
      </trkpt>
      <trkpt lat="47.30058" lon="-2.52266">
        <ele>6.39</ele>
        <time>2017-03-29T11:33:13Z</time>
      </trkpt>
      <trkpt lat="47.30059" lon="-2.52284">
        <ele>3.98</ele>
        <time>2017-03-29T11:33:21Z</time>
      </trkpt>
      <trkpt lat="47.3006" lon="-2.52302">
        <ele>3.98</ele>
        <time>2017-03-29T11:33:29Z</time>
      </trkpt>
      <trkpt lat="47.3006" lon="-2.5232">
        <ele>0.14</ele>
        <time>2017-03-29T11:33:37Z</time>
      </trkpt>
      <trkpt lat="47.30062" lon="-2.52336">
        <ele>1.1</ele>
        <time>2017-03-29T11:33:44Z</time>
      </trkpt>
      <trkpt lat="47.30064" lon="-2.52353">
        <ele>5.91</ele>
        <time>2017-03-29T11:33:52Z</time>
      </trkpt>
      <trkpt lat="47.30066" lon="-2.52368">
        <ele>5.42</ele>
        <time>2017-03-29T11:33:59Z</time>
      </trkpt>
      <trkpt lat="47.30068" lon="-2.52385">
        <ele>4.46</ele>
        <time>2017-03-29T11:34:06Z</time>
      </trkpt>
      <trkpt lat="47.30069" lon="-2.52398">
        <ele>-0.82</ele>
        <time>2017-03-29T11:34:13Z</time>
      </trkpt>
      <trkpt lat="47.3007" lon="-2.52414">
        <ele>1.1</ele>
        <time>2017-03-29T11:34:20Z</time>
      </trkpt>
      <trkpt lat="47.30072" lon="-2.52428">
        <ele>4.94</ele>
        <time>2017-03-29T11:34:27Z</time>
      </trkpt>
      <trkpt lat="47.30075" lon="-2.52444">
        <ele>4.94</ele>
        <time>2017-03-29T11:34:34Z</time>
      </trkpt>
      <trkpt lat="47.30076" lon="-2.5246">
        <ele>3.5</ele>
        <time>2017-03-29T11:34:41Z</time>
      </trkpt>
      <trkpt lat="47.30078" lon="-2.52476">
        <ele>2.06</ele>
        <time>2017-03-29T11:34:48Z</time>
      </trkpt>
      <trkpt lat="47.30079" lon="-2.52491">
        <ele>-0.82</ele>
        <time>2017-03-29T11:34:55Z</time>
      </trkpt>
      <trkpt lat="47.30079" lon="-2.52506">
        <ele>-1.79</ele>
        <time>2017-03-29T11:35:02Z</time>
      </trkpt>
      <trkpt lat="47.30081" lon="-2.5252">
        <ele>1.1</ele>
        <time>2017-03-29T11:35:09Z</time>
      </trkpt>
      <trkpt lat="47.30083" lon="-2.52536">
        <ele>1.58</ele>
        <time>2017-03-29T11:35:16Z</time>
      </trkpt>
      <trkpt lat="47.30085" lon="-2.5255">
        <ele>3.02</ele>
        <time>2017-03-29T11:35:22Z</time>
      </trkpt>
      <trkpt lat="47.30086" lon="-2.52565">
        <ele>1.58</ele>
        <time>2017-03-29T11:35:30Z</time>
      </trkpt>
      <trkpt lat="47.30087" lon="-2.52579">
        <ele>-1.79</ele>
        <time>2017-03-29T11:35:36Z</time>
      </trkpt>
      <trkpt lat="47.30089" lon="-2.52595">
        <ele>-1.79</ele>
        <time>2017-03-29T11:35:43Z</time>
      </trkpt>
      <trkpt lat="47.30091" lon="-2.52611">
        <ele>-1.79</ele>
        <time>2017-03-29T11:35:50Z</time>
      </trkpt>
      <trkpt lat="47.30093" lon="-2.52625">
        <ele>2.06</ele>
        <time>2017-03-29T11:35:56Z</time>
      </trkpt>
      <trkpt lat="47.30093" lon="-2.52641">
        <ele>4.94</ele>
        <time>2017-03-29T11:36:03Z</time>
      </trkpt>
      <trkpt lat="47.30094" lon="-2.52656">
        <ele>4.46</ele>
        <time>2017-03-29T11:36:10Z</time>
      </trkpt>
      <trkpt lat="47.30095" lon="-2.52671">
        <ele>2.54</ele>
        <time>2017-03-29T11:36:17Z</time>
      </trkpt>
      <trkpt lat="47.30098" lon="-2.52686">
        <ele>0.62</ele>
        <time>2017-03-29T11:36:24Z</time>
      </trkpt>
      <trkpt lat="47.30098" lon="-2.52702">
        <ele>-0.34</ele>
        <time>2017-03-29T11:36:31Z</time>
      </trkpt>
      <trkpt lat="47.30097" lon="-2.52718">
        <ele>-1.3</ele>
        <time>2017-03-29T11:36:39Z</time>
      </trkpt>
      <trkpt lat="47.30094" lon="-2.52733">
        <ele>-0.34</ele>
        <time>2017-03-29T11:36:46Z</time>
      </trkpt>
      <trkpt lat="47.30092" lon="-2.52747">
        <ele>2.06</ele>
        <time>2017-03-29T11:36:52Z</time>
      </trkpt>
      <trkpt lat="47.30091" lon="-2.52762">
        <ele>-0.82</ele>
        <time>2017-03-29T11:37:01Z</time>
      </trkpt>
      <trkpt lat="47.30089" lon="-2.5278">
        <ele>2.54</ele>
        <time>2017-03-29T11:37:09Z</time>
      </trkpt>
      <trkpt lat="47.30086" lon="-2.52798">
        <ele>3.5</ele>
        <time>2017-03-29T11:37:17Z</time>
      </trkpt>
      <trkpt lat="47.30084" lon="-2.52813">
        <ele>3.5</ele>
        <time>2017-03-29T11:37:24Z</time>
      </trkpt>
      <trkpt lat="47.30081" lon="-2.5283">
        <ele>1.58</ele>
        <time>2017-03-29T11:37:32Z</time>
      </trkpt>
      <trkpt lat="47.30078" lon="-2.52847">
        <ele>0.62</ele>
        <time>2017-03-29T11:37:40Z</time>
      </trkpt>
      <trkpt lat="47.30076" lon="-2.52863">
        <ele>2.54</ele>
        <time>2017-03-29T11:37:47Z</time>
      </trkpt>
      <trkpt lat="47.30074" lon="-2.5288">
        <ele>2.06</ele>
        <time>2017-03-29T11:37:55Z</time>
      </trkpt>
      <trkpt lat="47.30075" lon="-2.52895">
        <ele>4.94</ele>
        <time>2017-03-29T11:38:03Z</time>
      </trkpt>
      <trkpt lat="47.30079" lon="-2.52906">
        <ele>3.5</ele>
        <time>2017-03-29T11:38:14Z</time>
      </trkpt>
      <trkpt lat="47.30076" lon="-2.5292">
        <ele>6.87</ele>
        <time>2017-03-29T11:38:26Z</time>
      </trkpt>
      <trkpt lat="47.30072" lon="-2.52935">
        <ele>5.42</ele>
        <time>2017-03-29T11:38:33Z</time>
      </trkpt>
      <trkpt lat="47.30067" lon="-2.52949">
        <ele>5.91</ele>
        <time>2017-03-29T11:38:40Z</time>
      </trkpt>
      <trkpt lat="47.30061" lon="-2.52963">
        <ele>4.46</ele>
        <time>2017-03-29T11:38:47Z</time>
      </trkpt>
      <trkpt lat="47.30057" lon="-2.52977">
        <ele>7.83</ele>
        <time>2017-03-29T11:38:54Z</time>
      </trkpt>
      <trkpt lat="47.30052" lon="-2.52991">
        <ele>8.31</ele>
        <time>2017-03-29T11:39:00Z</time>
      </trkpt>
      <trkpt lat="47.30048" lon="-2.53004">
        <ele>7.83</ele>
        <time>2017-03-29T11:39:06Z</time>
      </trkpt>
      <trkpt lat="47.30044" lon="-2.53018">
        <ele>5.42</ele>
        <time>2017-03-29T11:39:13Z</time>
      </trkpt>
      <trkpt lat="47.30043" lon="-2.53033">
        <ele>3.98</ele>
        <time>2017-03-29T11:39:20Z</time>
      </trkpt>
      <trkpt lat="47.30042" lon="-2.53046">
        <ele>3.5</ele>
        <time>2017-03-29T11:39:26Z</time>
      </trkpt>
      <trkpt lat="47.30041" lon="-2.5306">
        <ele>3.02</ele>
        <time>2017-03-29T11:39:32Z</time>
      </trkpt>
      <trkpt lat="47.30041" lon="-2.53073">
        <ele>2.54</ele>
        <time>2017-03-29T11:39:38Z</time>
      </trkpt>
      <trkpt lat="47.30041" lon="-2.53088">
        <ele>4.46</ele>
        <time>2017-03-29T11:39:44Z</time>
      </trkpt>
      <trkpt lat="47.30042" lon="-2.53101">
        <ele>3.5</ele>
        <time>2017-03-29T11:39:50Z</time>
      </trkpt>
      <trkpt lat="47.30043" lon="-2.53117">
        <ele>3.98</ele>
        <time>2017-03-29T11:39:57Z</time>
      </trkpt>
      <trkpt lat="47.30044" lon="-2.53131">
        <ele>6.39</ele>
        <time>2017-03-29T11:40:03Z</time>
      </trkpt>
      <trkpt lat="47.30045" lon="-2.53145">
        <ele>6.87</ele>
        <time>2017-03-29T11:40:10Z</time>
      </trkpt>
      <trkpt lat="47.30048" lon="-2.53157">
        <ele>3.5</ele>
        <time>2017-03-29T11:40:16Z</time>
      </trkpt>
      <trkpt lat="47.30048" lon="-2.53171">
        <ele>0.14</ele>
        <time>2017-03-29T11:40:22Z</time>
      </trkpt>
      <trkpt lat="47.3005" lon="-2.53184">
        <ele>1.1</ele>
        <time>2017-03-29T11:40:28Z</time>
      </trkpt>
      <trkpt lat="47.30049" lon="-2.53198">
        <ele>3.98</ele>
        <time>2017-03-29T11:40:34Z</time>
      </trkpt>
      <trkpt lat="47.30049" lon="-2.53211">
        <ele>3.5</ele>
        <time>2017-03-29T11:40:40Z</time>
      </trkpt>
      <trkpt lat="47.30049" lon="-2.53224">
        <ele>5.42</ele>
        <time>2017-03-29T11:40:46Z</time>
      </trkpt>
      <trkpt lat="47.30049" lon="-2.53239">
        <ele>4.94</ele>
        <time>2017-03-29T11:40:53Z</time>
      </trkpt>
      <trkpt lat="47.30052" lon="-2.53252">
        <ele>6.39</ele>
        <time>2017-03-29T11:40:59Z</time>
      </trkpt>
      <trkpt lat="47.30056" lon="-2.53265">
        <ele>4.94</ele>
        <time>2017-03-29T11:41:06Z</time>
      </trkpt>
      <trkpt lat="47.30059" lon="-2.53278">
        <ele>4.94</ele>
        <time>2017-03-29T11:41:12Z</time>
      </trkpt>
      <trkpt lat="47.30064" lon="-2.53292">
        <ele>5.42</ele>
        <time>2017-03-29T11:41:18Z</time>
      </trkpt>
      <trkpt lat="47.30068" lon="-2.53305">
        <ele>4.94</ele>
        <time>2017-03-29T11:41:24Z</time>
      </trkpt>
      <trkpt lat="47.30072" lon="-2.53318">
        <ele>4.46</ele>
        <time>2017-03-29T11:41:30Z</time>
      </trkpt>
      <trkpt lat="47.30076" lon="-2.53331">
        <ele>3.98</ele>
        <time>2017-03-29T11:41:36Z</time>
      </trkpt>
      <trkpt lat="47.30078" lon="-2.53345">
        <ele>3.98</ele>
        <time>2017-03-29T11:41:42Z</time>
      </trkpt>
      <trkpt lat="47.30078" lon="-2.53357">
        <ele>3.02</ele>
        <time>2017-03-29T11:41:48Z</time>
      </trkpt>
      <trkpt lat="47.3008" lon="-2.53369">
        <ele>1.1</ele>
        <time>2017-03-29T11:41:54Z</time>
      </trkpt>
      <trkpt lat="47.30081" lon="-2.53382">
        <ele>0.14</ele>
        <time>2017-03-29T11:42:01Z</time>
      </trkpt>
      <trkpt lat="47.30083" lon="-2.53397">
        <ele>-0.34</ele>
        <time>2017-03-29T11:42:08Z</time>
      </trkpt>
      <trkpt lat="47.30081" lon="-2.53411">
        <ele>3.02</ele>
        <time>2017-03-29T11:42:14Z</time>
      </trkpt>
      <trkpt lat="47.30076" lon="-2.53423">
        <ele>3.98</ele>
        <time>2017-03-29T11:42:20Z</time>
      </trkpt>
      <trkpt lat="47.30071" lon="-2.53433">
        <ele>2.54</ele>
        <time>2017-03-29T11:42:26Z</time>
      </trkpt>
      <trkpt lat="47.30064" lon="-2.53442">
        <ele>1.1</ele>
        <time>2017-03-29T11:42:32Z</time>
      </trkpt>
      <trkpt lat="47.30055" lon="-2.53449">
        <ele>1.58</ele>
        <time>2017-03-29T11:42:39Z</time>
      </trkpt>
      <trkpt lat="47.30047" lon="-2.53458">
        <ele>1.1</ele>
        <time>2017-03-29T11:42:46Z</time>
      </trkpt>
      <trkpt lat="47.30038" lon="-2.53467">
        <ele>0.62</ele>
        <time>2017-03-29T11:42:53Z</time>
      </trkpt>
      <trkpt lat="47.30029" lon="-2.53474">
        <ele>2.06</ele>
        <time>2017-03-29T11:42:59Z</time>
      </trkpt>
      <trkpt lat="47.3002" lon="-2.53483">
        <ele>2.54</ele>
        <time>2017-03-29T11:43:06Z</time>
      </trkpt>
      <trkpt lat="47.30012" lon="-2.53491">
        <ele>5.42</ele>
        <time>2017-03-29T11:43:12Z</time>
      </trkpt>
      <trkpt lat="47.30004" lon="-2.53499">
        <ele>4.94</ele>
        <time>2017-03-29T11:43:18Z</time>
      </trkpt>
      <trkpt lat="47.29997" lon="-2.53506">
        <ele>3.98</ele>
        <time>2017-03-29T11:43:24Z</time>
      </trkpt>
      <trkpt lat="47.29988" lon="-2.53513">
        <ele>7.35</ele>
        <time>2017-03-29T11:43:31Z</time>
      </trkpt>
      <trkpt lat="47.2998" lon="-2.53522">
        <ele>6.87</ele>
        <time>2017-03-29T11:43:38Z</time>
      </trkpt>
      <trkpt lat="47.29971" lon="-2.5353">
        <ele>5.91</ele>
        <time>2017-03-29T11:43:45Z</time>
      </trkpt>
      <trkpt lat="47.29964" lon="-2.53539">
        <ele>5.42</ele>
        <time>2017-03-29T11:43:51Z</time>
      </trkpt>
      <trkpt lat="47.29957" lon="-2.53548">
        <ele>4.94</ele>
        <time>2017-03-29T11:43:58Z</time>
      </trkpt>
      <trkpt lat="47.2995" lon="-2.53558">
        <ele>3.02</ele>
        <time>2017-03-29T11:44:04Z</time>
      </trkpt>
      <trkpt lat="47.29944" lon="-2.53567">
        <ele>1.1</ele>
        <time>2017-03-29T11:44:10Z</time>
      </trkpt>
      <trkpt lat="47.29936" lon="-2.53578">
        <ele>2.06</ele>
        <time>2017-03-29T11:44:17Z</time>
      </trkpt>
      <trkpt lat="47.29931" lon="-2.53589">
        <ele>2.06</ele>
        <time>2017-03-29T11:44:24Z</time>
      </trkpt>
      <trkpt lat="47.29926" lon="-2.53601">
        <ele>0.14</ele>
        <time>2017-03-29T11:44:31Z</time>
      </trkpt>
      <trkpt lat="47.29922" lon="-2.53614">
        <ele>2.54</ele>
        <time>2017-03-29T11:44:37Z</time>
      </trkpt>
      <trkpt lat="47.2992" lon="-2.53629">
        <ele>3.02</ele>
        <time>2017-03-29T11:44:44Z</time>
      </trkpt>
      <trkpt lat="47.29917" lon="-2.53642">
        <ele>3.98</ele>
        <time>2017-03-29T11:44:50Z</time>
      </trkpt>
      <trkpt lat="47.29915" lon="-2.53655">
        <ele>3.98</ele>
        <time>2017-03-29T11:44:56Z</time>
      </trkpt>
      <trkpt lat="47.29914" lon="-2.5367">
        <ele>4.94</ele>
        <time>2017-03-29T11:45:03Z</time>
      </trkpt>
      <trkpt lat="47.29914" lon="-2.53684">
        <ele>3.98</ele>
        <time>2017-03-29T11:45:10Z</time>
      </trkpt>
      <trkpt lat="47.29914" lon="-2.53699">
        <ele>3.02</ele>
        <time>2017-03-29T11:45:17Z</time>
      </trkpt>
      <trkpt lat="47.29916" lon="-2.53715">
        <ele>2.54</ele>
        <time>2017-03-29T11:45:24Z</time>
      </trkpt>
      <trkpt lat="47.29919" lon="-2.53729">
        <ele>3.5</ele>
        <time>2017-03-29T11:45:31Z</time>
      </trkpt>
      <trkpt lat="47.2992" lon="-2.53744">
        <ele>3.5</ele>
        <time>2017-03-29T11:45:38Z</time>
      </trkpt>
      <trkpt lat="47.29923" lon="-2.53759">
        <ele>3.98</ele>
        <time>2017-03-29T11:45:45Z</time>
      </trkpt>
      <trkpt lat="47.29925" lon="-2.53774">
        <ele>3.98</ele>
        <time>2017-03-29T11:45:52Z</time>
      </trkpt>
      <trkpt lat="47.29928" lon="-2.5379">
        <ele>2.06</ele>
        <time>2017-03-29T11:45:59Z</time>
      </trkpt>
      <trkpt lat="47.29929" lon="-2.53804">
        <ele>6.87</ele>
        <time>2017-03-29T11:46:06Z</time>
      </trkpt>
      <trkpt lat="47.2993" lon="-2.53818">
        <ele>5.91</ele>
        <time>2017-03-29T11:46:12Z</time>
      </trkpt>
      <trkpt lat="47.29935" lon="-2.5383">
        <ele>5.42</ele>
        <time>2017-03-29T11:46:18Z</time>
      </trkpt>
      <trkpt lat="47.29941" lon="-2.53841">
        <ele>6.87</ele>
        <time>2017-03-29T11:46:24Z</time>
      </trkpt>
      <trkpt lat="47.29946" lon="-2.53853">
        <ele>6.87</ele>
        <time>2017-03-29T11:46:30Z</time>
      </trkpt>
      <trkpt lat="47.29949" lon="-2.53866">
        <ele>4.94</ele>
        <time>2017-03-29T11:46:36Z</time>
      </trkpt>
      <trkpt lat="47.29949" lon="-2.53879">
        <ele>3.02</ele>
        <time>2017-03-29T11:46:42Z</time>
      </trkpt>
      <trkpt lat="47.29951" lon="-2.53893">
        <ele>0.62</ele>
        <time>2017-03-29T11:46:48Z</time>
      </trkpt>
      <trkpt lat="47.29952" lon="-2.53906">
        <ele>0.62</ele>
        <time>2017-03-29T11:46:54Z</time>
      </trkpt>
      <trkpt lat="47.29953" lon="-2.5392">
        <ele>3.5</ele>
        <time>2017-03-29T11:47:00Z</time>
      </trkpt>
      <trkpt lat="47.29955" lon="-2.53933">
        <ele>0.62</ele>
        <time>2017-03-29T11:47:06Z</time>
      </trkpt>
      <trkpt lat="47.29958" lon="-2.53946">
        <ele>0.62</ele>
        <time>2017-03-29T11:47:13Z</time>
      </trkpt>
      <trkpt lat="47.29959" lon="-2.5396">
        <ele>1.58</ele>
        <time>2017-03-29T11:47:20Z</time>
      </trkpt>
      <trkpt lat="47.29959" lon="-2.53975">
        <ele>2.06</ele>
        <time>2017-03-29T11:47:27Z</time>
      </trkpt>
      <trkpt lat="47.29955" lon="-2.53989">
        <ele>1.58</ele>
        <time>2017-03-29T11:47:34Z</time>
      </trkpt>
      <trkpt lat="47.2995" lon="-2.54001">
        <ele>0.14</ele>
        <time>2017-03-29T11:47:40Z</time>
      </trkpt>
      <trkpt lat="47.29945" lon="-2.54014">
        <ele>1.1</ele>
        <time>2017-03-29T11:47:47Z</time>
      </trkpt>
      <trkpt lat="47.29938" lon="-2.54022">
        <ele>3.98</ele>
        <time>2017-03-29T11:47:53Z</time>
      </trkpt>
      <trkpt lat="47.2993" lon="-2.5403">
        <ele>3.98</ele>
        <time>2017-03-29T11:48:00Z</time>
      </trkpt>
      <trkpt lat="47.29923" lon="-2.5404">
        <ele>5.42</ele>
        <time>2017-03-29T11:48:07Z</time>
      </trkpt>
      <trkpt lat="47.29916" lon="-2.54052">
        <ele>5.91</ele>
        <time>2017-03-29T11:48:14Z</time>
      </trkpt>
      <trkpt lat="47.29911" lon="-2.54065">
        <ele>4.46</ele>
        <time>2017-03-29T11:48:21Z</time>
      </trkpt>
      <trkpt lat="47.29906" lon="-2.54077">
        <ele>3.5</ele>
        <time>2017-03-29T11:48:27Z</time>
      </trkpt>
      <trkpt lat="47.29901" lon="-2.5409">
        <ele>2.06</ele>
        <time>2017-03-29T11:48:34Z</time>
      </trkpt>
      <trkpt lat="47.29897" lon="-2.54104">
        <ele>4.46</ele>
        <time>2017-03-29T11:48:42Z</time>
      </trkpt>
      <trkpt lat="47.29893" lon="-2.5412">
        <ele>5.91</ele>
        <time>2017-03-29T11:48:50Z</time>
      </trkpt>
      <trkpt lat="47.29889" lon="-2.54136">
        <ele>4.94</ele>
        <time>2017-03-29T11:48:57Z</time>
      </trkpt>
      <trkpt lat="47.29885" lon="-2.5415">
        <ele>1.58</ele>
        <time>2017-03-29T11:49:04Z</time>
      </trkpt>
      <trkpt lat="47.29882" lon="-2.54163">
        <ele>1.1</ele>
        <time>2017-03-29T11:49:10Z</time>
      </trkpt>
      <trkpt lat="47.29881" lon="-2.54176">
        <ele>3.02</ele>
        <time>2017-03-29T11:49:16Z</time>
      </trkpt>
      <trkpt lat="47.2988" lon="-2.54189">
        <ele>4.46</ele>
        <time>2017-03-29T11:49:22Z</time>
      </trkpt>
      <trkpt lat="47.29879" lon="-2.54204">
        <ele>4.46</ele>
        <time>2017-03-29T11:49:29Z</time>
      </trkpt>
      <trkpt lat="47.29878" lon="-2.54218">
        <ele>4.94</ele>
        <time>2017-03-29T11:49:36Z</time>
      </trkpt>
      <trkpt lat="47.29877" lon="-2.54233">
        <ele>0.62</ele>
        <time>2017-03-29T11:49:43Z</time>
      </trkpt>
      <trkpt lat="47.29876" lon="-2.54247">
        <ele>0.14</ele>
        <time>2017-03-29T11:49:49Z</time>
      </trkpt>
      <trkpt lat="47.29875" lon="-2.54261">
        <ele>3.02</ele>
        <time>2017-03-29T11:49:55Z</time>
      </trkpt>
      <trkpt lat="47.29874" lon="-2.54275">
        <ele>3.02</ele>
        <time>2017-03-29T11:50:01Z</time>
      </trkpt>
      <trkpt lat="47.29873" lon="-2.54288">
        <ele>4.46</ele>
        <time>2017-03-29T11:50:07Z</time>
      </trkpt>
      <trkpt lat="47.29875" lon="-2.54301">
        <ele>4.94</ele>
        <time>2017-03-29T11:50:13Z</time>
      </trkpt>
      <trkpt lat="47.29874" lon="-2.54314">
        <ele>3.98</ele>
        <time>2017-03-29T11:50:19Z</time>
      </trkpt>
      <trkpt lat="47.29871" lon="-2.54328">
        <ele>3.98</ele>
        <time>2017-03-29T11:50:26Z</time>
      </trkpt>
      <trkpt lat="47.29864" lon="-2.54338">
        <ele>0.62</ele>
        <time>2017-03-29T11:50:33Z</time>
      </trkpt>
      <trkpt lat="47.29854" lon="-2.54346">
        <ele>3.98</ele>
        <time>2017-03-29T11:50:40Z</time>
      </trkpt>
      <trkpt lat="47.29846" lon="-2.54354">
        <ele>4.94</ele>
        <time>2017-03-29T11:50:47Z</time>
      </trkpt>
      <trkpt lat="47.29837" lon="-2.54362">
        <ele>4.46</ele>
        <time>2017-03-29T11:50:55Z</time>
      </trkpt>
      <trkpt lat="47.29831" lon="-2.54374">
        <ele>1.58</ele>
        <time>2017-03-29T11:51:02Z</time>
      </trkpt>
      <trkpt lat="47.29825" lon="-2.54387">
        <ele>0.14</ele>
        <time>2017-03-29T11:51:09Z</time>
      </trkpt>
      <trkpt lat="47.29819" lon="-2.544">
        <ele>1.58</ele>
        <time>2017-03-29T11:51:16Z</time>
      </trkpt>
      <trkpt lat="47.29813" lon="-2.54412">
        <ele>2.54</ele>
        <time>2017-03-29T11:51:23Z</time>
      </trkpt>
      <trkpt lat="47.29808" lon="-2.54425">
        <ele>5.91</ele>
        <time>2017-03-29T11:51:30Z</time>
      </trkpt>
      <trkpt lat="47.29802" lon="-2.54437">
        <ele>5.91</ele>
        <time>2017-03-29T11:51:37Z</time>
      </trkpt>
      <trkpt lat="47.29795" lon="-2.54448">
        <ele>4.94</ele>
        <time>2017-03-29T11:51:44Z</time>
      </trkpt>
      <trkpt lat="47.29787" lon="-2.5446">
        <ele>5.91</ele>
        <time>2017-03-29T11:51:52Z</time>
      </trkpt>
      <trkpt lat="47.29777" lon="-2.5447">
        <ele>4.94</ele>
        <time>2017-03-29T11:51:59Z</time>
      </trkpt>
      <trkpt lat="47.29769" lon="-2.54478">
        <ele>3.98</ele>
        <time>2017-03-29T11:52:06Z</time>
      </trkpt>
      <trkpt lat="47.2976" lon="-2.54485">
        <ele>4.94</ele>
        <time>2017-03-29T11:52:13Z</time>
      </trkpt>
      <trkpt lat="47.29752" lon="-2.54492">
        <ele>3.98</ele>
        <time>2017-03-29T11:52:20Z</time>
      </trkpt>
      <trkpt lat="47.29744" lon="-2.545">
        <ele>1.1</ele>
        <time>2017-03-29T11:52:27Z</time>
      </trkpt>
      <trkpt lat="47.29735" lon="-2.54509">
        <ele>2.54</ele>
        <time>2017-03-29T11:52:34Z</time>
      </trkpt>
      <trkpt lat="47.29727" lon="-2.54516">
        <ele>1.1</ele>
        <time>2017-03-29T11:52:41Z</time>
      </trkpt>
      <trkpt lat="47.29719" lon="-2.54525">
        <ele>1.58</ele>
        <time>2017-03-29T11:52:48Z</time>
      </trkpt>
      <trkpt lat="47.2971" lon="-2.54533">
        <ele>0.62</ele>
        <time>2017-03-29T11:52:55Z</time>
      </trkpt>
      <trkpt lat="47.29701" lon="-2.54541">
        <ele>0.62</ele>
        <time>2017-03-29T11:53:02Z</time>
      </trkpt>
      <trkpt lat="47.29692" lon="-2.5455">
        <ele>-0.34</ele>
        <time>2017-03-29T11:53:09Z</time>
      </trkpt>
      <trkpt lat="47.29683" lon="-2.54556">
        <ele>3.98</ele>
        <time>2017-03-29T11:53:16Z</time>
      </trkpt>
      <trkpt lat="47.29675" lon="-2.54563">
        <ele>2.06</ele>
        <time>2017-03-29T11:53:23Z</time>
      </trkpt>
      <trkpt lat="47.29667" lon="-2.54569">
        <ele>3.02</ele>
        <time>2017-03-29T11:53:38Z</time>
      </trkpt>
      <trkpt lat="47.29659" lon="-2.54577">
        <ele>3.02</ele>
        <time>2017-03-29T11:53:45Z</time>
      </trkpt>
      <trkpt lat="47.29649" lon="-2.54584">
        <ele>3.5</ele>
        <time>2017-03-29T11:53:52Z</time>
      </trkpt>
      <trkpt lat="47.2964" lon="-2.54588">
        <ele>0.62</ele>
        <time>2017-03-29T11:53:58Z</time>
      </trkpt>
      <trkpt lat="47.29631" lon="-2.54594">
        <ele>2.06</ele>
        <time>2017-03-29T11:54:05Z</time>
      </trkpt>
      <trkpt lat="47.29621" lon="-2.54598">
        <ele>0.14</ele>
        <time>2017-03-29T11:54:12Z</time>
      </trkpt>
      <trkpt lat="47.29612" lon="-2.546">
        <ele>2.54</ele>
        <time>2017-03-29T11:54:18Z</time>
      </trkpt>
      <trkpt lat="47.29602" lon="-2.54601">
        <ele>1.58</ele>
        <time>2017-03-29T11:54:25Z</time>
      </trkpt>
      <trkpt lat="47.29591" lon="-2.54603">
        <ele>0.14</ele>
        <time>2017-03-29T11:54:33Z</time>
      </trkpt>
      <trkpt lat="47.2958" lon="-2.54606">
        <ele>1.1</ele>
        <time>2017-03-29T11:54:40Z</time>
      </trkpt>
      <trkpt lat="47.29571" lon="-2.5461">
        <ele>4.94</ele>
        <time>2017-03-29T11:54:46Z</time>
      </trkpt>
      <trkpt lat="47.29562" lon="-2.54612">
        <ele>3.02</ele>
        <time>2017-03-29T11:54:52Z</time>
      </trkpt>
      <trkpt lat="47.29553" lon="-2.54614">
        <ele>0.14</ele>
        <time>2017-03-29T11:54:58Z</time>
      </trkpt>
      <trkpt lat="47.29544" lon="-2.54619">
        <ele>1.58</ele>
        <time>2017-03-29T11:55:05Z</time>
      </trkpt>
      <trkpt lat="47.29534" lon="-2.54621">
        <ele>2.54</ele>
        <time>2017-03-29T11:55:12Z</time>
      </trkpt>
      <trkpt lat="47.29525" lon="-2.54625">
        <ele>3.5</ele>
        <time>2017-03-29T11:55:19Z</time>
      </trkpt>
      <trkpt lat="47.29516" lon="-2.54631">
        <ele>1.1</ele>
        <time>2017-03-29T11:55:26Z</time>
      </trkpt>
      <trkpt lat="47.29508" lon="-2.54639">
        <ele>3.98</ele>
        <time>2017-03-29T11:55:33Z</time>
      </trkpt>
      <trkpt lat="47.295" lon="-2.54649">
        <ele>3.98</ele>
        <time>2017-03-29T11:55:40Z</time>
      </trkpt>
      <trkpt lat="47.29493" lon="-2.54658">
        <ele>3.98</ele>
        <time>2017-03-29T11:55:47Z</time>
      </trkpt>
      <trkpt lat="47.29484" lon="-2.54665">
        <ele>0.62</ele>
        <time>2017-03-29T11:55:54Z</time>
      </trkpt>
      <trkpt lat="47.29476" lon="-2.54673">
        <ele>3.5</ele>
        <time>2017-03-29T11:56:01Z</time>
      </trkpt>
      <trkpt lat="47.29467" lon="-2.54679">
        <ele>3.5</ele>
        <time>2017-03-29T11:56:08Z</time>
      </trkpt>
      <trkpt lat="47.29458" lon="-2.54682">
        <ele>3.5</ele>
        <time>2017-03-29T11:56:14Z</time>
      </trkpt>
      <trkpt lat="47.29448" lon="-2.54683">
        <ele>2.54</ele>
        <time>2017-03-29T11:56:21Z</time>
      </trkpt>
      <trkpt lat="47.29438" lon="-2.54682">
        <ele>-0.34</ele>
        <time>2017-03-29T11:56:29Z</time>
      </trkpt>
      <trkpt lat="47.29428" lon="-2.54683">
        <ele>2.54</ele>
        <time>2017-03-29T11:56:36Z</time>
      </trkpt>
      <trkpt lat="47.29418" lon="-2.54684">
        <ele>3.5</ele>
        <time>2017-03-29T11:56:42Z</time>
      </trkpt>
      <trkpt lat="47.29409" lon="-2.54685">
        <ele>4.46</ele>
        <time>2017-03-29T11:56:48Z</time>
      </trkpt>
      <trkpt lat="47.29399" lon="-2.54685">
        <ele>4.46</ele>
        <time>2017-03-29T11:56:55Z</time>
      </trkpt>
      <trkpt lat="47.29389" lon="-2.54684">
        <ele>5.91</ele>
        <time>2017-03-29T11:57:03Z</time>
      </trkpt>
      <trkpt lat="47.29379" lon="-2.54686">
        <ele>3.5</ele>
        <time>2017-03-29T11:57:10Z</time>
      </trkpt>
      <trkpt lat="47.29369" lon="-2.54684">
        <ele>3.5</ele>
        <time>2017-03-29T11:57:18Z</time>
      </trkpt>
      <trkpt lat="47.29358" lon="-2.54685">
        <ele>6.87</ele>
        <time>2017-03-29T11:57:38Z</time>
      </trkpt>
      <trkpt lat="47.29347" lon="-2.54686">
        <ele>4.94</ele>
        <time>2017-03-29T11:57:45Z</time>
      </trkpt>
      <trkpt lat="47.29336" lon="-2.54688">
        <ele>3.5</ele>
        <time>2017-03-29T11:57:52Z</time>
      </trkpt>
      <trkpt lat="47.29327" lon="-2.54689">
        <ele>3.02</ele>
        <time>2017-03-29T11:57:58Z</time>
      </trkpt>
      <trkpt lat="47.29318" lon="-2.54689">
        <ele>1.58</ele>
        <time>2017-03-29T11:58:04Z</time>
      </trkpt>
      <trkpt lat="47.29308" lon="-2.5469">
        <ele>1.1</ele>
        <time>2017-03-29T11:58:11Z</time>
      </trkpt>
      <trkpt lat="47.29299" lon="-2.54691">
        <ele>1.1</ele>
        <time>2017-03-29T11:58:18Z</time>
      </trkpt>
      <trkpt lat="47.2929" lon="-2.54699">
        <ele>2.06</ele>
        <time>2017-03-29T11:58:25Z</time>
      </trkpt>
      <trkpt lat="47.29281" lon="-2.54709">
        <ele>2.54</ele>
        <time>2017-03-29T11:58:32Z</time>
      </trkpt>
      <trkpt lat="47.29274" lon="-2.54716">
        <ele>5.42</ele>
        <time>2017-03-29T11:58:38Z</time>
      </trkpt>
      <trkpt lat="47.29265" lon="-2.54721">
        <ele>1.58</ele>
        <time>2017-03-29T11:58:44Z</time>
      </trkpt>
      <trkpt lat="47.29255" lon="-2.5472">
        <ele>1.58</ele>
        <time>2017-03-29T11:58:51Z</time>
      </trkpt>
      <trkpt lat="47.29247" lon="-2.54715">
        <ele>1.1</ele>
        <time>2017-03-29T11:58:58Z</time>
      </trkpt>
      <trkpt lat="47.29239" lon="-2.54717">
        <ele>2.06</ele>
        <time>2017-03-29T11:59:14Z</time>
      </trkpt>
      <trkpt lat="47.29241" lon="-2.54708">
        <ele>1.58</ele>
        <time>2017-03-29T11:59:35Z</time>
      </trkpt>
      <trkpt lat="47.29241" lon="-2.54695">
        <ele>1.58</ele>
        <time>2017-03-29T11:59:46Z</time>
      </trkpt>
      <trkpt lat="47.29235" lon="-2.54685">
        <ele>1.58</ele>
        <time>2017-03-29T11:59:52Z</time>
      </trkpt>
      <trkpt lat="47.29228" lon="-2.54674">
        <ele>2.06</ele>
        <time>2017-03-29T11:59:58Z</time>
      </trkpt>
      <trkpt lat="47.29222" lon="-2.54663">
        <ele>1.1</ele>
        <time>2017-03-29T12:00:05Z</time>
      </trkpt>
      <trkpt lat="47.29217" lon="-2.54649">
        <ele>1.1</ele>
        <time>2017-03-29T12:00:12Z</time>
      </trkpt>
      <trkpt lat="47.29212" lon="-2.54636">
        <ele>-0.34</ele>
        <time>2017-03-29T12:00:19Z</time>
      </trkpt>
      <trkpt lat="47.29204" lon="-2.54627">
        <ele>0.62</ele>
        <time>2017-03-29T12:00:25Z</time>
      </trkpt>
      <trkpt lat="47.29197" lon="-2.54618">
        <ele>1.1</ele>
        <time>2017-03-29T12:00:31Z</time>
      </trkpt>
      <trkpt lat="47.2919" lon="-2.54608">
        <ele>-0.34</ele>
        <time>2017-03-29T12:00:38Z</time>
      </trkpt>
      <trkpt lat="47.29181" lon="-2.54599">
        <ele>0.14</ele>
        <time>2017-03-29T12:00:45Z</time>
      </trkpt>
      <trkpt lat="47.29173" lon="-2.54592">
        <ele>4.46</ele>
        <time>2017-03-29T12:00:51Z</time>
      </trkpt>
      <trkpt lat="47.29165" lon="-2.54586">
        <ele>5.91</ele>
        <time>2017-03-29T12:00:57Z</time>
      </trkpt>
      <trkpt lat="47.29156" lon="-2.5458">
        <ele>5.91</ele>
        <time>2017-03-29T12:01:04Z</time>
      </trkpt>
      <trkpt lat="47.29147" lon="-2.54576">
        <ele>0.62</ele>
        <time>2017-03-29T12:01:11Z</time>
      </trkpt>
      <trkpt lat="47.29138" lon="-2.5457">
        <ele>4.94</ele>
        <time>2017-03-29T12:01:18Z</time>
      </trkpt>
      <trkpt lat="47.2913" lon="-2.54564">
        <ele>3.98</ele>
        <time>2017-03-29T12:01:25Z</time>
      </trkpt>
      <trkpt lat="47.29121" lon="-2.54558">
        <ele>0.14</ele>
        <time>2017-03-29T12:01:32Z</time>
      </trkpt>
      <trkpt lat="47.29113" lon="-2.54551">
        <ele>4.94</ele>
        <time>2017-03-29T12:01:39Z</time>
      </trkpt>
      <trkpt lat="47.29105" lon="-2.54545">
        <ele>3.02</ele>
        <time>2017-03-29T12:01:46Z</time>
      </trkpt>
      <trkpt lat="47.29098" lon="-2.54536">
        <ele>1.1</ele>
        <time>2017-03-29T12:01:53Z</time>
      </trkpt>
      <trkpt lat="47.2909" lon="-2.54526">
        <ele>3.98</ele>
        <time>2017-03-29T12:02:00Z</time>
      </trkpt>
      <trkpt lat="47.29081" lon="-2.54528">
        <ele>1.1</ele>
        <time>2017-03-29T12:02:08Z</time>
      </trkpt>
      <trkpt lat="47.29073" lon="-2.54533">
        <ele>5.91</ele>
        <time>2017-03-29T12:02:15Z</time>
      </trkpt>
      <trkpt lat="47.29064" lon="-2.54541">
        <ele>2.06</ele>
        <time>2017-03-29T12:02:23Z</time>
      </trkpt>
      <trkpt lat="47.29056" lon="-2.54547">
        <ele>3.5</ele>
        <time>2017-03-29T12:02:55Z</time>
      </trkpt>
      <trkpt lat="47.29047" lon="-2.54556">
        <ele>-0.34</ele>
        <time>2017-03-29T12:03:10Z</time>
      </trkpt>
      <trkpt lat="47.29038" lon="-2.54552">
        <ele>1.1</ele>
        <time>2017-03-29T12:03:19Z</time>
      </trkpt>
      <trkpt lat="47.29034" lon="-2.54538">
        <ele>1.1</ele>
        <time>2017-03-29T12:03:34Z</time>
      </trkpt>
      <trkpt lat="47.29031" lon="-2.54526">
        <ele>-2.75</ele>
        <time>2017-03-29T12:03:42Z</time>
      </trkpt>
      <trkpt lat="47.29024" lon="-2.54513">
        <ele>-0.34</ele>
        <time>2017-03-29T12:03:50Z</time>
      </trkpt>
      <trkpt lat="47.29019" lon="-2.54501">
        <ele>4.94</ele>
        <time>2017-03-29T12:04:01Z</time>
      </trkpt>
      <trkpt lat="47.29019" lon="-2.5449">
        <ele>3.98</ele>
        <time>2017-03-29T12:04:09Z</time>
      </trkpt>
      <trkpt lat="47.29023" lon="-2.54477">
        <ele>2.06</ele>
        <time>2017-03-29T12:04:17Z</time>
      </trkpt>
      <trkpt lat="47.29028" lon="-2.54464">
        <ele>-1.79</ele>
        <time>2017-03-29T12:04:25Z</time>
      </trkpt>
      <trkpt lat="47.29034" lon="-2.54453">
        <ele>2.06</ele>
        <time>2017-03-29T12:04:33Z</time>
      </trkpt>
      <trkpt lat="47.29039" lon="-2.54444">
        <ele>2.54</ele>
        <time>2017-03-29T12:04:40Z</time>
      </trkpt>
      <trkpt lat="47.29045" lon="-2.54434">
        <ele>0.14</ele>
        <time>2017-03-29T12:04:47Z</time>
      </trkpt>
      <trkpt lat="47.29051" lon="-2.54421">
        <ele>1.58</ele>
        <time>2017-03-29T12:04:55Z</time>
      </trkpt>
      <trkpt lat="47.29059" lon="-2.54421">
        <ele>3.98</ele>
        <time>2017-03-29T12:05:02Z</time>
      </trkpt>
      <trkpt lat="47.29067" lon="-2.54411">
        <ele>-0.82</ele>
        <time>2017-03-29T12:05:11Z</time>
      </trkpt>
      <trkpt lat="47.29068" lon="-2.54398">
        <ele>-0.34</ele>
        <time>2017-03-29T12:05:18Z</time>
      </trkpt>
      <trkpt lat="47.29067" lon="-2.54383">
        <ele>3.5</ele>
        <time>2017-03-29T12:05:25Z</time>
      </trkpt>
      <trkpt lat="47.29066" lon="-2.54368">
        <ele>5.42</ele>
        <time>2017-03-29T12:05:32Z</time>
      </trkpt>
      <trkpt lat="47.29064" lon="-2.54355">
        <ele>0.14</ele>
        <time>2017-03-29T12:05:39Z</time>
      </trkpt>
      <trkpt lat="47.29062" lon="-2.54341">
        <ele>3.98</ele>
        <time>2017-03-29T12:05:46Z</time>
      </trkpt>
      <trkpt lat="47.29058" lon="-2.54327">
        <ele>2.54</ele>
        <time>2017-03-29T12:05:53Z</time>
      </trkpt>
      <trkpt lat="47.29054" lon="-2.54313">
        <ele>1.58</ele>
        <time>2017-03-29T12:06:00Z</time>
      </trkpt>
      <trkpt lat="47.29051" lon="-2.543">
        <ele>2.54</ele>
        <time>2017-03-29T12:06:08Z</time>
      </trkpt>
      <trkpt lat="47.29048" lon="-2.54287">
        <ele>4.94</ele>
        <time>2017-03-29T12:06:15Z</time>
      </trkpt>
      <trkpt lat="47.29043" lon="-2.54274">
        <ele>1.1</ele>
        <time>2017-03-29T12:06:22Z</time>
      </trkpt>
      <trkpt lat="47.29038" lon="-2.54262">
        <ele>3.98</ele>
        <time>2017-03-29T12:06:29Z</time>
      </trkpt>
      <trkpt lat="47.29034" lon="-2.54249">
        <ele>1.1</ele>
        <time>2017-03-29T12:06:36Z</time>
      </trkpt>
      <trkpt lat="47.29029" lon="-2.54236">
        <ele>3.98</ele>
        <time>2017-03-29T12:06:43Z</time>
      </trkpt>
      <trkpt lat="47.29024" lon="-2.54224">
        <ele>3.98</ele>
        <time>2017-03-29T12:06:50Z</time>
      </trkpt>
      <trkpt lat="47.2902" lon="-2.54211">
        <ele>3.02</ele>
        <time>2017-03-29T12:06:57Z</time>
      </trkpt>
      <trkpt lat="47.29015" lon="-2.54197">
        <ele>3.98</ele>
        <time>2017-03-29T12:07:04Z</time>
      </trkpt>
      <trkpt lat="47.2901" lon="-2.54186">
        <ele>4.46</ele>
        <time>2017-03-29T12:07:11Z</time>
      </trkpt>
      <trkpt lat="47.29007" lon="-2.54172">
        <ele>0.62</ele>
        <time>2017-03-29T12:07:18Z</time>
      </trkpt>
      <trkpt lat="47.29003" lon="-2.5416">
        <ele>3.98</ele>
        <time>2017-03-29T12:07:24Z</time>
      </trkpt>
      <trkpt lat="47.28999" lon="-2.54147">
        <ele>3.02</ele>
        <time>2017-03-29T12:07:31Z</time>
      </trkpt>
      <trkpt lat="47.28996" lon="-2.54134">
        <ele>3.02</ele>
        <time>2017-03-29T12:07:38Z</time>
      </trkpt>
      <trkpt lat="47.28991" lon="-2.54121">
        <ele>4.94</ele>
        <time>2017-03-29T12:07:45Z</time>
      </trkpt>
      <trkpt lat="47.28988" lon="-2.54108">
        <ele>3.02</ele>
        <time>2017-03-29T12:07:52Z</time>
      </trkpt>
      <trkpt lat="47.28984" lon="-2.54095">
        <ele>5.42</ele>
        <time>2017-03-29T12:07:59Z</time>
      </trkpt>
      <trkpt lat="47.2898" lon="-2.54083">
        <ele>3.98</ele>
        <time>2017-03-29T12:08:05Z</time>
      </trkpt>
      <trkpt lat="47.28976" lon="-2.5407">
        <ele>5.91</ele>
        <time>2017-03-29T12:08:12Z</time>
      </trkpt>
      <trkpt lat="47.28973" lon="-2.54055">
        <ele>3.5</ele>
        <time>2017-03-29T12:08:19Z</time>
      </trkpt>
      <trkpt lat="47.2897" lon="-2.54041">
        <ele>3.98</ele>
        <time>2017-03-29T12:08:27Z</time>
      </trkpt>
      <trkpt lat="47.28968" lon="-2.54028">
        <ele>7.35</ele>
        <time>2017-03-29T12:08:34Z</time>
      </trkpt>
      <trkpt lat="47.28964" lon="-2.54013">
        <ele>2.06</ele>
        <time>2017-03-29T12:08:41Z</time>
      </trkpt>
      <trkpt lat="47.2896" lon="-2.54">
        <ele>8.31</ele>
        <time>2017-03-29T12:08:48Z</time>
      </trkpt>
      <trkpt lat="47.28957" lon="-2.53986">
        <ele>6.39</ele>
        <time>2017-03-29T12:08:55Z</time>
      </trkpt>
      <trkpt lat="47.28954" lon="-2.53974">
        <ele>7.83</ele>
        <time>2017-03-29T12:09:02Z</time>
      </trkpt>
      <trkpt lat="47.2895" lon="-2.53962">
        <ele>6.87</ele>
        <time>2017-03-29T12:09:09Z</time>
      </trkpt>
      <trkpt lat="47.28945" lon="-2.53948">
        <ele>5.42</ele>
        <time>2017-03-29T12:09:16Z</time>
      </trkpt>
      <trkpt lat="47.28942" lon="-2.53935">
        <ele>9.27</ele>
        <time>2017-03-29T12:09:23Z</time>
      </trkpt>
      <trkpt lat="47.28942" lon="-2.5392">
        <ele>5.91</ele>
        <time>2017-03-29T12:09:30Z</time>
      </trkpt>
      <trkpt lat="47.2894" lon="-2.53906">
        <ele>5.91</ele>
        <time>2017-03-29T12:09:37Z</time>
      </trkpt>
      <trkpt lat="47.28937" lon="-2.53892">
        <ele>5.91</ele>
        <time>2017-03-29T12:09:44Z</time>
      </trkpt>
      <trkpt lat="47.28935" lon="-2.53879">
        <ele>10.23</ele>
        <time>2017-03-29T12:09:51Z</time>
      </trkpt>
      <trkpt lat="47.28933" lon="-2.53865">
        <ele>10.23</ele>
        <time>2017-03-29T12:09:58Z</time>
      </trkpt>
      <trkpt lat="47.28931" lon="-2.53851">
        <ele>7.35</ele>
        <time>2017-03-29T12:10:05Z</time>
      </trkpt>
      <trkpt lat="47.2893" lon="-2.53838">
        <ele>8.31</ele>
        <time>2017-03-29T12:10:12Z</time>
      </trkpt>
      <trkpt lat="47.28928" lon="-2.53824">
        <ele>7.83</ele>
        <time>2017-03-29T12:10:19Z</time>
      </trkpt>
      <trkpt lat="47.28927" lon="-2.5381">
        <ele>11.67</ele>
        <time>2017-03-29T12:10:26Z</time>
      </trkpt>
      <trkpt lat="47.28925" lon="-2.53795">
        <ele>10.23</ele>
        <time>2017-03-29T12:10:33Z</time>
      </trkpt>
      <trkpt lat="47.28923" lon="-2.53782">
        <ele>9.75</ele>
        <time>2017-03-29T12:10:40Z</time>
      </trkpt>
      <trkpt lat="47.2892" lon="-2.53766">
        <ele>7.35</ele>
        <time>2017-03-29T12:10:48Z</time>
      </trkpt>
      <trkpt lat="47.28918" lon="-2.53752">
        <ele>9.75</ele>
        <time>2017-03-29T12:10:55Z</time>
      </trkpt>
      <trkpt lat="47.28916" lon="-2.53737">
        <ele>11.67</ele>
        <time>2017-03-29T12:11:03Z</time>
      </trkpt>
      <trkpt lat="47.28914" lon="-2.53724">
        <ele>10.71</ele>
        <time>2017-03-29T12:11:19Z</time>
      </trkpt>
      <trkpt lat="47.28913" lon="-2.5371">
        <ele>8.31</ele>
        <time>2017-03-29T12:11:26Z</time>
      </trkpt>
      <trkpt lat="47.28909" lon="-2.53695">
        <ele>9.75</ele>
        <time>2017-03-29T12:11:33Z</time>
      </trkpt>
      <trkpt lat="47.28907" lon="-2.53681">
        <ele>12.63</ele>
        <time>2017-03-29T12:11:40Z</time>
      </trkpt>
      <trkpt lat="47.28904" lon="-2.53666">
        <ele>7.83</ele>
        <time>2017-03-29T12:11:47Z</time>
      </trkpt>
      <trkpt lat="47.289" lon="-2.53654">
        <ele>12.15</ele>
        <time>2017-03-29T12:11:53Z</time>
      </trkpt>
      <trkpt lat="47.28897" lon="-2.53639">
        <ele>8.79</ele>
        <time>2017-03-29T12:12:00Z</time>
      </trkpt>
      <trkpt lat="47.28892" lon="-2.53639">
        <ele>9.75</ele>
        <time>2017-03-29T12:12:24Z</time>
      </trkpt>
      <trkpt lat="47.28893" lon="-2.53625">
        <ele>8.79</ele>
        <time>2017-03-29T12:12:31Z</time>
      </trkpt>
      <trkpt lat="47.28889" lon="-2.53611">
        <ele>9.75</ele>
        <time>2017-03-29T12:12:38Z</time>
      </trkpt>
      <trkpt lat="47.28885" lon="-2.53597">
        <ele>12.63</ele>
        <time>2017-03-29T12:12:45Z</time>
      </trkpt>
      <trkpt lat="47.2888" lon="-2.53584">
        <ele>10.23</ele>
        <time>2017-03-29T12:12:52Z</time>
      </trkpt>
      <trkpt lat="47.28877" lon="-2.53571">
        <ele>13.12</ele>
        <time>2017-03-29T12:12:58Z</time>
      </trkpt>
      <trkpt lat="47.28873" lon="-2.53557">
        <ele>9.75</ele>
        <time>2017-03-29T12:13:05Z</time>
      </trkpt>
      <trkpt lat="47.2887" lon="-2.53544">
        <ele>13.12</ele>
        <time>2017-03-29T12:13:11Z</time>
      </trkpt>
      <trkpt lat="47.28866" lon="-2.5353">
        <ele>14.56</ele>
        <time>2017-03-29T12:13:18Z</time>
      </trkpt>
      <trkpt lat="47.28863" lon="-2.53516">
        <ele>14.08</ele>
        <time>2017-03-29T12:13:24Z</time>
      </trkpt>
      <trkpt lat="47.28862" lon="-2.53503">
        <ele>11.19</ele>
        <time>2017-03-29T12:13:31Z</time>
      </trkpt>
      <trkpt lat="47.28861" lon="-2.53487">
        <ele>11.19</ele>
        <time>2017-03-29T12:13:38Z</time>
      </trkpt>
      <trkpt lat="47.2886" lon="-2.53474">
        <ele>10.71</ele>
        <time>2017-03-29T12:13:44Z</time>
      </trkpt>
      <trkpt lat="47.2886" lon="-2.5346">
        <ele>14.56</ele>
        <time>2017-03-29T12:13:51Z</time>
      </trkpt>
      <trkpt lat="47.2886" lon="-2.53444">
        <ele>9.75</ele>
        <time>2017-03-29T12:13:58Z</time>
      </trkpt>
      <trkpt lat="47.28858" lon="-2.53431">
        <ele>13.6</ele>
        <time>2017-03-29T12:14:04Z</time>
      </trkpt>
      <trkpt lat="47.28859" lon="-2.53416">
        <ele>13.6</ele>
        <time>2017-03-29T12:14:11Z</time>
      </trkpt>
      <trkpt lat="47.28858" lon="-2.53404">
        <ele>13.6</ele>
        <time>2017-03-29T12:14:17Z</time>
      </trkpt>
      <trkpt lat="47.28858" lon="-2.5339">
        <ele>14.08</ele>
        <time>2017-03-29T12:14:23Z</time>
      </trkpt>
      <trkpt lat="47.28855" lon="-2.53378">
        <ele>14.08</ele>
        <time>2017-03-29T12:14:33Z</time>
      </trkpt>
      <trkpt lat="47.28852" lon="-2.53362">
        <ele>14.56</ele>
        <time>2017-03-29T12:14:53Z</time>
      </trkpt>
      <trkpt lat="47.28848" lon="-2.53349">
        <ele>14.08</ele>
        <time>2017-03-29T12:14:59Z</time>
      </trkpt>
      <trkpt lat="47.28845" lon="-2.53334">
        <ele>13.12</ele>
        <time>2017-03-29T12:15:06Z</time>
      </trkpt>
      <trkpt lat="47.28843" lon="-2.53319">
        <ele>10.23</ele>
        <time>2017-03-29T12:15:12Z</time>
      </trkpt>
      <trkpt lat="47.2884" lon="-2.53307">
        <ele>14.08</ele>
        <time>2017-03-29T12:15:18Z</time>
      </trkpt>
      <trkpt lat="47.28839" lon="-2.53293">
        <ele>9.27</ele>
        <time>2017-03-29T12:15:24Z</time>
      </trkpt>
      <trkpt lat="47.28836" lon="-2.53278">
        <ele>11.19</ele>
        <time>2017-03-29T12:15:31Z</time>
      </trkpt>
      <trkpt lat="47.28831" lon="-2.53263">
        <ele>16</ele>
        <time>2017-03-29T12:15:38Z</time>
      </trkpt>
      <trkpt lat="47.28829" lon="-2.53249">
        <ele>11.67</ele>
        <time>2017-03-29T12:15:44Z</time>
      </trkpt>
      <trkpt lat="47.28829" lon="-2.53236">
        <ele>13.6</ele>
        <time>2017-03-29T12:15:51Z</time>
      </trkpt>
      <trkpt lat="47.28822" lon="-2.53227">
        <ele>16</ele>
        <time>2017-03-29T12:15:58Z</time>
      </trkpt>
      <trkpt lat="47.28813" lon="-2.53219">
        <ele>9.27</ele>
        <time>2017-03-29T12:16:04Z</time>
      </trkpt>
      <trkpt lat="47.28804" lon="-2.53212">
        <ele>12.63</ele>
        <time>2017-03-29T12:16:10Z</time>
      </trkpt>
      <trkpt lat="47.28797" lon="-2.53206">
        <ele>14.56</ele>
        <time>2017-03-29T12:16:16Z</time>
      </trkpt>
      <trkpt lat="47.28789" lon="-2.53195">
        <ele>13.12</ele>
        <time>2017-03-29T12:16:23Z</time>
      </trkpt>
      <trkpt lat="47.28781" lon="-2.53186">
        <ele>14.08</ele>
        <time>2017-03-29T12:16:29Z</time>
      </trkpt>
      <trkpt lat="47.28773" lon="-2.53179">
        <ele>9.27</ele>
        <time>2017-03-29T12:16:35Z</time>
      </trkpt>
      <trkpt lat="47.28766" lon="-2.5317">
        <ele>13.12</ele>
        <time>2017-03-29T12:16:41Z</time>
      </trkpt>
      <trkpt lat="47.28761" lon="-2.53157">
        <ele>14.08</ele>
        <time>2017-03-29T12:16:47Z</time>
      </trkpt>
      <trkpt lat="47.28756" lon="-2.53144">
        <ele>13.6</ele>
        <time>2017-03-29T12:16:54Z</time>
      </trkpt>
      <trkpt lat="47.28752" lon="-2.53129">
        <ele>13.12</ele>
        <time>2017-03-29T12:17:01Z</time>
      </trkpt>
      <trkpt lat="47.28749" lon="-2.53114">
        <ele>10.71</ele>
        <time>2017-03-29T12:17:07Z</time>
      </trkpt>
      <trkpt lat="47.28748" lon="-2.53102">
        <ele>8.31</ele>
        <time>2017-03-29T12:17:13Z</time>
      </trkpt>
      <trkpt lat="47.28747" lon="-2.53086">
        <ele>9.75</ele>
        <time>2017-03-29T12:17:20Z</time>
      </trkpt>
      <trkpt lat="47.28746" lon="-2.53072">
        <ele>10.71</ele>
        <time>2017-03-29T12:17:27Z</time>
      </trkpt>
      <trkpt lat="47.28743" lon="-2.53057">
        <ele>9.27</ele>
        <time>2017-03-29T12:17:34Z</time>
      </trkpt>
      <trkpt lat="47.28743" lon="-2.53044">
        <ele>10.23</ele>
        <time>2017-03-29T12:17:40Z</time>
      </trkpt>
      <trkpt lat="47.28742" lon="-2.53028">
        <ele>11.67</ele>
        <time>2017-03-29T12:17:47Z</time>
      </trkpt>
      <trkpt lat="47.28743" lon="-2.53014">
        <ele>13.6</ele>
        <time>2017-03-29T12:17:53Z</time>
      </trkpt>
      <trkpt lat="47.28746" lon="-2.53001">
        <ele>11.19</ele>
        <time>2017-03-29T12:18:00Z</time>
      </trkpt>
      <trkpt lat="47.28747" lon="-2.52986">
        <ele>15.04</ele>
        <time>2017-03-29T12:18:06Z</time>
      </trkpt>
      <trkpt lat="47.28746" lon="-2.52972">
        <ele>10.23</ele>
        <time>2017-03-29T12:18:13Z</time>
      </trkpt>
      <trkpt lat="47.28743" lon="-2.52958">
        <ele>12.15</ele>
        <time>2017-03-29T12:18:20Z</time>
      </trkpt>
      <trkpt lat="47.28741" lon="-2.52943">
        <ele>14.08</ele>
        <time>2017-03-29T12:18:27Z</time>
      </trkpt>
      <trkpt lat="47.28741" lon="-2.52929">
        <ele>12.63</ele>
        <time>2017-03-29T12:18:33Z</time>
      </trkpt>
      <trkpt lat="47.28739" lon="-2.52917">
        <ele>9.75</ele>
        <time>2017-03-29T12:18:39Z</time>
      </trkpt>
      <trkpt lat="47.28737" lon="-2.52904">
        <ele>10.71</ele>
        <time>2017-03-29T12:18:45Z</time>
      </trkpt>
      <trkpt lat="47.28736" lon="-2.52889">
        <ele>11.67</ele>
        <time>2017-03-29T12:18:52Z</time>
      </trkpt>
      <trkpt lat="47.28734" lon="-2.52876">
        <ele>10.71</ele>
        <time>2017-03-29T12:18:58Z</time>
      </trkpt>
      <trkpt lat="47.28733" lon="-2.52861">
        <ele>9.75</ele>
        <time>2017-03-29T12:19:05Z</time>
      </trkpt>
      <trkpt lat="47.2873" lon="-2.52847">
        <ele>10.23</ele>
        <time>2017-03-29T12:19:12Z</time>
      </trkpt>
      <trkpt lat="47.28728" lon="-2.52832">
        <ele>13.6</ele>
        <time>2017-03-29T12:19:19Z</time>
      </trkpt>
      <trkpt lat="47.28727" lon="-2.52818">
        <ele>11.19</ele>
        <time>2017-03-29T12:19:26Z</time>
      </trkpt>
      <trkpt lat="47.28723" lon="-2.52804">
        <ele>6.39</ele>
        <time>2017-03-29T12:19:33Z</time>
      </trkpt>
      <trkpt lat="47.2872" lon="-2.52791">
        <ele>8.31</ele>
        <time>2017-03-29T12:19:40Z</time>
      </trkpt>
      <trkpt lat="47.28718" lon="-2.52777">
        <ele>10.23</ele>
        <time>2017-03-29T12:19:47Z</time>
      </trkpt>
      <trkpt lat="47.28718" lon="-2.52762">
        <ele>9.75</ele>
        <time>2017-03-29T12:19:54Z</time>
      </trkpt>
      <trkpt lat="47.28714" lon="-2.52748">
        <ele>8.31</ele>
        <time>2017-03-29T12:20:01Z</time>
      </trkpt>
      <trkpt lat="47.28712" lon="-2.52733">
        <ele>6.87</ele>
        <time>2017-03-29T12:20:08Z</time>
      </trkpt>
      <trkpt lat="47.28713" lon="-2.52718">
        <ele>5.42</ele>
        <time>2017-03-29T12:20:15Z</time>
      </trkpt>
      <trkpt lat="47.28713" lon="-2.52702">
        <ele>4.94</ele>
        <time>2017-03-29T12:20:22Z</time>
      </trkpt>
      <trkpt lat="47.28715" lon="-2.52688">
        <ele>7.83</ele>
        <time>2017-03-29T12:20:29Z</time>
      </trkpt>
      <trkpt lat="47.28717" lon="-2.52672">
        <ele>5.91</ele>
        <time>2017-03-29T12:20:36Z</time>
      </trkpt>
      <trkpt lat="47.28717" lon="-2.52659">
        <ele>7.83</ele>
        <time>2017-03-29T12:20:43Z</time>
      </trkpt>
      <trkpt lat="47.28714" lon="-2.52645">
        <ele>9.27</ele>
        <time>2017-03-29T12:20:50Z</time>
      </trkpt>
      <trkpt lat="47.2871" lon="-2.52632">
        <ele>8.31</ele>
        <time>2017-03-29T12:20:57Z</time>
      </trkpt>
      <trkpt lat="47.28705" lon="-2.52619">
        <ele>3.98</ele>
        <time>2017-03-29T12:21:04Z</time>
      </trkpt>
      <trkpt lat="47.287" lon="-2.52607">
        <ele>3.98</ele>
        <time>2017-03-29T12:21:11Z</time>
      </trkpt>
      <trkpt lat="47.28697" lon="-2.52592">
        <ele>6.87</ele>
        <time>2017-03-29T12:21:18Z</time>
      </trkpt>
      <trkpt lat="47.28696" lon="-2.52578">
        <ele>6.39</ele>
        <time>2017-03-29T12:21:25Z</time>
      </trkpt>
      <trkpt lat="47.28698" lon="-2.52563">
        <ele>6.87</ele>
        <time>2017-03-29T12:21:37Z</time>
      </trkpt>
      <trkpt lat="47.28703" lon="-2.5255">
        <ele>4.94</ele>
        <time>2017-03-29T12:21:44Z</time>
      </trkpt>
      <trkpt lat="47.2871" lon="-2.52539">
        <ele>6.87</ele>
        <time>2017-03-29T12:21:51Z</time>
      </trkpt>
      <trkpt lat="47.28714" lon="-2.52526">
        <ele>7.35</ele>
        <time>2017-03-29T12:21:58Z</time>
      </trkpt>
      <trkpt lat="47.2871" lon="-2.52513">
        <ele>5.91</ele>
        <time>2017-03-29T12:22:04Z</time>
      </trkpt>
      <trkpt lat="47.28713" lon="-2.52499">
        <ele>3.02</ele>
        <time>2017-03-29T12:22:11Z</time>
      </trkpt>
      <trkpt lat="47.28718" lon="-2.52487">
        <ele>3.5</ele>
        <time>2017-03-29T12:22:18Z</time>
      </trkpt>
      <trkpt lat="47.28723" lon="-2.52472">
        <ele>7.35</ele>
        <time>2017-03-29T12:22:25Z</time>
      </trkpt>
      <trkpt lat="47.28727" lon="-2.52458">
        <ele>7.83</ele>
        <time>2017-03-29T12:22:32Z</time>
      </trkpt>
      <trkpt lat="47.28731" lon="-2.52445">
        <ele>5.91</ele>
        <time>2017-03-29T12:22:39Z</time>
      </trkpt>
      <trkpt lat="47.28736" lon="-2.52434">
        <ele>8.79</ele>
        <time>2017-03-29T12:22:45Z</time>
      </trkpt>
      <trkpt lat="47.28741" lon="-2.52421">
        <ele>6.39</ele>
        <time>2017-03-29T12:22:52Z</time>
      </trkpt>
      <trkpt lat="47.28741" lon="-2.52407">
        <ele>11.67</ele>
        <time>2017-03-29T12:22:59Z</time>
      </trkpt>
      <trkpt lat="47.28738" lon="-2.52392">
        <ele>9.75</ele>
        <time>2017-03-29T12:23:06Z</time>
      </trkpt>
      <trkpt lat="47.28735" lon="-2.52379">
        <ele>7.83</ele>
        <time>2017-03-29T12:23:12Z</time>
      </trkpt>
      <trkpt lat="47.2873" lon="-2.52367">
        <ele>12.63</ele>
        <time>2017-03-29T12:23:20Z</time>
      </trkpt>
      <trkpt lat="47.28724" lon="-2.52354">
        <ele>12.15</ele>
        <time>2017-03-29T12:23:27Z</time>
      </trkpt>
      <trkpt lat="47.28722" lon="-2.5234">
        <ele>8.79</ele>
        <time>2017-03-29T12:23:33Z</time>
      </trkpt>
      <trkpt lat="47.28722" lon="-2.52326">
        <ele>9.27</ele>
        <time>2017-03-29T12:23:40Z</time>
      </trkpt>
      <trkpt lat="47.28724" lon="-2.5231">
        <ele>12.63</ele>
        <time>2017-03-29T12:23:47Z</time>
      </trkpt>
      <trkpt lat="47.28721" lon="-2.52295">
        <ele>12.63</ele>
        <time>2017-03-29T12:23:54Z</time>
      </trkpt>
      <trkpt lat="47.28715" lon="-2.52285">
        <ele>7.83</ele>
        <time>2017-03-29T12:24:00Z</time>
      </trkpt>
      <trkpt lat="47.2871" lon="-2.52273">
        <ele>5.91</ele>
        <time>2017-03-29T12:24:06Z</time>
      </trkpt>
      <trkpt lat="47.28708" lon="-2.52259">
        <ele>8.79</ele>
        <time>2017-03-29T12:24:12Z</time>
      </trkpt>
      <trkpt lat="47.28709" lon="-2.52243">
        <ele>11.67</ele>
        <time>2017-03-29T12:24:19Z</time>
      </trkpt>
      <trkpt lat="47.28709" lon="-2.52229">
        <ele>10.71</ele>
        <time>2017-03-29T12:24:26Z</time>
      </trkpt>
      <trkpt lat="47.28705" lon="-2.52215">
        <ele>6.39</ele>
        <time>2017-03-29T12:24:33Z</time>
      </trkpt>
      <trkpt lat="47.28701" lon="-2.52201">
        <ele>12.63</ele>
        <time>2017-03-29T12:24:40Z</time>
      </trkpt>
      <trkpt lat="47.28696" lon="-2.52187">
        <ele>13.6</ele>
        <time>2017-03-29T12:24:47Z</time>
      </trkpt>
      <trkpt lat="47.28691" lon="-2.52173">
        <ele>10.71</ele>
        <time>2017-03-29T12:24:54Z</time>
      </trkpt>
      <trkpt lat="47.28686" lon="-2.5216">
        <ele>11.67</ele>
        <time>2017-03-29T12:25:01Z</time>
      </trkpt>
      <trkpt lat="47.28682" lon="-2.52146">
        <ele>11.19</ele>
        <time>2017-03-29T12:25:08Z</time>
      </trkpt>
      <trkpt lat="47.28676" lon="-2.52134">
        <ele>11.67</ele>
        <time>2017-03-29T12:25:14Z</time>
      </trkpt>
      <trkpt lat="47.2867" lon="-2.5212">
        <ele>11.67</ele>
        <time>2017-03-29T12:25:21Z</time>
      </trkpt>
      <trkpt lat="47.28664" lon="-2.52106">
        <ele>11.67</ele>
        <time>2017-03-29T12:25:28Z</time>
      </trkpt>
      <trkpt lat="47.28661" lon="-2.52092">
        <ele>14.08</ele>
        <time>2017-03-29T12:25:35Z</time>
      </trkpt>
      <trkpt lat="47.28657" lon="-2.52078">
        <ele>12.15</ele>
        <time>2017-03-29T12:25:42Z</time>
      </trkpt>
      <trkpt lat="47.28652" lon="-2.52063">
        <ele>12.15</ele>
        <time>2017-03-29T12:25:49Z</time>
      </trkpt>
      <trkpt lat="47.28648" lon="-2.5205">
        <ele>7.35</ele>
        <time>2017-03-29T12:25:55Z</time>
      </trkpt>
      <trkpt lat="47.28641" lon="-2.52039">
        <ele>8.31</ele>
        <time>2017-03-29T12:26:01Z</time>
      </trkpt>
      <trkpt lat="47.28636" lon="-2.52029">
        <ele>7.83</ele>
        <time>2017-03-29T12:26:07Z</time>
      </trkpt>
      <trkpt lat="47.28629" lon="-2.52019">
        <ele>7.83</ele>
        <time>2017-03-29T12:26:13Z</time>
      </trkpt>
      <trkpt lat="47.28622" lon="-2.52007">
        <ele>7.83</ele>
        <time>2017-03-29T12:26:20Z</time>
      </trkpt>
      <trkpt lat="47.28618" lon="-2.51994">
        <ele>8.79</ele>
        <time>2017-03-29T12:26:27Z</time>
      </trkpt>
      <trkpt lat="47.28615" lon="-2.5198">
        <ele>8.79</ele>
        <time>2017-03-29T12:26:33Z</time>
      </trkpt>
      <trkpt lat="47.28614" lon="-2.51967">
        <ele>8.79</ele>
        <time>2017-03-29T12:26:39Z</time>
      </trkpt>
      <trkpt lat="47.28612" lon="-2.51953">
        <ele>6.39</ele>
        <time>2017-03-29T12:26:46Z</time>
      </trkpt>
      <trkpt lat="47.28616" lon="-2.51939">
        <ele>6.39</ele>
        <time>2017-03-29T12:26:53Z</time>
      </trkpt>
      <trkpt lat="47.2862" lon="-2.51924">
        <ele>9.27</ele>
        <time>2017-03-29T12:27:00Z</time>
      </trkpt>
      <trkpt lat="47.28623" lon="-2.5191">
        <ele>8.79</ele>
        <time>2017-03-29T12:27:06Z</time>
      </trkpt>
      <trkpt lat="47.28624" lon="-2.51898">
        <ele>5.91</ele>
        <time>2017-03-29T12:27:12Z</time>
      </trkpt>
      <trkpt lat="47.2862" lon="-2.51885">
        <ele>4.46</ele>
        <time>2017-03-29T12:27:18Z</time>
      </trkpt>
      <trkpt lat="47.28617" lon="-2.51872">
        <ele>2.54</ele>
        <time>2017-03-29T12:27:24Z</time>
      </trkpt>
      <trkpt lat="47.28612" lon="-2.51861">
        <ele>6.87</ele>
        <time>2017-03-29T12:27:30Z</time>
      </trkpt>
      <trkpt lat="47.28604" lon="-2.51851">
        <ele>6.87</ele>
        <time>2017-03-29T12:27:37Z</time>
      </trkpt>
      <trkpt lat="47.28597" lon="-2.51841">
        <ele>7.35</ele>
        <time>2017-03-29T12:27:44Z</time>
      </trkpt>
      <trkpt lat="47.28591" lon="-2.51828">
        <ele>9.27</ele>
        <time>2017-03-29T12:27:51Z</time>
      </trkpt>
      <trkpt lat="47.28584" lon="-2.51818">
        <ele>6.39</ele>
        <time>2017-03-29T12:27:57Z</time>
      </trkpt>
      <trkpt lat="47.28576" lon="-2.5181">
        <ele>8.31</ele>
        <time>2017-03-29T12:28:04Z</time>
      </trkpt>
      <trkpt lat="47.28569" lon="-2.51802">
        <ele>5.42</ele>
        <time>2017-03-29T12:28:10Z</time>
      </trkpt>
      <trkpt lat="47.28561" lon="-2.51792">
        <ele>4.94</ele>
        <time>2017-03-29T12:28:17Z</time>
      </trkpt>
      <trkpt lat="47.28554" lon="-2.51781">
        <ele>2.54</ele>
        <time>2017-03-29T12:28:24Z</time>
      </trkpt>
      <trkpt lat="47.28551" lon="-2.51766">
        <ele>2.54</ele>
        <time>2017-03-29T12:28:31Z</time>
      </trkpt>
      <trkpt lat="47.28548" lon="-2.51752">
        <ele>2.06</ele>
        <time>2017-03-29T12:28:37Z</time>
      </trkpt>
      <trkpt lat="47.28547" lon="-2.51738">
        <ele>2.54</ele>
        <time>2017-03-29T12:28:43Z</time>
      </trkpt>
      <trkpt lat="47.28544" lon="-2.51723">
        <ele>2.06</ele>
        <time>2017-03-29T12:28:50Z</time>
      </trkpt>
      <trkpt lat="47.28541" lon="-2.51709">
        <ele>2.54</ele>
        <time>2017-03-29T12:28:57Z</time>
      </trkpt>
      <trkpt lat="47.28538" lon="-2.51696">
        <ele>4.46</ele>
        <time>2017-03-29T12:29:03Z</time>
      </trkpt>
      <trkpt lat="47.28539" lon="-2.51682">
        <ele>6.39</ele>
        <time>2017-03-29T12:29:09Z</time>
      </trkpt>
      <trkpt lat="47.2854" lon="-2.51668">
        <ele>5.42</ele>
        <time>2017-03-29T12:29:16Z</time>
      </trkpt>
      <trkpt lat="47.28537" lon="-2.51654">
        <ele>2.06</ele>
        <time>2017-03-29T12:29:23Z</time>
      </trkpt>
      <trkpt lat="47.28533" lon="-2.51639">
        <ele>1.1</ele>
        <time>2017-03-29T12:29:30Z</time>
      </trkpt>
      <trkpt lat="47.28531" lon="-2.51625">
        <ele>1.1</ele>
        <time>2017-03-29T12:29:36Z</time>
      </trkpt>
      <trkpt lat="47.28531" lon="-2.5161">
        <ele>1.1</ele>
        <time>2017-03-29T12:29:43Z</time>
      </trkpt>
      <trkpt lat="47.2853" lon="-2.51595">
        <ele>0.14</ele>
        <time>2017-03-29T12:29:50Z</time>
      </trkpt>
      <trkpt lat="47.28527" lon="-2.51582">
        <ele>0.62</ele>
        <time>2017-03-29T12:29:57Z</time>
      </trkpt>
      <trkpt lat="47.28525" lon="-2.51566">
        <ele>3.5</ele>
        <time>2017-03-29T12:30:04Z</time>
      </trkpt>
      <trkpt lat="47.28522" lon="-2.51553">
        <ele>4.46</ele>
        <time>2017-03-29T12:30:10Z</time>
      </trkpt>
      <trkpt lat="47.2852" lon="-2.51537">
        <ele>3.5</ele>
        <time>2017-03-29T12:30:17Z</time>
      </trkpt>
      <trkpt lat="47.28517" lon="-2.51523">
        <ele>1.1</ele>
        <time>2017-03-29T12:30:24Z</time>
      </trkpt>
      <trkpt lat="47.28513" lon="-2.51509">
        <ele>1.58</ele>
        <time>2017-03-29T12:30:31Z</time>
      </trkpt>
      <trkpt lat="47.28507" lon="-2.51499">
        <ele>1.58</ele>
        <time>2017-03-29T12:30:37Z</time>
      </trkpt>
      <trkpt lat="47.285" lon="-2.51492">
        <ele>2.06</ele>
        <time>2017-03-29T12:30:43Z</time>
      </trkpt>
      <trkpt lat="47.28492" lon="-2.51484">
        <ele>3.5</ele>
        <time>2017-03-29T12:30:50Z</time>
      </trkpt>
      <trkpt lat="47.28484" lon="-2.51474">
        <ele>4.94</ele>
        <time>2017-03-29T12:30:57Z</time>
      </trkpt>
      <trkpt lat="47.28476" lon="-2.51464">
        <ele>2.54</ele>
        <time>2017-03-29T12:31:04Z</time>
      </trkpt>
      <trkpt lat="47.28469" lon="-2.51455">
        <ele>6.39</ele>
        <time>2017-03-29T12:31:11Z</time>
      </trkpt>
      <trkpt lat="47.28464" lon="-2.51442">
        <ele>6.87</ele>
        <time>2017-03-29T12:31:18Z</time>
      </trkpt>
      <trkpt lat="47.28457" lon="-2.51431">
        <ele>6.87</ele>
        <time>2017-03-29T12:31:24Z</time>
      </trkpt>
      <trkpt lat="47.28451" lon="-2.5142">
        <ele>3.98</ele>
        <time>2017-03-29T12:31:30Z</time>
      </trkpt>
      <trkpt lat="47.28446" lon="-2.51408">
        <ele>3.02</ele>
        <time>2017-03-29T12:31:37Z</time>
      </trkpt>
      <trkpt lat="47.28441" lon="-2.51396">
        <ele>4.94</ele>
        <time>2017-03-29T12:31:44Z</time>
      </trkpt>
      <trkpt lat="47.28438" lon="-2.51381">
        <ele>4.94</ele>
        <time>2017-03-29T12:31:51Z</time>
      </trkpt>
      <trkpt lat="47.28438" lon="-2.51365">
        <ele>1.58</ele>
        <time>2017-03-29T12:31:58Z</time>
      </trkpt>
      <trkpt lat="47.28436" lon="-2.51351">
        <ele>3.5</ele>
        <time>2017-03-29T12:32:05Z</time>
      </trkpt>
      <trkpt lat="47.28434" lon="-2.51336">
        <ele>1.58</ele>
        <time>2017-03-29T12:32:12Z</time>
      </trkpt>
      <trkpt lat="47.28428" lon="-2.51324">
        <ele>0.14</ele>
        <time>2017-03-29T12:32:19Z</time>
      </trkpt>
      <trkpt lat="47.28423" lon="-2.51311">
        <ele>3.02</ele>
        <time>2017-03-29T12:32:26Z</time>
      </trkpt>
      <trkpt lat="47.28418" lon="-2.51298">
        <ele>3.02</ele>
        <time>2017-03-29T12:32:33Z</time>
      </trkpt>
      <trkpt lat="47.28411" lon="-2.51286">
        <ele>2.54</ele>
        <time>2017-03-29T12:32:40Z</time>
      </trkpt>
      <trkpt lat="47.28403" lon="-2.51276">
        <ele>2.54</ele>
        <time>2017-03-29T12:32:47Z</time>
      </trkpt>
      <trkpt lat="47.28395" lon="-2.51268">
        <ele>2.06</ele>
        <time>2017-03-29T12:32:54Z</time>
      </trkpt>
      <trkpt lat="47.28386" lon="-2.5126">
        <ele>3.5</ele>
        <time>2017-03-29T12:33:01Z</time>
      </trkpt>
      <trkpt lat="47.28377" lon="-2.51253">
        <ele>3.02</ele>
        <time>2017-03-29T12:33:07Z</time>
      </trkpt>
      <trkpt lat="47.28368" lon="-2.51249">
        <ele>3.02</ele>
        <time>2017-03-29T12:33:13Z</time>
      </trkpt>
      <trkpt lat="47.28359" lon="-2.51242">
        <ele>3.5</ele>
        <time>2017-03-29T12:33:20Z</time>
      </trkpt>
      <trkpt lat="47.28351" lon="-2.51236">
        <ele>4.46</ele>
        <time>2017-03-29T12:33:27Z</time>
      </trkpt>
      <trkpt lat="47.28342" lon="-2.51231">
        <ele>3.02</ele>
        <time>2017-03-29T12:33:33Z</time>
      </trkpt>
      <trkpt lat="47.28334" lon="-2.51224">
        <ele>3.02</ele>
        <time>2017-03-29T12:33:39Z</time>
      </trkpt>
      <trkpt lat="47.28325" lon="-2.51218">
        <ele>3.98</ele>
        <time>2017-03-29T12:33:45Z</time>
      </trkpt>
      <trkpt lat="47.28316" lon="-2.51212">
        <ele>4.46</ele>
        <time>2017-03-29T12:33:52Z</time>
      </trkpt>
      <trkpt lat="47.28308" lon="-2.51203">
        <ele>5.91</ele>
        <time>2017-03-29T12:33:59Z</time>
      </trkpt>
      <trkpt lat="47.28301" lon="-2.51193">
        <ele>6.87</ele>
        <time>2017-03-29T12:34:06Z</time>
      </trkpt>
      <trkpt lat="47.28295" lon="-2.51181">
        <ele>6.39</ele>
        <time>2017-03-29T12:34:13Z</time>
      </trkpt>
      <trkpt lat="47.28291" lon="-2.51168">
        <ele>6.87</ele>
        <time>2017-03-29T12:34:19Z</time>
      </trkpt>
      <trkpt lat="47.28287" lon="-2.51155">
        <ele>5.91</ele>
        <time>2017-03-29T12:34:26Z</time>
      </trkpt>
      <trkpt lat="47.28281" lon="-2.5114">
        <ele>5.42</ele>
        <time>2017-03-29T12:34:33Z</time>
      </trkpt>
      <trkpt lat="47.28277" lon="-2.51128">
        <ele>5.42</ele>
        <time>2017-03-29T12:34:39Z</time>
      </trkpt>
      <trkpt lat="47.28272" lon="-2.51114">
        <ele>5.42</ele>
        <time>2017-03-29T12:34:46Z</time>
      </trkpt>
      <trkpt lat="47.28267" lon="-2.51103">
        <ele>3.5</ele>
        <time>2017-03-29T12:34:53Z</time>
      </trkpt>
      <trkpt lat="47.28263" lon="-2.5109">
        <ele>3.5</ele>
        <time>2017-03-29T12:35:00Z</time>
      </trkpt>
      <trkpt lat="47.28257" lon="-2.51078">
        <ele>3.98</ele>
        <time>2017-03-29T12:35:06Z</time>
      </trkpt>
      <trkpt lat="47.28249" lon="-2.5107">
        <ele>3.5</ele>
        <time>2017-03-29T12:35:13Z</time>
      </trkpt>
      <trkpt lat="47.28241" lon="-2.51065">
        <ele>4.46</ele>
        <time>2017-03-29T12:35:19Z</time>
      </trkpt>
      <trkpt lat="47.28234" lon="-2.51056">
        <ele>3.02</ele>
        <time>2017-03-29T12:35:25Z</time>
      </trkpt>
      <trkpt lat="47.28229" lon="-2.51044">
        <ele>1.1</ele>
        <time>2017-03-29T12:35:32Z</time>
      </trkpt>
      <trkpt lat="47.28227" lon="-2.51031">
        <ele>4.94</ele>
        <time>2017-03-29T12:35:40Z</time>
      </trkpt>
      <trkpt lat="47.28233" lon="-2.51021">
        <ele>0.14</ele>
        <time>2017-03-29T12:35:46Z</time>
      </trkpt>
      <trkpt lat="47.28236" lon="-2.51007">
        <ele>2.06</ele>
        <time>2017-03-29T12:35:53Z</time>
      </trkpt>
      <trkpt lat="47.28236" lon="-2.50994">
        <ele>2.54</ele>
        <time>2017-03-29T12:35:59Z</time>
      </trkpt>
      <trkpt lat="47.28238" lon="-2.50979">
        <ele>5.91</ele>
        <time>2017-03-29T12:36:06Z</time>
      </trkpt>
      <trkpt lat="47.28237" lon="-2.50965">
        <ele>2.54</ele>
        <time>2017-03-29T12:36:13Z</time>
      </trkpt>
      <trkpt lat="47.28235" lon="-2.5095">
        <ele>0.62</ele>
        <time>2017-03-29T12:36:20Z</time>
      </trkpt>
      <trkpt lat="47.28234" lon="-2.50936">
        <ele>0.62</ele>
        <time>2017-03-29T12:36:27Z</time>
      </trkpt>
      <trkpt lat="47.28231" lon="-2.50923">
        <ele>-0.34</ele>
        <time>2017-03-29T12:36:33Z</time>
      </trkpt>
      <trkpt lat="47.28229" lon="-2.5091">
        <ele>-0.34</ele>
        <time>2017-03-29T12:36:39Z</time>
      </trkpt>
      <trkpt lat="47.28226" lon="-2.50895">
        <ele>-0.34</ele>
        <time>2017-03-29T12:36:46Z</time>
      </trkpt>
      <trkpt lat="47.28222" lon="-2.50882">
        <ele>-0.34</ele>
        <time>2017-03-29T12:36:52Z</time>
      </trkpt>
      <trkpt lat="47.28219" lon="-2.50869">
        <ele>-0.82</ele>
        <time>2017-03-29T12:36:58Z</time>
      </trkpt>
      <trkpt lat="47.28216" lon="-2.50856">
        <ele>3.98</ele>
        <time>2017-03-29T12:37:04Z</time>
      </trkpt>
      <trkpt lat="47.28212" lon="-2.50843">
        <ele>4.46</ele>
        <time>2017-03-29T12:37:11Z</time>
      </trkpt>
      <trkpt lat="47.28206" lon="-2.5083">
        <ele>6.39</ele>
        <time>2017-03-29T12:37:18Z</time>
      </trkpt>
      <trkpt lat="47.28202" lon="-2.50815">
        <ele>5.42</ele>
        <time>2017-03-29T12:37:25Z</time>
      </trkpt>
      <trkpt lat="47.28203" lon="-2.50799">
        <ele>3.02</ele>
        <time>2017-03-29T12:37:32Z</time>
      </trkpt>
      <trkpt lat="47.28203" lon="-2.50786">
        <ele>5.42</ele>
        <time>2017-03-29T12:37:38Z</time>
      </trkpt>
      <trkpt lat="47.282" lon="-2.50772">
        <ele>4.94</ele>
        <time>2017-03-29T12:37:45Z</time>
      </trkpt>
      <trkpt lat="47.28196" lon="-2.5076">
        <ele>4.94</ele>
        <time>2017-03-29T12:37:51Z</time>
      </trkpt>
      <trkpt lat="47.28192" lon="-2.50748">
        <ele>5.42</ele>
        <time>2017-03-29T12:37:57Z</time>
      </trkpt>
      <trkpt lat="47.28188" lon="-2.50734">
        <ele>2.54</ele>
        <time>2017-03-29T12:38:04Z</time>
      </trkpt>
      <trkpt lat="47.28185" lon="-2.50721">
        <ele>3.5</ele>
        <time>2017-03-29T12:38:11Z</time>
      </trkpt>
      <trkpt lat="47.28183" lon="-2.50706">
        <ele>3.98</ele>
        <time>2017-03-29T12:38:18Z</time>
      </trkpt>
      <trkpt lat="47.28181" lon="-2.50691">
        <ele>3.98</ele>
        <time>2017-03-29T12:38:25Z</time>
      </trkpt>
      <trkpt lat="47.28178" lon="-2.50676">
        <ele>3.5</ele>
        <time>2017-03-29T12:38:32Z</time>
      </trkpt>
      <trkpt lat="47.28175" lon="-2.50662">
        <ele>2.06</ele>
        <time>2017-03-29T12:38:39Z</time>
      </trkpt>
      <trkpt lat="47.28172" lon="-2.50648">
        <ele>1.1</ele>
        <time>2017-03-29T12:38:46Z</time>
      </trkpt>
      <trkpt lat="47.28167" lon="-2.50635">
        <ele>4.94</ele>
        <time>2017-03-29T12:38:53Z</time>
      </trkpt>
      <trkpt lat="47.28162" lon="-2.50623">
        <ele>3.98</ele>
        <time>2017-03-29T12:38:59Z</time>
      </trkpt>
      <trkpt lat="47.28153" lon="-2.50615">
        <ele>2.54</ele>
        <time>2017-03-29T12:39:06Z</time>
      </trkpt>
      <trkpt lat="47.28143" lon="-2.50611">
        <ele>6.87</ele>
        <time>2017-03-29T12:39:13Z</time>
      </trkpt>
      <trkpt lat="47.28134" lon="-2.50607">
        <ele>3.02</ele>
        <time>2017-03-29T12:39:20Z</time>
      </trkpt>
      <trkpt lat="47.28125" lon="-2.50601">
        <ele>3.02</ele>
        <time>2017-03-29T12:39:27Z</time>
      </trkpt>
      <trkpt lat="47.28119" lon="-2.5059">
        <ele>5.42</ele>
        <time>2017-03-29T12:39:34Z</time>
      </trkpt>
      <trkpt lat="47.28112" lon="-2.50581">
        <ele>2.06</ele>
        <time>2017-03-29T12:39:41Z</time>
      </trkpt>
      <trkpt lat="47.28103" lon="-2.50577">
        <ele>0.62</ele>
        <time>2017-03-29T12:39:48Z</time>
      </trkpt>
      <trkpt lat="47.28094" lon="-2.50571">
        <ele>4.94</ele>
        <time>2017-03-29T12:39:55Z</time>
      </trkpt>
      <trkpt lat="47.28086" lon="-2.50567">
        <ele>3.98</ele>
        <time>2017-03-29T12:40:03Z</time>
      </trkpt>
      <trkpt lat="47.28077" lon="-2.50564">
        <ele>2.54</ele>
        <time>2017-03-29T12:40:14Z</time>
      </trkpt>
      <trkpt lat="47.28068" lon="-2.50559">
        <ele>3.02</ele>
        <time>2017-03-29T12:40:23Z</time>
      </trkpt>
      <trkpt lat="47.2806" lon="-2.5055">
        <ele>2.54</ele>
        <time>2017-03-29T12:40:32Z</time>
      </trkpt>
      <trkpt lat="47.28053" lon="-2.5054">
        <ele>1.58</ele>
        <time>2017-03-29T12:40:40Z</time>
      </trkpt>
      <trkpt lat="47.28045" lon="-2.50532">
        <ele>4.94</ele>
        <time>2017-03-29T12:41:07Z</time>
      </trkpt>
      <trkpt lat="47.28039" lon="-2.50524">
        <ele>4.46</ele>
        <time>2017-03-29T12:41:15Z</time>
      </trkpt>
      <trkpt lat="47.28039" lon="-2.50508">
        <ele>0.14</ele>
        <time>2017-03-29T12:41:26Z</time>
      </trkpt>
      <trkpt lat="47.2804" lon="-2.50493">
        <ele>2.54</ele>
        <time>2017-03-29T12:41:34Z</time>
      </trkpt>
      <trkpt lat="47.28043" lon="-2.5048">
        <ele>2.54</ele>
        <time>2017-03-29T12:41:42Z</time>
      </trkpt>
      <trkpt lat="47.28042" lon="-2.50465">
        <ele>1.1</ele>
        <time>2017-03-29T12:41:53Z</time>
      </trkpt>
      <trkpt lat="47.28038" lon="-2.50451">
        <ele>2.54</ele>
        <time>2017-03-29T12:42:04Z</time>
      </trkpt>
      <trkpt lat="47.28041" lon="-2.50438">
        <ele>3.5</ele>
        <time>2017-03-29T12:42:14Z</time>
      </trkpt>
      <trkpt lat="47.28041" lon="-2.50423">
        <ele>1.1</ele>
        <time>2017-03-29T12:42:23Z</time>
      </trkpt>
      <trkpt lat="47.28045" lon="-2.50409">
        <ele>2.54</ele>
        <time>2017-03-29T12:42:33Z</time>
      </trkpt>
      <trkpt lat="47.28054" lon="-2.50404">
        <ele>1.58</ele>
        <time>2017-03-29T12:42:43Z</time>
      </trkpt>
      <trkpt lat="47.28064" lon="-2.50405">
        <ele>3.02</ele>
        <time>2017-03-29T12:42:54Z</time>
      </trkpt>
      <trkpt lat="47.28072" lon="-2.50397">
        <ele>-1.79</ele>
        <time>2017-03-29T12:43:06Z</time>
      </trkpt>
      <trkpt lat="47.28079" lon="-2.50386">
        <ele>-0.34</ele>
        <time>2017-03-29T12:43:14Z</time>
      </trkpt>
      <trkpt lat="47.28087" lon="-2.50377">
        <ele>-0.34</ele>
        <time>2017-03-29T12:43:30Z</time>
      </trkpt>
      <trkpt lat="47.28092" lon="-2.50363">
        <ele>4.94</ele>
        <time>2017-03-29T12:43:38Z</time>
      </trkpt>
      <trkpt lat="47.28098" lon="-2.50351">
        <ele>4.46</ele>
        <time>2017-03-29T12:43:46Z</time>
      </trkpt>
      <trkpt lat="47.28102" lon="-2.50339">
        <ele>3.5</ele>
        <time>2017-03-29T12:43:53Z</time>
      </trkpt>
      <trkpt lat="47.28105" lon="-2.50325">
        <ele>0.14</ele>
        <time>2017-03-29T12:44:00Z</time>
      </trkpt>
      <trkpt lat="47.28109" lon="-2.50311">
        <ele>2.06</ele>
        <time>2017-03-29T12:44:08Z</time>
      </trkpt>
      <trkpt lat="47.28113" lon="-2.50299">
        <ele>3.02</ele>
        <time>2017-03-29T12:44:16Z</time>
      </trkpt>
      <trkpt lat="47.28114" lon="-2.50284">
        <ele>2.54</ele>
        <time>2017-03-29T12:44:24Z</time>
      </trkpt>
      <trkpt lat="47.28115" lon="-2.50269">
        <ele>4.46</ele>
        <time>2017-03-29T12:44:32Z</time>
      </trkpt>
      <trkpt lat="47.28114" lon="-2.50255">
        <ele>3.02</ele>
        <time>2017-03-29T12:44:40Z</time>
      </trkpt>
      <trkpt lat="47.28113" lon="-2.50241">
        <ele>3.5</ele>
        <time>2017-03-29T12:44:48Z</time>
      </trkpt>
      <trkpt lat="47.28113" lon="-2.50227">
        <ele>3.98</ele>
        <time>2017-03-29T12:44:55Z</time>
      </trkpt>
      <trkpt lat="47.28112" lon="-2.50213">
        <ele>3.98</ele>
        <time>2017-03-29T12:45:03Z</time>
      </trkpt>
      <trkpt lat="47.28111" lon="-2.502">
        <ele>3.02</ele>
        <time>2017-03-29T12:45:10Z</time>
      </trkpt>
      <trkpt lat="47.28112" lon="-2.50186">
        <ele>3.02</ele>
        <time>2017-03-29T12:45:18Z</time>
      </trkpt>
      <trkpt lat="47.28117" lon="-2.50179">
        <ele>2.06</ele>
        <time>2017-03-29T12:45:29Z</time>
      </trkpt>
      <trkpt lat="47.28124" lon="-2.50172">
        <ele>6.87</ele>
        <time>2017-03-29T12:45:38Z</time>
      </trkpt>
      <trkpt lat="47.28133" lon="-2.50172">
        <ele>5.42</ele>
        <time>2017-03-29T12:45:47Z</time>
      </trkpt>
      <trkpt lat="47.28124" lon="-2.50177">
        <ele>4.94</ele>
        <time>2017-03-29T12:45:55Z</time>
      </trkpt>
      <trkpt lat="47.28116" lon="-2.50179">
        <ele>3.02</ele>
        <time>2017-03-29T12:46:01Z</time>
      </trkpt>
      <trkpt lat="47.28105" lon="-2.50184">
        <ele>2.06</ele>
        <time>2017-03-29T12:46:11Z</time>
      </trkpt>
      <trkpt lat="47.28099" lon="-2.50181">
        <ele>1.58</ele>
        <time>2017-03-29T12:46:20Z</time>
      </trkpt>
      <trkpt lat="47.28094" lon="-2.50165">
        <ele>0.14</ele>
        <time>2017-03-29T12:46:29Z</time>
      </trkpt>
      <trkpt lat="47.28091" lon="-2.50152">
        <ele>-0.34</ele>
        <time>2017-03-29T12:46:37Z</time>
      </trkpt>
      <trkpt lat="47.28089" lon="-2.50137">
        <ele>0.14</ele>
        <time>2017-03-29T12:46:45Z</time>
      </trkpt>
      <trkpt lat="47.28087" lon="-2.50123">
        <ele>-2.27</ele>
        <time>2017-03-29T12:46:53Z</time>
      </trkpt>
      <trkpt lat="47.28084" lon="-2.50109">
        <ele>-0.82</ele>
        <time>2017-03-29T12:47:01Z</time>
      </trkpt>
      <trkpt lat="47.28081" lon="-2.50096">
        <ele>0.14</ele>
        <time>2017-03-29T12:47:08Z</time>
      </trkpt>
      <trkpt lat="47.28078" lon="-2.50082">
        <ele>-0.34</ele>
        <time>2017-03-29T12:47:16Z</time>
      </trkpt>
      <trkpt lat="47.28074" lon="-2.50069">
        <ele>-1.79</ele>
        <time>2017-03-29T12:47:24Z</time>
      </trkpt>
      <trkpt lat="47.28072" lon="-2.50054">
        <ele>-4.19</ele>
        <time>2017-03-29T12:47:32Z</time>
      </trkpt>
      <trkpt lat="47.28068" lon="-2.5004">
        <ele>-5.63</ele>
        <time>2017-03-29T12:47:40Z</time>
      </trkpt>
      <trkpt lat="47.28065" lon="-2.50028">
        <ele>0.14</ele>
        <time>2017-03-29T12:47:48Z</time>
      </trkpt>
      <trkpt lat="47.28061" lon="-2.50014">
        <ele>-1.79</ele>
        <time>2017-03-29T12:47:55Z</time>
      </trkpt>
      <trkpt lat="47.28058" lon="-2.50001">
        <ele>-2.27</ele>
        <time>2017-03-29T12:48:02Z</time>
      </trkpt>
      <trkpt lat="47.28056" lon="-2.49988">
        <ele>-1.79</ele>
        <time>2017-03-29T12:48:10Z</time>
      </trkpt>
      <trkpt lat="47.28052" lon="-2.49975">
        <ele>-4.19</ele>
        <time>2017-03-29T12:48:17Z</time>
      </trkpt>
      <trkpt lat="47.28047" lon="-2.49963">
        <ele>-5.15</ele>
        <time>2017-03-29T12:48:25Z</time>
      </trkpt>
      <trkpt lat="47.28045" lon="-2.49951">
        <ele>-1.3</ele>
        <time>2017-03-29T12:48:32Z</time>
      </trkpt>
      <trkpt lat="47.28042" lon="-2.49938">
        <ele>-1.3</ele>
        <time>2017-03-29T12:48:39Z</time>
      </trkpt>
      <trkpt lat="47.28039" lon="-2.49926">
        <ele>-3.23</ele>
        <time>2017-03-29T12:48:46Z</time>
      </trkpt>
      <trkpt lat="47.28035" lon="-2.49914">
        <ele>-7.07</ele>
        <time>2017-03-29T12:48:53Z</time>
      </trkpt>
      <trkpt lat="47.28032" lon="-2.499">
        <ele>1.1</ele>
        <time>2017-03-29T12:49:01Z</time>
      </trkpt>
      <trkpt lat="47.2803" lon="-2.49888">
        <ele>-3.71</ele>
        <time>2017-03-29T12:49:08Z</time>
      </trkpt>
      <trkpt lat="47.28028" lon="-2.49875">
        <ele>-3.23</ele>
        <time>2017-03-29T12:49:16Z</time>
      </trkpt>
      <trkpt lat="47.28024" lon="-2.49861">
        <ele>-3.23</ele>
        <time>2017-03-29T12:49:24Z</time>
      </trkpt>
      <trkpt lat="47.2802" lon="-2.49849">
        <ele>-0.34</ele>
        <time>2017-03-29T12:49:32Z</time>
      </trkpt>
      <trkpt lat="47.28016" lon="-2.49837">
        <ele>-1.79</ele>
        <time>2017-03-29T12:49:39Z</time>
      </trkpt>
      <trkpt lat="47.28011" lon="-2.49824">
        <ele>-0.82</ele>
        <time>2017-03-29T12:49:47Z</time>
      </trkpt>
      <trkpt lat="47.28007" lon="-2.49811">
        <ele>0.14</ele>
        <time>2017-03-29T12:49:55Z</time>
      </trkpt>
      <trkpt lat="47.28002" lon="-2.498">
        <ele>-1.3</ele>
        <time>2017-03-29T12:50:02Z</time>
      </trkpt>
      <trkpt lat="47.27996" lon="-2.49787">
        <ele>-0.34</ele>
        <time>2017-03-29T12:50:10Z</time>
      </trkpt>
      <trkpt lat="47.2799" lon="-2.49776">
        <ele>-2.75</ele>
        <time>2017-03-29T12:50:18Z</time>
      </trkpt>
      <trkpt lat="47.27986" lon="-2.49765">
        <ele>1.1</ele>
        <time>2017-03-29T12:50:25Z</time>
      </trkpt>
      <trkpt lat="47.27982" lon="-2.49754">
        <ele>-5.15</ele>
        <time>2017-03-29T12:50:32Z</time>
      </trkpt>
      <trkpt lat="47.27978" lon="-2.4974">
        <ele>0.14</ele>
        <time>2017-03-29T12:50:40Z</time>
      </trkpt>
      <trkpt lat="47.27972" lon="-2.49729">
        <ele>-3.71</ele>
        <time>2017-03-29T12:50:48Z</time>
      </trkpt>
      <trkpt lat="47.27966" lon="-2.49718">
        <ele>-0.34</ele>
        <time>2017-03-29T12:50:56Z</time>
      </trkpt>
      <trkpt lat="47.2796" lon="-2.49707">
        <ele>-3.71</ele>
        <time>2017-03-29T12:51:04Z</time>
      </trkpt>
      <trkpt lat="47.27953" lon="-2.49695">
        <ele>-0.34</ele>
        <time>2017-03-29T12:51:12Z</time>
      </trkpt>
      <trkpt lat="47.27947" lon="-2.49685">
        <ele>0.62</ele>
        <time>2017-03-29T12:51:19Z</time>
      </trkpt>
      <trkpt lat="47.27942" lon="-2.49674">
        <ele>-1.79</ele>
        <time>2017-03-29T12:51:26Z</time>
      </trkpt>
      <trkpt lat="47.27936" lon="-2.49664">
        <ele>-1.79</ele>
        <time>2017-03-29T12:51:33Z</time>
      </trkpt>
      <trkpt lat="47.27929" lon="-2.49653">
        <ele>-1.79</ele>
        <time>2017-03-29T12:51:41Z</time>
      </trkpt>
      <trkpt lat="47.27924" lon="-2.49643">
        <ele>-4.19</ele>
        <time>2017-03-29T12:51:48Z</time>
      </trkpt>
      <trkpt lat="47.27917" lon="-2.49633">
        <ele>-1.79</ele>
        <time>2017-03-29T12:51:56Z</time>
      </trkpt>
      <trkpt lat="47.2791" lon="-2.49624">
        <ele>0.14</ele>
        <time>2017-03-29T12:52:04Z</time>
      </trkpt>
      <trkpt lat="47.27904" lon="-2.49614">
        <ele>-2.75</ele>
        <time>2017-03-29T12:52:12Z</time>
      </trkpt>
      <trkpt lat="47.27897" lon="-2.49605">
        <ele>-0.34</ele>
        <time>2017-03-29T12:52:20Z</time>
      </trkpt>
      <trkpt lat="47.27891" lon="-2.49593">
        <ele>1.58</ele>
        <time>2017-03-29T12:52:28Z</time>
      </trkpt>
      <trkpt lat="47.27885" lon="-2.49583">
        <ele>-2.75</ele>
        <time>2017-03-29T12:52:35Z</time>
      </trkpt>
      <trkpt lat="47.27879" lon="-2.49574">
        <ele>-0.34</ele>
        <time>2017-03-29T12:52:43Z</time>
      </trkpt>
      <trkpt lat="47.27873" lon="-2.49563">
        <ele>0.62</ele>
        <time>2017-03-29T12:52:51Z</time>
      </trkpt>
      <trkpt lat="47.27868" lon="-2.49552">
        <ele>-0.34</ele>
        <time>2017-03-29T12:52:58Z</time>
      </trkpt>
      <trkpt lat="47.27862" lon="-2.49544">
        <ele>1.58</ele>
        <time>2017-03-29T12:53:06Z</time>
      </trkpt>
      <trkpt lat="47.27855" lon="-2.49534">
        <ele>-0.34</ele>
        <time>2017-03-29T12:53:14Z</time>
      </trkpt>
      <trkpt lat="47.2785" lon="-2.49523">
        <ele>-0.34</ele>
        <time>2017-03-29T12:53:22Z</time>
      </trkpt>
      <trkpt lat="47.27843" lon="-2.49514">
        <ele>1.1</ele>
        <time>2017-03-29T12:53:30Z</time>
      </trkpt>
      <trkpt lat="47.27835" lon="-2.49506">
        <ele>1.1</ele>
        <time>2017-03-29T12:53:39Z</time>
      </trkpt>
      <trkpt lat="47.27828" lon="-2.49495">
        <ele>2.06</ele>
        <time>2017-03-29T12:53:47Z</time>
      </trkpt>
      <trkpt lat="47.27822" lon="-2.49486">
        <ele>0.14</ele>
        <time>2017-03-29T12:53:54Z</time>
      </trkpt>
      <trkpt lat="47.27816" lon="-2.49476">
        <ele>2.54</ele>
        <time>2017-03-29T12:54:02Z</time>
      </trkpt>
      <trkpt lat="47.2781" lon="-2.49466">
        <ele>1.58</ele>
        <time>2017-03-29T12:54:11Z</time>
      </trkpt>
      <trkpt lat="47.27804" lon="-2.49456">
        <ele>3.98</ele>
        <time>2017-03-29T12:54:19Z</time>
      </trkpt>
      <trkpt lat="47.278" lon="-2.49446">
        <ele>3.02</ele>
        <time>2017-03-29T12:54:29Z</time>
      </trkpt>
      <trkpt lat="47.27803" lon="-2.49433">
        <ele>3.5</ele>
        <time>2017-03-29T12:54:43Z</time>
      </trkpt>
      <trkpt lat="47.27807" lon="-2.49418">
        <ele>6.39</ele>
        <time>2017-03-29T12:54:57Z</time>
      </trkpt>
      <trkpt lat="47.27808" lon="-2.49404">
        <ele>7.35</ele>
        <time>2017-03-29T12:55:08Z</time>
      </trkpt>
      <trkpt lat="47.27807" lon="-2.49391">
        <ele>4.46</ele>
        <time>2017-03-29T12:55:17Z</time>
      </trkpt>
      <trkpt lat="47.27809" lon="-2.49376">
        <ele>6.39</ele>
        <time>2017-03-29T12:55:25Z</time>
      </trkpt>
      <trkpt lat="47.27812" lon="-2.49363">
        <ele>6.87</ele>
        <time>2017-03-29T12:55:34Z</time>
      </trkpt>
      <trkpt lat="47.27816" lon="-2.49347">
        <ele>6.87</ele>
        <time>2017-03-29T12:55:43Z</time>
      </trkpt>
      <trkpt lat="47.2782" lon="-2.49332">
        <ele>6.39</ele>
        <time>2017-03-29T12:55:51Z</time>
      </trkpt>
      <trkpt lat="47.27824" lon="-2.49317">
        <ele>8.31</ele>
        <time>2017-03-29T12:55:59Z</time>
      </trkpt>
      <trkpt lat="47.27828" lon="-2.49303">
        <ele>6.87</ele>
        <time>2017-03-29T12:56:07Z</time>
      </trkpt>
      <trkpt lat="47.27832" lon="-2.4929">
        <ele>6.87</ele>
        <time>2017-03-29T12:56:15Z</time>
      </trkpt>
      <trkpt lat="47.27831" lon="-2.49278">
        <ele>7.35</ele>
        <time>2017-03-29T12:56:23Z</time>
      </trkpt>
      <trkpt lat="47.27822" lon="-2.49273">
        <ele>6.39</ele>
        <time>2017-03-29T12:56:31Z</time>
      </trkpt>
      <trkpt lat="47.27811" lon="-2.49271">
        <ele>7.83</ele>
        <time>2017-03-29T12:56:39Z</time>
      </trkpt>
      <trkpt lat="47.27801" lon="-2.49267">
        <ele>6.39</ele>
        <time>2017-03-29T12:56:47Z</time>
      </trkpt>
      <trkpt lat="47.27791" lon="-2.49266">
        <ele>5.42</ele>
        <time>2017-03-29T12:56:55Z</time>
      </trkpt>
      <trkpt lat="47.27781" lon="-2.49265">
        <ele>8.79</ele>
        <time>2017-03-29T12:57:03Z</time>
      </trkpt>
      <trkpt lat="47.27772" lon="-2.49264">
        <ele>5.91</ele>
        <time>2017-03-29T12:57:10Z</time>
      </trkpt>
      <trkpt lat="47.27762" lon="-2.49263">
        <ele>4.46</ele>
        <time>2017-03-29T12:57:18Z</time>
      </trkpt>
      <trkpt lat="47.27752" lon="-2.49265">
        <ele>5.42</ele>
        <time>2017-03-29T12:57:25Z</time>
      </trkpt>
      <trkpt lat="47.27742" lon="-2.49262">
        <ele>6.39</ele>
        <time>2017-03-29T12:57:33Z</time>
      </trkpt>
      <trkpt lat="47.27732" lon="-2.49261">
        <ele>6.87</ele>
        <time>2017-03-29T12:57:40Z</time>
      </trkpt>
      <trkpt lat="47.27723" lon="-2.49262">
        <ele>4.46</ele>
        <time>2017-03-29T12:57:48Z</time>
      </trkpt>
      <trkpt lat="47.27713" lon="-2.4926">
        <ele>5.91</ele>
        <time>2017-03-29T12:57:56Z</time>
      </trkpt>
      <trkpt lat="47.27702" lon="-2.49258">
        <ele>8.31</ele>
        <time>2017-03-29T12:58:05Z</time>
      </trkpt>
      <trkpt lat="47.27692" lon="-2.49256">
        <ele>8.31</ele>
        <time>2017-03-29T12:58:13Z</time>
      </trkpt>
      <trkpt lat="47.27683" lon="-2.49256">
        <ele>6.39</ele>
        <time>2017-03-29T12:58:21Z</time>
      </trkpt>
      <trkpt lat="47.27672" lon="-2.49254">
        <ele>4.94</ele>
        <time>2017-03-29T12:58:29Z</time>
      </trkpt>
      <trkpt lat="47.27662" lon="-2.49251">
        <ele>6.87</ele>
        <time>2017-03-29T12:58:37Z</time>
      </trkpt>
      <trkpt lat="47.27653" lon="-2.49249">
        <ele>5.91</ele>
        <time>2017-03-29T12:58:45Z</time>
      </trkpt>
      <trkpt lat="47.2764" lon="-2.4925">
        <ele>4.46</ele>
        <time>2017-03-29T12:58:53Z</time>
      </trkpt>
      <trkpt lat="47.27631" lon="-2.49248">
        <ele>6.39</ele>
        <time>2017-03-29T12:59:01Z</time>
      </trkpt>
      <trkpt lat="47.2762" lon="-2.49247">
        <ele>5.42</ele>
        <time>2017-03-29T12:59:09Z</time>
      </trkpt>
      <trkpt lat="47.27611" lon="-2.49244">
        <ele>5.42</ele>
        <time>2017-03-29T12:59:17Z</time>
      </trkpt>
      <trkpt lat="47.27601" lon="-2.49245">
        <ele>6.39</ele>
        <time>2017-03-29T12:59:26Z</time>
      </trkpt>
      <trkpt lat="47.27592" lon="-2.49245">
        <ele>3.5</ele>
        <time>2017-03-29T12:59:34Z</time>
      </trkpt>
      <trkpt lat="47.27582" lon="-2.49243">
        <ele>4.46</ele>
        <time>2017-03-29T12:59:42Z</time>
      </trkpt>
      <trkpt lat="47.27574" lon="-2.49234">
        <ele>6.39</ele>
        <time>2017-03-29T12:59:50Z</time>
      </trkpt>
      <trkpt lat="47.27568" lon="-2.49221">
        <ele>3.5</ele>
        <time>2017-03-29T13:00:00Z</time>
      </trkpt>
      <trkpt lat="47.27564" lon="-2.49208">
        <ele>3.02</ele>
        <time>2017-03-29T13:00:09Z</time>
      </trkpt>
      <trkpt lat="47.27561" lon="-2.49194">
        <ele>3.5</ele>
        <time>2017-03-29T13:00:19Z</time>
      </trkpt>
      <trkpt lat="47.27558" lon="-2.49181">
        <ele>1.58</ele>
        <time>2017-03-29T13:00:29Z</time>
      </trkpt>
      <trkpt lat="47.27555" lon="-2.49167">
        <ele>2.54</ele>
        <time>2017-03-29T13:00:39Z</time>
      </trkpt>
      <trkpt lat="47.27552" lon="-2.49154">
        <ele>3.02</ele>
        <time>2017-03-29T13:00:52Z</time>
      </trkpt>
      <trkpt lat="47.27551" lon="-2.49139">
        <ele>5.42</ele>
        <time>2017-03-29T13:01:02Z</time>
      </trkpt>
      <trkpt lat="47.27548" lon="-2.49126">
        <ele>0.62</ele>
        <time>2017-03-29T13:01:10Z</time>
      </trkpt>
      <trkpt lat="47.27546" lon="-2.49111">
        <ele>2.54</ele>
        <time>2017-03-29T13:01:18Z</time>
      </trkpt>
      <trkpt lat="47.27545" lon="-2.49097">
        <ele>6.39</ele>
        <time>2017-03-29T13:01:26Z</time>
      </trkpt>
      <trkpt lat="47.27541" lon="-2.49083">
        <ele>3.02</ele>
        <time>2017-03-29T13:01:34Z</time>
      </trkpt>
      <trkpt lat="47.27539" lon="-2.4907">
        <ele>8.31</ele>
        <time>2017-03-29T13:01:43Z</time>
      </trkpt>
      <trkpt lat="47.27538" lon="-2.49055">
        <ele>7.83</ele>
        <time>2017-03-29T13:01:51Z</time>
      </trkpt>
      <trkpt lat="47.27537" lon="-2.49041">
        <ele>6.87</ele>
        <time>2017-03-29T13:01:58Z</time>
      </trkpt>
      <trkpt lat="47.27535" lon="-2.49028">
        <ele>5.91</ele>
        <time>2017-03-29T13:02:05Z</time>
      </trkpt>
      <trkpt lat="47.27532" lon="-2.49015">
        <ele>5.91</ele>
        <time>2017-03-29T13:02:13Z</time>
      </trkpt>
      <trkpt lat="47.27531" lon="-2.49">
        <ele>3.98</ele>
        <time>2017-03-29T13:02:20Z</time>
      </trkpt>
      <trkpt lat="47.2753" lon="-2.48986">
        <ele>4.46</ele>
        <time>2017-03-29T13:02:27Z</time>
      </trkpt>
      <trkpt lat="47.2753" lon="-2.48972">
        <ele>6.87</ele>
        <time>2017-03-29T13:02:34Z</time>
      </trkpt>
      <trkpt lat="47.27529" lon="-2.48957">
        <ele>3.98</ele>
        <time>2017-03-29T13:02:41Z</time>
      </trkpt>
      <trkpt lat="47.27527" lon="-2.48943">
        <ele>1.1</ele>
        <time>2017-03-29T13:02:49Z</time>
      </trkpt>
      <trkpt lat="47.27525" lon="-2.4893">
        <ele>2.54</ele>
        <time>2017-03-29T13:02:56Z</time>
      </trkpt>
      <trkpt lat="47.27518" lon="-2.4892">
        <ele>1.58</ele>
        <time>2017-03-29T13:03:03Z</time>
      </trkpt>
      <trkpt lat="47.27514" lon="-2.48908">
        <ele>4.94</ele>
        <time>2017-03-29T13:03:11Z</time>
      </trkpt>
      <trkpt lat="47.27504" lon="-2.48907">
        <ele>2.06</ele>
        <time>2017-03-29T13:03:18Z</time>
      </trkpt>
      <trkpt lat="47.27496" lon="-2.48902">
        <ele>2.54</ele>
        <time>2017-03-29T13:03:25Z</time>
      </trkpt>
      <trkpt lat="47.2749" lon="-2.48891">
        <ele>3.02</ele>
        <time>2017-03-29T13:03:32Z</time>
      </trkpt>
      <trkpt lat="47.27489" lon="-2.48876">
        <ele>5.42</ele>
        <time>2017-03-29T13:03:40Z</time>
      </trkpt>
      <trkpt lat="47.2749" lon="-2.48862">
        <ele>5.42</ele>
        <time>2017-03-29T13:03:48Z</time>
      </trkpt>
      <trkpt lat="47.27489" lon="-2.48847">
        <ele>2.54</ele>
        <time>2017-03-29T13:03:55Z</time>
      </trkpt>
      <trkpt lat="47.27488" lon="-2.48832">
        <ele>7.83</ele>
        <time>2017-03-29T13:04:02Z</time>
      </trkpt>
      <trkpt lat="47.27486" lon="-2.48818">
        <ele>4.46</ele>
        <time>2017-03-29T13:04:09Z</time>
      </trkpt>
      <trkpt lat="47.27485" lon="-2.48804">
        <ele>4.46</ele>
        <time>2017-03-29T13:04:16Z</time>
      </trkpt>
      <trkpt lat="47.27482" lon="-2.4879">
        <ele>5.42</ele>
        <time>2017-03-29T13:04:23Z</time>
      </trkpt>
      <trkpt lat="47.27487" lon="-2.48777">
        <ele>6.39</ele>
        <time>2017-03-29T13:04:31Z</time>
      </trkpt>
      <trkpt lat="47.27497" lon="-2.48772">
        <ele>3.02</ele>
        <time>2017-03-29T13:04:39Z</time>
      </trkpt>
      <trkpt lat="47.27507" lon="-2.48767">
        <ele>6.87</ele>
        <time>2017-03-29T13:04:47Z</time>
      </trkpt>
      <trkpt lat="47.27515" lon="-2.48758">
        <ele>6.87</ele>
        <time>2017-03-29T13:04:56Z</time>
      </trkpt>
      <trkpt lat="47.27523" lon="-2.48746">
        <ele>9.27</ele>
        <time>2017-03-29T13:05:04Z</time>
      </trkpt>
      <trkpt lat="47.27531" lon="-2.48736">
        <ele>5.42</ele>
        <time>2017-03-29T13:05:11Z</time>
      </trkpt>
      <trkpt lat="47.27533" lon="-2.48722">
        <ele>5.42</ele>
        <time>2017-03-29T13:05:19Z</time>
      </trkpt>
      <trkpt lat="47.27528" lon="-2.4871">
        <ele>5.42</ele>
        <time>2017-03-29T13:05:27Z</time>
      </trkpt>
      <trkpt lat="47.27523" lon="-2.48699">
        <ele>5.91</ele>
        <time>2017-03-29T13:05:35Z</time>
      </trkpt>
      <trkpt lat="47.27512" lon="-2.48697">
        <ele>7.35</ele>
        <time>2017-03-29T13:05:43Z</time>
      </trkpt>
      <trkpt lat="47.27503" lon="-2.48697">
        <ele>9.75</ele>
        <time>2017-03-29T13:05:50Z</time>
      </trkpt>
      <trkpt lat="47.27493" lon="-2.48696">
        <ele>7.83</ele>
        <time>2017-03-29T13:05:57Z</time>
      </trkpt>
      <trkpt lat="47.27485" lon="-2.48689">
        <ele>5.42</ele>
        <time>2017-03-29T13:06:04Z</time>
      </trkpt>
      <trkpt lat="47.27479" lon="-2.48679">
        <ele>3.02</ele>
        <time>2017-03-29T13:06:11Z</time>
      </trkpt>
      <trkpt lat="47.27474" lon="-2.48667">
        <ele>6.87</ele>
        <time>2017-03-29T13:06:19Z</time>
      </trkpt>
      <trkpt lat="47.27471" lon="-2.48654">
        <ele>7.83</ele>
        <time>2017-03-29T13:06:26Z</time>
      </trkpt>
      <trkpt lat="47.27468" lon="-2.48638">
        <ele>5.42</ele>
        <time>2017-03-29T13:06:34Z</time>
      </trkpt>
      <trkpt lat="47.27463" lon="-2.48627">
        <ele>3.5</ele>
        <time>2017-03-29T13:06:41Z</time>
      </trkpt>
      <trkpt lat="47.27462" lon="-2.48613">
        <ele>4.94</ele>
        <time>2017-03-29T13:06:48Z</time>
      </trkpt>
      <trkpt lat="47.27461" lon="-2.48599">
        <ele>6.87</ele>
        <time>2017-03-29T13:06:55Z</time>
      </trkpt>
      <trkpt lat="47.27459" lon="-2.48585">
        <ele>3.5</ele>
        <time>2017-03-29T13:07:02Z</time>
      </trkpt>
      <trkpt lat="47.2746" lon="-2.4857">
        <ele>3.98</ele>
        <time>2017-03-29T13:07:10Z</time>
      </trkpt>
      <trkpt lat="47.27464" lon="-2.48558">
        <ele>5.42</ele>
        <time>2017-03-29T13:07:17Z</time>
      </trkpt>
      <trkpt lat="47.27468" lon="-2.48543">
        <ele>5.42</ele>
        <time>2017-03-29T13:07:25Z</time>
      </trkpt>
      <trkpt lat="47.27467" lon="-2.48529">
        <ele>6.87</ele>
        <time>2017-03-29T13:07:32Z</time>
      </trkpt>
      <trkpt lat="47.27467" lon="-2.48514">
        <ele>5.42</ele>
        <time>2017-03-29T13:07:40Z</time>
      </trkpt>
      <trkpt lat="47.27465" lon="-2.485">
        <ele>6.87</ele>
        <time>2017-03-29T13:07:48Z</time>
      </trkpt>
      <trkpt lat="47.27463" lon="-2.48486">
        <ele>4.46</ele>
        <time>2017-03-29T13:07:55Z</time>
      </trkpt>
      <trkpt lat="47.27463" lon="-2.48471">
        <ele>4.46</ele>
        <time>2017-03-29T13:08:03Z</time>
      </trkpt>
      <trkpt lat="47.27462" lon="-2.48456">
        <ele>6.87</ele>
        <time>2017-03-29T13:08:11Z</time>
      </trkpt>
      <trkpt lat="47.27458" lon="-2.48442">
        <ele>8.31</ele>
        <time>2017-03-29T13:08:19Z</time>
      </trkpt>
      <trkpt lat="47.27456" lon="-2.48429">
        <ele>4.94</ele>
        <time>2017-03-29T13:08:26Z</time>
      </trkpt>
      <trkpt lat="47.27454" lon="-2.48414">
        <ele>6.39</ele>
        <time>2017-03-29T13:08:34Z</time>
      </trkpt>
      <trkpt lat="47.2745" lon="-2.48401">
        <ele>4.46</ele>
        <time>2017-03-29T13:08:42Z</time>
      </trkpt>
      <trkpt lat="47.27446" lon="-2.48388">
        <ele>4.46</ele>
        <time>2017-03-29T13:08:50Z</time>
      </trkpt>
      <trkpt lat="47.27442" lon="-2.48375">
        <ele>8.79</ele>
        <time>2017-03-29T13:08:58Z</time>
      </trkpt>
      <trkpt lat="47.27437" lon="-2.48364">
        <ele>7.35</ele>
        <time>2017-03-29T13:09:05Z</time>
      </trkpt>
      <trkpt lat="47.27432" lon="-2.48351">
        <ele>5.42</ele>
        <time>2017-03-29T13:09:13Z</time>
      </trkpt>
      <trkpt lat="47.27428" lon="-2.48338">
        <ele>6.39</ele>
        <time>2017-03-29T13:09:21Z</time>
      </trkpt>
      <trkpt lat="47.27425" lon="-2.48323">
        <ele>8.79</ele>
        <time>2017-03-29T13:09:29Z</time>
      </trkpt>
      <trkpt lat="47.27423" lon="-2.48308">
        <ele>7.35</ele>
        <time>2017-03-29T13:09:37Z</time>
      </trkpt>
      <trkpt lat="47.27421" lon="-2.48293">
        <ele>7.35</ele>
        <time>2017-03-29T13:09:45Z</time>
      </trkpt>
      <trkpt lat="47.2742" lon="-2.48279">
        <ele>8.31</ele>
        <time>2017-03-29T13:09:52Z</time>
      </trkpt>
      <trkpt lat="47.27418" lon="-2.48266">
        <ele>6.87</ele>
        <time>2017-03-29T13:09:59Z</time>
      </trkpt>
      <trkpt lat="47.27416" lon="-2.48252">
        <ele>4.94</ele>
        <time>2017-03-29T13:10:07Z</time>
      </trkpt>
      <trkpt lat="47.27412" lon="-2.48238">
        <ele>3.98</ele>
        <time>2017-03-29T13:10:15Z</time>
      </trkpt>
      <trkpt lat="47.27409" lon="-2.48225">
        <ele>7.35</ele>
        <time>2017-03-29T13:10:22Z</time>
      </trkpt>
      <trkpt lat="47.27405" lon="-2.48212">
        <ele>7.83</ele>
        <time>2017-03-29T13:10:30Z</time>
      </trkpt>
      <trkpt lat="47.27405" lon="-2.48196">
        <ele>8.79</ele>
        <time>2017-03-29T13:10:38Z</time>
      </trkpt>
      <trkpt lat="47.27403" lon="-2.48182">
        <ele>6.39</ele>
        <time>2017-03-29T13:10:46Z</time>
      </trkpt>
      <trkpt lat="47.27403" lon="-2.48167">
        <ele>4.94</ele>
        <time>2017-03-29T13:10:54Z</time>
      </trkpt>
      <trkpt lat="47.27403" lon="-2.48153">
        <ele>5.42</ele>
        <time>2017-03-29T13:11:02Z</time>
      </trkpt>
      <trkpt lat="47.27403" lon="-2.48138">
        <ele>6.39</ele>
        <time>2017-03-29T13:11:09Z</time>
      </trkpt>
      <trkpt lat="47.27395" lon="-2.48128">
        <ele>3.5</ele>
        <time>2017-03-29T13:11:18Z</time>
      </trkpt>
      <trkpt lat="47.27387" lon="-2.48119">
        <ele>3.98</ele>
        <time>2017-03-29T13:11:26Z</time>
      </trkpt>
      <trkpt lat="47.27379" lon="-2.48111">
        <ele>4.46</ele>
        <time>2017-03-29T13:11:34Z</time>
      </trkpt>
      <trkpt lat="47.2737" lon="-2.48106">
        <ele>7.35</ele>
        <time>2017-03-29T13:11:42Z</time>
      </trkpt>
      <trkpt lat="47.27362" lon="-2.48101">
        <ele>3.98</ele>
        <time>2017-03-29T13:11:49Z</time>
      </trkpt>
      <trkpt lat="47.27354" lon="-2.48097">
        <ele>4.94</ele>
        <time>2017-03-29T13:11:57Z</time>
      </trkpt>
      <trkpt lat="47.27343" lon="-2.48096">
        <ele>5.91</ele>
        <time>2017-03-29T13:12:05Z</time>
      </trkpt>
      <trkpt lat="47.27333" lon="-2.48097">
        <ele>2.54</ele>
        <time>2017-03-29T13:12:12Z</time>
      </trkpt>
      <trkpt lat="47.27324" lon="-2.48095">
        <ele>2.06</ele>
        <time>2017-03-29T13:12:19Z</time>
      </trkpt>
      <trkpt lat="47.27313" lon="-2.48092">
        <ele>2.06</ele>
        <time>2017-03-29T13:12:27Z</time>
      </trkpt>
      <trkpt lat="47.27303" lon="-2.48093">
        <ele>1.58</ele>
        <time>2017-03-29T13:12:34Z</time>
      </trkpt>
      <trkpt lat="47.27294" lon="-2.48092">
        <ele>7.83</ele>
        <time>2017-03-29T13:12:41Z</time>
      </trkpt>
      <trkpt lat="47.27286" lon="-2.48088">
        <ele>6.39</ele>
        <time>2017-03-29T13:12:49Z</time>
      </trkpt>
      <trkpt lat="47.27276" lon="-2.48086">
        <ele>7.83</ele>
        <time>2017-03-29T13:12:57Z</time>
      </trkpt>
      <trkpt lat="47.27272" lon="-2.48075">
        <ele>8.31</ele>
        <time>2017-03-29T13:13:05Z</time>
      </trkpt>
      <trkpt lat="47.27271" lon="-2.4806">
        <ele>10.71</ele>
        <time>2017-03-29T13:13:13Z</time>
      </trkpt>
      <trkpt lat="47.27267" lon="-2.48048">
        <ele>9.27</ele>
        <time>2017-03-29T13:13:20Z</time>
      </trkpt>
      <trkpt lat="47.27266" lon="-2.48034">
        <ele>8.31</ele>
        <time>2017-03-29T13:13:28Z</time>
      </trkpt>
      <trkpt lat="47.27263" lon="-2.4802">
        <ele>9.75</ele>
        <time>2017-03-29T13:13:36Z</time>
      </trkpt>
      <trkpt lat="47.27262" lon="-2.48006">
        <ele>7.35</ele>
        <time>2017-03-29T13:13:45Z</time>
      </trkpt>
      <trkpt lat="47.27262" lon="-2.47991">
        <ele>5.91</ele>
        <time>2017-03-29T13:13:53Z</time>
      </trkpt>
      <trkpt lat="47.27267" lon="-2.47978">
        <ele>6.87</ele>
        <time>2017-03-29T13:14:01Z</time>
      </trkpt>
      <trkpt lat="47.27272" lon="-2.47964">
        <ele>6.39</ele>
        <time>2017-03-29T13:14:09Z</time>
      </trkpt>
      <trkpt lat="47.27276" lon="-2.47953">
        <ele>3.02</ele>
        <time>2017-03-29T13:14:17Z</time>
      </trkpt>
      <trkpt lat="47.27279" lon="-2.47939">
        <ele>2.54</ele>
        <time>2017-03-29T13:14:25Z</time>
      </trkpt>
      <trkpt lat="47.27282" lon="-2.47926">
        <ele>2.06</ele>
        <time>2017-03-29T13:14:33Z</time>
      </trkpt>
      <trkpt lat="47.27282" lon="-2.47912">
        <ele>3.98</ele>
        <time>2017-03-29T13:14:42Z</time>
      </trkpt>
      <trkpt lat="47.27281" lon="-2.47898">
        <ele>4.94</ele>
        <time>2017-03-29T13:14:50Z</time>
      </trkpt>
      <trkpt lat="47.2728" lon="-2.47883">
        <ele>2.06</ele>
        <time>2017-03-29T13:14:58Z</time>
      </trkpt>
      <trkpt lat="47.2728" lon="-2.47868">
        <ele>4.46</ele>
        <time>2017-03-29T13:15:06Z</time>
      </trkpt>
      <trkpt lat="47.27282" lon="-2.47856">
        <ele>2.06</ele>
        <time>2017-03-29T13:15:18Z</time>
      </trkpt>
      <trkpt lat="47.27278" lon="-2.47844">
        <ele>6.87</ele>
        <time>2017-03-29T13:15:28Z</time>
      </trkpt>
      <trkpt lat="47.2727" lon="-2.47836">
        <ele>5.42</ele>
        <time>2017-03-29T13:15:36Z</time>
      </trkpt>
      <trkpt lat="47.27262" lon="-2.47826">
        <ele>6.39</ele>
        <time>2017-03-29T13:16:02Z</time>
      </trkpt>
      <trkpt lat="47.27255" lon="-2.47818">
        <ele>3.98</ele>
        <time>2017-03-29T13:16:09Z</time>
      </trkpt>
      <trkpt lat="47.27248" lon="-2.47807">
        <ele>6.87</ele>
        <time>2017-03-29T13:16:17Z</time>
      </trkpt>
      <trkpt lat="47.27241" lon="-2.478">
        <ele>5.91</ele>
        <time>2017-03-29T13:16:25Z</time>
      </trkpt>
      <trkpt lat="47.27232" lon="-2.47804">
        <ele>6.39</ele>
        <time>2017-03-29T13:16:38Z</time>
      </trkpt>
      <trkpt lat="47.27222" lon="-2.47809">
        <ele>3.98</ele>
        <time>2017-03-29T13:16:46Z</time>
      </trkpt>
      <trkpt lat="47.27214" lon="-2.47804">
        <ele>7.83</ele>
        <time>2017-03-29T13:16:54Z</time>
      </trkpt>
      <trkpt lat="47.27208" lon="-2.47794">
        <ele>5.42</ele>
        <time>2017-03-29T13:17:04Z</time>
      </trkpt>
      <trkpt lat="47.272" lon="-2.47787">
        <ele>7.83</ele>
        <time>2017-03-29T13:17:34Z</time>
      </trkpt>
      <trkpt lat="47.27195" lon="-2.47774">
        <ele>5.42</ele>
        <time>2017-03-29T13:17:42Z</time>
      </trkpt>
      <trkpt lat="47.27189" lon="-2.47762">
        <ele>7.83</ele>
        <time>2017-03-29T13:17:49Z</time>
      </trkpt>
      <trkpt lat="47.27189" lon="-2.47747">
        <ele>3.5</ele>
        <time>2017-03-29T13:17:58Z</time>
      </trkpt>
      <trkpt lat="47.27188" lon="-2.47734">
        <ele>3.5</ele>
        <time>2017-03-29T13:18:08Z</time>
      </trkpt>
      <trkpt lat="47.27187" lon="-2.47719">
        <ele>5.91</ele>
        <time>2017-03-29T13:18:16Z</time>
      </trkpt>
      <trkpt lat="47.27186" lon="-2.47705">
        <ele>2.06</ele>
        <time>2017-03-29T13:18:24Z</time>
      </trkpt>
      <trkpt lat="47.27184" lon="-2.47691">
        <ele>4.94</ele>
        <time>2017-03-29T13:18:33Z</time>
      </trkpt>
      <trkpt lat="47.27179" lon="-2.47678">
        <ele>2.54</ele>
        <time>2017-03-29T13:18:43Z</time>
      </trkpt>
      <trkpt lat="47.27173" lon="-2.47666">
        <ele>4.46</ele>
        <time>2017-03-29T13:19:02Z</time>
      </trkpt>
      <trkpt lat="47.27167" lon="-2.47655">
        <ele>3.5</ele>
        <time>2017-03-29T13:19:11Z</time>
      </trkpt>
      <trkpt lat="47.27163" lon="-2.47642">
        <ele>3.02</ele>
        <time>2017-03-29T13:19:19Z</time>
      </trkpt>
      <trkpt lat="47.27159" lon="-2.47631">
        <ele>5.91</ele>
        <time>2017-03-29T13:19:28Z</time>
      </trkpt>
      <trkpt lat="47.27161" lon="-2.47619">
        <ele>2.54</ele>
        <time>2017-03-29T13:19:51Z</time>
      </trkpt>
      <trkpt lat="47.27164" lon="-2.47605">
        <ele>3.5</ele>
        <time>2017-03-29T13:19:59Z</time>
      </trkpt>
      <trkpt lat="47.2717" lon="-2.47594">
        <ele>3.5</ele>
        <time>2017-03-29T13:20:08Z</time>
      </trkpt>
      <trkpt lat="47.27175" lon="-2.47583">
        <ele>4.46</ele>
        <time>2017-03-29T13:20:18Z</time>
      </trkpt>
      <trkpt lat="47.27167" lon="-2.47578">
        <ele>4.46</ele>
        <time>2017-03-29T13:20:28Z</time>
      </trkpt>
      <trkpt lat="47.27157" lon="-2.47575">
        <ele>6.39</ele>
        <time>2017-03-29T13:22:53Z</time>
      </trkpt>
      <trkpt lat="47.27147" lon="-2.47571">
        <ele>4.46</ele>
        <time>2017-03-29T13:23:01Z</time>
      </trkpt>
      <trkpt lat="47.27139" lon="-2.47567">
        <ele>6.39</ele>
        <time>2017-03-29T13:23:09Z</time>
      </trkpt>
      <trkpt lat="47.27131" lon="-2.4756">
        <ele>6.87</ele>
        <time>2017-03-29T13:23:17Z</time>
      </trkpt>
      <trkpt lat="47.27125" lon="-2.4755">
        <ele>8.79</ele>
        <time>2017-03-29T13:23:25Z</time>
      </trkpt>
      <trkpt lat="47.2712" lon="-2.47537">
        <ele>6.87</ele>
        <time>2017-03-29T13:23:33Z</time>
      </trkpt>
      <trkpt lat="47.27114" lon="-2.47525">
        <ele>5.42</ele>
        <time>2017-03-29T13:23:41Z</time>
      </trkpt>
      <trkpt lat="47.27112" lon="-2.47511">
        <ele>10.71</ele>
        <time>2017-03-29T13:23:49Z</time>
      </trkpt>
      <trkpt lat="47.27109" lon="-2.47498">
        <ele>9.75</ele>
        <time>2017-03-29T13:23:57Z</time>
      </trkpt>
      <trkpt lat="47.27104" lon="-2.47487">
        <ele>7.83</ele>
        <time>2017-03-29T13:24:04Z</time>
      </trkpt>
      <trkpt lat="47.27101" lon="-2.47473">
        <ele>10.23</ele>
        <time>2017-03-29T13:24:11Z</time>
      </trkpt>
      <trkpt lat="47.27098" lon="-2.47459">
        <ele>7.83</ele>
        <time>2017-03-29T13:24:19Z</time>
      </trkpt>
      <trkpt lat="47.27095" lon="-2.47444">
        <ele>6.39</ele>
        <time>2017-03-29T13:24:27Z</time>
      </trkpt>
      <trkpt lat="47.27092" lon="-2.47431">
        <ele>5.42</ele>
        <time>2017-03-29T13:24:34Z</time>
      </trkpt>
      <trkpt lat="47.27089" lon="-2.47417">
        <ele>9.75</ele>
        <time>2017-03-29T13:24:41Z</time>
      </trkpt>
      <trkpt lat="47.27086" lon="-2.47403">
        <ele>8.79</ele>
        <time>2017-03-29T13:24:49Z</time>
      </trkpt>
      <trkpt lat="47.27082" lon="-2.4739">
        <ele>4.94</ele>
        <time>2017-03-29T13:24:56Z</time>
      </trkpt>
      <trkpt lat="47.27076" lon="-2.4738">
        <ele>6.87</ele>
        <time>2017-03-29T13:25:02Z</time>
      </trkpt>
      <trkpt lat="47.27071" lon="-2.47365">
        <ele>8.79</ele>
        <time>2017-03-29T13:25:10Z</time>
      </trkpt>
      <trkpt lat="47.27067" lon="-2.47352">
        <ele>4.94</ele>
        <time>2017-03-29T13:25:18Z</time>
      </trkpt>
      <trkpt lat="47.27063" lon="-2.47338">
        <ele>6.87</ele>
        <time>2017-03-29T13:25:25Z</time>
      </trkpt>
      <trkpt lat="47.27059" lon="-2.47324">
        <ele>5.91</ele>
        <time>2017-03-29T13:25:32Z</time>
      </trkpt>
      <trkpt lat="47.27058" lon="-2.4731">
        <ele>8.31</ele>
        <time>2017-03-29T13:25:39Z</time>
      </trkpt>
      <trkpt lat="47.27054" lon="-2.47297">
        <ele>8.79</ele>
        <time>2017-03-29T13:25:47Z</time>
      </trkpt>
      <trkpt lat="47.27047" lon="-2.47287">
        <ele>4.94</ele>
        <time>2017-03-29T13:25:54Z</time>
      </trkpt>
      <trkpt lat="47.27043" lon="-2.47274">
        <ele>9.75</ele>
        <time>2017-03-29T13:26:01Z</time>
      </trkpt>
      <trkpt lat="47.27045" lon="-2.4726">
        <ele>10.23</ele>
        <time>2017-03-29T13:26:08Z</time>
      </trkpt>
      <trkpt lat="47.27045" lon="-2.47246">
        <ele>9.27</ele>
        <time>2017-03-29T13:26:16Z</time>
      </trkpt>
      <trkpt lat="47.27046" lon="-2.47231">
        <ele>9.75</ele>
        <time>2017-03-29T13:26:23Z</time>
      </trkpt>
      <trkpt lat="47.27045" lon="-2.47218">
        <ele>5.42</ele>
        <time>2017-03-29T13:26:30Z</time>
      </trkpt>
      <trkpt lat="47.27044" lon="-2.47204">
        <ele>6.87</ele>
        <time>2017-03-29T13:26:37Z</time>
      </trkpt>
      <trkpt lat="47.27044" lon="-2.4719">
        <ele>8.31</ele>
        <time>2017-03-29T13:26:44Z</time>
      </trkpt>
      <trkpt lat="47.27046" lon="-2.47178">
        <ele>7.83</ele>
        <time>2017-03-29T13:26:51Z</time>
      </trkpt>
      <trkpt lat="47.27046" lon="-2.47165">
        <ele>9.75</ele>
        <time>2017-03-29T13:26:59Z</time>
      </trkpt>
      <trkpt lat="47.27043" lon="-2.47152">
        <ele>10.23</ele>
        <time>2017-03-29T13:27:08Z</time>
      </trkpt>
      <trkpt lat="47.27035" lon="-2.47143">
        <ele>14.08</ele>
        <time>2017-03-29T13:27:18Z</time>
      </trkpt>
      <trkpt lat="47.27027" lon="-2.47151">
        <ele>12.63</ele>
        <time>2017-03-29T13:27:26Z</time>
      </trkpt>
      <trkpt lat="47.27019" lon="-2.47159">
        <ele>9.75</ele>
        <time>2017-03-29T13:27:34Z</time>
      </trkpt>
      <trkpt lat="47.27012" lon="-2.47167">
        <ele>12.63</ele>
        <time>2017-03-29T13:27:42Z</time>
      </trkpt>
      <trkpt lat="47.27002" lon="-2.47168">
        <ele>11.67</ele>
        <time>2017-03-29T13:27:51Z</time>
      </trkpt>
      <trkpt lat="47.26995" lon="-2.47161">
        <ele>9.27</ele>
        <time>2017-03-29T13:27:59Z</time>
      </trkpt>
      <trkpt lat="47.26989" lon="-2.4715">
        <ele>9.75</ele>
        <time>2017-03-29T13:28:07Z</time>
      </trkpt>
      <trkpt lat="47.26985" lon="-2.4714">
        <ele>11.67</ele>
        <time>2017-03-29T13:28:15Z</time>
      </trkpt>
      <trkpt lat="47.26987" lon="-2.47125">
        <ele>10.23</ele>
        <time>2017-03-29T13:28:24Z</time>
      </trkpt>
      <trkpt lat="47.2699" lon="-2.47112">
        <ele>7.83</ele>
        <time>2017-03-29T13:28:32Z</time>
      </trkpt>
      <trkpt lat="47.26996" lon="-2.471">
        <ele>9.75</ele>
        <time>2017-03-29T13:28:41Z</time>
      </trkpt>
      <trkpt lat="47.26996" lon="-2.47086">
        <ele>10.71</ele>
        <time>2017-03-29T13:28:49Z</time>
      </trkpt>
      <trkpt lat="47.26996" lon="-2.47071">
        <ele>4.46</ele>
        <time>2017-03-29T13:28:57Z</time>
      </trkpt>
      <trkpt lat="47.26998" lon="-2.47057">
        <ele>9.75</ele>
        <time>2017-03-29T13:29:05Z</time>
      </trkpt>
      <trkpt lat="47.27005" lon="-2.47049">
        <ele>3.98</ele>
        <time>2017-03-29T13:29:12Z</time>
      </trkpt>
      <trkpt lat="47.27008" lon="-2.47036">
        <ele>12.15</ele>
        <time>2017-03-29T13:29:20Z</time>
      </trkpt>
      <trkpt lat="47.27006" lon="-2.47023">
        <ele>9.27</ele>
        <time>2017-03-29T13:29:28Z</time>
      </trkpt>
      <trkpt lat="47.27008" lon="-2.47009">
        <ele>7.83</ele>
        <time>2017-03-29T13:29:36Z</time>
      </trkpt>
      <trkpt lat="47.2701" lon="-2.46995">
        <ele>7.83</ele>
        <time>2017-03-29T13:29:44Z</time>
      </trkpt>
      <trkpt lat="47.27006" lon="-2.4698">
        <ele>7.83</ele>
        <time>2017-03-29T13:29:53Z</time>
      </trkpt>
      <trkpt lat="47.27003" lon="-2.46967">
        <ele>8.79</ele>
        <time>2017-03-29T13:30:01Z</time>
      </trkpt>
      <trkpt lat="47.27" lon="-2.46968">
        <ele>12.15</ele>
        <time>2017-03-29T13:30:12Z</time>
      </trkpt>
      <trkpt lat="47.26996" lon="-2.46954">
        <ele>8.79</ele>
        <time>2017-03-29T13:30:20Z</time>
      </trkpt>
      <trkpt lat="47.26994" lon="-2.4694">
        <ele>9.75</ele>
        <time>2017-03-29T13:30:28Z</time>
      </trkpt>
      <trkpt lat="47.26993" lon="-2.46926">
        <ele>12.63</ele>
        <time>2017-03-29T13:30:36Z</time>
      </trkpt>
      <trkpt lat="47.26992" lon="-2.46913">
        <ele>9.27</ele>
        <time>2017-03-29T13:30:44Z</time>
      </trkpt>
      <trkpt lat="47.26993" lon="-2.469">
        <ele>11.19</ele>
        <time>2017-03-29T13:31:13Z</time>
      </trkpt>
      <trkpt lat="47.26988" lon="-2.46891">
        <ele>5.42</ele>
        <time>2017-03-29T13:31:21Z</time>
      </trkpt>
      <trkpt lat="47.2698" lon="-2.46884">
        <ele>5.91</ele>
        <time>2017-03-29T13:31:28Z</time>
      </trkpt>
      <trkpt lat="47.26974" lon="-2.46873">
        <ele>8.31</ele>
        <time>2017-03-29T13:31:36Z</time>
      </trkpt>
      <trkpt lat="47.26971" lon="-2.46858">
        <ele>8.79</ele>
        <time>2017-03-29T13:32:01Z</time>
      </trkpt>
      <trkpt lat="47.26969" lon="-2.46845">
        <ele>3.5</ele>
        <time>2017-03-29T13:32:10Z</time>
      </trkpt>
      <trkpt lat="47.26966" lon="-2.4683">
        <ele>5.42</ele>
        <time>2017-03-29T13:32:18Z</time>
      </trkpt>
      <trkpt lat="47.26965" lon="-2.46817">
        <ele>8.79</ele>
        <time>2017-03-29T13:32:25Z</time>
      </trkpt>
      <trkpt lat="47.26967" lon="-2.46802">
        <ele>4.94</ele>
        <time>2017-03-29T13:32:33Z</time>
      </trkpt>
      <trkpt lat="47.26973" lon="-2.46793">
        <ele>4.46</ele>
        <time>2017-03-29T13:32:41Z</time>
      </trkpt>
      <trkpt lat="47.26972" lon="-2.46779">
        <ele>5.42</ele>
        <time>2017-03-29T13:32:49Z</time>
      </trkpt>
      <trkpt lat="47.26969" lon="-2.46767">
        <ele>3.5</ele>
        <time>2017-03-29T13:32:56Z</time>
      </trkpt>
      <trkpt lat="47.26969" lon="-2.46753">
        <ele>3.98</ele>
        <time>2017-03-29T13:33:03Z</time>
      </trkpt>
      <trkpt lat="47.26975" lon="-2.46743">
        <ele>1.1</ele>
        <time>2017-03-29T13:33:11Z</time>
      </trkpt>
      <trkpt lat="47.26984" lon="-2.46734">
        <ele>5.91</ele>
        <time>2017-03-29T13:33:19Z</time>
      </trkpt>
      <trkpt lat="47.26987" lon="-2.4672">
        <ele>6.39</ele>
        <time>2017-03-29T13:33:27Z</time>
      </trkpt>
      <trkpt lat="47.26994" lon="-2.4671">
        <ele>4.46</ele>
        <time>2017-03-29T13:33:35Z</time>
      </trkpt>
      <trkpt lat="47.27001" lon="-2.46701">
        <ele>3.98</ele>
        <time>2017-03-29T13:33:42Z</time>
      </trkpt>
      <trkpt lat="47.2701" lon="-2.46696">
        <ele>8.31</ele>
        <time>2017-03-29T13:33:50Z</time>
      </trkpt>
      <trkpt lat="47.2702" lon="-2.46691">
        <ele>2.54</ele>
        <time>2017-03-29T13:34:00Z</time>
      </trkpt>
      <trkpt lat="47.27028" lon="-2.46679">
        <ele>5.42</ele>
        <time>2017-03-29T13:34:08Z</time>
      </trkpt>
      <trkpt lat="47.27034" lon="-2.46667">
        <ele>2.06</ele>
        <time>2017-03-29T13:34:16Z</time>
      </trkpt>
      <trkpt lat="47.27042" lon="-2.46659">
        <ele>6.39</ele>
        <time>2017-03-29T13:34:23Z</time>
      </trkpt>
      <trkpt lat="47.27051" lon="-2.46657">
        <ele>8.79</ele>
        <time>2017-03-29T13:34:31Z</time>
      </trkpt>
      <trkpt lat="47.27059" lon="-2.46648">
        <ele>3.98</ele>
        <time>2017-03-29T13:34:39Z</time>
      </trkpt>
      <trkpt lat="47.27062" lon="-2.46636">
        <ele>6.87</ele>
        <time>2017-03-29T13:34:47Z</time>
      </trkpt>
      <trkpt lat="47.27062" lon="-2.46622">
        <ele>5.42</ele>
        <time>2017-03-29T13:34:55Z</time>
      </trkpt>
      <trkpt lat="47.27063" lon="-2.46608">
        <ele>2.54</ele>
        <time>2017-03-29T13:35:02Z</time>
      </trkpt>
      <trkpt lat="47.27071" lon="-2.46599">
        <ele>3.5</ele>
        <time>2017-03-29T13:35:10Z</time>
      </trkpt>
      <trkpt lat="47.2708" lon="-2.46595">
        <ele>5.42</ele>
        <time>2017-03-29T13:35:18Z</time>
      </trkpt>
      <trkpt lat="47.2709" lon="-2.46593">
        <ele>3.98</ele>
        <time>2017-03-29T13:35:26Z</time>
      </trkpt>
      <trkpt lat="47.27099" lon="-2.46587">
        <ele>7.83</ele>
        <time>2017-03-29T13:35:35Z</time>
      </trkpt>
      <trkpt lat="47.27105" lon="-2.46574">
        <ele>7.35</ele>
        <time>2017-03-29T13:35:44Z</time>
      </trkpt>
      <trkpt lat="47.27105" lon="-2.46559">
        <ele>6.87</ele>
        <time>2017-03-29T13:35:52Z</time>
      </trkpt>
      <trkpt lat="47.27101" lon="-2.46546">
        <ele>6.39</ele>
        <time>2017-03-29T13:35:59Z</time>
      </trkpt>
      <trkpt lat="47.271" lon="-2.46532">
        <ele>6.39</ele>
        <time>2017-03-29T13:36:07Z</time>
      </trkpt>
      <trkpt lat="47.27097" lon="-2.46518">
        <ele>5.42</ele>
        <time>2017-03-29T13:36:15Z</time>
      </trkpt>
      <trkpt lat="47.2709" lon="-2.46511">
        <ele>5.42</ele>
        <time>2017-03-29T13:36:23Z</time>
      </trkpt>
      <trkpt lat="47.27081" lon="-2.46516">
        <ele>4.46</ele>
        <time>2017-03-29T13:36:32Z</time>
      </trkpt>
      <trkpt lat="47.27071" lon="-2.46519">
        <ele>3.5</ele>
        <time>2017-03-29T13:36:41Z</time>
      </trkpt>
      <trkpt lat="47.27062" lon="-2.4652">
        <ele>0.62</ele>
        <time>2017-03-29T13:36:50Z</time>
      </trkpt>
      <trkpt lat="47.27055" lon="-2.46512">
        <ele>-0.82</ele>
        <time>2017-03-29T13:36:58Z</time>
      </trkpt>
      <trkpt lat="47.27047" lon="-2.46505">
        <ele>-2.27</ele>
        <time>2017-03-29T13:37:07Z</time>
      </trkpt>
      <trkpt lat="47.27041" lon="-2.46496">
        <ele>0.62</ele>
        <time>2017-03-29T13:37:19Z</time>
      </trkpt>
      <trkpt lat="47.27033" lon="-2.46494">
        <ele>3.02</ele>
        <time>2017-03-29T13:37:34Z</time>
      </trkpt>
      <trkpt lat="47.27025" lon="-2.46497">
        <ele>3.98</ele>
        <time>2017-03-29T13:37:43Z</time>
      </trkpt>
      <trkpt lat="47.27015" lon="-2.46493">
        <ele>4.46</ele>
        <time>2017-03-29T13:37:51Z</time>
      </trkpt>
      <trkpt lat="47.27007" lon="-2.46485">
        <ele>4.46</ele>
        <time>2017-03-29T13:37:59Z</time>
      </trkpt>
      <trkpt lat="47.26999" lon="-2.46478">
        <ele>3.98</ele>
        <time>2017-03-29T13:38:07Z</time>
      </trkpt>
      <trkpt lat="47.26995" lon="-2.46465">
        <ele>4.46</ele>
        <time>2017-03-29T13:38:14Z</time>
      </trkpt>
      <trkpt lat="47.26993" lon="-2.46453">
        <ele>3.5</ele>
        <time>2017-03-29T13:38:21Z</time>
      </trkpt>
      <trkpt lat="47.2699" lon="-2.4644">
        <ele>0.62</ele>
        <time>2017-03-29T13:38:28Z</time>
      </trkpt>
      <trkpt lat="47.26985" lon="-2.4643">
        <ele>3.5</ele>
        <time>2017-03-29T13:38:35Z</time>
      </trkpt>
      <trkpt lat="47.26982" lon="-2.46416">
        <ele>3.98</ele>
        <time>2017-03-29T13:38:43Z</time>
      </trkpt>
      <trkpt lat="47.26981" lon="-2.46401">
        <ele>5.91</ele>
        <time>2017-03-29T13:38:51Z</time>
      </trkpt>
      <trkpt lat="47.26979" lon="-2.46387">
        <ele>5.42</ele>
        <time>2017-03-29T13:38:59Z</time>
      </trkpt>
      <trkpt lat="47.26972" lon="-2.46375">
        <ele>2.54</ele>
        <time>2017-03-29T13:39:07Z</time>
      </trkpt>
      <trkpt lat="47.26969" lon="-2.46364">
        <ele>6.39</ele>
        <time>2017-03-29T13:39:14Z</time>
      </trkpt>
      <trkpt lat="47.26969" lon="-2.4635">
        <ele>2.06</ele>
        <time>2017-03-29T13:39:22Z</time>
      </trkpt>
      <trkpt lat="47.26965" lon="-2.46337">
        <ele>6.39</ele>
        <time>2017-03-29T13:39:30Z</time>
      </trkpt>
      <trkpt lat="47.26962" lon="-2.46323">
        <ele>6.39</ele>
        <time>2017-03-29T13:39:38Z</time>
      </trkpt>
      <trkpt lat="47.26961" lon="-2.4631">
        <ele>3.5</ele>
        <time>2017-03-29T13:39:46Z</time>
      </trkpt>
      <trkpt lat="47.26958" lon="-2.46296">
        <ele>3.98</ele>
        <time>2017-03-29T13:39:54Z</time>
      </trkpt>
      <trkpt lat="47.26966" lon="-2.46286">
        <ele>3.02</ele>
        <time>2017-03-29T13:40:02Z</time>
      </trkpt>
      <trkpt lat="47.2697" lon="-2.46273">
        <ele>6.39</ele>
        <time>2017-03-29T13:40:10Z</time>
      </trkpt>
      <trkpt lat="47.26974" lon="-2.46261">
        <ele>3.98</ele>
        <time>2017-03-29T13:40:18Z</time>
      </trkpt>
      <trkpt lat="47.26978" lon="-2.46247">
        <ele>4.94</ele>
        <time>2017-03-29T13:40:26Z</time>
      </trkpt>
      <trkpt lat="47.26983" lon="-2.46233">
        <ele>6.39</ele>
        <time>2017-03-29T13:40:34Z</time>
      </trkpt>
      <trkpt lat="47.26982" lon="-2.46218">
        <ele>5.91</ele>
        <time>2017-03-29T13:40:42Z</time>
      </trkpt>
      <trkpt lat="47.26983" lon="-2.46206">
        <ele>5.42</ele>
        <time>2017-03-29T13:40:50Z</time>
      </trkpt>
      <trkpt lat="47.26994" lon="-2.46204">
        <ele>2.54</ele>
        <time>2017-03-29T13:40:58Z</time>
      </trkpt>
      <trkpt lat="47.27003" lon="-2.46199">
        <ele>6.87</ele>
        <time>2017-03-29T13:41:06Z</time>
      </trkpt>
      <trkpt lat="47.27013" lon="-2.46196">
        <ele>7.35</ele>
        <time>2017-03-29T13:41:15Z</time>
      </trkpt>
      <trkpt lat="47.27017" lon="-2.46181">
        <ele>7.83</ele>
        <time>2017-03-29T13:41:24Z</time>
      </trkpt>
      <trkpt lat="47.27019" lon="-2.46165">
        <ele>5.42</ele>
        <time>2017-03-29T13:41:32Z</time>
      </trkpt>
      <trkpt lat="47.27021" lon="-2.46151">
        <ele>6.87</ele>
        <time>2017-03-29T13:41:40Z</time>
      </trkpt>
      <trkpt lat="47.27021" lon="-2.46137">
        <ele>9.27</ele>
        <time>2017-03-29T13:41:48Z</time>
      </trkpt>
      <trkpt lat="47.27019" lon="-2.46123">
        <ele>7.35</ele>
        <time>2017-03-29T13:41:56Z</time>
      </trkpt>
      <trkpt lat="47.27015" lon="-2.4611">
        <ele>8.31</ele>
        <time>2017-03-29T13:42:04Z</time>
      </trkpt>
      <trkpt lat="47.27012" lon="-2.46097">
        <ele>7.35</ele>
        <time>2017-03-29T13:42:12Z</time>
      </trkpt>
      <trkpt lat="47.27008" lon="-2.46083">
        <ele>7.83</ele>
        <time>2017-03-29T13:42:20Z</time>
      </trkpt>
      <trkpt lat="47.27005" lon="-2.4607">
        <ele>7.35</ele>
        <time>2017-03-29T13:42:28Z</time>
      </trkpt>
      <trkpt lat="47.27002" lon="-2.46056">
        <ele>8.31</ele>
        <time>2017-03-29T13:42:36Z</time>
      </trkpt>
      <trkpt lat="47.27" lon="-2.46043">
        <ele>7.83</ele>
        <time>2017-03-29T13:42:43Z</time>
      </trkpt>
      <trkpt lat="47.26996" lon="-2.4603">
        <ele>7.83</ele>
        <time>2017-03-29T13:42:51Z</time>
      </trkpt>
      <trkpt lat="47.26993" lon="-2.46015">
        <ele>5.91</ele>
        <time>2017-03-29T13:42:59Z</time>
      </trkpt>
      <trkpt lat="47.26991" lon="-2.46002">
        <ele>9.75</ele>
        <time>2017-03-29T13:43:06Z</time>
      </trkpt>
      <trkpt lat="47.26989" lon="-2.45989">
        <ele>9.27</ele>
        <time>2017-03-29T13:43:14Z</time>
      </trkpt>
      <trkpt lat="47.26982" lon="-2.4598">
        <ele>6.87</ele>
        <time>2017-03-29T13:43:22Z</time>
      </trkpt>
      <trkpt lat="47.26975" lon="-2.45969">
        <ele>10.23</ele>
        <time>2017-03-29T13:43:30Z</time>
      </trkpt>
      <trkpt lat="47.2697" lon="-2.45957">
        <ele>7.35</ele>
        <time>2017-03-29T13:43:38Z</time>
      </trkpt>
      <trkpt lat="47.26962" lon="-2.45948">
        <ele>9.75</ele>
        <time>2017-03-29T13:43:47Z</time>
      </trkpt>
      <trkpt lat="47.26953" lon="-2.45944">
        <ele>7.35</ele>
        <time>2017-03-29T13:43:55Z</time>
      </trkpt>
      <trkpt lat="47.26946" lon="-2.45933">
        <ele>8.79</ele>
        <time>2017-03-29T13:44:03Z</time>
      </trkpt>
      <trkpt lat="47.26938" lon="-2.45925">
        <ele>8.31</ele>
        <time>2017-03-29T13:44:12Z</time>
      </trkpt>
      <trkpt lat="47.26929" lon="-2.45919">
        <ele>7.35</ele>
        <time>2017-03-29T13:44:20Z</time>
      </trkpt>
      <trkpt lat="47.2692" lon="-2.45913">
        <ele>10.23</ele>
        <time>2017-03-29T13:44:28Z</time>
      </trkpt>
      <trkpt lat="47.26912" lon="-2.45908">
        <ele>9.27</ele>
        <time>2017-03-29T13:44:35Z</time>
      </trkpt>
      <trkpt lat="47.26904" lon="-2.45898">
        <ele>9.27</ele>
        <time>2017-03-29T13:44:43Z</time>
      </trkpt>
      <trkpt lat="47.26897" lon="-2.45889">
        <ele>8.79</ele>
        <time>2017-03-29T13:44:50Z</time>
      </trkpt>
      <trkpt lat="47.26892" lon="-2.45879">
        <ele>5.42</ele>
        <time>2017-03-29T13:44:57Z</time>
      </trkpt>
      <trkpt lat="47.2689" lon="-2.45865">
        <ele>4.46</ele>
        <time>2017-03-29T13:45:04Z</time>
      </trkpt>
      <trkpt lat="47.26887" lon="-2.45852">
        <ele>5.42</ele>
        <time>2017-03-29T13:45:11Z</time>
      </trkpt>
      <trkpt lat="47.26883" lon="-2.45842">
        <ele>8.31</ele>
        <time>2017-03-29T13:45:18Z</time>
      </trkpt>
      <trkpt lat="47.26879" lon="-2.45828">
        <ele>9.27</ele>
        <time>2017-03-29T13:45:26Z</time>
      </trkpt>
      <trkpt lat="47.26877" lon="-2.45815">
        <ele>9.27</ele>
        <time>2017-03-29T13:45:33Z</time>
      </trkpt>
      <trkpt lat="47.26875" lon="-2.45801">
        <ele>7.35</ele>
        <time>2017-03-29T13:45:41Z</time>
      </trkpt>
      <trkpt lat="47.26871" lon="-2.45787">
        <ele>4.94</ele>
        <time>2017-03-29T13:45:49Z</time>
      </trkpt>
      <trkpt lat="47.26868" lon="-2.45773">
        <ele>5.42</ele>
        <time>2017-03-29T13:45:57Z</time>
      </trkpt>
      <trkpt lat="47.26864" lon="-2.45761">
        <ele>3.5</ele>
        <time>2017-03-29T13:46:05Z</time>
      </trkpt>
      <trkpt lat="47.2686" lon="-2.45747">
        <ele>7.83</ele>
        <time>2017-03-29T13:46:13Z</time>
      </trkpt>
      <trkpt lat="47.26856" lon="-2.45734">
        <ele>5.42</ele>
        <time>2017-03-29T13:46:21Z</time>
      </trkpt>
      <trkpt lat="47.26854" lon="-2.4572">
        <ele>5.42</ele>
        <time>2017-03-29T13:46:29Z</time>
      </trkpt>
      <trkpt lat="47.26857" lon="-2.45706">
        <ele>2.54</ele>
        <time>2017-03-29T13:46:37Z</time>
      </trkpt>
      <trkpt lat="47.26864" lon="-2.45696">
        <ele>6.87</ele>
        <time>2017-03-29T13:46:45Z</time>
      </trkpt>
      <trkpt lat="47.26868" lon="-2.45683">
        <ele>7.83</ele>
        <time>2017-03-29T13:46:55Z</time>
      </trkpt>
      <trkpt lat="47.2686" lon="-2.45674">
        <ele>2.54</ele>
        <time>2017-03-29T13:47:04Z</time>
      </trkpt>
      <trkpt lat="47.26854" lon="-2.45663">
        <ele>3.98</ele>
        <time>2017-03-29T13:47:15Z</time>
      </trkpt>
      <trkpt lat="47.26849" lon="-2.45651">
        <ele>3.5</ele>
        <time>2017-03-29T13:47:26Z</time>
      </trkpt>
      <trkpt lat="47.26841" lon="-2.45641">
        <ele>5.42</ele>
        <time>2017-03-29T13:47:37Z</time>
      </trkpt>
      <trkpt lat="47.26833" lon="-2.45633">
        <ele>7.83</ele>
        <time>2017-03-29T13:47:47Z</time>
      </trkpt>
      <trkpt lat="47.26825" lon="-2.45628">
        <ele>7.83</ele>
        <time>2017-03-29T13:47:56Z</time>
      </trkpt>
      <trkpt lat="47.26816" lon="-2.45625">
        <ele>6.39</ele>
        <time>2017-03-29T13:48:06Z</time>
      </trkpt>
      <trkpt lat="47.26806" lon="-2.45621">
        <ele>4.46</ele>
        <time>2017-03-29T13:48:16Z</time>
      </trkpt>
      <trkpt lat="47.26798" lon="-2.45611">
        <ele>4.94</ele>
        <time>2017-03-29T13:48:26Z</time>
      </trkpt>
      <trkpt lat="47.26793" lon="-2.45599">
        <ele>6.87</ele>
        <time>2017-03-29T13:48:36Z</time>
      </trkpt>
      <trkpt lat="47.26784" lon="-2.45598">
        <ele>7.35</ele>
        <time>2017-03-29T13:48:46Z</time>
      </trkpt>
      <trkpt lat="47.2678" lon="-2.45609">
        <ele>4.46</ele>
        <time>2017-03-29T13:48:56Z</time>
      </trkpt>
      <trkpt lat="47.26771" lon="-2.45605">
        <ele>5.91</ele>
        <time>2017-03-29T13:49:05Z</time>
      </trkpt>
      <trkpt lat="47.26762" lon="-2.45602">
        <ele>5.42</ele>
        <time>2017-03-29T13:49:14Z</time>
      </trkpt>
      <trkpt lat="47.26753" lon="-2.45597">
        <ele>3.98</ele>
        <time>2017-03-29T13:49:23Z</time>
      </trkpt>
      <trkpt lat="47.26743" lon="-2.45603">
        <ele>5.42</ele>
        <time>2017-03-29T13:49:32Z</time>
      </trkpt>
      <trkpt lat="47.26739" lon="-2.45593">
        <ele>3.98</ele>
        <time>2017-03-29T13:49:41Z</time>
      </trkpt>
      <trkpt lat="47.26743" lon="-2.4558">
        <ele>3.02</ele>
        <time>2017-03-29T13:49:50Z</time>
      </trkpt>
      <trkpt lat="47.26748" lon="-2.45571">
        <ele>4.46</ele>
        <time>2017-03-29T13:49:58Z</time>
      </trkpt>
      <trkpt lat="47.26754" lon="-2.45562">
        <ele>4.46</ele>
        <time>2017-03-29T13:50:07Z</time>
      </trkpt>
      <trkpt lat="47.26757" lon="-2.4555">
        <ele>2.54</ele>
        <time>2017-03-29T13:50:16Z</time>
      </trkpt>
      <trkpt lat="47.26757" lon="-2.45536">
        <ele>1.58</ele>
        <time>2017-03-29T13:50:25Z</time>
      </trkpt>
      <trkpt lat="47.26761" lon="-2.45522">
        <ele>2.06</ele>
        <time>2017-03-29T13:50:34Z</time>
      </trkpt>
      <trkpt lat="47.2677" lon="-2.45515">
        <ele>2.54</ele>
        <time>2017-03-29T13:50:42Z</time>
      </trkpt>
      <trkpt lat="47.26779" lon="-2.45513">
        <ele>3.98</ele>
        <time>2017-03-29T13:50:51Z</time>
      </trkpt>
      <trkpt lat="47.26788" lon="-2.45509">
        <ele>7.35</ele>
        <time>2017-03-29T13:50:59Z</time>
      </trkpt>
      <trkpt lat="47.26792" lon="-2.45499">
        <ele>7.35</ele>
        <time>2017-03-29T13:51:14Z</time>
      </trkpt>
      <trkpt lat="47.26788" lon="-2.45485">
        <ele>6.87</ele>
        <time>2017-03-29T13:51:21Z</time>
      </trkpt>
      <trkpt lat="47.26781" lon="-2.45475">
        <ele>5.91</ele>
        <time>2017-03-29T13:51:29Z</time>
      </trkpt>
      <trkpt lat="47.26774" lon="-2.45465">
        <ele>4.46</ele>
        <time>2017-03-29T13:51:36Z</time>
      </trkpt>
      <trkpt lat="47.26767" lon="-2.45455">
        <ele>3.02</ele>
        <time>2017-03-29T13:51:43Z</time>
      </trkpt>
      <trkpt lat="47.26759" lon="-2.45447">
        <ele>8.79</ele>
        <time>2017-03-29T13:51:51Z</time>
      </trkpt>
      <trkpt lat="47.2675" lon="-2.45437">
        <ele>5.42</ele>
        <time>2017-03-29T13:51:59Z</time>
      </trkpt>
      <trkpt lat="47.26742" lon="-2.45429">
        <ele>5.91</ele>
        <time>2017-03-29T13:52:06Z</time>
      </trkpt>
      <trkpt lat="47.26735" lon="-2.4542">
        <ele>8.31</ele>
        <time>2017-03-29T13:52:13Z</time>
      </trkpt>
      <trkpt lat="47.26728" lon="-2.45411">
        <ele>5.91</ele>
        <time>2017-03-29T13:52:20Z</time>
      </trkpt>
      <trkpt lat="47.26719" lon="-2.45403">
        <ele>5.91</ele>
        <time>2017-03-29T13:52:27Z</time>
      </trkpt>
      <trkpt lat="47.26711" lon="-2.45395">
        <ele>5.91</ele>
        <time>2017-03-29T13:52:34Z</time>
      </trkpt>
      <trkpt lat="47.26703" lon="-2.45387">
        <ele>5.42</ele>
        <time>2017-03-29T13:52:41Z</time>
      </trkpt>
      <trkpt lat="47.26696" lon="-2.45379">
        <ele>4.94</ele>
        <time>2017-03-29T13:52:49Z</time>
      </trkpt>
      <trkpt lat="47.26687" lon="-2.4537">
        <ele>6.87</ele>
        <time>2017-03-29T13:52:57Z</time>
      </trkpt>
      <trkpt lat="47.26678" lon="-2.45363">
        <ele>8.79</ele>
        <time>2017-03-29T13:53:06Z</time>
      </trkpt>
      <trkpt lat="47.26668" lon="-2.45356">
        <ele>8.31</ele>
        <time>2017-03-29T13:53:14Z</time>
      </trkpt>
      <trkpt lat="47.26659" lon="-2.45349">
        <ele>4.46</ele>
        <time>2017-03-29T13:53:21Z</time>
      </trkpt>
      <trkpt lat="47.26651" lon="-2.45341">
        <ele>7.83</ele>
        <time>2017-03-29T13:53:28Z</time>
      </trkpt>
      <trkpt lat="47.26642" lon="-2.45331">
        <ele>7.83</ele>
        <time>2017-03-29T13:53:36Z</time>
      </trkpt>
      <trkpt lat="47.26635" lon="-2.45322">
        <ele>10.71</ele>
        <time>2017-03-29T13:53:43Z</time>
      </trkpt>
      <trkpt lat="47.26627" lon="-2.45315">
        <ele>10.23</ele>
        <time>2017-03-29T13:53:51Z</time>
      </trkpt>
      <trkpt lat="47.26619" lon="-2.45307">
        <ele>7.83</ele>
        <time>2017-03-29T13:53:58Z</time>
      </trkpt>
      <trkpt lat="47.2661" lon="-2.45299">
        <ele>7.35</ele>
        <time>2017-03-29T13:54:06Z</time>
      </trkpt>
      <trkpt lat="47.26602" lon="-2.45289">
        <ele>6.39</ele>
        <time>2017-03-29T13:54:14Z</time>
      </trkpt>
      <trkpt lat="47.26593" lon="-2.45283">
        <ele>6.87</ele>
        <time>2017-03-29T13:54:22Z</time>
      </trkpt>
      <trkpt lat="47.26584" lon="-2.45275">
        <ele>6.39</ele>
        <time>2017-03-29T13:54:30Z</time>
      </trkpt>
      <trkpt lat="47.26577" lon="-2.45266">
        <ele>5.42</ele>
        <time>2017-03-29T13:54:37Z</time>
      </trkpt>
      <trkpt lat="47.2657" lon="-2.4526">
        <ele>7.35</ele>
        <time>2017-03-29T13:55:00Z</time>
      </trkpt>
      <trkpt lat="47.26562" lon="-2.45253">
        <ele>7.83</ele>
        <time>2017-03-29T13:55:07Z</time>
      </trkpt>
      <trkpt lat="47.26554" lon="-2.45246">
        <ele>7.83</ele>
        <time>2017-03-29T13:55:14Z</time>
      </trkpt>
      <trkpt lat="47.26546" lon="-2.45239">
        <ele>5.91</ele>
        <time>2017-03-29T13:55:21Z</time>
      </trkpt>
      <trkpt lat="47.26537" lon="-2.4523">
        <ele>8.31</ele>
        <time>2017-03-29T13:55:29Z</time>
      </trkpt>
      <trkpt lat="47.2653" lon="-2.45221">
        <ele>9.27</ele>
        <time>2017-03-29T13:55:36Z</time>
      </trkpt>
      <trkpt lat="47.26522" lon="-2.45214">
        <ele>8.79</ele>
        <time>2017-03-29T13:55:44Z</time>
      </trkpt>
      <trkpt lat="47.26511" lon="-2.45208">
        <ele>8.31</ele>
        <time>2017-03-29T13:55:53Z</time>
      </trkpt>
      <trkpt lat="47.26502" lon="-2.45196">
        <ele>8.31</ele>
        <time>2017-03-29T13:56:02Z</time>
      </trkpt>
      <trkpt lat="47.26491" lon="-2.45186">
        <ele>8.79</ele>
        <time>2017-03-29T13:56:10Z</time>
      </trkpt>
      <trkpt lat="47.26482" lon="-2.45176">
        <ele>8.31</ele>
        <time>2017-03-29T13:56:18Z</time>
      </trkpt>
      <trkpt lat="47.26474" lon="-2.45167">
        <ele>8.31</ele>
        <time>2017-03-29T13:56:26Z</time>
      </trkpt>
      <trkpt lat="47.26467" lon="-2.45158">
        <ele>8.79</ele>
        <time>2017-03-29T13:56:33Z</time>
      </trkpt>
      <trkpt lat="47.2646" lon="-2.45148">
        <ele>8.31</ele>
        <time>2017-03-29T13:56:41Z</time>
      </trkpt>
      <trkpt lat="47.26453" lon="-2.45137">
        <ele>8.79</ele>
        <time>2017-03-29T13:56:48Z</time>
      </trkpt>
      <trkpt lat="47.26446" lon="-2.45126">
        <ele>8.79</ele>
        <time>2017-03-29T13:56:56Z</time>
      </trkpt>
      <trkpt lat="47.2644" lon="-2.45116">
        <ele>5.42</ele>
        <time>2017-03-29T13:57:04Z</time>
      </trkpt>
      <trkpt lat="47.26435" lon="-2.45105">
        <ele>6.39</ele>
        <time>2017-03-29T13:57:11Z</time>
      </trkpt>
      <trkpt lat="47.26432" lon="-2.45092">
        <ele>8.31</ele>
        <time>2017-03-29T13:57:18Z</time>
      </trkpt>
      <trkpt lat="47.26428" lon="-2.45079">
        <ele>7.83</ele>
        <time>2017-03-29T13:57:25Z</time>
      </trkpt>
      <trkpt lat="47.26424" lon="-2.45065">
        <ele>7.83</ele>
        <time>2017-03-29T13:57:33Z</time>
      </trkpt>
      <trkpt lat="47.2642" lon="-2.45051">
        <ele>8.31</ele>
        <time>2017-03-29T13:57:41Z</time>
      </trkpt>
      <trkpt lat="47.26416" lon="-2.45038">
        <ele>7.35</ele>
        <time>2017-03-29T13:57:50Z</time>
      </trkpt>
      <trkpt lat="47.26412" lon="-2.45025">
        <ele>10.23</ele>
        <time>2017-03-29T13:57:58Z</time>
      </trkpt>
      <trkpt lat="47.26405" lon="-2.45009">
        <ele>8.31</ele>
        <time>2017-03-29T13:58:06Z</time>
      </trkpt>
      <trkpt lat="47.264" lon="-2.44994">
        <ele>6.87</ele>
        <time>2017-03-29T13:58:14Z</time>
      </trkpt>
      <trkpt lat="47.26393" lon="-2.44981">
        <ele>5.91</ele>
        <time>2017-03-29T13:58:22Z</time>
      </trkpt>
      <trkpt lat="47.26388" lon="-2.44969">
        <ele>8.31</ele>
        <time>2017-03-29T13:58:29Z</time>
      </trkpt>
      <trkpt lat="47.26384" lon="-2.44956">
        <ele>10.23</ele>
        <time>2017-03-29T13:58:37Z</time>
      </trkpt>
      <trkpt lat="47.26379" lon="-2.44943">
        <ele>7.83</ele>
        <time>2017-03-29T13:58:45Z</time>
      </trkpt>
      <trkpt lat="47.26375" lon="-2.4493">
        <ele>8.31</ele>
        <time>2017-03-29T13:58:53Z</time>
      </trkpt>
      <trkpt lat="47.26368" lon="-2.44921">
        <ele>7.83</ele>
        <time>2017-03-29T13:59:01Z</time>
      </trkpt>
      <trkpt lat="47.26359" lon="-2.44913">
        <ele>8.31</ele>
        <time>2017-03-29T13:59:08Z</time>
      </trkpt>
      <trkpt lat="47.2635" lon="-2.44909">
        <ele>8.31</ele>
        <time>2017-03-29T13:59:16Z</time>
      </trkpt>
      <trkpt lat="47.2634" lon="-2.44906">
        <ele>4.94</ele>
        <time>2017-03-29T13:59:23Z</time>
      </trkpt>
      <trkpt lat="47.2633" lon="-2.44905">
        <ele>6.87</ele>
        <time>2017-03-29T13:59:30Z</time>
      </trkpt>
      <trkpt lat="47.26322" lon="-2.44903">
        <ele>10.23</ele>
        <time>2017-03-29T13:59:37Z</time>
      </trkpt>
      <trkpt lat="47.26313" lon="-2.449">
        <ele>5.91</ele>
        <time>2017-03-29T13:59:44Z</time>
      </trkpt>
      <trkpt lat="47.26304" lon="-2.44897">
        <ele>3.98</ele>
        <time>2017-03-29T13:59:51Z</time>
      </trkpt>
      <trkpt lat="47.26295" lon="-2.44891">
        <ele>4.46</ele>
        <time>2017-03-29T13:59:58Z</time>
      </trkpt>
      <trkpt lat="47.26286" lon="-2.44885">
        <ele>3.5</ele>
        <time>2017-03-29T14:00:05Z</time>
      </trkpt>
      <trkpt lat="47.26279" lon="-2.44876">
        <ele>5.91</ele>
        <time>2017-03-29T14:00:12Z</time>
      </trkpt>
      <trkpt lat="47.26271" lon="-2.44869">
        <ele>6.87</ele>
        <time>2017-03-29T14:00:19Z</time>
      </trkpt>
      <trkpt lat="47.26264" lon="-2.44859">
        <ele>5.91</ele>
        <time>2017-03-29T14:00:26Z</time>
      </trkpt>
      <trkpt lat="47.2626" lon="-2.44848">
        <ele>2.54</ele>
        <time>2017-03-29T14:00:33Z</time>
      </trkpt>
      <trkpt lat="47.26256" lon="-2.44836">
        <ele>4.94</ele>
        <time>2017-03-29T14:00:41Z</time>
      </trkpt>
      <trkpt lat="47.2625" lon="-2.44825">
        <ele>4.94</ele>
        <time>2017-03-29T14:00:48Z</time>
      </trkpt>
      <trkpt lat="47.26242" lon="-2.44815">
        <ele>6.39</ele>
        <time>2017-03-29T14:00:56Z</time>
      </trkpt>
      <trkpt lat="47.26236" lon="-2.44804">
        <ele>6.87</ele>
        <time>2017-03-29T14:01:04Z</time>
      </trkpt>
      <trkpt lat="47.26233" lon="-2.4479">
        <ele>4.94</ele>
        <time>2017-03-29T14:01:11Z</time>
      </trkpt>
      <trkpt lat="47.26231" lon="-2.44776">
        <ele>3.98</ele>
        <time>2017-03-29T14:01:19Z</time>
      </trkpt>
      <trkpt lat="47.26228" lon="-2.44762">
        <ele>4.46</ele>
        <time>2017-03-29T14:01:28Z</time>
      </trkpt>
      <trkpt lat="47.2622" lon="-2.44753">
        <ele>5.42</ele>
        <time>2017-03-29T14:01:36Z</time>
      </trkpt>
      <trkpt lat="47.26212" lon="-2.44743">
        <ele>7.83</ele>
        <time>2017-03-29T14:01:43Z</time>
      </trkpt>
      <trkpt lat="47.26208" lon="-2.4473">
        <ele>9.75</ele>
        <time>2017-03-29T14:01:50Z</time>
      </trkpt>
      <trkpt lat="47.26205" lon="-2.44716">
        <ele>8.79</ele>
        <time>2017-03-29T14:01:57Z</time>
      </trkpt>
      <trkpt lat="47.26203" lon="-2.44701">
        <ele>6.39</ele>
        <time>2017-03-29T14:02:05Z</time>
      </trkpt>
      <trkpt lat="47.26204" lon="-2.44687">
        <ele>7.35</ele>
        <time>2017-03-29T14:02:13Z</time>
      </trkpt>
      <trkpt lat="47.26207" lon="-2.44674">
        <ele>10.71</ele>
        <time>2017-03-29T14:04:52Z</time>
      </trkpt>
      <trkpt lat="47.2621" lon="-2.44658">
        <ele>7.83</ele>
        <time>2017-03-29T14:05:00Z</time>
      </trkpt>
      <trkpt lat="47.26208" lon="-2.44643">
        <ele>7.35</ele>
        <time>2017-03-29T14:05:07Z</time>
      </trkpt>
      <trkpt lat="47.26206" lon="-2.4463">
        <ele>9.75</ele>
        <time>2017-03-29T14:05:14Z</time>
      </trkpt>
      <trkpt lat="47.26203" lon="-2.44617">
        <ele>7.35</ele>
        <time>2017-03-29T14:05:22Z</time>
      </trkpt>
      <trkpt lat="47.26201" lon="-2.44602">
        <ele>6.87</ele>
        <time>2017-03-29T14:05:30Z</time>
      </trkpt>
      <trkpt lat="47.262" lon="-2.44587">
        <ele>5.42</ele>
        <time>2017-03-29T14:05:37Z</time>
      </trkpt>
      <trkpt lat="47.26196" lon="-2.44577">
        <ele>5.91</ele>
        <time>2017-03-29T14:05:45Z</time>
      </trkpt>
      <trkpt lat="47.26191" lon="-2.44567">
        <ele>8.79</ele>
        <time>2017-03-29T14:05:52Z</time>
      </trkpt>
      <trkpt lat="47.26194" lon="-2.44556">
        <ele>8.79</ele>
        <time>2017-03-29T14:05:59Z</time>
      </trkpt>
      <trkpt lat="47.26197" lon="-2.44541">
        <ele>10.71</ele>
        <time>2017-03-29T14:06:07Z</time>
      </trkpt>
      <trkpt lat="47.26201" lon="-2.44529">
        <ele>8.79</ele>
        <time>2017-03-29T14:06:14Z</time>
      </trkpt>
      <trkpt lat="47.26208" lon="-2.44521">
        <ele>8.31</ele>
        <time>2017-03-29T14:06:23Z</time>
      </trkpt>
      <trkpt lat="47.26205" lon="-2.44505">
        <ele>6.87</ele>
        <time>2017-03-29T14:06:31Z</time>
      </trkpt>
      <trkpt lat="47.26202" lon="-2.44493">
        <ele>6.87</ele>
        <time>2017-03-29T14:06:38Z</time>
      </trkpt>
      <trkpt lat="47.26199" lon="-2.44479">
        <ele>10.23</ele>
        <time>2017-03-29T14:06:46Z</time>
      </trkpt>
      <trkpt lat="47.26192" lon="-2.4447">
        <ele>10.71</ele>
        <time>2017-03-29T14:06:54Z</time>
      </trkpt>
      <trkpt lat="47.26182" lon="-2.44476">
        <ele>8.31</ele>
        <time>2017-03-29T14:07:02Z</time>
      </trkpt>
      <trkpt lat="47.26174" lon="-2.44485">
        <ele>9.75</ele>
        <time>2017-03-29T14:07:10Z</time>
      </trkpt>
      <trkpt lat="47.26165" lon="-2.44487">
        <ele>7.83</ele>
        <time>2017-03-29T14:07:18Z</time>
      </trkpt>
      <trkpt lat="47.26162" lon="-2.44482">
        <ele>7.83</ele>
        <time>2017-03-29T14:10:13Z</time>
      </trkpt>
      <trkpt lat="47.2616" lon="-2.44469">
        <ele>5.42</ele>
        <time>2017-03-29T14:10:21Z</time>
      </trkpt>
      <trkpt lat="47.26162" lon="-2.44456">
        <ele>7.35</ele>
        <time>2017-03-29T14:10:29Z</time>
      </trkpt>
      <trkpt lat="47.26165" lon="-2.44442">
        <ele>8.31</ele>
        <time>2017-03-29T14:10:37Z</time>
      </trkpt>
      <trkpt lat="47.26171" lon="-2.4443">
        <ele>6.87</ele>
        <time>2017-03-29T14:10:45Z</time>
      </trkpt>
      <trkpt lat="47.26176" lon="-2.44418">
        <ele>5.91</ele>
        <time>2017-03-29T14:10:53Z</time>
      </trkpt>
      <trkpt lat="47.26173" lon="-2.44405">
        <ele>8.79</ele>
        <time>2017-03-29T14:11:00Z</time>
      </trkpt>
      <trkpt lat="47.26168" lon="-2.44394">
        <ele>6.87</ele>
        <time>2017-03-29T14:11:07Z</time>
      </trkpt>
      <trkpt lat="47.26162" lon="-2.44383">
        <ele>5.91</ele>
        <time>2017-03-29T14:11:14Z</time>
      </trkpt>
      <trkpt lat="47.26158" lon="-2.4437">
        <ele>5.91</ele>
        <time>2017-03-29T14:11:22Z</time>
      </trkpt>
      <trkpt lat="47.26155" lon="-2.44356">
        <ele>3.98</ele>
        <time>2017-03-29T14:11:29Z</time>
      </trkpt>
      <trkpt lat="47.26154" lon="-2.44342">
        <ele>7.83</ele>
        <time>2017-03-29T14:11:36Z</time>
      </trkpt>
      <trkpt lat="47.26152" lon="-2.44329">
        <ele>8.79</ele>
        <time>2017-03-29T14:11:43Z</time>
      </trkpt>
      <trkpt lat="47.26146" lon="-2.44319">
        <ele>5.91</ele>
        <time>2017-03-29T14:11:50Z</time>
      </trkpt>
      <trkpt lat="47.26139" lon="-2.44311">
        <ele>9.27</ele>
        <time>2017-03-29T14:11:56Z</time>
      </trkpt>
      <trkpt lat="47.26134" lon="-2.44298">
        <ele>9.27</ele>
        <time>2017-03-29T14:12:03Z</time>
      </trkpt>
      <trkpt lat="47.2613" lon="-2.44286">
        <ele>9.27</ele>
        <time>2017-03-29T14:12:10Z</time>
      </trkpt>
      <trkpt lat="47.26125" lon="-2.44275">
        <ele>8.79</ele>
        <time>2017-03-29T14:12:17Z</time>
      </trkpt>
      <trkpt lat="47.2612" lon="-2.44264">
        <ele>8.79</ele>
        <time>2017-03-29T14:12:24Z</time>
      </trkpt>
      <trkpt lat="47.26116" lon="-2.44252">
        <ele>13.12</ele>
        <time>2017-03-29T14:12:31Z</time>
      </trkpt>
      <trkpt lat="47.26111" lon="-2.44239">
        <ele>5.91</ele>
        <time>2017-03-29T14:12:38Z</time>
      </trkpt>
      <trkpt lat="47.2611" lon="-2.44226">
        <ele>11.67</ele>
        <time>2017-03-29T14:12:45Z</time>
      </trkpt>
      <trkpt lat="47.26109" lon="-2.44212">
        <ele>9.27</ele>
        <time>2017-03-29T14:12:52Z</time>
      </trkpt>
      <trkpt lat="47.26109" lon="-2.44197">
        <ele>6.87</ele>
        <time>2017-03-29T14:13:00Z</time>
      </trkpt>
      <trkpt lat="47.26108" lon="-2.44183">
        <ele>11.19</ele>
        <time>2017-03-29T14:13:08Z</time>
      </trkpt>
      <trkpt lat="47.26103" lon="-2.44168">
        <ele>11.19</ele>
        <time>2017-03-29T14:13:16Z</time>
      </trkpt>
      <trkpt lat="47.26101" lon="-2.44153">
        <ele>11.19</ele>
        <time>2017-03-29T14:13:24Z</time>
      </trkpt>
      <trkpt lat="47.26105" lon="-2.44141">
        <ele>13.6</ele>
        <time>2017-03-29T14:13:35Z</time>
      </trkpt>
      <trkpt lat="47.26107" lon="-2.4414">
        <ele>9.75</ele>
        <time>2017-03-29T14:14:36Z</time>
      </trkpt>
      <trkpt lat="47.261" lon="-2.44136">
        <ele>11.19</ele>
        <time>2017-03-29T14:14:42Z</time>
      </trkpt>
      <trkpt lat="47.26096" lon="-2.44124">
        <ele>11.67</ele>
        <time>2017-03-29T14:14:48Z</time>
      </trkpt>
      <trkpt lat="47.26094" lon="-2.4411">
        <ele>10.23</ele>
        <time>2017-03-29T14:14:55Z</time>
      </trkpt>
      <trkpt lat="47.26092" lon="-2.44096">
        <ele>9.75</ele>
        <time>2017-03-29T14:15:01Z</time>
      </trkpt>
      <trkpt lat="47.26092" lon="-2.44082">
        <ele>10.23</ele>
        <time>2017-03-29T14:15:07Z</time>
      </trkpt>
      <trkpt lat="47.26087" lon="-2.44071">
        <ele>9.75</ele>
        <time>2017-03-29T14:15:17Z</time>
      </trkpt>
      <trkpt lat="47.26082" lon="-2.44054">
        <ele>9.27</ele>
        <time>2017-03-29T14:15:23Z</time>
      </trkpt>
      <trkpt lat="47.26081" lon="-2.44042">
        <ele>9.27</ele>
        <time>2017-03-29T14:15:28Z</time>
      </trkpt>
      <trkpt lat="47.2608" lon="-2.44027">
        <ele>8.79</ele>
        <time>2017-03-29T14:15:38Z</time>
      </trkpt>
      <trkpt lat="47.26074" lon="-2.44013">
        <ele>8.79</ele>
        <time>2017-03-29T14:15:46Z</time>
      </trkpt>
      <trkpt lat="47.26069" lon="-2.44001">
        <ele>6.39</ele>
        <time>2017-03-29T14:15:53Z</time>
      </trkpt>
      <trkpt lat="47.26064" lon="-2.4399">
        <ele>5.42</ele>
        <time>2017-03-29T14:16:00Z</time>
      </trkpt>
      <trkpt lat="47.26059" lon="-2.43977">
        <ele>12.15</ele>
        <time>2017-03-29T14:16:07Z</time>
      </trkpt>
      <trkpt lat="47.26059" lon="-2.43963">
        <ele>2.06</ele>
        <time>2017-03-29T14:16:14Z</time>
      </trkpt>
      <trkpt lat="47.2606" lon="-2.43949">
        <ele>8.79</ele>
        <time>2017-03-29T14:16:21Z</time>
      </trkpt>
      <trkpt lat="47.26058" lon="-2.43935">
        <ele>6.39</ele>
        <time>2017-03-29T14:16:28Z</time>
      </trkpt>
      <trkpt lat="47.26055" lon="-2.4392">
        <ele>9.27</ele>
        <time>2017-03-29T14:16:35Z</time>
      </trkpt>
      <trkpt lat="47.26051" lon="-2.43907">
        <ele>5.42</ele>
        <time>2017-03-29T14:16:41Z</time>
      </trkpt>
      <trkpt lat="47.2605" lon="-2.43893">
        <ele>6.39</ele>
        <time>2017-03-29T14:16:48Z</time>
      </trkpt>
      <trkpt lat="47.26051" lon="-2.43878">
        <ele>7.35</ele>
        <time>2017-03-29T14:16:55Z</time>
      </trkpt>
      <trkpt lat="47.26053" lon="-2.43864">
        <ele>6.87</ele>
        <time>2017-03-29T14:17:02Z</time>
      </trkpt>
      <trkpt lat="47.26055" lon="-2.4385">
        <ele>5.91</ele>
        <time>2017-03-29T14:17:09Z</time>
      </trkpt>
      <trkpt lat="47.26058" lon="-2.43837">
        <ele>6.39</ele>
        <time>2017-03-29T14:17:16Z</time>
      </trkpt>
      <trkpt lat="47.26059" lon="-2.43823">
        <ele>6.39</ele>
        <time>2017-03-29T14:17:22Z</time>
      </trkpt>
      <trkpt lat="47.2606" lon="-2.4381">
        <ele>7.35</ele>
        <time>2017-03-29T14:17:29Z</time>
      </trkpt>
      <trkpt lat="47.26065" lon="-2.43798">
        <ele>5.42</ele>
        <time>2017-03-29T14:17:36Z</time>
      </trkpt>
      <trkpt lat="47.26067" lon="-2.43785">
        <ele>9.27</ele>
        <time>2017-03-29T14:17:43Z</time>
      </trkpt>
      <trkpt lat="47.26067" lon="-2.43771">
        <ele>4.94</ele>
        <time>2017-03-29T14:17:50Z</time>
      </trkpt>
      <trkpt lat="47.2607" lon="-2.43757">
        <ele>7.35</ele>
        <time>2017-03-29T14:17:57Z</time>
      </trkpt>
      <trkpt lat="47.26074" lon="-2.43744">
        <ele>9.75</ele>
        <time>2017-03-29T14:18:04Z</time>
      </trkpt>
      <trkpt lat="47.26079" lon="-2.43732">
        <ele>5.91</ele>
        <time>2017-03-29T14:18:11Z</time>
      </trkpt>
      <trkpt lat="47.26077" lon="-2.43717">
        <ele>8.31</ele>
        <time>2017-03-29T14:18:18Z</time>
      </trkpt>
      <trkpt lat="47.2607" lon="-2.43708">
        <ele>6.87</ele>
        <time>2017-03-29T14:18:24Z</time>
      </trkpt>
      <trkpt lat="47.26067" lon="-2.43696">
        <ele>10.71</ele>
        <time>2017-03-29T14:18:31Z</time>
      </trkpt>
      <trkpt lat="47.26066" lon="-2.4368">
        <ele>6.39</ele>
        <time>2017-03-29T14:18:38Z</time>
      </trkpt>
      <trkpt lat="47.2607" lon="-2.43667">
        <ele>4.94</ele>
        <time>2017-03-29T14:18:45Z</time>
      </trkpt>
      <trkpt lat="47.26077" lon="-2.43657">
        <ele>8.79</ele>
        <time>2017-03-29T14:18:52Z</time>
      </trkpt>
      <trkpt lat="47.26076" lon="-2.43645">
        <ele>5.42</ele>
        <time>2017-03-29T14:18:59Z</time>
      </trkpt>
      <trkpt lat="47.26068" lon="-2.43634">
        <ele>3.98</ele>
        <time>2017-03-29T14:19:06Z</time>
      </trkpt>
      <trkpt lat="47.26061" lon="-2.43623">
        <ele>9.75</ele>
        <time>2017-03-29T14:19:13Z</time>
      </trkpt>
      <trkpt lat="47.26056" lon="-2.43612">
        <ele>4.46</ele>
        <time>2017-03-29T14:19:20Z</time>
      </trkpt>
      <trkpt lat="47.2605" lon="-2.43602">
        <ele>7.83</ele>
        <time>2017-03-29T14:19:26Z</time>
      </trkpt>
      <trkpt lat="47.26045" lon="-2.43588">
        <ele>8.31</ele>
        <time>2017-03-29T14:19:33Z</time>
      </trkpt>
      <trkpt lat="47.2604" lon="-2.43577">
        <ele>3.98</ele>
        <time>2017-03-29T14:19:40Z</time>
      </trkpt>
      <trkpt lat="47.26034" lon="-2.43565">
        <ele>10.71</ele>
        <time>2017-03-29T14:19:47Z</time>
      </trkpt>
      <trkpt lat="47.26028" lon="-2.43552">
        <ele>3.5</ele>
        <time>2017-03-29T14:19:54Z</time>
      </trkpt>
      <trkpt lat="47.26022" lon="-2.43539">
        <ele>6.39</ele>
        <time>2017-03-29T14:20:02Z</time>
      </trkpt>
      <trkpt lat="47.26013" lon="-2.43534">
        <ele>8.31</ele>
        <time>2017-03-29T14:20:09Z</time>
      </trkpt>
      <trkpt lat="47.26004" lon="-2.4353">
        <ele>4.94</ele>
        <time>2017-03-29T14:20:16Z</time>
      </trkpt>
      <trkpt lat="47.25999" lon="-2.43517">
        <ele>9.27</ele>
        <time>2017-03-29T14:20:23Z</time>
      </trkpt>
      <trkpt lat="47.25999" lon="-2.43502">
        <ele>3.5</ele>
        <time>2017-03-29T14:20:30Z</time>
      </trkpt>
      <trkpt lat="47.25997" lon="-2.43488">
        <ele>5.91</ele>
        <time>2017-03-29T14:20:38Z</time>
      </trkpt>
      <trkpt lat="47.25994" lon="-2.43474">
        <ele>7.83</ele>
        <time>2017-03-29T14:20:45Z</time>
      </trkpt>
      <trkpt lat="47.25993" lon="-2.43458">
        <ele>3.98</ele>
        <time>2017-03-29T14:20:53Z</time>
      </trkpt>
      <trkpt lat="47.25988" lon="-2.43445">
        <ele>4.94</ele>
        <time>2017-03-29T14:21:00Z</time>
      </trkpt>
      <trkpt lat="47.25983" lon="-2.43431">
        <ele>5.91</ele>
        <time>2017-03-29T14:21:07Z</time>
      </trkpt>
      <trkpt lat="47.25978" lon="-2.43418">
        <ele>2.54</ele>
        <time>2017-03-29T14:21:14Z</time>
      </trkpt>
      <trkpt lat="47.25974" lon="-2.43405">
        <ele>11.67</ele>
        <time>2017-03-29T14:21:21Z</time>
      </trkpt>
      <trkpt lat="47.25969" lon="-2.43393">
        <ele>5.42</ele>
        <time>2017-03-29T14:21:27Z</time>
      </trkpt>
      <trkpt lat="47.25966" lon="-2.43382">
        <ele>1.1</ele>
        <time>2017-03-29T14:21:33Z</time>
      </trkpt>
      <trkpt lat="47.25961" lon="-2.43371">
        <ele>6.39</ele>
        <time>2017-03-29T14:21:39Z</time>
      </trkpt>
      <trkpt lat="47.25958" lon="-2.43359">
        <ele>4.94</ele>
        <time>2017-03-29T14:21:46Z</time>
      </trkpt>
      <trkpt lat="47.25954" lon="-2.43344">
        <ele>2.06</ele>
        <time>2017-03-29T14:21:53Z</time>
      </trkpt>
      <trkpt lat="47.25951" lon="-2.43331">
        <ele>9.27</ele>
        <time>2017-03-29T14:22:00Z</time>
      </trkpt>
      <trkpt lat="47.25948" lon="-2.43318">
        <ele>3.02</ele>
        <time>2017-03-29T14:22:07Z</time>
      </trkpt>
      <trkpt lat="47.25947" lon="-2.43305">
        <ele>7.83</ele>
        <time>2017-03-29T14:22:14Z</time>
      </trkpt>
      <trkpt lat="47.25944" lon="-2.43292">
        <ele>3.5</ele>
        <time>2017-03-29T14:22:21Z</time>
      </trkpt>
      <trkpt lat="47.25944" lon="-2.43276">
        <ele>8.31</ele>
        <time>2017-03-29T14:22:29Z</time>
      </trkpt>
      <trkpt lat="47.25942" lon="-2.43262">
        <ele>3.02</ele>
        <time>2017-03-29T14:22:36Z</time>
      </trkpt>
      <trkpt lat="47.25941" lon="-2.43249">
        <ele>9.27</ele>
        <time>2017-03-29T14:22:43Z</time>
      </trkpt>
      <trkpt lat="47.25937" lon="-2.43236">
        <ele>-0.34</ele>
        <time>2017-03-29T14:22:50Z</time>
      </trkpt>
      <trkpt lat="47.25927" lon="-2.43235">
        <ele>6.87</ele>
        <time>2017-03-29T14:22:57Z</time>
      </trkpt>
      <trkpt lat="47.25917" lon="-2.43234">
        <ele>-0.34</ele>
        <time>2017-03-29T14:23:04Z</time>
      </trkpt>
      <trkpt lat="47.25909" lon="-2.43228">
        <ele>6.87</ele>
        <time>2017-03-29T14:23:10Z</time>
      </trkpt>
      <trkpt lat="47.25901" lon="-2.4322">
        <ele>4.94</ele>
        <time>2017-03-29T14:23:17Z</time>
      </trkpt>
      <trkpt lat="47.25893" lon="-2.43212">
        <ele>6.87</ele>
        <time>2017-03-29T14:23:24Z</time>
      </trkpt>
      <trkpt lat="47.25887" lon="-2.43201">
        <ele>4.94</ele>
        <time>2017-03-29T14:23:31Z</time>
      </trkpt>
      <trkpt lat="47.2588" lon="-2.4319">
        <ele>5.42</ele>
        <time>2017-03-29T14:23:39Z</time>
      </trkpt>
      <trkpt lat="47.25872" lon="-2.43183">
        <ele>3.98</ele>
        <time>2017-03-29T14:23:46Z</time>
      </trkpt>
      <trkpt lat="47.25862" lon="-2.43178">
        <ele>5.91</ele>
        <time>2017-03-29T14:23:54Z</time>
      </trkpt>
      <trkpt lat="47.25853" lon="-2.43173">
        <ele>1.1</ele>
        <time>2017-03-29T14:24:00Z</time>
      </trkpt>
      <trkpt lat="47.25847" lon="-2.43162">
        <ele>5.91</ele>
        <time>2017-03-29T14:24:07Z</time>
      </trkpt>
      <trkpt lat="47.25846" lon="-2.43149">
        <ele>3.5</ele>
        <time>2017-03-29T14:24:14Z</time>
      </trkpt>
      <trkpt lat="47.25847" lon="-2.43138">
        <ele>2.54</ele>
        <time>2017-03-29T14:24:20Z</time>
      </trkpt>
      <trkpt lat="47.25854" lon="-2.43129">
        <ele>6.87</ele>
        <time>2017-03-29T14:24:27Z</time>
      </trkpt>
      <trkpt lat="47.25861" lon="-2.43119">
        <ele>1.58</ele>
        <time>2017-03-29T14:24:34Z</time>
      </trkpt>
      <trkpt lat="47.25868" lon="-2.4311">
        <ele>8.31</ele>
        <time>2017-03-29T14:24:41Z</time>
      </trkpt>
      <trkpt lat="47.25874" lon="-2.43099">
        <ele>2.06</ele>
        <time>2017-03-29T14:24:48Z</time>
      </trkpt>
      <trkpt lat="47.25876" lon="-2.43086">
        <ele>7.83</ele>
        <time>2017-03-29T14:24:55Z</time>
      </trkpt>
      <trkpt lat="47.25879" lon="-2.43073">
        <ele>3.02</ele>
        <time>2017-03-29T14:25:02Z</time>
      </trkpt>
      <trkpt lat="47.25883" lon="-2.4306">
        <ele>8.31</ele>
        <time>2017-03-29T14:25:09Z</time>
      </trkpt>
      <trkpt lat="47.2589" lon="-2.43051">
        <ele>3.5</ele>
        <time>2017-03-29T14:25:16Z</time>
      </trkpt>
      <trkpt lat="47.259" lon="-2.43047">
        <ele>3.5</ele>
        <time>2017-03-29T14:25:24Z</time>
      </trkpt>
      <trkpt lat="47.2591" lon="-2.43044">
        <ele>7.35</ele>
        <time>2017-03-29T14:25:31Z</time>
      </trkpt>
      <trkpt lat="47.25919" lon="-2.43037">
        <ele>3.98</ele>
        <time>2017-03-29T14:25:39Z</time>
      </trkpt>
      <trkpt lat="47.25928" lon="-2.43031">
        <ele>7.35</ele>
        <time>2017-03-29T14:25:46Z</time>
      </trkpt>
      <trkpt lat="47.25936" lon="-2.43025">
        <ele>5.42</ele>
        <time>2017-03-29T14:25:54Z</time>
      </trkpt>
      <trkpt lat="47.25945" lon="-2.43017">
        <ele>3.5</ele>
        <time>2017-03-29T14:26:02Z</time>
      </trkpt>
      <trkpt lat="47.25951" lon="-2.43005">
        <ele>8.79</ele>
        <time>2017-03-29T14:26:09Z</time>
      </trkpt>
      <trkpt lat="47.25953" lon="-2.42991">
        <ele>5.42</ele>
        <time>2017-03-29T14:26:17Z</time>
      </trkpt>
      <trkpt lat="47.25953" lon="-2.42977">
        <ele>7.83</ele>
        <time>2017-03-29T14:26:24Z</time>
      </trkpt>
      <trkpt lat="47.25953" lon="-2.42961">
        <ele>3.02</ele>
        <time>2017-03-29T14:26:32Z</time>
      </trkpt>
      <trkpt lat="47.25955" lon="-2.42945">
        <ele>8.31</ele>
        <time>2017-03-29T14:26:39Z</time>
      </trkpt>
      <trkpt lat="47.25958" lon="-2.42933">
        <ele>3.98</ele>
        <time>2017-03-29T14:26:46Z</time>
      </trkpt>
      <trkpt lat="47.25964" lon="-2.42921">
        <ele>5.42</ele>
        <time>2017-03-29T14:26:54Z</time>
      </trkpt>
      <trkpt lat="47.25971" lon="-2.42909">
        <ele>9.27</ele>
        <time>2017-03-29T14:27:17Z</time>
      </trkpt>
      <trkpt lat="47.25975" lon="-2.42895">
        <ele>3.98</ele>
        <time>2017-03-29T14:27:24Z</time>
      </trkpt>
      <trkpt lat="47.25978" lon="-2.42882">
        <ele>10.71</ele>
        <time>2017-03-29T14:27:31Z</time>
      </trkpt>
      <trkpt lat="47.25979" lon="-2.42866">
        <ele>4.94</ele>
        <time>2017-03-29T14:27:39Z</time>
      </trkpt>
      <trkpt lat="47.2598" lon="-2.42851">
        <ele>4.94</ele>
        <time>2017-03-29T14:27:46Z</time>
      </trkpt>
      <trkpt lat="47.2598" lon="-2.42837">
        <ele>8.79</ele>
        <time>2017-03-29T14:27:53Z</time>
      </trkpt>
      <trkpt lat="47.25981" lon="-2.42821">
        <ele>8.79</ele>
        <time>2017-03-29T14:28:01Z</time>
      </trkpt>
      <trkpt lat="47.25977" lon="-2.42806">
        <ele>3.5</ele>
        <time>2017-03-29T14:28:08Z</time>
      </trkpt>
      <trkpt lat="47.25972" lon="-2.42794">
        <ele>8.31</ele>
        <time>2017-03-29T14:28:15Z</time>
      </trkpt>
      <trkpt lat="47.25965" lon="-2.42782">
        <ele>3.02</ele>
        <time>2017-03-29T14:28:23Z</time>
      </trkpt>
      <trkpt lat="47.25964" lon="-2.42768">
        <ele>6.39</ele>
        <time>2017-03-29T14:28:30Z</time>
      </trkpt>
      <trkpt lat="47.25966" lon="-2.42754">
        <ele>5.42</ele>
        <time>2017-03-29T14:28:38Z</time>
      </trkpt>
      <trkpt lat="47.25972" lon="-2.42744">
        <ele>4.94</ele>
        <time>2017-03-29T14:28:44Z</time>
      </trkpt>
      <trkpt lat="47.25979" lon="-2.42736">
        <ele>5.42</ele>
        <time>2017-03-29T14:28:51Z</time>
      </trkpt>
      <trkpt lat="47.25981" lon="-2.42723">
        <ele>5.91</ele>
        <time>2017-03-29T14:28:58Z</time>
      </trkpt>
      <trkpt lat="47.2598" lon="-2.42708">
        <ele>3.5</ele>
        <time>2017-03-29T14:29:05Z</time>
      </trkpt>
      <trkpt lat="47.25978" lon="-2.42694">
        <ele>3.98</ele>
        <time>2017-03-29T14:29:13Z</time>
      </trkpt>
      <trkpt lat="47.25976" lon="-2.4268">
        <ele>8.79</ele>
        <time>2017-03-29T14:29:20Z</time>
      </trkpt>
      <trkpt lat="47.25974" lon="-2.42666">
        <ele>3.5</ele>
        <time>2017-03-29T14:29:27Z</time>
      </trkpt>
      <trkpt lat="47.25972" lon="-2.4265">
        <ele>6.39</ele>
        <time>2017-03-29T14:29:35Z</time>
      </trkpt>
      <trkpt lat="47.25969" lon="-2.42636">
        <ele>5.91</ele>
        <time>2017-03-29T14:29:42Z</time>
      </trkpt>
      <trkpt lat="47.25966" lon="-2.42622">
        <ele>5.42</ele>
        <time>2017-03-29T14:29:49Z</time>
      </trkpt>
      <trkpt lat="47.25965" lon="-2.42608">
        <ele>5.42</ele>
        <time>2017-03-29T14:29:56Z</time>
      </trkpt>
      <trkpt lat="47.25964" lon="-2.42593">
        <ele>5.42</ele>
        <time>2017-03-29T14:30:03Z</time>
      </trkpt>
      <trkpt lat="47.25965" lon="-2.42579">
        <ele>4.94</ele>
        <time>2017-03-29T14:30:11Z</time>
      </trkpt>
      <trkpt lat="47.25968" lon="-2.42565">
        <ele>6.87</ele>
        <time>2017-03-29T14:30:18Z</time>
      </trkpt>
      <trkpt lat="47.25965" lon="-2.42552">
        <ele>2.06</ele>
        <time>2017-03-29T14:30:25Z</time>
      </trkpt>
      <trkpt lat="47.25962" lon="-2.42539">
        <ele>5.42</ele>
        <time>2017-03-29T14:30:32Z</time>
      </trkpt>
      <trkpt lat="47.25966" lon="-2.42526">
        <ele>2.06</ele>
        <time>2017-03-29T14:30:39Z</time>
      </trkpt>
      <trkpt lat="47.25973" lon="-2.42517">
        <ele>8.79</ele>
        <time>2017-03-29T14:30:46Z</time>
      </trkpt>
      <trkpt lat="47.25979" lon="-2.42505">
        <ele>4.46</ele>
        <time>2017-03-29T14:30:53Z</time>
      </trkpt>
      <trkpt lat="47.25983" lon="-2.42493">
        <ele>6.87</ele>
        <time>2017-03-29T14:31:00Z</time>
      </trkpt>
      <trkpt lat="47.25986" lon="-2.42479">
        <ele>5.91</ele>
        <time>2017-03-29T14:31:07Z</time>
      </trkpt>
      <trkpt lat="47.25983" lon="-2.42465">
        <ele>5.42</ele>
        <time>2017-03-29T14:31:15Z</time>
      </trkpt>
      <trkpt lat="47.25983" lon="-2.42451">
        <ele>4.46</ele>
        <time>2017-03-29T14:31:23Z</time>
      </trkpt>
      <trkpt lat="47.25982" lon="-2.42444">
        <ele>3.5</ele>
        <time>2017-03-29T14:31:50Z</time>
      </trkpt>
      <trkpt lat="47.25982" lon="-2.4246">
        <ele>4.46</ele>
        <time>2017-03-29T14:31:59Z</time>
      </trkpt>
      <trkpt lat="47.25986" lon="-2.42467">
        <ele>5.91</ele>
        <time>2017-03-29T14:32:08Z</time>
      </trkpt>
      <trkpt lat="47.25989" lon="-2.42453">
        <ele>5.91</ele>
        <time>2017-03-29T14:32:16Z</time>
      </trkpt>
      <trkpt lat="47.2599" lon="-2.42439">
        <ele>6.39</ele>
        <time>2017-03-29T14:32:23Z</time>
      </trkpt>
      <trkpt lat="47.25988" lon="-2.42425">
        <ele>6.39</ele>
        <time>2017-03-29T14:32:31Z</time>
      </trkpt>
      <trkpt lat="47.2598" lon="-2.42416">
        <ele>5.91</ele>
        <time>2017-03-29T14:32:39Z</time>
      </trkpt>
      <trkpt lat="47.25972" lon="-2.42423">
        <ele>5.91</ele>
        <time>2017-03-29T14:32:46Z</time>
      </trkpt>
      <trkpt lat="47.25965" lon="-2.42433">
        <ele>6.39</ele>
        <time>2017-03-29T14:32:54Z</time>
      </trkpt>
      <trkpt lat="47.25959" lon="-2.42425">
        <ele>4.94</ele>
        <time>2017-03-29T14:33:01Z</time>
      </trkpt>
      <trkpt lat="47.2596" lon="-2.42411">
        <ele>8.79</ele>
        <time>2017-03-29T14:33:08Z</time>
      </trkpt>
      <trkpt lat="47.2596" lon="-2.42397">
        <ele>4.46</ele>
        <time>2017-03-29T14:33:15Z</time>
      </trkpt>
      <trkpt lat="47.25958" lon="-2.42383">
        <ele>3.5</ele>
        <time>2017-03-29T14:33:22Z</time>
      </trkpt>
      <trkpt lat="47.25956" lon="-2.42369">
        <ele>7.35</ele>
        <time>2017-03-29T14:33:29Z</time>
      </trkpt>
      <trkpt lat="47.25954" lon="-2.42356">
        <ele>10.71</ele>
        <time>2017-03-29T14:33:36Z</time>
      </trkpt>
      <trkpt lat="47.25953" lon="-2.42341">
        <ele>7.35</ele>
        <time>2017-03-29T14:33:43Z</time>
      </trkpt>
      <trkpt lat="47.2595" lon="-2.42328">
        <ele>7.35</ele>
        <time>2017-03-29T14:33:50Z</time>
      </trkpt>
      <trkpt lat="47.25944" lon="-2.42316">
        <ele>7.35</ele>
        <time>2017-03-29T14:33:58Z</time>
      </trkpt>
      <trkpt lat="47.25935" lon="-2.42309">
        <ele>7.83</ele>
        <time>2017-03-29T14:34:06Z</time>
      </trkpt>
      <trkpt lat="47.25928" lon="-2.42299">
        <ele>7.35</ele>
        <time>2017-03-29T14:34:13Z</time>
      </trkpt>
      <trkpt lat="47.25923" lon="-2.42286">
        <ele>1.1</ele>
        <time>2017-03-29T14:34:20Z</time>
      </trkpt>
      <trkpt lat="47.2592" lon="-2.42273">
        <ele>10.71</ele>
        <time>2017-03-29T14:34:27Z</time>
      </trkpt>
      <trkpt lat="47.25919" lon="-2.42259">
        <ele>4.46</ele>
        <time>2017-03-29T14:34:34Z</time>
      </trkpt>
      <trkpt lat="47.25917" lon="-2.42245">
        <ele>8.79</ele>
        <time>2017-03-29T14:34:41Z</time>
      </trkpt>
      <trkpt lat="47.25914" lon="-2.42233">
        <ele>8.31</ele>
        <time>2017-03-29T14:34:48Z</time>
      </trkpt>
      <trkpt lat="47.25909" lon="-2.42221">
        <ele>6.39</ele>
        <time>2017-03-29T14:34:55Z</time>
      </trkpt>
      <trkpt lat="47.25906" lon="-2.42208">
        <ele>10.23</ele>
        <time>2017-03-29T14:35:02Z</time>
      </trkpt>
      <trkpt lat="47.25904" lon="-2.42194">
        <ele>3.5</ele>
        <time>2017-03-29T14:35:09Z</time>
      </trkpt>
      <trkpt lat="47.25905" lon="-2.4218">
        <ele>8.79</ele>
        <time>2017-03-29T14:35:16Z</time>
      </trkpt>
      <trkpt lat="47.25905" lon="-2.42167">
        <ele>9.75</ele>
        <time>2017-03-29T14:35:23Z</time>
      </trkpt>
      <trkpt lat="47.25902" lon="-2.42154">
        <ele>6.39</ele>
        <time>2017-03-29T14:35:30Z</time>
      </trkpt>
      <trkpt lat="47.25903" lon="-2.42139">
        <ele>6.39</ele>
        <time>2017-03-29T14:35:38Z</time>
      </trkpt>
      <trkpt lat="47.25906" lon="-2.42125">
        <ele>10.23</ele>
        <time>2017-03-29T14:35:46Z</time>
      </trkpt>
      <trkpt lat="47.25907" lon="-2.42111">
        <ele>8.79</ele>
        <time>2017-03-29T14:35:54Z</time>
      </trkpt>
      <trkpt lat="47.25904" lon="-2.42098">
        <ele>11.67</ele>
        <time>2017-03-29T14:36:01Z</time>
      </trkpt>
      <trkpt lat="47.25901" lon="-2.42083">
        <ele>7.35</ele>
        <time>2017-03-29T14:36:09Z</time>
      </trkpt>
      <trkpt lat="47.25899" lon="-2.42071">
        <ele>8.79</ele>
        <time>2017-03-29T14:36:16Z</time>
      </trkpt>
      <trkpt lat="47.25892" lon="-2.42059">
        <ele>7.83</ele>
        <time>2017-03-29T14:36:24Z</time>
      </trkpt>
      <trkpt lat="47.25883" lon="-2.42054">
        <ele>7.35</ele>
        <time>2017-03-29T14:36:31Z</time>
      </trkpt>
      <trkpt lat="47.25876" lon="-2.42045">
        <ele>6.87</ele>
        <time>2017-03-29T14:36:38Z</time>
      </trkpt>
      <trkpt lat="47.25868" lon="-2.42037">
        <ele>7.35</ele>
        <time>2017-03-29T14:36:45Z</time>
      </trkpt>
      <trkpt lat="47.2586" lon="-2.4203">
        <ele>3.98</ele>
        <time>2017-03-29T14:36:52Z</time>
      </trkpt>
      <trkpt lat="47.25861" lon="-2.42016">
        <ele>8.31</ele>
        <time>2017-03-29T14:36:59Z</time>
      </trkpt>
      <trkpt lat="47.2586" lon="-2.42002">
        <ele>5.91</ele>
        <time>2017-03-29T14:37:06Z</time>
      </trkpt>
      <trkpt lat="47.25856" lon="-2.4199">
        <ele>6.39</ele>
        <time>2017-03-29T14:37:13Z</time>
      </trkpt>
      <trkpt lat="47.25854" lon="-2.41975">
        <ele>7.83</ele>
        <time>2017-03-29T14:37:21Z</time>
      </trkpt>
      <trkpt lat="47.25852" lon="-2.41961">
        <ele>4.94</ele>
        <time>2017-03-29T14:37:28Z</time>
      </trkpt>
      <trkpt lat="47.25854" lon="-2.41948">
        <ele>6.87</ele>
        <time>2017-03-29T14:37:35Z</time>
      </trkpt>
      <trkpt lat="47.25856" lon="-2.41935">
        <ele>7.35</ele>
        <time>2017-03-29T14:37:42Z</time>
      </trkpt>
      <trkpt lat="47.25858" lon="-2.41919">
        <ele>4.46</ele>
        <time>2017-03-29T14:37:50Z</time>
      </trkpt>
      <trkpt lat="47.25859" lon="-2.41904">
        <ele>7.35</ele>
        <time>2017-03-29T14:37:58Z</time>
      </trkpt>
      <trkpt lat="47.25861" lon="-2.41889">
        <ele>5.91</ele>
        <time>2017-03-29T14:38:05Z</time>
      </trkpt>
      <trkpt lat="47.25863" lon="-2.41875">
        <ele>5.91</ele>
        <time>2017-03-29T14:38:12Z</time>
      </trkpt>
      <trkpt lat="47.25867" lon="-2.4186">
        <ele>5.91</ele>
        <time>2017-03-29T14:38:19Z</time>
      </trkpt>
      <trkpt lat="47.25871" lon="-2.41846">
        <ele>5.91</ele>
        <time>2017-03-29T14:38:27Z</time>
      </trkpt>
      <trkpt lat="47.25875" lon="-2.41834">
        <ele>5.91</ele>
        <time>2017-03-29T14:38:34Z</time>
      </trkpt>
      <trkpt lat="47.25881" lon="-2.4182">
        <ele>6.39</ele>
        <time>2017-03-29T14:38:42Z</time>
      </trkpt>
      <trkpt lat="47.25885" lon="-2.41808">
        <ele>5.91</ele>
        <time>2017-03-29T14:38:50Z</time>
      </trkpt>
      <trkpt lat="47.25891" lon="-2.41793">
        <ele>5.91</ele>
        <time>2017-03-29T14:38:59Z</time>
      </trkpt>
      <trkpt lat="47.25898" lon="-2.41782">
        <ele>5.91</ele>
        <time>2017-03-29T14:39:07Z</time>
      </trkpt>
      <trkpt lat="47.25905" lon="-2.41771">
        <ele>5.91</ele>
        <time>2017-03-29T14:39:16Z</time>
      </trkpt>
      <trkpt lat="47.25913" lon="-2.41759">
        <ele>6.39</ele>
        <time>2017-03-29T14:39:25Z</time>
      </trkpt>
      <trkpt lat="47.25923" lon="-2.41754">
        <ele>6.39</ele>
        <time>2017-03-29T14:39:33Z</time>
      </trkpt>
      <trkpt lat="47.25937" lon="-2.41751">
        <ele>6.87</ele>
        <time>2017-03-29T14:39:41Z</time>
      </trkpt>
      <trkpt lat="47.25948" lon="-2.41751">
        <ele>5.91</ele>
        <time>2017-03-29T14:39:49Z</time>
      </trkpt>
      <trkpt lat="47.2596" lon="-2.41751">
        <ele>5.42</ele>
        <time>2017-03-29T14:39:57Z</time>
      </trkpt>
      <trkpt lat="47.25972" lon="-2.41754">
        <ele>7.35</ele>
        <time>2017-03-29T14:40:06Z</time>
      </trkpt>
      <trkpt lat="47.25982" lon="-2.41757">
        <ele>7.83</ele>
        <time>2017-03-29T14:40:14Z</time>
      </trkpt>
      <trkpt lat="47.25993" lon="-2.41759">
        <ele>3.98</ele>
        <time>2017-03-29T14:40:22Z</time>
      </trkpt>
      <trkpt lat="47.26004" lon="-2.41762">
        <ele>7.83</ele>
        <time>2017-03-29T14:40:31Z</time>
      </trkpt>
      <trkpt lat="47.26014" lon="-2.41763">
        <ele>6.39</ele>
        <time>2017-03-29T14:40:39Z</time>
      </trkpt>
      <trkpt lat="47.26025" lon="-2.41768">
        <ele>4.94</ele>
        <time>2017-03-29T14:40:47Z</time>
      </trkpt>
      <trkpt lat="47.26035" lon="-2.41769">
        <ele>7.83</ele>
        <time>2017-03-29T14:40:55Z</time>
      </trkpt>
      <trkpt lat="47.26046" lon="-2.41773">
        <ele>5.42</ele>
        <time>2017-03-29T14:41:03Z</time>
      </trkpt>
      <trkpt lat="47.26055" lon="-2.41777">
        <ele>6.87</ele>
        <time>2017-03-29T14:41:11Z</time>
      </trkpt>
      <trkpt lat="47.26065" lon="-2.41779">
        <ele>6.39</ele>
        <time>2017-03-29T14:41:19Z</time>
      </trkpt>
      <trkpt lat="47.26075" lon="-2.41781">
        <ele>5.42</ele>
        <time>2017-03-29T14:41:26Z</time>
      </trkpt>
      <trkpt lat="47.26085" lon="-2.41783">
        <ele>5.91</ele>
        <time>2017-03-29T14:41:33Z</time>
      </trkpt>
      <trkpt lat="47.26096" lon="-2.41785">
        <ele>3.98</ele>
        <time>2017-03-29T14:41:41Z</time>
      </trkpt>
      <trkpt lat="47.2611" lon="-2.41793">
        <ele>3.02</ele>
        <time>2017-03-29T14:41:50Z</time>
      </trkpt>
      <trkpt lat="47.26119" lon="-2.41798">
        <ele>7.83</ele>
        <time>2017-03-29T14:41:57Z</time>
      </trkpt>
      <trkpt lat="47.2613" lon="-2.41798">
        <ele>3.02</ele>
        <time>2017-03-29T14:42:05Z</time>
      </trkpt>
      <trkpt lat="47.26139" lon="-2.41793">
        <ele>6.39</ele>
        <time>2017-03-29T14:42:14Z</time>
      </trkpt>
      <trkpt lat="47.26146" lon="-2.41782">
        <ele>6.87</ele>
        <time>2017-03-29T14:42:21Z</time>
      </trkpt>
      <trkpt lat="47.26153" lon="-2.41772">
        <ele>3.98</ele>
        <time>2017-03-29T14:42:28Z</time>
      </trkpt>
      <trkpt lat="47.26156" lon="-2.41758">
        <ele>3.98</ele>
        <time>2017-03-29T14:42:37Z</time>
      </trkpt>
      <trkpt lat="47.26154" lon="-2.41745">
        <ele>6.87</ele>
        <time>2017-03-29T14:42:45Z</time>
      </trkpt>
      <trkpt lat="47.26149" lon="-2.41732">
        <ele>4.94</ele>
        <time>2017-03-29T14:42:53Z</time>
      </trkpt>
      <trkpt lat="47.26152" lon="-2.4172">
        <ele>3.98</ele>
        <time>2017-03-29T14:43:05Z</time>
      </trkpt>
      <trkpt lat="47.26149" lon="-2.41733">
        <ele>3.5</ele>
        <time>2017-03-29T14:43:24Z</time>
      </trkpt>
      <trkpt lat="47.26151" lon="-2.4175">
        <ele>6.39</ele>
        <time>2017-03-29T14:43:33Z</time>
      </trkpt>
      <trkpt lat="47.26157" lon="-2.41768">
        <ele>3.02</ele>
        <time>2017-03-29T14:43:40Z</time>
      </trkpt>
      <trkpt lat="47.2615" lon="-2.4178">
        <ele>7.83</ele>
        <time>2017-03-29T14:43:48Z</time>
      </trkpt>
      <trkpt lat="47.2614" lon="-2.41786">
        <ele>5.91</ele>
        <time>2017-03-29T14:43:56Z</time>
      </trkpt>
      <trkpt lat="47.26142" lon="-2.41802">
        <ele>3.98</ele>
        <time>2017-03-29T14:44:06Z</time>
      </trkpt>
      <trkpt lat="47.26153" lon="-2.41809">
        <ele>3.02</ele>
        <time>2017-03-29T14:44:14Z</time>
      </trkpt>
      <trkpt lat="47.26163" lon="-2.41819">
        <ele>6.39</ele>
        <time>2017-03-29T14:44:22Z</time>
      </trkpt>
      <trkpt lat="47.26172" lon="-2.41826">
        <ele>7.35</ele>
        <time>2017-03-29T14:44:30Z</time>
      </trkpt>
      <trkpt lat="47.2618" lon="-2.41838">
        <ele>2.06</ele>
        <time>2017-03-29T14:44:39Z</time>
      </trkpt>
      <trkpt lat="47.26187" lon="-2.41848">
        <ele>6.39</ele>
        <time>2017-03-29T14:44:47Z</time>
      </trkpt>
      <trkpt lat="47.26195" lon="-2.41857">
        <ele>5.91</ele>
        <time>2017-03-29T14:44:55Z</time>
      </trkpt>
      <trkpt lat="47.26204" lon="-2.41867">
        <ele>2.06</ele>
        <time>2017-03-29T14:45:04Z</time>
      </trkpt>
      <trkpt lat="47.26214" lon="-2.41876">
        <ele>4.94</ele>
        <time>2017-03-29T14:45:13Z</time>
      </trkpt>
      <trkpt lat="47.26224" lon="-2.41883">
        <ele>1.58</ele>
        <time>2017-03-29T14:45:23Z</time>
      </trkpt>
      <trkpt lat="47.26237" lon="-2.41889">
        <ele>4.46</ele>
        <time>2017-03-29T14:45:31Z</time>
      </trkpt>
      <trkpt lat="47.26248" lon="-2.41896">
        <ele>2.54</ele>
        <time>2017-03-29T14:45:39Z</time>
      </trkpt>
      <trkpt lat="47.26257" lon="-2.41903">
        <ele>0.62</ele>
        <time>2017-03-29T14:45:47Z</time>
      </trkpt>
      <trkpt lat="47.26269" lon="-2.41909">
        <ele>4.46</ele>
        <time>2017-03-29T14:45:55Z</time>
      </trkpt>
      <trkpt lat="47.26279" lon="-2.41917">
        <ele>-0.34</ele>
        <time>2017-03-29T14:46:03Z</time>
      </trkpt>
      <trkpt lat="47.26287" lon="-2.41925">
        <ele>3.98</ele>
        <time>2017-03-29T14:46:11Z</time>
      </trkpt>
      <trkpt lat="47.26297" lon="-2.41932">
        <ele>1.58</ele>
        <time>2017-03-29T14:46:19Z</time>
      </trkpt>
      <trkpt lat="47.26308" lon="-2.41939">
        <ele>0.62</ele>
        <time>2017-03-29T14:46:27Z</time>
      </trkpt>
      <trkpt lat="47.2632" lon="-2.41943">
        <ele>4.46</ele>
        <time>2017-03-29T14:46:36Z</time>
      </trkpt>
      <trkpt lat="47.26331" lon="-2.41951">
        <ele>1.58</ele>
        <time>2017-03-29T14:46:44Z</time>
      </trkpt>
      <trkpt lat="47.26339" lon="-2.41958">
        <ele>-0.34</ele>
        <time>2017-03-29T14:46:52Z</time>
      </trkpt>
      <trkpt lat="47.26349" lon="-2.41965">
        <ele>3.5</ele>
        <time>2017-03-29T14:46:59Z</time>
      </trkpt>
      <trkpt lat="47.26358" lon="-2.41969">
        <ele>-0.34</ele>
        <time>2017-03-29T14:47:06Z</time>
      </trkpt>
      <trkpt lat="47.26368" lon="-2.41974">
        <ele>2.06</ele>
        <time>2017-03-29T14:47:14Z</time>
      </trkpt>
      <trkpt lat="47.26378" lon="-2.4198">
        <ele>2.54</ele>
        <time>2017-03-29T14:47:22Z</time>
      </trkpt>
      <trkpt lat="47.26389" lon="-2.41987">
        <ele>2.06</ele>
        <time>2017-03-29T14:47:30Z</time>
      </trkpt>
      <trkpt lat="47.264" lon="-2.41996">
        <ele>1.58</ele>
        <time>2017-03-29T14:47:39Z</time>
      </trkpt>
      <trkpt lat="47.26409" lon="-2.42003">
        <ele>3.98</ele>
        <time>2017-03-29T14:47:47Z</time>
      </trkpt>
      <trkpt lat="47.26417" lon="-2.42011">
        <ele>0.62</ele>
        <time>2017-03-29T14:47:54Z</time>
      </trkpt>
      <trkpt lat="47.26426" lon="-2.4202">
        <ele>2.06</ele>
        <time>2017-03-29T14:48:02Z</time>
      </trkpt>
      <trkpt lat="47.26436" lon="-2.4203">
        <ele>2.54</ele>
        <time>2017-03-29T14:48:10Z</time>
      </trkpt>
      <trkpt lat="47.26445" lon="-2.42039">
        <ele>0.14</ele>
        <time>2017-03-29T14:48:18Z</time>
      </trkpt>
      <trkpt lat="47.26452" lon="-2.42047">
        <ele>3.5</ele>
        <time>2017-03-29T14:48:25Z</time>
      </trkpt>
      <trkpt lat="47.26459" lon="-2.42058">
        <ele>-0.82</ele>
        <time>2017-03-29T14:48:32Z</time>
      </trkpt>
      <trkpt lat="47.26467" lon="-2.42068">
        <ele>3.02</ele>
        <time>2017-03-29T14:48:40Z</time>
      </trkpt>
      <trkpt lat="47.26476" lon="-2.42074">
        <ele>1.58</ele>
        <time>2017-03-29T14:48:47Z</time>
      </trkpt>
      <trkpt lat="47.26485" lon="-2.42084">
        <ele>1.58</ele>
        <time>2017-03-29T14:48:55Z</time>
      </trkpt>
      <trkpt lat="47.26494" lon="-2.42092">
        <ele>1.58</ele>
        <time>2017-03-29T14:49:02Z</time>
      </trkpt>
      <trkpt lat="47.265" lon="-2.42103">
        <ele>1.58</ele>
        <time>2017-03-29T14:49:09Z</time>
      </trkpt>
      <trkpt lat="47.2651" lon="-2.42112">
        <ele>1.58</ele>
        <time>2017-03-29T14:49:16Z</time>
      </trkpt>
      <trkpt lat="47.26517" lon="-2.42121">
        <ele>1.1</ele>
        <time>2017-03-29T14:49:24Z</time>
      </trkpt>
      <trkpt lat="47.26525" lon="-2.4213">
        <ele>1.58</ele>
        <time>2017-03-29T14:49:31Z</time>
      </trkpt>
      <trkpt lat="47.26532" lon="-2.42139">
        <ele>1.1</ele>
        <time>2017-03-29T14:49:39Z</time>
      </trkpt>
      <trkpt lat="47.26541" lon="-2.42151">
        <ele>0.62</ele>
        <time>2017-03-29T14:49:47Z</time>
      </trkpt>
      <trkpt lat="47.2655" lon="-2.42157">
        <ele>0.62</ele>
        <time>2017-03-29T14:49:54Z</time>
      </trkpt>
      <trkpt lat="47.26559" lon="-2.42164">
        <ele>0.14</ele>
        <time>2017-03-29T14:50:02Z</time>
      </trkpt>
      <trkpt lat="47.26568" lon="-2.4217">
        <ele>0.14</ele>
        <time>2017-03-29T14:50:10Z</time>
      </trkpt>
      <trkpt lat="47.26578" lon="-2.42176">
        <ele>0.14</ele>
        <time>2017-03-29T14:50:19Z</time>
      </trkpt>
      <trkpt lat="47.26588" lon="-2.42184">
        <ele>0.14</ele>
        <time>2017-03-29T14:50:28Z</time>
      </trkpt>
      <trkpt lat="47.26598" lon="-2.42193">
        <ele>0.14</ele>
        <time>2017-03-29T14:50:37Z</time>
      </trkpt>
      <trkpt lat="47.26608" lon="-2.42198">
        <ele>0.14</ele>
        <time>2017-03-29T14:50:44Z</time>
      </trkpt>
      <trkpt lat="47.26617" lon="-2.42207">
        <ele>0.62</ele>
        <time>2017-03-29T14:50:51Z</time>
      </trkpt>
      <trkpt lat="47.26627" lon="-2.42216">
        <ele>1.1</ele>
        <time>2017-03-29T14:50:59Z</time>
      </trkpt>
      <trkpt lat="47.26635" lon="-2.42225">
        <ele>1.1</ele>
        <time>2017-03-29T14:51:08Z</time>
      </trkpt>
      <trkpt lat="47.26644" lon="-2.42235">
        <ele>1.58</ele>
        <time>2017-03-29T14:51:19Z</time>
      </trkpt>
      <trkpt lat="47.26654" lon="-2.42242">
        <ele>1.1</ele>
        <time>2017-03-29T14:51:29Z</time>
      </trkpt>
      <trkpt lat="47.26661" lon="-2.42251">
        <ele>1.58</ele>
        <time>2017-03-29T14:51:35Z</time>
      </trkpt>
      <trkpt lat="47.26667" lon="-2.42261">
        <ele>2.06</ele>
        <time>2017-03-29T14:51:42Z</time>
      </trkpt>
      <trkpt lat="47.26674" lon="-2.42272">
        <ele>1.58</ele>
        <time>2017-03-29T14:51:49Z</time>
      </trkpt>
      <trkpt lat="47.26682" lon="-2.42281">
        <ele>1.58</ele>
        <time>2017-03-29T14:51:57Z</time>
      </trkpt>
      <trkpt lat="47.26691" lon="-2.42286">
        <ele>1.58</ele>
        <time>2017-03-29T14:52:05Z</time>
      </trkpt>
      <trkpt lat="47.267" lon="-2.42295">
        <ele>1.58</ele>
        <time>2017-03-29T14:52:13Z</time>
      </trkpt>
      <trkpt lat="47.26711" lon="-2.42306">
        <ele>2.06</ele>
        <time>2017-03-29T14:52:23Z</time>
      </trkpt>
      <trkpt lat="47.2672" lon="-2.42313">
        <ele>2.06</ele>
        <time>2017-03-29T14:52:30Z</time>
      </trkpt>
      <trkpt lat="47.26731" lon="-2.42319">
        <ele>2.06</ele>
        <time>2017-03-29T14:52:38Z</time>
      </trkpt>
      <trkpt lat="47.26739" lon="-2.42321">
        <ele>2.06</ele>
        <time>2017-03-29T14:52:44Z</time>
      </trkpt>
      <trkpt lat="47.2675" lon="-2.42326">
        <ele>2.06</ele>
        <time>2017-03-29T14:52:52Z</time>
      </trkpt>
      <trkpt lat="47.2676" lon="-2.42334">
        <ele>2.06</ele>
        <time>2017-03-29T14:52:59Z</time>
      </trkpt>
      <trkpt lat="47.26767" lon="-2.42345">
        <ele>2.54</ele>
        <time>2017-03-29T14:53:06Z</time>
      </trkpt>
      <trkpt lat="47.26776" lon="-2.42356">
        <ele>2.54</ele>
        <time>2017-03-29T14:53:13Z</time>
      </trkpt>
      <trkpt lat="47.26781" lon="-2.42368">
        <ele>3.02</ele>
        <time>2017-03-29T14:53:20Z</time>
      </trkpt>
      <trkpt lat="47.26789" lon="-2.4238">
        <ele>3.02</ele>
        <time>2017-03-29T14:53:28Z</time>
      </trkpt>
      <trkpt lat="47.26794" lon="-2.42391">
        <ele>3.5</ele>
        <time>2017-03-29T14:53:35Z</time>
      </trkpt>
      <trkpt lat="47.26801" lon="-2.42404">
        <ele>3.5</ele>
        <time>2017-03-29T14:53:42Z</time>
      </trkpt>
      <trkpt lat="47.26807" lon="-2.42415">
        <ele>3.98</ele>
        <time>2017-03-29T14:53:49Z</time>
      </trkpt>
      <trkpt lat="47.26813" lon="-2.42427">
        <ele>3.5</ele>
        <time>2017-03-29T14:53:57Z</time>
      </trkpt>
      <trkpt lat="47.26821" lon="-2.42439">
        <ele>3.5</ele>
        <time>2017-03-29T14:54:05Z</time>
      </trkpt>
      <trkpt lat="47.26829" lon="-2.42449">
        <ele>3.98</ele>
        <time>2017-03-29T14:54:14Z</time>
      </trkpt>
      <trkpt lat="47.26839" lon="-2.42458">
        <ele>3.98</ele>
        <time>2017-03-29T14:54:21Z</time>
      </trkpt>
      <trkpt lat="47.2685" lon="-2.42461">
        <ele>3.5</ele>
        <time>2017-03-29T14:54:29Z</time>
      </trkpt>
      <trkpt lat="47.2686" lon="-2.42461">
        <ele>3.5</ele>
        <time>2017-03-29T14:54:38Z</time>
      </trkpt>
      <trkpt lat="47.26873" lon="-2.42464">
        <ele>3.98</ele>
        <time>2017-03-29T14:54:46Z</time>
      </trkpt>
      <trkpt lat="47.26882" lon="-2.42465">
        <ele>3.98</ele>
        <time>2017-03-29T14:54:53Z</time>
      </trkpt>
      <trkpt lat="47.26893" lon="-2.42465">
        <ele>3.5</ele>
        <time>2017-03-29T14:55:00Z</time>
      </trkpt>
      <trkpt lat="47.26903" lon="-2.42468">
        <ele>1.58</ele>
        <time>2017-03-29T14:55:09Z</time>
      </trkpt>
      <trkpt lat="47.26913" lon="-2.4247">
        <ele>3.02</ele>
        <time>2017-03-29T14:55:17Z</time>
      </trkpt>
      <trkpt lat="47.26924" lon="-2.42473">
        <ele>3.02</ele>
        <time>2017-03-29T14:55:25Z</time>
      </trkpt>
      <trkpt lat="47.26933" lon="-2.42478">
        <ele>2.06</ele>
        <time>2017-03-29T14:55:32Z</time>
      </trkpt>
      <trkpt lat="47.26942" lon="-2.42485">
        <ele>2.54</ele>
        <time>2017-03-29T14:55:39Z</time>
      </trkpt>
      <trkpt lat="47.2695" lon="-2.42492">
        <ele>2.54</ele>
        <time>2017-03-29T14:55:46Z</time>
      </trkpt>
      <trkpt lat="47.26958" lon="-2.42504">
        <ele>2.54</ele>
        <time>2017-03-29T14:55:55Z</time>
      </trkpt>
      <trkpt lat="47.26966" lon="-2.42512">
        <ele>2.54</ele>
        <time>2017-03-29T14:56:06Z</time>
      </trkpt>
      <trkpt lat="47.26974" lon="-2.42507">
        <ele>2.54</ele>
        <time>2017-03-29T14:56:13Z</time>
      </trkpt>
      <trkpt lat="47.26983" lon="-2.42501">
        <ele>2.54</ele>
        <time>2017-03-29T14:56:21Z</time>
      </trkpt>
      <trkpt lat="47.26992" lon="-2.42497">
        <ele>2.06</ele>
        <time>2017-03-29T14:56:28Z</time>
      </trkpt>
      <trkpt lat="47.27002" lon="-2.42491">
        <ele>1.58</ele>
        <time>2017-03-29T14:56:35Z</time>
      </trkpt>
      <trkpt lat="47.2701" lon="-2.42484">
        <ele>1.58</ele>
        <time>2017-03-29T14:56:42Z</time>
      </trkpt>
      <trkpt lat="47.27018" lon="-2.42477">
        <ele>1.1</ele>
        <time>2017-03-29T14:56:50Z</time>
      </trkpt>
      <trkpt lat="47.27028" lon="-2.42471">
        <ele>1.1</ele>
        <time>2017-03-29T14:56:58Z</time>
      </trkpt>
      <trkpt lat="47.27036" lon="-2.42469">
        <ele>0.62</ele>
        <time>2017-03-29T14:57:07Z</time>
      </trkpt>
      <trkpt lat="47.27043" lon="-2.42481">
        <ele>0.62</ele>
        <time>2017-03-29T14:57:17Z</time>
      </trkpt>
      <trkpt lat="47.27047" lon="-2.42492">
        <ele>1.1</ele>
        <time>2017-03-29T14:57:27Z</time>
      </trkpt>
      <trkpt lat="47.27058" lon="-2.42499">
        <ele>1.1</ele>
        <time>2017-03-29T14:57:36Z</time>
      </trkpt>
      <trkpt lat="47.27068" lon="-2.42504">
        <ele>1.1</ele>
        <time>2017-03-29T14:57:44Z</time>
      </trkpt>
      <trkpt lat="47.27078" lon="-2.42509">
        <ele>1.58</ele>
        <time>2017-03-29T14:57:52Z</time>
      </trkpt>
      <trkpt lat="47.27087" lon="-2.42513">
        <ele>1.58</ele>
        <time>2017-03-29T14:58:00Z</time>
      </trkpt>
      <trkpt lat="47.27097" lon="-2.42518">
        <ele>1.1</ele>
        <time>2017-03-29T14:58:08Z</time>
      </trkpt>
      <trkpt lat="47.27107" lon="-2.42521">
        <ele>1.1</ele>
        <time>2017-03-29T14:58:17Z</time>
      </trkpt>
      <trkpt lat="47.27117" lon="-2.42526">
        <ele>0.62</ele>
        <time>2017-03-29T14:58:25Z</time>
      </trkpt>
      <trkpt lat="47.27126" lon="-2.42529">
        <ele>0.62</ele>
        <time>2017-03-29T14:58:33Z</time>
      </trkpt>
      <trkpt lat="47.27137" lon="-2.42528">
        <ele>1.1</ele>
        <time>2017-03-29T14:58:40Z</time>
      </trkpt>
      <trkpt lat="47.27147" lon="-2.42529">
        <ele>1.1</ele>
        <time>2017-03-29T14:58:48Z</time>
      </trkpt>
      <trkpt lat="47.27157" lon="-2.4253">
        <ele>0.62</ele>
        <time>2017-03-29T14:58:56Z</time>
      </trkpt>
      <trkpt lat="47.27168" lon="-2.4253">
        <ele>0.62</ele>
        <time>2017-03-29T14:59:04Z</time>
      </trkpt>
      <trkpt lat="47.27178" lon="-2.4253">
        <ele>1.1</ele>
        <time>2017-03-29T14:59:12Z</time>
      </trkpt>
      <trkpt lat="47.27188" lon="-2.42531">
        <ele>0.62</ele>
        <time>2017-03-29T14:59:20Z</time>
      </trkpt>
      <trkpt lat="47.27198" lon="-2.4253">
        <ele>1.1</ele>
        <time>2017-03-29T14:59:28Z</time>
      </trkpt>
      <trkpt lat="47.27209" lon="-2.42531">
        <ele>1.58</ele>
        <time>2017-03-29T14:59:36Z</time>
      </trkpt>
      <trkpt lat="47.27218" lon="-2.4253">
        <ele>1.1</ele>
        <time>2017-03-29T14:59:43Z</time>
      </trkpt>
      <trkpt lat="47.27229" lon="-2.42529">
        <ele>1.1</ele>
        <time>2017-03-29T14:59:51Z</time>
      </trkpt>
      <trkpt lat="47.27239" lon="-2.42523">
        <ele>1.58</ele>
        <time>2017-03-29T14:59:58Z</time>
      </trkpt>
      <trkpt lat="47.27248" lon="-2.42521">
        <ele>1.58</ele>
        <time>2017-03-29T15:00:06Z</time>
      </trkpt>
      <trkpt lat="47.27259" lon="-2.42518">
        <ele>1.1</ele>
        <time>2017-03-29T15:00:14Z</time>
      </trkpt>
      <trkpt lat="47.27268" lon="-2.42515">
        <ele>1.1</ele>
        <time>2017-03-29T15:00:23Z</time>
      </trkpt>
      <trkpt lat="47.27281" lon="-2.42514">
        <ele>1.58</ele>
        <time>2017-03-29T15:00:32Z</time>
      </trkpt>
      <trkpt lat="47.2729" lon="-2.42508">
        <ele>1.58</ele>
        <time>2017-03-29T15:00:40Z</time>
      </trkpt>
      <trkpt lat="47.273" lon="-2.42507">
        <ele>1.1</ele>
        <time>2017-03-29T15:00:48Z</time>
      </trkpt>
      <trkpt lat="47.27309" lon="-2.425">
        <ele>1.1</ele>
        <time>2017-03-29T15:00:56Z</time>
      </trkpt>
      <trkpt lat="47.27319" lon="-2.42496">
        <ele>1.58</ele>
        <time>2017-03-29T15:01:04Z</time>
      </trkpt>
      <trkpt lat="47.27329" lon="-2.42492">
        <ele>1.1</ele>
        <time>2017-03-29T15:01:12Z</time>
      </trkpt>
      <trkpt lat="47.27339" lon="-2.42487">
        <ele>1.1</ele>
        <time>2017-03-29T15:01:21Z</time>
      </trkpt>
      <trkpt lat="47.27349" lon="-2.42477">
        <ele>1.1</ele>
        <time>2017-03-29T15:01:30Z</time>
      </trkpt>
      <trkpt lat="47.27357" lon="-2.42465">
        <ele>1.1</ele>
        <time>2017-03-29T15:01:40Z</time>
      </trkpt>
      <trkpt lat="47.27357" lon="-2.42447">
        <ele>1.1</ele>
        <time>2017-03-29T15:01:48Z</time>
      </trkpt>
      <trkpt lat="47.27362" lon="-2.42431">
        <ele>2.06</ele>
        <time>2017-03-29T15:01:57Z</time>
      </trkpt>
      <trkpt lat="47.27369" lon="-2.4242">
        <ele>2.06</ele>
        <time>2017-03-29T15:02:07Z</time>
      </trkpt>
      <trkpt lat="47.27379" lon="-2.42422">
        <ele>2.06</ele>
        <time>2017-03-29T15:02:16Z</time>
      </trkpt>
      <trkpt lat="47.27388" lon="-2.4243">
        <ele>1.58</ele>
        <time>2017-03-29T15:02:24Z</time>
      </trkpt>
      <trkpt lat="47.27396" lon="-2.4244">
        <ele>1.58</ele>
        <time>2017-03-29T15:02:33Z</time>
      </trkpt>
      <trkpt lat="47.27405" lon="-2.4245">
        <ele>1.58</ele>
        <time>2017-03-29T15:02:41Z</time>
      </trkpt>
      <trkpt lat="47.27412" lon="-2.4246">
        <ele>2.06</ele>
        <time>2017-03-29T15:02:49Z</time>
      </trkpt>
      <trkpt lat="47.27422" lon="-2.42469">
        <ele>1.58</ele>
        <time>2017-03-29T15:02:57Z</time>
      </trkpt>
      <trkpt lat="47.2743" lon="-2.42478">
        <ele>2.06</ele>
        <time>2017-03-29T15:03:05Z</time>
      </trkpt>
      <trkpt lat="47.27439" lon="-2.42488">
        <ele>2.06</ele>
        <time>2017-03-29T15:03:13Z</time>
      </trkpt>
      <trkpt lat="47.27447" lon="-2.42497">
        <ele>1.58</ele>
        <time>2017-03-29T15:03:21Z</time>
      </trkpt>
      <trkpt lat="47.27455" lon="-2.42506">
        <ele>2.06</ele>
        <time>2017-03-29T15:03:29Z</time>
      </trkpt>
      <trkpt lat="47.27464" lon="-2.42516">
        <ele>2.06</ele>
        <time>2017-03-29T15:03:38Z</time>
      </trkpt>
      <trkpt lat="47.27472" lon="-2.42526">
        <ele>1.58</ele>
        <time>2017-03-29T15:03:46Z</time>
      </trkpt>
      <trkpt lat="47.2748" lon="-2.42536">
        <ele>2.06</ele>
        <time>2017-03-29T15:03:55Z</time>
      </trkpt>
      <trkpt lat="47.27489" lon="-2.42545">
        <ele>1.58</ele>
        <time>2017-03-29T15:04:03Z</time>
      </trkpt>
      <trkpt lat="47.27498" lon="-2.42556">
        <ele>1.58</ele>
        <time>2017-03-29T15:04:12Z</time>
      </trkpt>
      <trkpt lat="47.27506" lon="-2.42567">
        <ele>1.58</ele>
        <time>2017-03-29T15:04:21Z</time>
      </trkpt>
      <trkpt lat="47.27515" lon="-2.42576">
        <ele>2.06</ele>
        <time>2017-03-29T15:04:30Z</time>
      </trkpt>
      <trkpt lat="47.27523" lon="-2.42584">
        <ele>2.06</ele>
        <time>2017-03-29T15:04:38Z</time>
      </trkpt>
      <trkpt lat="47.27532" lon="-2.42596">
        <ele>1.58</ele>
        <time>2017-03-29T15:04:47Z</time>
      </trkpt>
      <trkpt lat="47.2754" lon="-2.42605">
        <ele>2.06</ele>
        <time>2017-03-29T15:04:55Z</time>
      </trkpt>
      <trkpt lat="47.27549" lon="-2.42616">
        <ele>1.58</ele>
        <time>2017-03-29T15:05:04Z</time>
      </trkpt>
      <trkpt lat="47.27556" lon="-2.42627">
        <ele>1.58</ele>
        <time>2017-03-29T15:05:12Z</time>
      </trkpt>
      <trkpt lat="47.27565" lon="-2.42636">
        <ele>1.1</ele>
        <time>2017-03-29T15:05:21Z</time>
      </trkpt>
      <trkpt lat="47.27574" lon="-2.42645">
        <ele>1.1</ele>
        <time>2017-03-29T15:05:29Z</time>
      </trkpt>
      <trkpt lat="47.27581" lon="-2.42656">
        <ele>1.1</ele>
        <time>2017-03-29T15:05:37Z</time>
      </trkpt>
      <trkpt lat="47.27586" lon="-2.42668">
        <ele>1.1</ele>
        <time>2017-03-29T15:05:45Z</time>
      </trkpt>
      <trkpt lat="47.27591" lon="-2.42683">
        <ele>0.62</ele>
        <time>2017-03-29T15:05:54Z</time>
      </trkpt>
      <trkpt lat="47.27597" lon="-2.42698">
        <ele>1.1</ele>
        <time>2017-03-29T15:06:03Z</time>
      </trkpt>
      <trkpt lat="47.27607" lon="-2.42709">
        <ele>1.1</ele>
        <time>2017-03-29T15:06:12Z</time>
      </trkpt>
      <trkpt lat="47.27615" lon="-2.4272">
        <ele>0.62</ele>
        <time>2017-03-29T15:06:20Z</time>
      </trkpt>
      <trkpt lat="47.27623" lon="-2.42731">
        <ele>1.58</ele>
        <time>2017-03-29T15:06:29Z</time>
      </trkpt>
      <trkpt lat="47.2763" lon="-2.42744">
        <ele>1.58</ele>
        <time>2017-03-29T15:06:38Z</time>
      </trkpt>
      <trkpt lat="47.27632" lon="-2.42758">
        <ele>0.14</ele>
        <time>2017-03-29T15:06:49Z</time>
      </trkpt>
      <trkpt lat="47.27637" lon="-2.42767">
        <ele>-0.82</ele>
        <time>2017-03-29T15:07:13Z</time>
      </trkpt>
      <trkpt lat="47.27635" lon="-2.42763">
        <ele>-0.34</ele>
        <time>2017-03-29T15:07:41Z</time>
      </trkpt>
      <trkpt lat="47.27635" lon="-2.42748">
        <ele>2.54</ele>
        <time>2017-03-29T15:07:52Z</time>
      </trkpt>
      <trkpt lat="47.27636" lon="-2.42735">
        <ele>1.1</ele>
        <time>2017-03-29T15:08:02Z</time>
      </trkpt>
      <trkpt lat="47.27636" lon="-2.42729">
        <ele>1.58</ele>
        <time>2017-03-29T15:08:08Z</time>
      </trkpt>
      <trkpt lat="47.27644" lon="-2.42755">
        <ele>0.14</ele>
        <time>2017-03-29T15:09:00Z</time>
      </trkpt>
      <trkpt lat="47.27646" lon="-2.42753">
        <ele>2.06</ele>
        <time>2017-03-29T15:09:07Z</time>
      </trkpt>
      <trkpt lat="47.27653" lon="-2.42774">
        <ele>1.58</ele>
        <time>2017-03-29T15:09:17Z</time>
      </trkpt>
      <trkpt lat="47.2766" lon="-2.42785">
        <ele>1.1</ele>
        <time>2017-03-29T15:09:28Z</time>
      </trkpt>
      <trkpt lat="47.27671" lon="-2.4279">
        <ele>1.1</ele>
        <time>2017-03-29T15:09:40Z</time>
      </trkpt>
      <trkpt lat="47.27682" lon="-2.42789">
        <ele>0.62</ele>
        <time>2017-03-29T15:09:49Z</time>
      </trkpt>
      <trkpt lat="47.27692" lon="-2.4279">
        <ele>2.54</ele>
        <time>2017-03-29T15:09:57Z</time>
      </trkpt>
      <trkpt lat="47.27702" lon="-2.42794">
        <ele>0.62</ele>
        <time>2017-03-29T15:10:05Z</time>
      </trkpt>
      <trkpt lat="47.27712" lon="-2.42798">
        <ele>2.06</ele>
        <time>2017-03-29T15:10:13Z</time>
      </trkpt>
      <trkpt lat="47.2772" lon="-2.42801">
        <ele>4.94</ele>
        <time>2017-03-29T15:10:21Z</time>
      </trkpt>
      <trkpt lat="47.2773" lon="-2.42801">
        <ele>-0.82</ele>
        <time>2017-03-29T15:10:29Z</time>
      </trkpt>
      <trkpt lat="47.27741" lon="-2.42805">
        <ele>3.98</ele>
        <time>2017-03-29T15:10:38Z</time>
      </trkpt>
      <trkpt lat="47.27749" lon="-2.42808">
        <ele>0.62</ele>
        <time>2017-03-29T15:10:47Z</time>
      </trkpt>
      <trkpt lat="47.27759" lon="-2.4281">
        <ele>3.5</ele>
        <time>2017-03-29T15:10:55Z</time>
      </trkpt>
      <trkpt lat="47.27769" lon="-2.42811">
        <ele>3.02</ele>
        <time>2017-03-29T15:11:03Z</time>
      </trkpt>
      <trkpt lat="47.27779" lon="-2.42814">
        <ele>2.54</ele>
        <time>2017-03-29T15:11:11Z</time>
      </trkpt>
      <trkpt lat="47.27788" lon="-2.42808">
        <ele>-0.82</ele>
        <time>2017-03-29T15:11:19Z</time>
      </trkpt>
      <trkpt lat="47.27798" lon="-2.42811">
        <ele>2.54</ele>
        <time>2017-03-29T15:11:28Z</time>
      </trkpt>
      <trkpt lat="47.27809" lon="-2.42812">
        <ele>-0.34</ele>
        <time>2017-03-29T15:11:37Z</time>
      </trkpt>
      <trkpt lat="47.27819" lon="-2.42813">
        <ele>2.54</ele>
        <time>2017-03-29T15:11:46Z</time>
      </trkpt>
      <trkpt lat="47.27825" lon="-2.42801">
        <ele>3.5</ele>
        <time>2017-03-29T15:11:57Z</time>
      </trkpt>
      <trkpt lat="47.27825" lon="-2.42787">
        <ele>3.98</ele>
        <time>2017-03-29T15:12:06Z</time>
      </trkpt>
      <trkpt lat="47.27825" lon="-2.42772">
        <ele>3.5</ele>
        <time>2017-03-29T15:12:14Z</time>
      </trkpt>
      <trkpt lat="47.27825" lon="-2.42759">
        <ele>3.98</ele>
        <time>2017-03-29T15:12:22Z</time>
      </trkpt>
      <trkpt lat="47.27824" lon="-2.42744">
        <ele>3.98</ele>
        <time>2017-03-29T15:12:33Z</time>
      </trkpt>
      <trkpt lat="47.27823" lon="-2.42729">
        <ele>3.5</ele>
        <time>2017-03-29T15:12:41Z</time>
      </trkpt>
      <trkpt lat="47.27822" lon="-2.42717">
        <ele>2.54</ele>
        <time>2017-03-29T15:12:51Z</time>
      </trkpt>
      <trkpt lat="47.27823" lon="-2.42701">
        <ele>2.54</ele>
        <time>2017-03-29T15:13:01Z</time>
      </trkpt>
      <trkpt lat="47.27831" lon="-2.42694">
        <ele>2.54</ele>
        <time>2017-03-29T15:13:09Z</time>
      </trkpt>
      <trkpt lat="47.27834" lon="-2.42681">
        <ele>2.06</ele>
        <time>2017-03-29T15:13:18Z</time>
      </trkpt>
      <trkpt lat="47.27836" lon="-2.42666">
        <ele>3.02</ele>
        <time>2017-03-29T15:13:27Z</time>
      </trkpt>
      <trkpt lat="47.27838" lon="-2.42651">
        <ele>2.54</ele>
        <time>2017-03-29T15:13:36Z</time>
      </trkpt>
      <trkpt lat="47.27842" lon="-2.42637">
        <ele>3.02</ele>
        <time>2017-03-29T15:13:44Z</time>
      </trkpt>
      <trkpt lat="47.27845" lon="-2.42622">
        <ele>2.54</ele>
        <time>2017-03-29T15:13:53Z</time>
      </trkpt>
      <trkpt lat="47.27851" lon="-2.42608">
        <ele>2.06</ele>
        <time>2017-03-29T15:14:02Z</time>
      </trkpt>
      <trkpt lat="47.27853" lon="-2.42591">
        <ele>2.54</ele>
        <time>2017-03-29T15:14:11Z</time>
      </trkpt>
      <trkpt lat="47.27855" lon="-2.42575">
        <ele>2.06</ele>
        <time>2017-03-29T15:14:20Z</time>
      </trkpt>
      <trkpt lat="47.27856" lon="-2.4256">
        <ele>2.06</ele>
        <time>2017-03-29T15:14:29Z</time>
      </trkpt>
      <trkpt lat="47.27847" lon="-2.42555">
        <ele>1.58</ele>
        <time>2017-03-29T15:14:38Z</time>
      </trkpt>
      <trkpt lat="47.27838" lon="-2.42556">
        <ele>1.1</ele>
        <time>2017-03-29T15:14:46Z</time>
      </trkpt>
      <trkpt lat="47.27828" lon="-2.42558">
        <ele>0.14</ele>
        <time>2017-03-29T15:14:54Z</time>
      </trkpt>
      <trkpt lat="47.27816" lon="-2.42559">
        <ele>0.62</ele>
        <time>2017-03-29T15:15:03Z</time>
      </trkpt>
      <trkpt lat="47.27806" lon="-2.42561">
        <ele>0.62</ele>
        <time>2017-03-29T15:15:11Z</time>
      </trkpt>
      <trkpt lat="47.27796" lon="-2.42561">
        <ele>0.62</ele>
        <time>2017-03-29T15:15:20Z</time>
      </trkpt>
      <trkpt lat="47.27785" lon="-2.42564">
        <ele>0.62</ele>
        <time>2017-03-29T15:15:28Z</time>
      </trkpt>
      <trkpt lat="47.27775" lon="-2.42561">
        <ele>0.14</ele>
        <time>2017-03-29T15:15:38Z</time>
      </trkpt>
      <trkpt lat="47.27766" lon="-2.4255">
        <ele>1.1</ele>
        <time>2017-03-29T15:15:48Z</time>
      </trkpt>
      <trkpt lat="47.27757" lon="-2.42538">
        <ele>0.62</ele>
        <time>2017-03-29T15:15:56Z</time>
      </trkpt>
      <trkpt lat="47.27749" lon="-2.42529">
        <ele>1.1</ele>
        <time>2017-03-29T15:16:06Z</time>
      </trkpt>
      <trkpt lat="47.27741" lon="-2.42517">
        <ele>0.62</ele>
        <time>2017-03-29T15:16:16Z</time>
      </trkpt>
      <trkpt lat="47.27731" lon="-2.42505">
        <ele>0.62</ele>
        <time>2017-03-29T15:16:25Z</time>
      </trkpt>
      <trkpt lat="47.27724" lon="-2.42493">
        <ele>0.62</ele>
        <time>2017-03-29T15:16:34Z</time>
      </trkpt>
      <trkpt lat="47.27715" lon="-2.42484">
        <ele>0.62</ele>
        <time>2017-03-29T15:16:43Z</time>
      </trkpt>
      <trkpt lat="47.27708" lon="-2.42475">
        <ele>1.1</ele>
        <time>2017-03-29T15:16:51Z</time>
      </trkpt>
      <trkpt lat="47.277" lon="-2.42467">
        <ele>0.14</ele>
        <time>2017-03-29T15:16:58Z</time>
      </trkpt>
      <trkpt lat="47.27693" lon="-2.42461">
        <ele>0.62</ele>
        <time>2017-03-29T15:17:04Z</time>
      </trkpt>
      <trkpt lat="47.27685" lon="-2.42454">
        <ele>0.14</ele>
        <time>2017-03-29T15:17:12Z</time>
      </trkpt>
      <trkpt lat="47.27679" lon="-2.42442">
        <ele>0.62</ele>
        <time>2017-03-29T15:17:20Z</time>
      </trkpt>
      <trkpt lat="47.27672" lon="-2.42432">
        <ele>0.14</ele>
        <time>2017-03-29T15:17:27Z</time>
      </trkpt>
      <trkpt lat="47.27666" lon="-2.42422">
        <ele>0.62</ele>
        <time>2017-03-29T15:17:35Z</time>
      </trkpt>
      <trkpt lat="47.27657" lon="-2.42414">
        <ele>0.62</ele>
        <time>2017-03-29T15:17:44Z</time>
      </trkpt>
      <trkpt lat="47.2765" lon="-2.42404">
        <ele>0.62</ele>
        <time>2017-03-29T15:17:52Z</time>
      </trkpt>
      <trkpt lat="47.27643" lon="-2.42395">
        <ele>1.1</ele>
        <time>2017-03-29T15:18:01Z</time>
      </trkpt>
      <trkpt lat="47.27634" lon="-2.42386">
        <ele>0.14</ele>
        <time>2017-03-29T15:18:11Z</time>
      </trkpt>
      <trkpt lat="47.27625" lon="-2.42375">
        <ele>0.14</ele>
        <time>2017-03-29T15:18:19Z</time>
      </trkpt>
      <trkpt lat="47.27616" lon="-2.42364">
        <ele>0.14</ele>
        <time>2017-03-29T15:18:28Z</time>
      </trkpt>
      <trkpt lat="47.27606" lon="-2.42354">
        <ele>0.62</ele>
        <time>2017-03-29T15:18:38Z</time>
      </trkpt>
      <trkpt lat="47.27599" lon="-2.42345">
        <ele>0.62</ele>
        <time>2017-03-29T15:18:46Z</time>
      </trkpt>
      <trkpt lat="47.2759" lon="-2.42335">
        <ele>0.62</ele>
        <time>2017-03-29T15:18:56Z</time>
      </trkpt>
      <trkpt lat="47.27583" lon="-2.42324">
        <ele>1.1</ele>
        <time>2017-03-29T15:19:05Z</time>
      </trkpt>
      <trkpt lat="47.27574" lon="-2.42315">
        <ele>1.1</ele>
        <time>2017-03-29T15:19:14Z</time>
      </trkpt>
      <trkpt lat="47.27566" lon="-2.42306">
        <ele>1.1</ele>
        <time>2017-03-29T15:19:23Z</time>
      </trkpt>
      <trkpt lat="47.27557" lon="-2.42297">
        <ele>2.54</ele>
        <time>2017-03-29T15:19:33Z</time>
      </trkpt>
      <trkpt lat="47.27551" lon="-2.42286">
        <ele>2.06</ele>
        <time>2017-03-29T15:19:42Z</time>
      </trkpt>
      <trkpt lat="47.27543" lon="-2.42275">
        <ele>2.06</ele>
        <time>2017-03-29T15:19:51Z</time>
      </trkpt>
      <trkpt lat="47.27536" lon="-2.42264">
        <ele>1.58</ele>
        <time>2017-03-29T15:20:00Z</time>
      </trkpt>
      <trkpt lat="47.27537" lon="-2.42248">
        <ele>2.06</ele>
        <time>2017-03-29T15:20:10Z</time>
      </trkpt>
      <trkpt lat="47.27544" lon="-2.42236">
        <ele>2.06</ele>
        <time>2017-03-29T15:20:19Z</time>
      </trkpt>
      <trkpt lat="47.27552" lon="-2.42225">
        <ele>2.06</ele>
        <time>2017-03-29T15:20:28Z</time>
      </trkpt>
      <trkpt lat="47.27559" lon="-2.42214">
        <ele>1.58</ele>
        <time>2017-03-29T15:20:37Z</time>
      </trkpt>
      <trkpt lat="47.27566" lon="-2.42203">
        <ele>2.06</ele>
        <time>2017-03-29T15:20:46Z</time>
      </trkpt>
      <trkpt lat="47.27573" lon="-2.42195">
        <ele>2.54</ele>
        <time>2017-03-29T15:20:55Z</time>
      </trkpt>
      <trkpt lat="47.27581" lon="-2.42187">
        <ele>2.54</ele>
        <time>2017-03-29T15:21:04Z</time>
      </trkpt>
      <trkpt lat="47.27588" lon="-2.42176">
        <ele>3.02</ele>
        <time>2017-03-29T15:21:13Z</time>
      </trkpt>
      <trkpt lat="47.27593" lon="-2.42162">
        <ele>2.54</ele>
        <time>2017-03-29T15:21:22Z</time>
      </trkpt>
      <trkpt lat="47.276" lon="-2.42151">
        <ele>2.54</ele>
        <time>2017-03-29T15:21:31Z</time>
      </trkpt>
      <trkpt lat="47.27605" lon="-2.42137">
        <ele>2.54</ele>
        <time>2017-03-29T15:21:40Z</time>
      </trkpt>
      <trkpt lat="47.27611" lon="-2.42123">
        <ele>3.02</ele>
        <time>2017-03-29T15:21:49Z</time>
      </trkpt>
      <trkpt lat="47.27617" lon="-2.42111">
        <ele>2.54</ele>
        <time>2017-03-29T15:21:58Z</time>
      </trkpt>
      <trkpt lat="47.2762" lon="-2.42099">
        <ele>2.54</ele>
        <time>2017-03-29T15:22:06Z</time>
      </trkpt>
      <trkpt lat="47.27627" lon="-2.42087">
        <ele>3.02</ele>
        <time>2017-03-29T15:22:15Z</time>
      </trkpt>
      <trkpt lat="47.27635" lon="-2.42075">
        <ele>2.06</ele>
        <time>2017-03-29T15:22:24Z</time>
      </trkpt>
      <trkpt lat="47.2764" lon="-2.42064">
        <ele>2.54</ele>
        <time>2017-03-29T15:22:31Z</time>
      </trkpt>
      <trkpt lat="47.27646" lon="-2.42053">
        <ele>2.06</ele>
        <time>2017-03-29T15:22:38Z</time>
      </trkpt>
      <trkpt lat="47.27652" lon="-2.4204">
        <ele>2.54</ele>
        <time>2017-03-29T15:22:46Z</time>
      </trkpt>
      <trkpt lat="47.27658" lon="-2.42028">
        <ele>2.06</ele>
        <time>2017-03-29T15:22:54Z</time>
      </trkpt>
      <trkpt lat="47.27664" lon="-2.42016">
        <ele>2.54</ele>
        <time>2017-03-29T15:23:02Z</time>
      </trkpt>
      <trkpt lat="47.27668" lon="-2.42004">
        <ele>2.06</ele>
        <time>2017-03-29T15:23:10Z</time>
      </trkpt>
      <trkpt lat="47.27674" lon="-2.41991">
        <ele>2.54</ele>
        <time>2017-03-29T15:23:19Z</time>
      </trkpt>
      <trkpt lat="47.27679" lon="-2.41977">
        <ele>2.54</ele>
        <time>2017-03-29T15:23:28Z</time>
      </trkpt>
      <trkpt lat="47.27684" lon="-2.41965">
        <ele>2.54</ele>
        <time>2017-03-29T15:23:36Z</time>
      </trkpt>
      <trkpt lat="47.2769" lon="-2.41953">
        <ele>2.54</ele>
        <time>2017-03-29T15:23:44Z</time>
      </trkpt>
      <trkpt lat="47.27695" lon="-2.41942">
        <ele>2.54</ele>
        <time>2017-03-29T15:23:52Z</time>
      </trkpt>
      <trkpt lat="47.27703" lon="-2.41932">
        <ele>3.02</ele>
        <time>2017-03-29T15:24:00Z</time>
      </trkpt>
      <trkpt lat="47.27706" lon="-2.41919">
        <ele>3.02</ele>
        <time>2017-03-29T15:24:08Z</time>
      </trkpt>
      <trkpt lat="47.27708" lon="-2.41906">
        <ele>2.54</ele>
        <time>2017-03-29T15:24:16Z</time>
      </trkpt>
      <trkpt lat="47.27711" lon="-2.41892">
        <ele>3.02</ele>
        <time>2017-03-29T15:24:24Z</time>
      </trkpt>
      <trkpt lat="47.27716" lon="-2.41878">
        <ele>3.02</ele>
        <time>2017-03-29T15:24:32Z</time>
      </trkpt>
      <trkpt lat="47.2772" lon="-2.41865">
        <ele>3.02</ele>
        <time>2017-03-29T15:24:40Z</time>
      </trkpt>
      <trkpt lat="47.27725" lon="-2.41853">
        <ele>3.02</ele>
        <time>2017-03-29T15:24:47Z</time>
      </trkpt>
      <trkpt lat="47.2773" lon="-2.41841">
        <ele>3.02</ele>
        <time>2017-03-29T15:24:55Z</time>
      </trkpt>
      <trkpt lat="47.27737" lon="-2.4183">
        <ele>3.02</ele>
        <time>2017-03-29T15:25:03Z</time>
      </trkpt>
      <trkpt lat="47.2774" lon="-2.41819">
        <ele>2.06</ele>
        <time>2017-03-29T15:25:22Z</time>
      </trkpt>
      <trkpt lat="47.27747" lon="-2.41807">
        <ele>3.02</ele>
        <time>2017-03-29T15:25:31Z</time>
      </trkpt>
      <trkpt lat="47.27752" lon="-2.41793">
        <ele>3.02</ele>
        <time>2017-03-29T15:25:39Z</time>
      </trkpt>
      <trkpt lat="47.27756" lon="-2.4178">
        <ele>3.02</ele>
        <time>2017-03-29T15:25:46Z</time>
      </trkpt>
      <trkpt lat="47.27761" lon="-2.41768">
        <ele>3.02</ele>
        <time>2017-03-29T15:25:54Z</time>
      </trkpt>
      <trkpt lat="47.27765" lon="-2.41754">
        <ele>3.5</ele>
        <time>2017-03-29T15:26:03Z</time>
      </trkpt>
      <trkpt lat="47.27771" lon="-2.41742">
        <ele>3.02</ele>
        <time>2017-03-29T15:26:11Z</time>
      </trkpt>
      <trkpt lat="47.27775" lon="-2.41729">
        <ele>3.02</ele>
        <time>2017-03-29T15:26:18Z</time>
      </trkpt>
      <trkpt lat="47.2778" lon="-2.41718">
        <ele>3.5</ele>
        <time>2017-03-29T15:26:25Z</time>
      </trkpt>
      <trkpt lat="47.27785" lon="-2.41706">
        <ele>3.5</ele>
        <time>2017-03-29T15:26:33Z</time>
      </trkpt>
      <trkpt lat="47.27792" lon="-2.41695">
        <ele>3.5</ele>
        <time>2017-03-29T15:26:42Z</time>
      </trkpt>
      <trkpt lat="47.27795" lon="-2.41679">
        <ele>3.5</ele>
        <time>2017-03-29T15:26:51Z</time>
      </trkpt>
      <trkpt lat="47.27801" lon="-2.41666">
        <ele>3.5</ele>
        <time>2017-03-29T15:26:59Z</time>
      </trkpt>
      <trkpt lat="47.27806" lon="-2.41653">
        <ele>3.5</ele>
        <time>2017-03-29T15:27:07Z</time>
      </trkpt>
      <trkpt lat="47.27812" lon="-2.41643">
        <ele>3.5</ele>
        <time>2017-03-29T15:27:15Z</time>
      </trkpt>
      <trkpt lat="47.27815" lon="-2.41629">
        <ele>3.5</ele>
        <time>2017-03-29T15:27:24Z</time>
      </trkpt>
      <trkpt lat="47.27819" lon="-2.41615">
        <ele>3.5</ele>
        <time>2017-03-29T15:27:32Z</time>
      </trkpt>
      <trkpt lat="47.27823" lon="-2.41601">
        <ele>3.5</ele>
        <time>2017-03-29T15:27:58Z</time>
      </trkpt>
      <trkpt lat="47.27828" lon="-2.4159">
        <ele>3.98</ele>
        <time>2017-03-29T15:28:06Z</time>
      </trkpt>
      <trkpt lat="47.27833" lon="-2.41577">
        <ele>3.5</ele>
        <time>2017-03-29T15:28:14Z</time>
      </trkpt>
      <trkpt lat="47.27838" lon="-2.41564">
        <ele>3.5</ele>
        <time>2017-03-29T15:28:22Z</time>
      </trkpt>
      <trkpt lat="47.27843" lon="-2.41551">
        <ele>3.5</ele>
        <time>2017-03-29T15:28:30Z</time>
      </trkpt>
      <trkpt lat="47.27848" lon="-2.41537">
        <ele>3.5</ele>
        <time>2017-03-29T15:28:38Z</time>
      </trkpt>
      <trkpt lat="47.27853" lon="-2.41524">
        <ele>3.5</ele>
        <time>2017-03-29T15:28:46Z</time>
      </trkpt>
      <trkpt lat="47.27857" lon="-2.41511">
        <ele>3.5</ele>
        <time>2017-03-29T15:28:54Z</time>
      </trkpt>
      <trkpt lat="47.27861" lon="-2.41498">
        <ele>3.5</ele>
        <time>2017-03-29T15:29:02Z</time>
      </trkpt>
      <trkpt lat="47.27867" lon="-2.41486">
        <ele>3.5</ele>
        <time>2017-03-29T15:29:10Z</time>
      </trkpt>
      <trkpt lat="47.27872" lon="-2.41472">
        <ele>3.98</ele>
        <time>2017-03-29T15:29:19Z</time>
      </trkpt>
      <trkpt lat="47.27876" lon="-2.41457">
        <ele>3.98</ele>
        <time>2017-03-29T15:29:30Z</time>
      </trkpt>
      <trkpt lat="47.2788" lon="-2.41441">
        <ele>3.98</ele>
        <time>2017-03-29T15:29:39Z</time>
      </trkpt>
      <trkpt lat="47.27883" lon="-2.41428">
        <ele>3.98</ele>
        <time>2017-03-29T15:29:47Z</time>
      </trkpt>
      <trkpt lat="47.27886" lon="-2.41415">
        <ele>3.5</ele>
        <time>2017-03-29T15:29:55Z</time>
      </trkpt>
      <trkpt lat="47.2789" lon="-2.41403">
        <ele>3.98</ele>
        <time>2017-03-29T15:30:03Z</time>
      </trkpt>
      <trkpt lat="47.27893" lon="-2.41388">
        <ele>3.98</ele>
        <time>2017-03-29T15:30:12Z</time>
      </trkpt>
      <trkpt lat="47.27897" lon="-2.41374">
        <ele>3.5</ele>
        <time>2017-03-29T15:30:21Z</time>
      </trkpt>
      <trkpt lat="47.27901" lon="-2.41362">
        <ele>3.98</ele>
        <time>2017-03-29T15:30:30Z</time>
      </trkpt>
      <trkpt lat="47.27904" lon="-2.41347">
        <ele>3.5</ele>
        <time>2017-03-29T15:30:39Z</time>
      </trkpt>
      <trkpt lat="47.27908" lon="-2.41334">
        <ele>3.5</ele>
        <time>2017-03-29T15:30:47Z</time>
      </trkpt>
      <trkpt lat="47.27912" lon="-2.41322">
        <ele>3.5</ele>
        <time>2017-03-29T15:30:56Z</time>
      </trkpt>
      <trkpt lat="47.27918" lon="-2.41308">
        <ele>3.5</ele>
        <time>2017-03-29T15:31:05Z</time>
      </trkpt>
      <trkpt lat="47.27922" lon="-2.41294">
        <ele>3.5</ele>
        <time>2017-03-29T15:31:14Z</time>
      </trkpt>
      <trkpt lat="47.27927" lon="-2.4128">
        <ele>3.98</ele>
        <time>2017-03-29T15:31:23Z</time>
      </trkpt>
      <trkpt lat="47.27931" lon="-2.41264">
        <ele>3.5</ele>
        <time>2017-03-29T15:31:32Z</time>
      </trkpt>
      <trkpt lat="47.27933" lon="-2.41252">
        <ele>3.98</ele>
        <time>2017-03-29T15:31:41Z</time>
      </trkpt>
      <trkpt lat="47.27935" lon="-2.41238">
        <ele>3.5</ele>
        <time>2017-03-29T15:31:49Z</time>
      </trkpt>
      <trkpt lat="47.27939" lon="-2.41224">
        <ele>3.5</ele>
        <time>2017-03-29T15:31:58Z</time>
      </trkpt>
      <trkpt lat="47.27943" lon="-2.41211">
        <ele>3.5</ele>
        <time>2017-03-29T15:32:06Z</time>
      </trkpt>
      <trkpt lat="47.27947" lon="-2.41198">
        <ele>3.5</ele>
        <time>2017-03-29T15:32:15Z</time>
      </trkpt>
      <trkpt lat="47.27951" lon="-2.41183">
        <ele>3.5</ele>
        <time>2017-03-29T15:32:23Z</time>
      </trkpt>
      <trkpt lat="47.27954" lon="-2.41171">
        <ele>3.5</ele>
        <time>2017-03-29T15:32:31Z</time>
      </trkpt>
      <trkpt lat="47.27957" lon="-2.41157">
        <ele>3.5</ele>
        <time>2017-03-29T15:32:39Z</time>
      </trkpt>
      <trkpt lat="47.2796" lon="-2.41142">
        <ele>3.5</ele>
        <time>2017-03-29T15:32:47Z</time>
      </trkpt>
      <trkpt lat="47.27961" lon="-2.41125">
        <ele>3.5</ele>
        <time>2017-03-29T15:32:56Z</time>
      </trkpt>
      <trkpt lat="47.27964" lon="-2.41111">
        <ele>3.5</ele>
        <time>2017-03-29T15:33:04Z</time>
      </trkpt>
      <trkpt lat="47.27967" lon="-2.41097">
        <ele>3.02</ele>
        <time>2017-03-29T15:33:11Z</time>
      </trkpt>
      <trkpt lat="47.27969" lon="-2.41083">
        <ele>3.5</ele>
        <time>2017-03-29T15:33:18Z</time>
      </trkpt>
      <trkpt lat="47.27972" lon="-2.41068">
        <ele>3.02</ele>
        <time>2017-03-29T15:33:25Z</time>
      </trkpt>
      <trkpt lat="47.27974" lon="-2.41054">
        <ele>3.5</ele>
        <time>2017-03-29T15:33:33Z</time>
      </trkpt>
      <trkpt lat="47.27977" lon="-2.4104">
        <ele>3.02</ele>
        <time>2017-03-29T15:33:40Z</time>
      </trkpt>
      <trkpt lat="47.27982" lon="-2.41027">
        <ele>3.02</ele>
        <time>2017-03-29T15:33:48Z</time>
      </trkpt>
      <trkpt lat="47.27987" lon="-2.41013">
        <ele>3.5</ele>
        <time>2017-03-29T15:33:56Z</time>
      </trkpt>
      <trkpt lat="47.27989" lon="-2.40996">
        <ele>3.5</ele>
        <time>2017-03-29T15:34:04Z</time>
      </trkpt>
      <trkpt lat="47.27992" lon="-2.40981">
        <ele>3.02</ele>
        <time>2017-03-29T15:34:13Z</time>
      </trkpt>
      <trkpt lat="47.27997" lon="-2.40967">
        <ele>2.54</ele>
        <time>2017-03-29T15:34:21Z</time>
      </trkpt>
      <trkpt lat="47.27999" lon="-2.40951">
        <ele>3.02</ele>
        <time>2017-03-29T15:34:30Z</time>
      </trkpt>
      <trkpt lat="47.28002" lon="-2.40936">
        <ele>3.02</ele>
        <time>2017-03-29T15:34:38Z</time>
      </trkpt>
      <trkpt lat="47.28005" lon="-2.40922">
        <ele>3.02</ele>
        <time>2017-03-29T15:34:47Z</time>
      </trkpt>
      <trkpt lat="47.28009" lon="-2.40906">
        <ele>3.5</ele>
        <time>2017-03-29T15:34:57Z</time>
      </trkpt>
      <trkpt lat="47.2801" lon="-2.40886">
        <ele>3.5</ele>
        <time>2017-03-29T15:35:05Z</time>
      </trkpt>
      <trkpt lat="47.28013" lon="-2.40873">
        <ele>3.5</ele>
        <time>2017-03-29T15:35:13Z</time>
      </trkpt>
      <trkpt lat="47.28017" lon="-2.40859">
        <ele>3.98</ele>
        <time>2017-03-29T15:35:21Z</time>
      </trkpt>
      <trkpt lat="47.28022" lon="-2.40843">
        <ele>3.5</ele>
        <time>2017-03-29T15:35:30Z</time>
      </trkpt>
      <trkpt lat="47.28024" lon="-2.40829">
        <ele>3.98</ele>
        <time>2017-03-29T15:35:38Z</time>
      </trkpt>
      <trkpt lat="47.28028" lon="-2.40812">
        <ele>3.5</ele>
        <time>2017-03-29T15:35:47Z</time>
      </trkpt>
      <trkpt lat="47.28031" lon="-2.40797">
        <ele>3.5</ele>
        <time>2017-03-29T15:35:55Z</time>
      </trkpt>
      <trkpt lat="47.28034" lon="-2.40783">
        <ele>3.98</ele>
        <time>2017-03-29T15:36:03Z</time>
      </trkpt>
      <trkpt lat="47.28037" lon="-2.40766">
        <ele>3.5</ele>
        <time>2017-03-29T15:36:13Z</time>
      </trkpt>
      <trkpt lat="47.2804" lon="-2.40749">
        <ele>3.5</ele>
        <time>2017-03-29T15:36:22Z</time>
      </trkpt>
      <trkpt lat="47.28042" lon="-2.40734">
        <ele>3.98</ele>
        <time>2017-03-29T15:36:31Z</time>
      </trkpt>
      <trkpt lat="47.28046" lon="-2.40719">
        <ele>3.98</ele>
        <time>2017-03-29T15:36:40Z</time>
      </trkpt>
      <trkpt lat="47.28046" lon="-2.40702">
        <ele>3.5</ele>
        <time>2017-03-29T15:36:50Z</time>
      </trkpt>
      <trkpt lat="47.28044" lon="-2.40686">
        <ele>3.98</ele>
        <time>2017-03-29T15:36:57Z</time>
      </trkpt>
      <trkpt lat="47.28044" lon="-2.4067">
        <ele>4.46</ele>
        <time>2017-03-29T15:37:05Z</time>
      </trkpt>
      <trkpt lat="47.28043" lon="-2.40656">
        <ele>3.98</ele>
        <time>2017-03-29T15:37:13Z</time>
      </trkpt>
      <trkpt lat="47.28039" lon="-2.40642">
        <ele>3.98</ele>
        <time>2017-03-29T15:37:21Z</time>
      </trkpt>
      <trkpt lat="47.28036" lon="-2.40628">
        <ele>3.98</ele>
        <time>2017-03-29T15:37:29Z</time>
      </trkpt>
      <trkpt lat="47.28037" lon="-2.40613">
        <ele>3.98</ele>
        <time>2017-03-29T15:37:37Z</time>
      </trkpt>
      <trkpt lat="47.2804" lon="-2.40599">
        <ele>3.98</ele>
        <time>2017-03-29T15:37:44Z</time>
      </trkpt>
      <trkpt lat="47.28043" lon="-2.40586">
        <ele>3.98</ele>
        <time>2017-03-29T15:37:51Z</time>
      </trkpt>
      <trkpt lat="47.28047" lon="-2.40573">
        <ele>3.98</ele>
        <time>2017-03-29T15:37:59Z</time>
      </trkpt>
      <trkpt lat="47.2805" lon="-2.40559">
        <ele>3.98</ele>
        <time>2017-03-29T15:38:07Z</time>
      </trkpt>
      <trkpt lat="47.28053" lon="-2.40544">
        <ele>3.98</ele>
        <time>2017-03-29T15:38:15Z</time>
      </trkpt>
      <trkpt lat="47.28055" lon="-2.4053">
        <ele>3.98</ele>
        <time>2017-03-29T15:38:22Z</time>
      </trkpt>
      <trkpt lat="47.28057" lon="-2.40517">
        <ele>3.98</ele>
        <time>2017-03-29T15:38:30Z</time>
      </trkpt>
      <trkpt lat="47.2806" lon="-2.40503">
        <ele>3.98</ele>
        <time>2017-03-29T15:38:37Z</time>
      </trkpt>
      <trkpt lat="47.28061" lon="-2.40489">
        <ele>3.98</ele>
        <time>2017-03-29T15:38:44Z</time>
      </trkpt>
      <trkpt lat="47.28065" lon="-2.40477">
        <ele>3.98</ele>
        <time>2017-03-29T15:38:51Z</time>
      </trkpt>
      <trkpt lat="47.28072" lon="-2.40466">
        <ele>3.98</ele>
        <time>2017-03-29T15:38:59Z</time>
      </trkpt>
      <trkpt lat="47.2808" lon="-2.40456">
        <ele>3.98</ele>
        <time>2017-03-29T15:39:07Z</time>
      </trkpt>
      <trkpt lat="47.28088" lon="-2.40447">
        <ele>3.98</ele>
        <time>2017-03-29T15:39:14Z</time>
      </trkpt>
      <trkpt lat="47.28095" lon="-2.40435">
        <ele>4.46</ele>
        <time>2017-03-29T15:39:21Z</time>
      </trkpt>
      <trkpt lat="47.281" lon="-2.40423">
        <ele>3.98</ele>
        <time>2017-03-29T15:39:28Z</time>
      </trkpt>
      <trkpt lat="47.28103" lon="-2.4041">
        <ele>3.98</ele>
        <time>2017-03-29T15:39:35Z</time>
      </trkpt>
      <trkpt lat="47.28106" lon="-2.40396">
        <ele>3.98</ele>
        <time>2017-03-29T15:39:42Z</time>
      </trkpt>
      <trkpt lat="47.28109" lon="-2.40381">
        <ele>3.98</ele>
        <time>2017-03-29T15:39:50Z</time>
      </trkpt>
      <trkpt lat="47.28111" lon="-2.40366">
        <ele>4.46</ele>
        <time>2017-03-29T15:39:57Z</time>
      </trkpt>
      <trkpt lat="47.28114" lon="-2.40351">
        <ele>3.98</ele>
        <time>2017-03-29T15:40:05Z</time>
      </trkpt>
      <trkpt lat="47.28119" lon="-2.40336">
        <ele>3.98</ele>
        <time>2017-03-29T15:40:13Z</time>
      </trkpt>
      <trkpt lat="47.28122" lon="-2.4032">
        <ele>3.98</ele>
        <time>2017-03-29T15:40:21Z</time>
      </trkpt>
      <trkpt lat="47.28125" lon="-2.40305">
        <ele>3.98</ele>
        <time>2017-03-29T15:40:29Z</time>
      </trkpt>
      <trkpt lat="47.28126" lon="-2.4029">
        <ele>3.98</ele>
        <time>2017-03-29T15:40:37Z</time>
      </trkpt>
      <trkpt lat="47.28128" lon="-2.40276">
        <ele>3.98</ele>
        <time>2017-03-29T15:40:44Z</time>
      </trkpt>
      <trkpt lat="47.28129" lon="-2.40264">
        <ele>4.46</ele>
        <time>2017-03-29T15:40:51Z</time>
      </trkpt>
      <trkpt lat="47.28128" lon="-2.4025">
        <ele>4.46</ele>
        <time>2017-03-29T15:40:58Z</time>
      </trkpt>
      <trkpt lat="47.2813" lon="-2.40235">
        <ele>3.98</ele>
        <time>2017-03-29T15:41:06Z</time>
      </trkpt>
      <trkpt lat="47.28133" lon="-2.4022">
        <ele>4.46</ele>
        <time>2017-03-29T15:41:14Z</time>
      </trkpt>
      <trkpt lat="47.28134" lon="-2.40206">
        <ele>3.98</ele>
        <time>2017-03-29T15:41:22Z</time>
      </trkpt>
      <trkpt lat="47.28137" lon="-2.4019">
        <ele>4.46</ele>
        <time>2017-03-29T15:41:30Z</time>
      </trkpt>
      <trkpt lat="47.2814" lon="-2.40175">
        <ele>4.46</ele>
        <time>2017-03-29T15:41:38Z</time>
      </trkpt>
      <trkpt lat="47.28141" lon="-2.4016">
        <ele>3.98</ele>
        <time>2017-03-29T15:41:46Z</time>
      </trkpt>
      <trkpt lat="47.28143" lon="-2.40141">
        <ele>4.46</ele>
        <time>2017-03-29T15:41:55Z</time>
      </trkpt>
      <trkpt lat="47.28144" lon="-2.40124">
        <ele>3.98</ele>
        <time>2017-03-29T15:42:02Z</time>
      </trkpt>
      <trkpt lat="47.28143" lon="-2.40108">
        <ele>4.46</ele>
        <time>2017-03-29T15:42:10Z</time>
      </trkpt>
      <trkpt lat="47.28144" lon="-2.40094">
        <ele>4.46</ele>
        <time>2017-03-29T15:42:18Z</time>
      </trkpt>
      <trkpt lat="47.28145" lon="-2.4008">
        <ele>4.46</ele>
        <time>2017-03-29T15:42:25Z</time>
      </trkpt>
      <trkpt lat="47.28145" lon="-2.40065">
        <ele>4.46</ele>
        <time>2017-03-29T15:42:33Z</time>
      </trkpt>
      <trkpt lat="47.28147" lon="-2.4005">
        <ele>4.46</ele>
        <time>2017-03-29T15:42:41Z</time>
      </trkpt>
      <trkpt lat="47.28149" lon="-2.40033">
        <ele>4.46</ele>
        <time>2017-03-29T15:42:49Z</time>
      </trkpt>
      <trkpt lat="47.28149" lon="-2.40018">
        <ele>4.94</ele>
        <time>2017-03-29T15:42:57Z</time>
      </trkpt>
      <trkpt lat="47.28151" lon="-2.40003">
        <ele>4.94</ele>
        <time>2017-03-29T15:43:04Z</time>
      </trkpt>
      <trkpt lat="47.28154" lon="-2.39987">
        <ele>4.46</ele>
        <time>2017-03-29T15:43:12Z</time>
      </trkpt>
      <trkpt lat="47.28157" lon="-2.39971">
        <ele>4.94</ele>
        <time>2017-03-29T15:43:20Z</time>
      </trkpt>
      <trkpt lat="47.28158" lon="-2.39954">
        <ele>4.94</ele>
        <time>2017-03-29T15:43:28Z</time>
      </trkpt>
      <trkpt lat="47.28158" lon="-2.39938">
        <ele>4.46</ele>
        <time>2017-03-29T15:43:36Z</time>
      </trkpt>
      <trkpt lat="47.28158" lon="-2.39922">
        <ele>4.46</ele>
        <time>2017-03-29T15:43:44Z</time>
      </trkpt>
      <trkpt lat="47.28158" lon="-2.39907">
        <ele>4.94</ele>
        <time>2017-03-29T15:43:51Z</time>
      </trkpt>
      <trkpt lat="47.28161" lon="-2.39893">
        <ele>4.94</ele>
        <time>2017-03-29T15:43:58Z</time>
      </trkpt>
      <trkpt lat="47.28162" lon="-2.39877">
        <ele>4.94</ele>
        <time>2017-03-29T15:44:05Z</time>
      </trkpt>
      <trkpt lat="47.28162" lon="-2.39862">
        <ele>4.94</ele>
        <time>2017-03-29T15:44:12Z</time>
      </trkpt>
      <trkpt lat="47.28164" lon="-2.39847">
        <ele>4.46</ele>
        <time>2017-03-29T15:44:20Z</time>
      </trkpt>
      <trkpt lat="47.28165" lon="-2.39833">
        <ele>4.94</ele>
        <time>2017-03-29T15:44:27Z</time>
      </trkpt>
      <trkpt lat="47.28166" lon="-2.39818">
        <ele>4.46</ele>
        <time>2017-03-29T15:44:35Z</time>
      </trkpt>
      <trkpt lat="47.28169" lon="-2.39804">
        <ele>4.94</ele>
        <time>2017-03-29T15:44:42Z</time>
      </trkpt>
      <trkpt lat="47.28169" lon="-2.39789">
        <ele>4.94</ele>
        <time>2017-03-29T15:44:49Z</time>
      </trkpt>
      <trkpt lat="47.2817" lon="-2.39773">
        <ele>4.94</ele>
        <time>2017-03-29T15:44:57Z</time>
      </trkpt>
      <trkpt lat="47.2817" lon="-2.39758">
        <ele>4.94</ele>
        <time>2017-03-29T15:45:04Z</time>
      </trkpt>
      <trkpt lat="47.28171" lon="-2.39744">
        <ele>4.94</ele>
        <time>2017-03-29T15:45:11Z</time>
      </trkpt>
      <trkpt lat="47.28173" lon="-2.39727">
        <ele>4.94</ele>
        <time>2017-03-29T15:45:18Z</time>
      </trkpt>
      <trkpt lat="47.28173" lon="-2.39712">
        <ele>4.94</ele>
        <time>2017-03-29T15:45:25Z</time>
      </trkpt>
      <trkpt lat="47.28171" lon="-2.39699">
        <ele>4.94</ele>
        <time>2017-03-29T15:45:32Z</time>
      </trkpt>
      <trkpt lat="47.28173" lon="-2.39685">
        <ele>4.94</ele>
        <time>2017-03-29T15:45:38Z</time>
      </trkpt>
      <trkpt lat="47.2817" lon="-2.39672">
        <ele>3.02</ele>
        <time>2017-03-29T15:45:45Z</time>
      </trkpt>
      <trkpt lat="47.28167" lon="-2.3966">
        <ele>6.87</ele>
        <time>2017-03-29T15:45:51Z</time>
      </trkpt>
      <trkpt lat="47.28168" lon="-2.39646">
        <ele>5.91</ele>
        <time>2017-03-29T15:45:58Z</time>
      </trkpt>
      <trkpt lat="47.28168" lon="-2.39631">
        <ele>3.02</ele>
        <time>2017-03-29T15:46:05Z</time>
      </trkpt>
      <trkpt lat="47.28169" lon="-2.39617">
        <ele>6.39</ele>
        <time>2017-03-29T15:46:12Z</time>
      </trkpt>
      <trkpt lat="47.2817" lon="-2.39603">
        <ele>3.5</ele>
        <time>2017-03-29T15:46:19Z</time>
      </trkpt>
      <trkpt lat="47.2817" lon="-2.39588">
        <ele>4.46</ele>
        <time>2017-03-29T15:46:26Z</time>
      </trkpt>
      <trkpt lat="47.28171" lon="-2.39575">
        <ele>5.91</ele>
        <time>2017-03-29T15:46:32Z</time>
      </trkpt>
      <trkpt lat="47.28172" lon="-2.3956">
        <ele>3.5</ele>
        <time>2017-03-29T15:46:40Z</time>
      </trkpt>
      <trkpt lat="47.28171" lon="-2.39544">
        <ele>5.91</ele>
        <time>2017-03-29T15:46:47Z</time>
      </trkpt>
      <trkpt lat="47.28171" lon="-2.39531">
        <ele>3.98</ele>
        <time>2017-03-29T15:46:53Z</time>
      </trkpt>
      <trkpt lat="47.28173" lon="-2.39516">
        <ele>6.39</ele>
        <time>2017-03-29T15:47:00Z</time>
      </trkpt>
      <trkpt lat="47.28172" lon="-2.39503">
        <ele>3.5</ele>
        <time>2017-03-29T15:47:07Z</time>
      </trkpt>
      <trkpt lat="47.28173" lon="-2.39488">
        <ele>7.35</ele>
        <time>2017-03-29T15:47:15Z</time>
      </trkpt>
      <trkpt lat="47.28179" lon="-2.39477">
        <ele>3.98</ele>
        <time>2017-03-29T15:47:22Z</time>
      </trkpt>
      <trkpt lat="47.28188" lon="-2.39475">
        <ele>4.46</ele>
        <time>2017-03-29T15:47:30Z</time>
      </trkpt>
      <trkpt lat="47.28195" lon="-2.39467">
        <ele>5.42</ele>
        <time>2017-03-29T15:47:37Z</time>
      </trkpt>
      <trkpt lat="47.28205" lon="-2.39464">
        <ele>5.42</ele>
        <time>2017-03-29T15:47:45Z</time>
      </trkpt>
      <trkpt lat="47.28216" lon="-2.39462">
        <ele>4.94</ele>
        <time>2017-03-29T15:47:54Z</time>
      </trkpt>
      <trkpt lat="47.28228" lon="-2.39464">
        <ele>4.94</ele>
        <time>2017-03-29T15:48:02Z</time>
      </trkpt>
      <trkpt lat="47.2824" lon="-2.39462">
        <ele>4.94</ele>
        <time>2017-03-29T15:48:10Z</time>
      </trkpt>
      <trkpt lat="47.2825" lon="-2.39456">
        <ele>3.98</ele>
        <time>2017-03-29T15:48:18Z</time>
      </trkpt>
      <trkpt lat="47.28257" lon="-2.39447">
        <ele>3.98</ele>
        <time>2017-03-29T15:48:30Z</time>
      </trkpt>
      <trkpt lat="47.28268" lon="-2.3943">
        <ele>2.54</ele>
        <time>2017-03-29T15:48:38Z</time>
      </trkpt>
      <trkpt lat="47.28269" lon="-2.39414">
        <ele>1.58</ele>
        <time>2017-03-29T15:48:46Z</time>
      </trkpt>
      <trkpt lat="47.2827" lon="-2.39397">
        <ele>2.06</ele>
        <time>2017-03-29T15:48:54Z</time>
      </trkpt>
      <trkpt lat="47.28268" lon="-2.39381">
        <ele>2.06</ele>
        <time>2017-03-29T15:49:01Z</time>
      </trkpt>
      <trkpt lat="47.28266" lon="-2.39364">
        <ele>1.58</ele>
        <time>2017-03-29T15:49:09Z</time>
      </trkpt>
      <trkpt lat="47.28266" lon="-2.39346">
        <ele>2.06</ele>
        <time>2017-03-29T15:49:17Z</time>
      </trkpt>
      <trkpt lat="47.28265" lon="-2.39325">
        <ele>2.06</ele>
        <time>2017-03-29T15:49:29Z</time>
      </trkpt>
      <trkpt lat="47.28265" lon="-2.39307">
        <ele>2.06</ele>
        <time>2017-03-29T15:49:39Z</time>
      </trkpt>
      <trkpt lat="47.28266" lon="-2.39289">
        <ele>2.54</ele>
        <time>2017-03-29T15:49:48Z</time>
      </trkpt>
      <trkpt lat="47.28268" lon="-2.39272">
        <ele>3.5</ele>
        <time>2017-03-29T15:49:58Z</time>
      </trkpt>
      <trkpt lat="47.28269" lon="-2.39254">
        <ele>4.46</ele>
        <time>2017-03-29T15:50:09Z</time>
      </trkpt>
      <trkpt lat="47.28274" lon="-2.39232">
        <ele>3.98</ele>
        <time>2017-03-29T15:50:19Z</time>
      </trkpt>
      <trkpt lat="47.28284" lon="-2.39224">
        <ele>3.98</ele>
        <time>2017-03-29T15:50:31Z</time>
      </trkpt>
      <trkpt lat="47.28298" lon="-2.3922">
        <ele>4.46</ele>
        <time>2017-03-29T15:50:43Z</time>
      </trkpt>
      <trkpt lat="47.28311" lon="-2.39214">
        <ele>4.46</ele>
        <time>2017-03-29T15:50:54Z</time>
      </trkpt>
      <trkpt lat="47.28328" lon="-2.39214">
        <ele>5.42</ele>
        <time>2017-03-29T15:51:07Z</time>
      </trkpt>
      <trkpt lat="47.28343" lon="-2.39213">
        <ele>5.91</ele>
        <time>2017-03-29T15:51:17Z</time>
      </trkpt>
      <trkpt lat="47.28356" lon="-2.3921">
        <ele>5.91</ele>
        <time>2017-03-29T15:51:25Z</time>
      </trkpt>
      <trkpt lat="47.2837" lon="-2.39206">
        <ele>4.94</ele>
        <time>2017-03-29T15:51:36Z</time>
      </trkpt>
      <trkpt lat="47.28384" lon="-2.39202">
        <ele>5.42</ele>
        <time>2017-03-29T15:51:47Z</time>
      </trkpt>
      <trkpt lat="47.28396" lon="-2.39199">
        <ele>5.42</ele>
        <time>2017-03-29T15:51:57Z</time>
      </trkpt>
      <trkpt lat="47.28414" lon="-2.39203">
        <ele>4.94</ele>
        <time>2017-03-29T15:52:07Z</time>
      </trkpt>
      <trkpt lat="47.28424" lon="-2.39198">
        <ele>4.94</ele>
        <time>2017-03-29T15:52:16Z</time>
      </trkpt>
      <trkpt lat="47.28439" lon="-2.3919">
        <ele>4.94</ele>
        <time>2017-03-29T15:52:28Z</time>
      </trkpt>
      <trkpt lat="47.28455" lon="-2.39188">
        <ele>4.46</ele>
        <time>2017-03-29T15:52:39Z</time>
      </trkpt>
      <trkpt lat="47.28467" lon="-2.39185">
        <ele>4.94</ele>
        <time>2017-03-29T15:52:48Z</time>
      </trkpt>
      <trkpt lat="47.28484" lon="-2.39184">
        <ele>5.42</ele>
        <time>2017-03-29T15:53:00Z</time>
      </trkpt>
      <trkpt lat="47.28498" lon="-2.39181">
        <ele>5.42</ele>
        <time>2017-03-29T15:53:12Z</time>
      </trkpt>
      <trkpt lat="47.28511" lon="-2.3918">
        <ele>4.94</ele>
        <time>2017-03-29T15:53:20Z</time>
      </trkpt>
      <trkpt lat="47.28524" lon="-2.39177">
        <ele>5.42</ele>
        <time>2017-03-29T15:53:30Z</time>
      </trkpt>
      <trkpt lat="47.2854" lon="-2.39176">
        <ele>5.91</ele>
        <time>2017-03-29T15:53:41Z</time>
      </trkpt>
      <trkpt lat="47.28555" lon="-2.3918">
        <ele>4.94</ele>
        <time>2017-03-29T15:53:51Z</time>
      </trkpt>
      <trkpt lat="47.28566" lon="-2.39178">
        <ele>5.91</ele>
        <time>2017-03-29T15:54:00Z</time>
      </trkpt>
      <trkpt lat="47.28579" lon="-2.39172">
        <ele>5.42</ele>
        <time>2017-03-29T15:54:14Z</time>
      </trkpt>
      <trkpt lat="47.28591" lon="-2.39166">
        <ele>6.39</ele>
        <time>2017-03-29T15:54:23Z</time>
      </trkpt>
      <trkpt lat="47.28603" lon="-2.39163">
        <ele>6.39</ele>
        <time>2017-03-29T15:54:33Z</time>
      </trkpt>
      <trkpt lat="47.2862" lon="-2.39159">
        <ele>5.91</ele>
        <time>2017-03-29T15:54:45Z</time>
      </trkpt>
      <trkpt lat="47.28637" lon="-2.39156">
        <ele>6.39</ele>
        <time>2017-03-29T15:54:54Z</time>
      </trkpt>
      <trkpt lat="47.28654" lon="-2.39157">
        <ele>6.39</ele>
        <time>2017-03-29T15:55:06Z</time>
      </trkpt>
      <trkpt lat="47.28666" lon="-2.39155">
        <ele>6.39</ele>
        <time>2017-03-29T15:55:15Z</time>
      </trkpt>
      <trkpt lat="47.28679" lon="-2.39166">
        <ele>6.39</ele>
        <time>2017-03-29T15:55:23Z</time>
      </trkpt>
      <trkpt lat="47.28688" lon="-2.39166">
        <ele>6.87</ele>
        <time>2017-03-29T15:55:31Z</time>
      </trkpt>
      <trkpt lat="47.28694" lon="-2.39153">
        <ele>6.39</ele>
        <time>2017-03-29T15:55:39Z</time>
      </trkpt>
      <trkpt lat="47.28701" lon="-2.39149">
        <ele>6.87</ele>
        <time>2017-03-29T15:55:48Z</time>
      </trkpt>
      <trkpt lat="47.2871" lon="-2.39161">
        <ele>6.87</ele>
        <time>2017-03-29T15:55:55Z</time>
      </trkpt>
      <trkpt lat="47.28717" lon="-2.39171">
        <ele>6.87</ele>
        <time>2017-03-29T15:56:02Z</time>
      </trkpt>
      <trkpt lat="47.28725" lon="-2.3918">
        <ele>7.35</ele>
        <time>2017-03-29T15:56:09Z</time>
      </trkpt>
      <trkpt lat="47.28734" lon="-2.39189">
        <ele>7.35</ele>
        <time>2017-03-29T15:56:19Z</time>
      </trkpt>
      <trkpt lat="47.28743" lon="-2.39197">
        <ele>7.35</ele>
        <time>2017-03-29T15:56:27Z</time>
      </trkpt>
      <trkpt lat="47.28752" lon="-2.39208">
        <ele>7.35</ele>
        <time>2017-03-29T15:56:36Z</time>
      </trkpt>
      <trkpt lat="47.28759" lon="-2.39222">
        <ele>7.83</ele>
        <time>2017-03-29T15:56:44Z</time>
      </trkpt>
      <trkpt lat="47.28766" lon="-2.39235">
        <ele>7.83</ele>
        <time>2017-03-29T15:56:52Z</time>
      </trkpt>
      <trkpt lat="47.28773" lon="-2.39242">
        <ele>7.35</ele>
        <time>2017-03-29T15:56:59Z</time>
      </trkpt>
      <trkpt lat="47.2878" lon="-2.39234">
        <ele>7.83</ele>
        <time>2017-03-29T15:57:06Z</time>
      </trkpt>
      <trkpt lat="47.28786" lon="-2.39221">
        <ele>7.83</ele>
        <time>2017-03-29T15:57:14Z</time>
      </trkpt>
      <trkpt lat="47.28789" lon="-2.39208">
        <ele>7.35</ele>
        <time>2017-03-29T15:57:22Z</time>
      </trkpt>
      <trkpt lat="47.28792" lon="-2.39194">
        <ele>7.83</ele>
        <time>2017-03-29T15:57:29Z</time>
      </trkpt>
      <trkpt lat="47.28796" lon="-2.3918">
        <ele>7.35</ele>
        <time>2017-03-29T15:57:36Z</time>
      </trkpt>
      <trkpt lat="47.288" lon="-2.39166">
        <ele>6.87</ele>
        <time>2017-03-29T15:57:44Z</time>
      </trkpt>
      <trkpt lat="47.28808" lon="-2.39157">
        <ele>6.87</ele>
        <time>2017-03-29T15:57:51Z</time>
      </trkpt>
      <trkpt lat="47.28816" lon="-2.39159">
        <ele>7.35</ele>
        <time>2017-03-29T15:57:59Z</time>
      </trkpt>
      <trkpt lat="47.28827" lon="-2.3916">
        <ele>6.87</ele>
        <time>2017-03-29T15:58:08Z</time>
      </trkpt>
      <trkpt lat="47.28837" lon="-2.3915">
        <ele>6.87</ele>
        <time>2017-03-29T15:58:17Z</time>
      </trkpt>
      <trkpt lat="47.28845" lon="-2.39139">
        <ele>6.87</ele>
        <time>2017-03-29T15:58:27Z</time>
      </trkpt>
      <trkpt lat="47.28847" lon="-2.39124">
        <ele>6.39</ele>
        <time>2017-03-29T15:58:35Z</time>
      </trkpt>
      <trkpt lat="47.28851" lon="-2.39115">
        <ele>6.87</ele>
        <time>2017-03-29T15:58:45Z</time>
      </trkpt>
      <trkpt lat="47.28855" lon="-2.39103">
        <ele>6.87</ele>
        <time>2017-03-29T15:59:29Z</time>
      </trkpt>
      <trkpt lat="47.28855" lon="-2.39085">
        <ele>7.35</ele>
        <time>2017-03-29T15:59:38Z</time>
      </trkpt>
      <trkpt lat="47.28853" lon="-2.39068">
        <ele>6.87</ele>
        <time>2017-03-29T15:59:47Z</time>
      </trkpt>
      <trkpt lat="47.28853" lon="-2.39054">
        <ele>7.35</ele>
        <time>2017-03-29T15:59:54Z</time>
      </trkpt>
      <trkpt lat="47.2885" lon="-2.39038">
        <ele>6.39</ele>
        <time>2017-03-29T16:00:03Z</time>
      </trkpt>
      <trkpt lat="47.28851" lon="-2.39018">
        <ele>6.87</ele>
        <time>2017-03-29T16:00:15Z</time>
      </trkpt>
      <trkpt lat="47.28851" lon="-2.39001">
        <ele>6.87</ele>
        <time>2017-03-29T16:00:23Z</time>
      </trkpt>
      <trkpt lat="47.28852" lon="-2.38983">
        <ele>6.39</ele>
        <time>2017-03-29T16:00:33Z</time>
      </trkpt>
      <trkpt lat="47.28858" lon="-2.38971">
        <ele>6.87</ele>
        <time>2017-03-29T16:00:41Z</time>
      </trkpt>
      <trkpt lat="47.28859" lon="-2.38954">
        <ele>7.35</ele>
        <time>2017-03-29T16:00:50Z</time>
      </trkpt>
      <trkpt lat="47.28856" lon="-2.38942">
        <ele>7.35</ele>
        <time>2017-03-29T16:01:00Z</time>
      </trkpt>
      <trkpt lat="47.28858" lon="-2.38927">
        <ele>6.87</ele>
        <time>2017-03-29T16:01:09Z</time>
      </trkpt>
      <trkpt lat="47.28856" lon="-2.3891">
        <ele>7.35</ele>
        <time>2017-03-29T16:01:17Z</time>
      </trkpt>
      <trkpt lat="47.28858" lon="-2.38893">
        <ele>6.87</ele>
        <time>2017-03-29T16:01:26Z</time>
      </trkpt>
      <trkpt lat="47.28862" lon="-2.38889">
        <ele>6.87</ele>
        <time>2017-03-29T16:02:08Z</time>
      </trkpt>
      <trkpt lat="47.28863" lon="-2.38903">
        <ele>7.35</ele>
        <time>2017-03-29T16:02:14Z</time>
      </trkpt>
      <trkpt lat="47.28867" lon="-2.38915">
        <ele>6.87</ele>
        <time>2017-03-29T16:02:21Z</time>
      </trkpt>
      <trkpt lat="47.28868" lon="-2.38912">
        <ele>6.87</ele>
        <time>2017-03-29T16:02:42Z</time>
      </trkpt>
      <trkpt lat="47.28866" lon="-2.389">
        <ele>7.35</ele>
        <time>2017-03-29T16:02:58Z</time>
      </trkpt>
      <trkpt lat="47.28865" lon="-2.38887">
        <ele>7.35</ele>
        <time>2017-03-29T16:03:09Z</time>
      </trkpt>
      <trkpt lat="47.28855" lon="-2.38907">
        <ele>4.46</ele>
        <time>2017-03-29T16:03:30Z</time>
      </trkpt>
    </trkseg>
  </trk>
</gpx>